# Wetter Temperatur Luftdruck Luftfeuchtigkeit Sichtweite Windgeschwindigkeit Windrichtung Zeit
1 Clouds 17 1020 59 10000 1.54 0 13:22 22.04.2021
2 Clouds 17 1020 63 10000 1.03 0 12:51 22.04.2021
3 Clouds 16 1020 72 10000 2.57 170 12:30 22.04.2021
4 Clouds 16 1020 72 10000 2.06 0 11:50 22.04.2021
5 Clear 15 1020 72 10000 1.54 160 11:26 22.04.2021
6 Clear 14 1020 72 10000 2.06 160 10:47 22.04.2021
7 Clear 14 1020 71 10000 2.06 110 10:29 22.04.2021
8 Clear 14 1019 71 10000 0.83 183 09:58 22.04.2021
9 Clear 13 1019 73 10000 0.83 183 09:33 22.04.2021
10 Clear 11 1019 76 10000 2.57 80 08:47 22.04.2021
11 Clear 10 1019 76 10000 2.06 60 08:23 22.04.2021
12 Fog 9 1019 100 10000 1.03 0 07:47 22.04.2021
13 Clouds 8 1019 100 10000 0.51 0 07:29 22.04.2021
14 Mist 9 1018 93 3800 0.51 0 06:41 22.04.2021
15 Mist 9 1018 93 5000 1.03 210 05:53 22.04.2021
16 Clouds 9 1018 93 10000 0.51 100 05:20 22.04.2021
17 Clouds 11 1018 87 10000 2.06 10 01:41 22.04.2021
18 Rain 12 1018 87 10000 0.51 0 23:54 21.04.2021
19 Rain 12 1018 87 10000 0.51 0 23:35 21.04.2021
20 Rain 12 1019 93 10000 0.51 0 22:45 21.04.2021
21 Rain 12 1018 87 10000 3.09 260 22:25 21.04.2021
22 Rain 12 1018 82 10000 3.09 260 21:57 21.04.2021
23 Rain 12 1018 82 10000 3.09 260 21:38 21.04.2021
24 Rain 12 1018 87 10000 4.63 210 21:18 21.04.2021
25 Rain 13 1017 76 10000 5.66 200 20:23 21.04.2021
26 Rain 14 1017 55 10000 2.06 0 19:45 21.04.2021
27 Rain 15 1016 45 10000 3.6 330 19:26 21.04.2021
28 Clouds 16 1016 42 10000 2.57 270 18:50 21.04.2021
29 Clouds 17 1016 42 10000 2.57 250 18:31 21.04.2021
30 Clouds 18 1016 42 10000 2.06 0 17:50 21.04.2021
31 Clouds 18 1016 42 10000 3.09 210 17:25 21.04.2021
32 Clouds 18 1016 45 10000 3.09 200 16:57 21.04.2021
33 Clouds 17 1016 42 10000 3.6 280 16:30 21.04.2021
34 Clouds 18 1017 45 10000 2.57 0 15:42 21.04.2021
35 Clouds 18 1017 45 10000 2.57 0 15:42 21.04.2021
36 Clouds 17 1017 42 10000 3.09 0 15:18 21.04.2021
37 Clear 17 1017 45 10000 1.54 0 14:44 21.04.2021
38 Clouds 17 1017 48 10000 3.6 200 14:23 21.04.2021
39 Clouds 17 1017 48 10000 2.57 250 13:45 21.04.2021
40 Clouds 17 1017 45 10000 1.54 250 13:21 21.04.2021
41 Clouds 16 1018 51 10000 2.57 0 12:32 21.04.2021
42 Clouds 16 1018 51 10000 2.57 0 12:32 21.04.2021
43 Clouds 16 1018 51 10000 3.09 270 11:51 21.04.2021
44 Clouds 15 1018 55 10000 3.09 230 11:32 21.04.2021
45 Clear 15 1018 55 10000 2.06 280 10:57 21.04.2021
46 Clear 15 1018 55 10000 2.06 280 10:36 21.04.2021
47 Clear 13 1018 54 10000 2.06 250 09:54 21.04.2021
48 Clear 13 1018 62 10000 0.51 0 09:19 21.04.2021
49 Clear 11 1017 81 10000 1.03 0 08:41 21.04.2021
50 Clear 11 1017 81 10000 1.03 0 08:20 21.04.2021
51 Clear 9 1017 87 10000 0.51 0 07:32 21.04.2021
52 Clear 9 1016 81 10000 0.51 0 06:57 21.04.2021
53 Clear 9 1016 81 10000 0.51 0 06:57 21.04.2021
54 Clear 10 1016 71 10000 2.06 290 05:26 21.04.2021
55 Clouds 12 1016 58 10000 2.57 310 01:33 21.04.2021
56 Clouds 12 1015 58 10000 3.09 270 23:51 20.04.2021
57 Clear 12 1015 65 10000 2.11 289 23:31 20.04.2021
58 Clouds 13 1015 51 10000 2.57 250 22:41 20.04.2021
59 Clear 14 1015 59 10000 2.39 255 22:22 20.04.2021
60 Rain 15 1014 41 10000 5.66 270 21:47 20.04.2021
61 Rain 15 1014 39 10000 4.12 310 21:26 20.04.2021
62 Rain 16 1013 36 10000 2.06 210 20:44 20.04.2021
63 Rain 17 1013 36 10000 2.06 220 20:24 20.04.2021
64 Clouds 17 1013 32 10000 2.57 220 19:55 20.04.2021
65 Clouds 18 1013 32 10000 2.57 220 19:37 20.04.2021
66 Clouds 19 1013 36 10000 2.06 200 19:18 20.04.2021
67 Clouds 19 1013 28 10000 1.54 0 18:35 20.04.2021
68 Clouds 19 1013 28 10000 1.54 0 18:35 20.04.2021
69 Clouds 19 1013 30 10000 1.54 0 17:46 20.04.2021
70 Clouds 20 1013 32 10000 2.57 230 17:27 20.04.2021
71 Clouds 20 1013 28 10000 3.09 260 16:48 20.04.2021
72 Clouds 19 1013 37 10000 2.06 200 15:53 20.04.2021
73 Clouds 19 1013 36 10000 2.06 0 15:29 20.04.2021
74 Clear 19 1014 37 10000 2.57 0 14:57 20.04.2021
75 Clear 18 1014 36 10000 2.57 260 14:33 20.04.2021
76 Clear 18 1014 36 10000 2.06 230 13:48 20.04.2021
77 Clear 18 1014 45 10000 3.09 210 13:22 20.04.2021
78 Clear 17 1015 48 10000 2.06 0 12:41 20.04.2021
79 Clear 16 1015 51 10000 2.06 220 12:20 20.04.2021
80 Clear 16 1015 51 10000 2.06 220 12:20 20.04.2021
81 Clear 15 1015 47 10000 2.57 240 11:42 20.04.2021
82 Clear 14 1015 51 10000 1.03 0 11:21 20.04.2021
83 Clear 14 1015 51 10000 1.03 0 10:43 20.04.2021
84 Clear 13 1015 58 10000 0.51 0 10:23 20.04.2021
85 Clear 12 1015 62 10000 1.03 0 09:28 20.04.2021
86 Clear 11 1015 71 10000 0.51 0 08:55 20.04.2021
87 Clear 10 1015 81 10000 1.03 0 08:20 20.04.2021
88 Clear 8 1015 87 10000 0.51 0 07:40 20.04.2021
89 Clear 8 1015 87 10000 0.51 0 07:40 20.04.2021
90 Clear 8 1015 87 10000 0.51 0 07:40 20.04.2021
91 Clear 8 1015 81 10000 1.03 30 06:37 20.04.2021
92 Clear 8 1015 87 10000 0.51 210 05:38 20.04.2021
93 Clear 9 1015 87 10000 0.51 0 04:41 20.04.2021
94 Clear 11 1015 76 10000 1.03 0 00:53 20.04.2021
95 Clear 11 1015 76 10000 1.03 20 00:28 20.04.2021
96 Clear 11 1015 66 10000 1.03 0 23:36 19.04.2021
97 Clear 12 1015 62 10000 1.03 180 22:56 19.04.2021
98 Clear 13 1015 54 10000 1.03 0 22:30 19.04.2021
99 Clear 13 1015 54 10000 1.03 0 22:30 19.04.2021
100 Clear 14 1014 54 10000 1.03 170 21:47 19.04.2021
101 Clear 14 1014 50 10000 1.03 170 21:27 19.04.2021
102 Clear 15 1014 47 10000 1.54 160 20:43 19.04.2021
103 Clear 15 1014 44 10000 2.57 160 20:22 19.04.2021
104 Clear 15 1014 44 10000 2.06 160 19:54 19.04.2021
105 Clear 15 1014 44 10000 2.06 160 19:36 19.04.2021
106 Clear 16 1013 41 10000 2.57 190 19:18 19.04.2021
107 Clear 16 1013 41 10000 2.57 180 18:44 19.04.2021
108 Clear 17 1013 44 10000 2.57 180 18:21 19.04.2021
109 Clouds 16 1014 41 10000 1.03 0 17:46 19.04.2021
110 Clouds 16 1014 39 10000 2.06 150 17:26 19.04.2021
111 Clouds 17 1014 41 10000 3.09 150 16:45 19.04.2021
112 Clouds 17 1014 47 10000 1.54 0 16:26 19.04.2021
113 Clouds 16 1015 44 10000 3.09 140 15:44 19.04.2021
114 Clouds 17 1015 41 10000 2.06 0 15:24 19.04.2021
115 Clouds 16 1015 39 10000 1.03 0 14:52 19.04.2021
116 Clouds 16 1015 44 10000 2.57 190 14:31 19.04.2021
117 Clouds 16 1016 44 10000 1.03 0 13:52 19.04.2021
118 Clouds 15 1016 47 10000 1.54 0 13:28 19.04.2021
119 Clouds 15 1016 51 10000 2.06 170 12:48 19.04.2021
120 Clouds 15 1016 51 10000 2.06 170 12:48 19.04.2021
121 Clouds 14 1016 51 10000 2.57 210 12:27 19.04.2021
122 Clouds 14 1017 51 10000 1.03 0 11:59 19.04.2021
123 Clouds 13 1017 58 10000 0.51 0 11:27 19.04.2021
124 Clear 13 1017 62 10000 1.03 0 10:55 19.04.2021
125 Clear 12 1017 66 10000 1.54 80 10:36 19.04.2021
126 Clear 12 1017 66 10000 1.54 80 10:36 19.04.2021
127 Clear 12 1017 66 10000 1.54 80 10:18 19.04.2021
128 Clear 12 1017 66 10000 1.54 80 10:18 19.04.2021
129 Clear 12 1017 66 10000 1.54 80 10:18 19.04.2021
130 Clear 11 1017 71 10000 1.03 0 09:38 19.04.2021
131 Clear 10 1017 71 10000 1.03 0 09:20 19.04.2021
132 Clear 9 1017 76 10000 1.54 40 08:32 19.04.2021
133 Clouds 8 1016 87 10000 1.54 30 07:49 19.04.2021
134 Clouds 8 1016 87 10000 1.03 0 07:21 19.04.2021
135 Clouds 8 1016 93 10000 1.03 10 06:44 19.04.2021
136 Clouds 9 1017 87 10000 1.46 70 02:38 19.04.2021
137 Clouds 10 1017 81 10000 0.51 0 01:40 19.04.2021
138 Clouds 10 1017 71 10000 0.51 0 00:33 19.04.2021
139 Clouds 10 1017 66 10000 1.54 60 23:19 18.04.2021
140 Rain 10 1017 66 10000 2.06 80 22:53 18.04.2021
141 Rain 10 1017 66 10000 2.57 80 22:31 18.04.2021
142 Clouds 11 1017 71 10000 2.06 60 21:45 18.04.2021
143 Clouds 12 1016 71 10000 2.57 80 21:23 18.04.2021
144 Clouds 12 1016 66 10000 3.09 90 20:41 18.04.2021
145 Clouds 12 1016 62 10000 3.09 90 20:21 18.04.2021
146 Clouds 12 1016 58 10000 3.09 90 19:56 18.04.2021
147 Rain 12 1016 58 10000 3.09 90 19:35 18.04.2021
148 Rain 13 1016 62 10000 3.6 80 18:56 18.04.2021
149 Rain 13 1016 58 10000 4.12 70 18:31 18.04.2021
150 Rain 13 1016 54 10000 5.66 50 17:59 18.04.2021
151 Rain 13 1016 58 10000 6.69 40 17:41 18.04.2021
152 Rain 13 1016 58 10000 6.69 40 17:23 18.04.2021
153 Clouds 12 1016 58 10000 7.2 50 16:41 18.04.2021
154 Clouds 13 1015 41 10000 3.09 100 16:18 18.04.2021
155 Clouds 14 1015 41 10000 2.57 130 15:39 18.04.2021
156 Clouds 14 1015 47 10000 3.09 150 15:20 18.04.2021
157 Clouds 14 1016 47 10000 2.57 160 14:42 18.04.2021
158 Clouds 14 1016 50 10000 3.6 160 14:19 18.04.2021
159 Clouds 13 1016 51 10000 3.09 160 13:53 18.04.2021
160 Clouds 13 1015 54 10000 2.39 101 13:30 18.04.2021
161 Clouds 13 1016 54 10000 4.12 160 12:43 18.04.2021
162 Clouds 13 1017 54 10000 3.09 140 12:20 18.04.2021
163 Clouds 12 1016 58 10000 2.57 140 11:41 18.04.2021
164 Clouds 12 1016 54 10000 2.06 140 11:20 18.04.2021
165 Clouds 11 1016 58 10000 1.54 130 10:45 18.04.2021
166 Clouds 11 1016 58 10000 1.54 120 10:19 18.04.2021
167 Clouds 11 1016 58 10000 1.54 110 09:41 18.04.2021
168 Clouds 11 1016 66 10000 1.54 70 09:23 18.04.2021
169 Clouds 10 1016 66 10000 1.54 50 08:47 18.04.2021
170 Clouds 10 1016 71 10000 1.03 50 08:28 18.04.2021
171 Clouds 9 1016 71 10000 0.51 0 07:41 18.04.2021
172 Clouds 8 1015 71 10000 0.51 0 06:56 18.04.2021
173 Clouds 8 1015 66 10000 1.54 60 05:27 18.04.2021
174 Clouds 7 1015 66 10000 1.54 80 04:44 18.04.2021
175 Rain 9 1016 76 10000 0.51 0 02:23 18.04.2021
176 Clouds 9 1016 76 10000 1.54 20 00:58 18.04.2021
177 Clouds 9 1015 76 10000 1.03 60 23:57 17.04.2021
178 Clear 10 1015 71 10000 0.51 330 23:24 17.04.2021
179 Clear 10 1015 57 10000 1.03 130 22:44 17.04.2021
180 Clear 11 1015 54 10000 2.06 150 22:22 17.04.2021
181 Clear 11 1015 57 10000 2.06 150 21:43 17.04.2021
182 Clear 12 1014 50 10000 2.06 140 21:22 17.04.2021
183 Clear 12 1014 50 10000 2.57 140 20:37 17.04.2021
184 Clear 13 1014 47 10000 3.09 150 20:19 17.04.2021
185 Clear 14 1014 50 10000 3.09 150 19:39 17.04.2021
186 Clear 14 1014 44 10000 4.12 120 19:19 17.04.2021
187 Clouds 15 1014 44 10000 4.12 140 18:46 17.04.2021
188 Clouds 14 1014 47 10000 3.6 160 18:21 17.04.2021
189 Clouds 15 1014 41 10000 4.12 120 17:41 17.04.2021
190 Clouds 15 1014 41 10000 3.09 110 16:56 17.04.2021
191 Clouds 15 1014 41 10000 2.06 0 16:34 17.04.2021
192 Clouds 15 1015 41 10000 2.06 130 15:58 17.04.2021
193 Clear 14 1015 44 10000 2.57 190 14:51 17.04.2021
194 Clear 14 1015 44 10000 2.57 190 14:51 17.04.2021
195 Clear 14 1015 47 10000 3.09 150 14:33 17.04.2021
196 Clear 14 1015 47 10000 2.06 0 13:59 17.04.2021
197 Clear 14 1015 47 10000 2.06 0 13:40 17.04.2021
198 Clear 13 1016 47 10000 3.09 140 12:42 17.04.2021
199 Clear 13 1016 47 10000 3.6 150 12:22 17.04.2021
200 Clear 12 1017 50 10000 3.6 130 11:50 17.04.2021
201 Clear 12 1017 54 10000 2.57 120 11:31 17.04.2021
202 Clear 11 1017 62 10000 2.57 90 10:47 17.04.2021
203 Clear 11 1017 57 10000 3.09 100 10:29 17.04.2021
204 Clear 9 1017 61 10000 2.57 120 09:44 17.04.2021
205 Clear 8 1017 87 10000 0.51 0 08:42 17.04.2021
206 Clouds 7 1019 37 10000 0.89 217 08:24 17.04.2021
207 Clear 5 1017 93 10000 1.03 20 07:20 17.04.2021
208 Clear 6 1018 93 10000 0.51 0 03:56 17.04.2021
209 Clear 6 1018 87 10000 1.03 46 03:38 17.04.2021
210 Clear 8 1019 70 10000 1.03 10 00:49 17.04.2021
211 Clear 9 1019 76 10000 1.03 330 00:29 17.04.2021
212 Clear 9 1019 81 10000 0.51 350 23:48 16.04.2021
213 Clear 9 1019 66 10000 1.03 10 23:25 16.04.2021
214 Clear 9 1019 66 10000 0.51 10 22:50 16.04.2021
215 Clear 11 1019 62 10000 1.3 102 22:21 16.04.2021
216 Clear 10 1019 66 10000 0.51 0 21:51 16.04.2021
217 Clear 11 1018 54 10000 1.03 0 21:30 16.04.2021
218 Clear 11 1018 46 10000 1.54 160 20:50 16.04.2021
219 Clear 12 1018 40 10000 2.06 150 20:25 16.04.2021
220 Clear 12 1018 38 10000 2.06 90 19:54 16.04.2021
221 Clear 13 1018 41 10000 2.06 160 19:29 16.04.2021
222 Clear 13 1018 38 10000 2.06 160 18:40 16.04.2021
223 Clear 13 1018 41 10000 2.57 160 18:19 16.04.2021
224 Clouds 13 1018 41 10000 3.09 150 17:37 16.04.2021
225 Clouds 13 1018 41 10000 2.57 170 17:18 16.04.2021
226 Clouds 13 1018 35 10000 3.09 0 16:42 16.04.2021
227 Clouds 13 1018 35 10000 3.09 0 16:23 16.04.2021
228 Clouds 14 1019 33 10000 2.06 0 15:44 16.04.2021
229 Clouds 13 1019 37 10000 3.09 90 15:18 16.04.2021
230 Clouds 13 1019 41 10000 4.12 110 14:42 16.04.2021
231 Clouds 13 1019 41 10000 4.12 70 14:18 16.04.2021
232 Clouds 12 1020 43 10000 4.63 120 13:42 16.04.2021
233 Clouds 12 1020 43 10000 4.63 100 13:20 16.04.2021
234 Clouds 12 1020 46 10000 3.6 140 12:47 16.04.2021
235 Clouds 12 1020 43 10000 3.09 100 12:27 16.04.2021
236 Clouds 12 1020 43 10000 3.09 100 12:27 16.04.2021
237 Clouds 11 1020 54 10000 2.57 90 11:49 16.04.2021
238 Clouds 11 1020 53 10000 3.09 120 11:26 16.04.2021
239 Clouds 11 1020 53 10000 3.09 120 11:26 16.04.2021
240 Clouds 10 1020 57 10000 2.06 80 10:48 16.04.2021
241 Clouds 10 1020 61 10000 2.57 100 10:26 16.04.2021
242 Clouds 9 1020 61 10000 3.09 90 09:52 16.04.2021
243 Clouds 8 1020 70 10000 1.54 110 09:24 16.04.2021
244 Clouds 7 1020 75 10000 2.06 70 08:46 16.04.2021
245 Clouds 6 1020 81 10000 1.03 0 08:28 16.04.2021
246 Clouds 6 1020 93 10000 0.51 0 07:52 16.04.2021
247 Clouds 4 1020 87 10000 1.03 0 07:33 16.04.2021
248 Clear 5 1020 87 10000 1.03 360 06:56 16.04.2021
249 Clouds 5 1020 87 10000 1.54 20 05:33 16.04.2021
250 Clear 5 1020 87 10000 1.03 350 04:19 16.04.2021
251 Clear 6 1021 75 10000 2.06 40 00:50 16.04.2021
252 Clear 7 1021 81 10000 2.57 30 00:23 16.04.2021
253 Clear 7 1021 76 10000 2.06 40 23:59 15.04.2021
254 Clear 7 1021 76 10000 1.54 50 23:35 15.04.2021
255 Clear 7 1021 71 10000 1.54 60 22:53 15.04.2021
256 Clouds 7 1021 66 10000 2.06 60 22:26 15.04.2021
257 Clouds 8 1021 66 10000 2.06 70 21:56 15.04.2021
258 Clouds 8 1021 66 10000 2.06 70 21:37 15.04.2021
259 Clouds 8 1021 66 10000 2.06 80 21:19 15.04.2021
260 Clouds 8 1020 66 10000 2.57 70 20:40 15.04.2021
261 Clouds 9 1020 66 10000 5.14 110 20:21 15.04.2021
262 Clouds 10 1020 61 10000 5.14 120 19:42 15.04.2021
263 Clouds 11 1020 54 10000 4.12 90 19:23 15.04.2021
264 Clouds 11 1020 54 10000 4.12 120 18:42 15.04.2021
265 Clouds 11 1020 54 10000 4.12 120 18:20 15.04.2021
266 Clouds 11 1020 50 10000 4.12 90 17:54 15.04.2021
267 Clouds 11 1020 50 10000 4.12 90 17:36 15.04.2021
268 Clouds 11 1021 58 10000 4.63 130 17:36 15.04.2021
269 Clouds 11 1021 62 10000 4.12 80 16:47 15.04.2021
270 Clouds 11 1021 58 10000 5.66 90 16:26 15.04.2021
271 Clouds 10 1022 66 10000 7.2 100 15:59 15.04.2021
272 Clouds 10 1022 66 10000 7.2 100 15:40 15.04.2021
273 Clouds 10 1022 71 10000 7.2 110 15:22 15.04.2021
274 Clouds 10 1021 62 10000 0.45 60 14:38 15.04.2021
275 Clouds 10 1022 71 10000 4.63 100 14:20 15.04.2021
276 Rain 9 1022 76 10000 1.54 40 13:41 15.04.2021
277 Rain 9 1022 66 10000 0.45 40 13:18 15.04.2021
278 Clouds 9 1022 61 10000 5.14 80 12:39 15.04.2021
279 Clouds 9 1022 61 10000 5.14 80 12:20 15.04.2021
280 Clouds 10 1022 61 10000 5.14 80 12:20 15.04.2021
281 Clouds 10 1022 62 10000 4.12 70 11:42 15.04.2021
282 Clouds 9 1022 66 10000 5.66 70 11:22 15.04.2021
283 Rain 9 1023 76 10000 6.17 90 10:46 15.04.2021
284 Rain 9 1022 61 10000 5.14 100 10:26 15.04.2021
285 Clouds 9 1022 57 10000 5.14 100 09:37 15.04.2021
286 Clouds 9 1022 66 10000 4.63 90 08:58 15.04.2021
287 Clouds 8 1022 70 10000 4.12 100 08:38 15.04.2021
288 Clouds 7 1021 65 10000 4.63 90 07:48 15.04.2021
289 Clouds 7 1021 70 10000 3.6 70 07:22 15.04.2021
290 Clear 7 1021 65 10000 3.09 100 06:37 15.04.2021
291 Clear 7 1021 65 10000 3.09 100 06:19 15.04.2021
292 Clouds 8 1021 70 10000 3.09 80 04:23 15.04.2021
293 Clear 9 1021 66 10000 3.09 120 00:24 15.04.2021
294 Clear 9 1021 62 10000 3.6 120 23:37 14.04.2021
295 Clear 10 1021 62 10000 3.6 120 23:18 14.04.2021
296 Clear 9 1021 57 10000 4.63 120 22:43 14.04.2021
297 Clear 10 1021 46 10000 2.06 100 22:22 14.04.2021
298 Clear 10 1020 43 10000 2.57 110 21:42 14.04.2021
299 Clear 11 1020 40 10000 2.06 110 21:22 14.04.2021
300 Clear 11 1020 37 10000 2.06 130 20:54 14.04.2021
301 Clear 12 1020 37 10000 3.09 140 20:31 14.04.2021
302 Clear 12 1020 37 10000 3.09 140 20:31 14.04.2021
303 Clear 12 1020 37 10000 2.57 170 19:48 14.04.2021
304 Clear 13 1020 28 10000 2.57 160 19:19 14.04.2021
305 Clear 13 1020 30 10000 2.06 80 18:55 14.04.2021
306 Clear 13 1020 30 10000 3.09 130 18:21 14.04.2021
307 Clouds 13 1020 30 10000 2.57 140 17:58 14.04.2021
308 Clouds 13 1020 30 10000 2.06 110 17:25 14.04.2021
309 Clouds 13 1020 35 10000 1.54 0 16:53 14.04.2021
310 Clouds 13 1021 33 10000 2.57 90 16:25 14.04.2021
311 Clouds 14 1021 33 10000 3.6 70 15:42 14.04.2021
312 Clouds 13 1021 35 10000 3.6 110 15:23 14.04.2021
313 Clouds 13 1022 38 10000 3.09 110 14:48 14.04.2021
314 Clouds 13 1022 35 10000 3.09 120 14:24 14.04.2021
315 Clouds 13 1022 38 10000 3.09 140 13:54 14.04.2021
316 Clouds 12 1022 43 10000 3.6 0 13:23 14.04.2021
317 Clouds 12 1023 40 10000 2.57 0 12:38 14.04.2021
318 Clouds 11 1023 50 10000 3.09 130 11:43 14.04.2021
319 Clear 11 1023 53 10000 2.57 140 11:25 14.04.2021
320 Clear 11 1023 57 10000 2.06 100 10:48 14.04.2021
321 Clear 10 1023 66 10000 3.09 80 10:30 14.04.2021
322 Clear 10 1023 66 10000 2.06 60 09:42 14.04.2021
323 Clear 8 1023 76 10000 1.54 60 09:21 14.04.2021
324 Clear 8 1023 76 10000 1.54 60 08:43 14.04.2021
325 Clear 6 1023 81 10000 1.03 50 08:20 14.04.2021
326 Clear 4 1022 87 10000 2.06 50 06:55 14.04.2021
327 Clear 4 1022 87 10000 1.54 50 06:24 14.04.2021
328 Clouds 5 1023 93 10000 1.54 50 04:34 14.04.2021
329 Clear 6 1023 87 10000 2.06 80 01:42 14.04.2021
330 Clear 6 1023 87 10000 2.06 80 01:42 14.04.2021
331 Clear 7 1023 81 10000 1.03 0 00:37 14.04.2021
332 Clear 6 1022 87 10000 1.54 30 23:46 13.04.2021
333 Clear 7 1022 81 10000 1.54 70 23:21 13.04.2021
334 Clear 8 1022 76 10000 2.57 90 22:41 13.04.2021
335 Clouds 9 1021 71 10000 2.06 110 22:19 13.04.2021
336 Clouds 9 1021 71 10000 2.57 130 21:45 13.04.2021
337 Clouds 9 1020 66 10000 2.06 140 21:27 13.04.2021
338 Clear 11 1020 62 10000 2.57 160 20:42 13.04.2021
339 Clear 11 1020 62 10000 2.57 160 20:21 13.04.2021
340 Clouds 12 1019 58 10000 2.57 160 19:43 13.04.2021
341 Clouds 12 1019 50 10000 2.57 170 19:23 13.04.2021
342 Clouds 13 1019 54 10000 2.57 160 18:40 13.04.2021
343 Clouds 13 1019 54 10000 3.6 150 17:54 13.04.2021
344 Clouds 14 1019 54 10000 3.6 150 17:36 13.04.2021
345 Clouds 14 1019 54 10000 4.63 160 17:18 13.04.2021
346 Clouds 14 1019 54 10000 4.12 170 16:42 13.04.2021
347 Clouds 14 1019 50 10000 3.6 170 16:20 13.04.2021
348 Clouds 14 1020 54 10000 5.14 190 15:42 13.04.2021
349 Clouds 14 1020 51 10000 3.6 170 15:21 13.04.2021
350 Clouds 14 1020 51 10000 3.09 170 14:46 13.04.2021
351 Clouds 13 1020 58 10000 3.6 160 14:19 13.04.2021
352 Clouds 13 1020 58 10000 3.6 160 13:45 13.04.2021
353 Clear 13 1020 62 10000 3.6 170 13:24 13.04.2021
354 Clear 13 1020 71 10000 3.6 180 12:55 13.04.2021
355 Clear 12 1020 71 10000 3.6 180 12:24 13.04.2021
356 Clear 12 1020 71 10000 3.6 190 11:52 13.04.2021
357 Clear 11 1020 71 10000 5.14 190 11:29 13.04.2021
358 Clear 11 1019 76 10000 4.12 200 10:45 13.04.2021
359 Clouds 10 1019 87 10000 2.57 180 10:21 13.04.2021
360 Clear 10 1019 93 10000 1.54 170 09:53 13.04.2021
361 Clear 10 1019 93 10000 1.54 170 09:34 13.04.2021
362 Clouds 8 1018 100 10000 1.54 130 08:51 13.04.2021
363 Clouds 7 1018 100 10000 0.51 0 08:26 13.04.2021
364 Clouds 7 1018 100 10000 1.03 0 07:59 13.04.2021
365 Clouds 7 1018 100 10000 1.03 0 07:35 13.04.2021
366 Clouds 7 1017 100 10000 0.51 0 06:29 13.04.2021
367 Clouds 6 1016 100 10000 1.54 200 04:27 13.04.2021
368 Clouds 8 1015 87 10000 1.54 170 01:37 13.04.2021
369 Clouds 9 1015 87 10000 0.51 0 23:59 12.04.2021
370 Clouds 10 1015 87 10000 1.03 0 23:39 12.04.2021
371 Clouds 10 1015 87 10000 1.03 0 23:18 12.04.2021
372 Clouds 10 1015 93 10000 1.54 170 22:38 12.04.2021
373 Clouds 10 1014 93 10000 1.03 230 21:56 12.04.2021
374 Clouds 10 1014 93 10000 1.03 160 21:36 12.04.2021
375 Clouds 10 1014 93 10000 1.03 160 21:18 12.04.2021
376 Rain 10 1014 93 10000 0.51 200 20:37 12.04.2021
377 Clouds 10 1014 93 10000 1.03 210 20:19 12.04.2021
378 Clouds 11 1014 82 10000 0.51 0 19:42 12.04.2021
379 Clouds 11 1014 76 10000 2.57 10 19:21 12.04.2021
380 Clouds 11 1014 76 10000 2.57 10 18:53 12.04.2021
381 Clouds 11 1014 76 10000 2.57 10 18:53 12.04.2021
382 Clouds 11 1014 76 10000 2.57 10 18:35 12.04.2021
383 Clouds 11 1014 87 10000 2.06 80 17:59 12.04.2021
384 Rain 11 1014 87 10000 3.09 360 17:41 12.04.2021
385 Rain 11 1014 87 10000 3.09 360 17:19 12.04.2021
386 Rain 11 1014 87 10000 3.09 360 16:42 12.04.2021
387 Rain 11 1014 87 10000 3.09 360 16:24 12.04.2021
388 Rain 11 1014 94 10000 3.09 340 15:45 12.04.2021
389 Clouds 10 1014 94 5000 2.57 350 15:21 12.04.2021
390 Clouds 10 1015 93 5000 2.06 360 14:48 12.04.2021
391 Mist 10 1015 93 3500 2.57 30 14:28 12.04.2021
392 Mist 11 1015 93 2500 2.06 60 13:42 12.04.2021
393 Rain 11 1015 93 2500 1.54 50 13:21 12.04.2021
394 Rain 10 1015 100 2500 1.54 50 12:44 12.04.2021
395 Rain 10 1015 100 2500 2.06 50 12:23 12.04.2021
396 Rain 10 1015 100 2500 1.03 0 11:47 12.04.2021
397 Rain 10 1015 100 2500 1.54 350 10:53 12.04.2021
398 Rain 10 1016 100 3000 1.03 0 10:28 12.04.2021
399 Rain 10 1016 100 3000 1.54 90 09:54 12.04.2021
400 Rain 10 1016 100 3000 1.54 90 09:33 12.04.2021
401 Rain 10 1016 100 4000 1.54 70 08:59 12.04.2021
402 Rain 10 1016 100 3000 2.57 60 08:27 12.04.2021
403 Mist 9 1016 93 4400 1.54 50 07:31 12.04.2021
404 Drizzle 9 1016 93 2400 2.57 60 06:47 12.04.2021
405 Mist 9 1017 100 2400 0.51 0 05:48 12.04.2021
406 Rain 9 1017 100 5000 1.54 40 03:58 12.04.2021
407 Clouds 9 1019 94 10000 0.44 101 00:43 12.04.2021
408 Clouds 9 1019 100 5000 0.51 0 00:22 12.04.2021
409 Clouds 9 1017 92 10000 0.45 64 23:44 11.04.2021
410 Clouds 10 1019 93 10000 2.57 130 23:22 11.04.2021
411 Rain 10 1019 93 10000 2.06 140 22:39 11.04.2021
412 Rain 10 1020 93 10000 1.03 0 22:39 11.04.2021
413 Rain 10 1020 93 10000 1.03 0 22:19 11.04.2021
414 Rain 10 1020 93 10000 1.54 150 21:44 11.04.2021
415 Rain 10 1019 87 10000 2.06 110 21:24 11.04.2021
416 Rain 10 1019 87 10000 2.06 110 21:24 11.04.2021
417 Clouds 11 1019 82 10000 2.06 130 20:46 11.04.2021
418 Clouds 11 1019 82 10000 3.09 140 20:25 11.04.2021
419 Clouds 11 1019 82 10000 2.57 100 19:44 11.04.2021
420 Clouds 11 1018 76 10000 2.57 130 19:21 11.04.2021
421 Clouds 11 1018 76 10000 1.03 0 18:58 11.04.2021
422 Clouds 11 1018 76 10000 1.03 0 18:40 11.04.2021
423 Clouds 11 1018 82 10000 1.54 200 18:20 11.04.2021
424 Clouds 11 1018 82 10000 1.54 200 17:41 11.04.2021
425 Clouds 11 1018 76 10000 1.03 190 17:22 11.04.2021
426 Clouds 11 1018 71 10000 1.03 0 16:42 11.04.2021
427 Clouds 11 1019 76 10000 1.03 0 16:21 11.04.2021
428 Clouds 11 1019 82 10000 2.06 60 15:46 11.04.2021
429 Clouds 11 1019 82 10000 2.06 60 15:46 11.04.2021
430 Clouds 11 1019 82 10000 2.06 60 15:46 11.04.2021
431 Clouds 11 1019 87 10000 2.06 20 15:26 11.04.2021
432 Clouds 11 1019 87 10000 2.57 350 14:51 11.04.2021
433 Clouds 10 1019 87 10000 2.57 350 14:24 11.04.2021
434 Clouds 10 1019 93 10000 3.09 360 13:44 11.04.2021
435 Rain 10 1019 87 10000 3.6 30 13:26 11.04.2021
436 Clouds 10 1019 87 10000 3.09 30 12:40 11.04.2021
437 Clouds 9 1019 93 10000 3.09 30 12:20 11.04.2021
438 Rain 9 1019 87 10000 3.6 30 11:45 11.04.2021
439 Rain 9 1018 93 10000 4.12 30 11:20 11.04.2021
440 Rain 9 1018 100 8000 3.09 20 10:45 11.04.2021
441 Rain 9 1018 93 8000 3.09 20 10:23 11.04.2021
442 Rain 9 1018 93 5000 3.09 30 09:50 11.04.2021
443 Rain 9 1018 93 5000 2.57 20 09:29 11.04.2021
444 Rain 8 1017 93 5000 2.57 30 08:40 11.04.2021
445 Rain 8 1017 93 5000 3.09 20 07:54 11.04.2021
446 Rain 8 1017 93 5000 3.6 20 07:19 11.04.2021
447 Rain 8 1017 93 6000 2.57 10 05:48 11.04.2021
448 Rain 9 1017 93 6000 2.06 350 05:23 11.04.2021
449 Rain 9 1017 93 6000 2.57 360 04:46 11.04.2021
450 Rain 9 1018 93 6000 3.09 30 04:19 11.04.2021
451 Rain 9 1020 93 10000 1.03 340 00:55 11.04.2021
452 Rain 9 1020 93 10000 1.03 340 00:32 11.04.2021
453 Rain 10 1020 87 10000 1.03 290 23:46 10.04.2021
454 Rain 10 1020 87 10000 1.54 180 22:55 10.04.2021
455 Rain 11 1020 81 10000 1.54 70 22:28 10.04.2021
456 Rain 11 1020 71 10000 1.54 160 21:54 10.04.2021
457 Rain 11 1020 62 10000 1.03 0 21:25 10.04.2021
458 Rain 11 1020 58 10000 1.54 210 20:57 10.04.2021
459 Rain 12 1020 58 10000 1.54 210 20:36 10.04.2021
460 Clouds 12 1020 58 10000 1.03 0 20:18 10.04.2021
461 Clouds 12 1020 58 10000 2.57 280 19:42 10.04.2021
462 Clouds 12 1020 54 10000 0.51 0 19:23 10.04.2021
463 Clouds 12 1020 50 10000 1.54 220 18:41 10.04.2021
464 Clouds 12 1020 50 10000 2.06 190 18:23 10.04.2021
465 Clouds 13 1020 47 10000 1.03 0 17:35 10.04.2021
466 Clouds 13 1021 47 10000 1.54 200 16:42 10.04.2021
467 Clouds 13 1021 44 10000 1.03 0 16:21 10.04.2021
468 Clouds 14 1021 44 10000 1.03 0 15:44 10.04.2021
469 Clouds 14 1022 51 10000 3.09 200 14:54 10.04.2021
470 Clouds 14 1022 47 10000 2.57 210 14:34 10.04.2021
471 Clouds 14 1022 47 10000 2.57 220 13:56 10.04.2021
472 Clouds 13 1022 51 10000 2.06 250 13:36 10.04.2021
473 Clouds 14 1022 47 10000 2.06 220 12:43 10.04.2021
474 Clouds 14 1022 47 10000 2.06 220 12:43 10.04.2021
475 Clouds 14 1022 47 10000 1.54 240 12:20 10.04.2021
476 Clouds 14 1022 47 10000 2.06 0 11:45 10.04.2021
477 Clouds 13 1022 51 10000 1.54 200 11:22 10.04.2021
478 Clouds 13 1022 62 10000 1.54 60 10:51 10.04.2021
479 Clouds 12 1022 62 10000 1.03 0 10:30 10.04.2021
480 Clouds 11 1022 66 10000 1.03 0 09:37 10.04.2021
481 Clouds 10 1022 71 10000 1.03 190 09:18 10.04.2021
482 Clouds 10 1022 71 10000 1.03 190 09:18 10.04.2021
483 Clouds 9 1022 76 10000 1.03 180 08:34 10.04.2021
484 Rain 9 1022 76 10000 1.54 190 07:56 10.04.2021
485 Clouds 9 1021 66 10000 0.51 0 07:26 10.04.2021
486 Rain 9 1022 66 10000 1.03 0 06:27 10.04.2021
487 Clouds 9 1022 62 10000 1.54 300 05:28 10.04.2021
488 Clouds 10 1023 62 10000 2.06 270 03:36 10.04.2021
489 Clouds 10 1023 58 10000 2.57 270 02:42 10.04.2021
490 Clouds 10 1023 54 10000 2.06 280 01:27 10.04.2021
491 Clouds 10 1024 58 10000 2.57 290 00:31 10.04.2021
492 Clouds 11 1024 58 10000 2.06 260 23:53 09.04.2021
493 Clouds 11 1024 54 10000 2.57 270 23:30 09.04.2021
494 Clouds 11 1024 54 10000 2.57 270 22:53 09.04.2021
495 Clouds 11 1024 58 10000 1.54 240 22:34 09.04.2021
496 Clouds 11 1024 58 10000 1.03 0 21:40 09.04.2021
497 Clouds 12 1023 63 10000 1.47 347 21:21 09.04.2021
498 Clouds 12 1023 50 10000 1.54 160 20:46 09.04.2021
499 Clouds 13 1023 50 10000 1.54 140 20:23 09.04.2021
500 Clouds 13 1023 47 10000 2.06 140 19:58 09.04.2021
501 Clouds 14 1023 47 10000 2.06 140 19:39 09.04.2021
502 Clouds 14 1023 47 10000 2.57 140 19:21 09.04.2021
503 Clouds 15 1022 48 10000 0.45 74 18:41 09.04.2021
504 Clouds 15 1024 44 10000 2.06 120 18:23 09.04.2021
505 Clouds 15 1024 44 10000 2.06 120 17:44 09.04.2021
506 Clouds 15 1024 44 10000 2.06 120 17:25 09.04.2021
507 Clouds 15 1024 44 10000 2.06 50 16:41 09.04.2021
508 Clouds 15 1024 47 10000 1.03 0 16:20 09.04.2021
509 Clouds 15 1025 47 10000 1.54 0 15:42 09.04.2021
510 Clouds 13 1025 51 10000 2.57 350 15:23 09.04.2021
511 Clouds 13 1026 54 10000 1.03 0 14:46 09.04.2021
512 Clouds 12 1026 54 10000 2.06 40 14:19 09.04.2021
513 Clouds 13 1026 54 10000 3.09 40 13:43 09.04.2021
514 Clouds 12 1027 62 10000 3.09 30 13:22 09.04.2021
515 Clouds 11 1027 62 10000 2.57 30 12:47 09.04.2021
516 Clouds 10 1027 71 10000 2.06 60 11:57 09.04.2021
517 Clouds 9 1027 71 10000 2.57 70 11:28 09.04.2021
518 Clouds 9 1027 66 10000 2.57 60 10:53 09.04.2021
519 Clouds 9 1027 66 10000 2.57 60 10:34 09.04.2021
520 Clouds 9 1027 66 10000 2.57 70 09:55 09.04.2021
521 Clouds 8 1027 66 10000 1.03 0 09:27 09.04.2021
522 Clouds 8 1026 71 10000 1.54 170 08:54 09.04.2021
523 Clouds 8 1026 66 10000 2.06 120 08:23 09.04.2021
524 Clouds 8 1026 76 10000 0.51 160 07:21 09.04.2021
525 Clouds 7 1026 81 10000 1.54 150 06:21 09.04.2021
526 Clouds 8 1025 70 10000 1.03 340 03:54 09.04.2021
527 Clouds 8 1025 70 10000 2.06 350 02:27 09.04.2021
528 Clear 9 1025 57 10000 1.54 270 00:38 09.04.2021
529 Clear 9 1025 57 10000 2.57 270 00:20 09.04.2021
530 Clear 9 1025 57 10000 2.57 260 23:30 08.04.2021
531 Clear 10 1024 54 10000 3.09 260 22:46 08.04.2021
532 Clear 10 1024 58 10000 2.06 250 22:26 08.04.2021
533 Clear 11 1024 58 10000 2.57 250 21:58 08.04.2021
534 Clear 11 1024 58 10000 2.57 250 21:38 08.04.2021
535 Clear 12 1023 50 10000 2.57 240 21:19 08.04.2021
536 Clear 12 1023 44 10000 2.57 0 20:53 08.04.2021
537 Clear 13 1023 44 10000 2.57 0 20:32 08.04.2021
538 Clear 14 1022 31 10000 3.09 210 19:55 08.04.2021
539 Clear 15 1022 31 10000 3.09 230 19:21 08.04.2021
540 Clouds 15 1022 31 10000 3.09 240 18:51 08.04.2021
541 Clouds 16 1022 29 10000 3.09 230 18:21 08.04.2021
542 Clear 15 1022 31 10000 2.06 270 17:50 08.04.2021
543 Clear 16 1022 29 10000 4.12 260 17:26 08.04.2021
544 Clear 16 1022 27 10000 4.12 260 16:54 08.04.2021
545 Clear 16 1022 27 10000 5.14 230 16:34 08.04.2021
546 Clear 16 1023 29 10000 5.14 250 15:49 08.04.2021
547 Clear 15 1023 29 10000 3.6 230 15:31 08.04.2021
548 Clear 14 1023 33 10000 4.12 270 14:58 08.04.2021
549 Clear 14 1023 33 10000 4.12 270 14:36 08.04.2021
550 Clear 14 1023 33 10000 4.12 250 14:18 08.04.2021
551 Clear 14 1024 33 10000 4.63 270 13:43 08.04.2021
552 Clear 13 1024 33 10000 4.63 270 13:23 08.04.2021
553 Clear 13 1024 35 10000 4.12 270 12:44 08.04.2021
554 Clear 12 1024 30 10000 3.09 270 12:25 08.04.2021
555 Clear 12 1024 24 10000 2.57 330 11:43 08.04.2021
556 Clear 11 1024 22 10000 1.54 340 11:18 08.04.2021
557 Clear 11 1024 29 10000 1.03 0 10:42 08.04.2021
558 Clear 8 1024 31 10000 1.03 0 10:19 08.04.2021
559 Clear 8 1024 34 10000 0.51 0 09:43 08.04.2021
560 Clear 6 1023 48 10000 0.51 0 08:47 08.04.2021
561 Clear 4 1023 60 10000 1.03 20 08:28 08.04.2021
562 Clear 3 1023 80 10000 0.51 0 07:59 08.04.2021
563 Clear 2 1023 80 10000 0.51 0 07:35 08.04.2021
564 Clear 4 1023 60 10000 1.03 0 04:18 08.04.2021
565 Clear 6 1023 26 10000 1.54 280 01:21 08.04.2021
566 Clear 6 1022 26 10000 2.06 10 00:21 08.04.2021
567 Clear 7 1021 23 10000 2.57 280 23:42 07.04.2021
568 Clear 7 1021 23 10000 2.57 280 23:22 07.04.2021
569 Clear 7 1021 21 10000 3.09 340 22:50 07.04.2021
570 Clear 7 1021 26 10000 2.57 350 22:32 07.04.2021
571 Clear 9 1021 18 10000 2.06 320 21:47 07.04.2021
572 Clear 8 1020 19 10000 3.09 350 21:26 07.04.2021
573 Clear 9 1019 18 10000 3.09 360 20:47 07.04.2021
574 Clear 10 1019 16 10000 3.09 350 20:26 07.04.2021
575 Clear 10 1019 18 10000 2.06 30 19:46 07.04.2021
576 Clear 11 1018 16 10000 3.09 360 19:26 07.04.2021
577 Clear 11 1018 15 10000 2.06 360 18:49 07.04.2021
578 Clear 11 1018 13 10000 4.12 10 18:21 07.04.2021
579 Clear 11 1018 13 10000 5.66 20 17:56 07.04.2021
580 Clear 11 1018 13 10000 5.66 20 17:56 07.04.2021
581 Clear 11 1018 13 10000 5.66 20 17:37 07.04.2021
582 Clear 11 1017 12 10000 6.17 10 16:58 07.04.2021
583 Clouds 11 1017 12 10000 6.69 360 16:38 07.04.2021
584 Clouds 11 1017 12 10000 6.69 360 16:19 07.04.2021
585 Clouds 11 1017 13 10000 7.2 30 15:39 07.04.2021
586 Clouds 11 1017 12 10000 8.75 350 14:57 07.04.2021
587 Clouds 11 1017 12 10000 8.75 340 14:32 07.04.2021
588 Clouds 10 1016 12 10000 10.29 360 13:52 07.04.2021
589 Clouds 11 1016 13 10000 10.29 10 13:27 07.04.2021
590 Clouds 10 1016 16 10000 6.17 340 12:53 07.04.2021
591 Clouds 10 1015 16 10000 7.2 330 12:25 07.04.2021
592 Clear 10 1015 14 10000 6.69 320 11:55 07.04.2021
593 Clouds 9 1015 20 10000 7.2 320 11:28 07.04.2021
594 Clear 9 1014 23 10000 5.66 330 10:52 07.04.2021
595 Clear 8 1014 27 10000 5.14 330 10:21 07.04.2021
596 Clear 8 1014 42 10000 3.09 320 09:43 07.04.2021
597 Clear 6 1013 61 10000 3.09 320 09:25 07.04.2021
598 Clear 5 1013 81 10000 1.54 260 08:42 07.04.2021
599 Clear 4 1013 87 10000 2.06 260 08:21 07.04.2021
600 Clear 3 1012 93 10000 1.03 0 07:43 07.04.2021
601 Clouds 3 1012 87 10000 0.51 0 07:24 07.04.2021
602 Clouds 4 1011 87 10000 1.03 0 06:27 07.04.2021
603 Clouds 3 1011 87 10000 2.57 340 04:23 07.04.2021
604 Clear 4 1010 87 10000 3.09 120 00:21 07.04.2021
605 Clouds 4 1010 87 10000 4.12 120 23:46 06.04.2021
606 Clouds 5 1010 81 10000 2.57 100 23:21 06.04.2021
607 Clear 5 1010 81 10000 3.09 100 22:39 06.04.2021
608 Clear 5 1010 81 10000 2.57 90 22:19 06.04.2021
609 Clear 5 1009 81 10000 3.09 90 21:40 06.04.2021
610 Clouds 6 1009 81 10000 4.12 120 21:22 06.04.2021
611 Clouds 6 1008 75 10000 5.14 120 20:53 06.04.2021
612 Clouds 6 1008 70 10000 6.69 120 20:24 06.04.2021
613 Clouds 6 1007 70 10000 6.17 120 19:52 06.04.2021
614 Clouds 7 1007 76 10000 6.17 130 19:34 06.04.2021
615 Clouds 7 1007 66 10000 7.72 120 18:52 06.04.2021
616 Clouds 7 1006 71 10000 8.75 120 18:33 06.04.2021
617 Clouds 7 1005 71 10000 9.77 140 17:57 06.04.2021
618 Clouds 8 1005 71 10000 9.77 140 17:38 06.04.2021
619 Clouds 8 1005 66 10000 9.77 130 17:18 06.04.2021
620 Clouds 10 1003 35 10000 6.17 90 16:41 06.04.2021
621 Clear 13 1002 12 10000 7.72 360 15:49 06.04.2021
622 Clouds 14 1002 14 10000 8.75 360 15:24 06.04.2021
623 Clear 13 1002 12 10000 7.72 340 14:40 06.04.2021
624 Clear 14 1002 14 10000 7.72 360 14:21 06.04.2021
625 Clouds 13 1002 15 10000 3.13 34 13:46 06.04.2021
626 Clear 13 1002 13 10000 8.23 10 13:25 06.04.2021
627 Clear 13 1002 11 10000 7.2 360 12:43 06.04.2021
628 Clear 13 1002 12 10000 9.26 350 12:24 06.04.2021
629 Clear 12 1002 13 10000 7.72 350 11:54 06.04.2021
630 Clear 12 1002 13 10000 7.72 350 11:36 06.04.2021
631 Clouds 12 1002 16 10000 9.26 360 11:18 06.04.2021
632 Clouds 11 1002 16 10000 9.77 10 10:38 06.04.2021
633 Clouds 11 1002 16 10000 9.77 10 10:19 06.04.2021
634 Clouds 11 1002 19 10000 8.75 10 09:42 06.04.2021
635 Clouds 10 1001 30 10000 5.14 360 08:48 06.04.2021
636 Clouds 9 1001 57 10000 3.6 320 08:19 06.04.2021
637 Clear 8 1000 87 10000 1.03 0 06:56 06.04.2021
638 Clear 8 1000 87 10000 1.03 0 06:23 06.04.2021
639 Clear 10 1001 71 10000 1.03 350 03:43 06.04.2021
640 Clear 11 1004 66 10000 2.06 260 00:47 06.04.2021
641 Clear 11 1004 66 10000 2.57 260 00:21 06.04.2021
642 Clear 11 1004 66 10000 2.57 260 23:48 05.04.2021
643 Clear 11 1005 62 10000 2.06 250 23:24 05.04.2021
644 Clear 11 1005 62 10000 2.57 260 22:53 05.04.2021
645 Clear 11 1006 62 10000 2.06 250 22:32 05.04.2021
646 Clouds 12 1005 66 10000 3.42 239 21:45 05.04.2021
647 Clear 12 1006 54 10000 2.57 250 21:23 05.04.2021
648 Clouds 13 1006 51 10000 3.09 250 20:48 05.04.2021
649 Clouds 13 1005 62 10000 3.61 234 20:30 05.04.2021
650 Clouds 15 1006 39 10000 2.06 250 19:44 05.04.2021
651 Clouds 15 1006 39 10000 2.06 250 19:25 05.04.2021
652 Clouds 16 1007 39 10000 3.09 270 18:55 05.04.2021
653 Clouds 16 1007 36 10000 3.6 280 18:37 05.04.2021
654 Clouds 16 1007 36 10000 3.6 280 18:18 05.04.2021
655 Clouds 16 1008 36 10000 2.06 270 17:45 05.04.2021
656 Clouds 16 1008 36 10000 2.57 270 17:21 05.04.2021
657 Clouds 16 1009 34 10000 3.09 290 16:44 05.04.2021
658 Clouds 16 1009 36 10000 2.06 0 16:21 05.04.2021
659 Clouds 16 1010 34 10000 2.06 0 15:54 05.04.2021
660 Clouds 16 1011 33 10000 2.57 260 15:30 05.04.2021
661 Clouds 16 1011 33 10000 2.57 210 14:54 05.04.2021
662 Clear 16 1012 36 10000 1.54 0 14:34 05.04.2021
663 Clear 15 1013 38 10000 1.54 0 13:32 05.04.2021
664 Clear 14 1014 35 10000 2.06 0 12:51 05.04.2021
665 Clear 14 1014 38 10000 2.06 200 12:28 05.04.2021
666 Clear 13 1015 40 10000 2.06 0 11:56 05.04.2021
667 Clear 13 1015 37 10000 2.06 140 11:36 05.04.2021
668 Clear 12 1015 37 10000 2.06 140 11:18 05.04.2021
669 Clear 12 1015 40 10000 2.06 0 10:41 05.04.2021
670 Clear 11 1015 43 10000 2.57 100 10:22 05.04.2021
671 Clear 10 1015 43 10000 3.09 110 09:47 05.04.2021
672 Clear 10 1016 49 10000 2.06 80 09:22 05.04.2021
673 Clear 9 1016 49 10000 1.54 90 08:43 05.04.2021
674 Clear 8 1016 57 10000 0.51 0 08:24 05.04.2021
675 Clear 7 1016 57 10000 2.06 60 07:36 05.04.2021
676 Clouds 8 1017 53 10000 2.06 80 05:23 05.04.2021
677 Clear 9 1018 57 10000 3.09 70 01:35 05.04.2021
678 Clear 9 1018 57 10000 3.09 70 01:35 05.04.2021
679 Clear 9 1018 53 10000 3.09 80 00:36 05.04.2021
680 Clear 9 1018 50 10000 2.57 110 23:43 04.04.2021
681 Clear 9 1017 46 10000 3.09 130 23:23 04.04.2021
682 Clear 10 1017 46 10000 2.57 130 22:50 04.04.2021
683 Clear 10 1017 43 10000 2.06 110 22:28 04.04.2021
684 Clear 12 1016 41 10000 2.06 100 21:26 04.04.2021
685 Clear 13 1016 41 10000 3.09 110 20:56 04.04.2021
686 Clear 13 1016 38 10000 4.12 120 20:29 04.04.2021
687 Clear 14 1016 38 10000 4.12 120 19:45 04.04.2021
688 Clear 15 1016 36 10000 3.6 120 19:23 04.04.2021
689 Clear 15 1016 36 10000 3.09 110 18:59 04.04.2021
690 Clear 15 1016 36 10000 3.09 110 18:40 04.04.2021
691 Clear 15 1016 36 10000 3.09 110 18:40 04.04.2021
692 Clear 15 1016 38 10000 4.12 120 18:20 04.04.2021
693 Clear 15 1016 36 10000 3.6 130 17:41 04.04.2021
694 Clear 15 1016 36 10000 3.6 130 17:41 04.04.2021
695 Clear 15 1016 36 10000 3.6 130 17:41 04.04.2021
696 Clear 15 1016 36 10000 2.57 140 17:22 04.04.2021
697 Clear 15 1016 36 10000 2.57 140 17:22 04.04.2021
698 Clear 15 1016 36 10000 4.12 120 16:42 04.04.2021
699 Clouds 16 1017 36 10000 4.12 140 16:18 04.04.2021
700 Clouds 15 1017 36 10000 2.57 0 15:34 04.04.2021
701 Clouds 15 1018 36 10000 3.6 110 14:45 04.04.2021
702 Clouds 15 1018 33 10000 3.6 120 14:27 04.04.2021
703 Clouds 15 1018 38 10000 3.6 0 13:30 04.04.2021
704 Clouds 14 1019 41 10000 4.12 130 12:55 04.04.2021
705 Clouds 14 1019 41 10000 4.12 130 12:33 04.04.2021
706 Clear 13 1019 50 10000 4.63 120 11:53 04.04.2021
707 Clear 13 1019 50 10000 4.63 120 11:31 04.04.2021
708 Clear 13 1019 47 10000 4.63 110 10:56 04.04.2021
709 Clear 12 1019 54 10000 4.63 90 10:33 04.04.2021
710 Clear 11 1019 62 10000 3.6 90 09:52 04.04.2021
711 Clouds 11 1018 62 10000 3.09 70 09:24 04.04.2021
712 Clouds 10 1018 66 10000 2.06 50 08:51 04.04.2021
713 Clouds 10 1018 71 10000 2.57 60 08:33 04.04.2021
714 Clouds 9 1018 71 10000 1.54 110 07:24 04.04.2021
715 Clear 10 1018 66 10000 1.54 60 06:36 04.04.2021
716 Clouds 10 1018 66 10000 3.09 80 04:56 04.04.2021
717 Clouds 12 1017 58 10000 4.12 100 01:28 04.04.2021
718 Clouds 12 1017 62 10000 5.14 80 00:19 04.04.2021
719 Clouds 12 1016 66 10000 3.6 80 23:47 03.04.2021
720 Clouds 12 1016 66 10000 3.09 90 23:23 03.04.2021
721 Clouds 13 1015 62 10000 3.6 90 22:50 03.04.2021
722 Clouds 13 1015 62 10000 3.09 90 22:21 03.04.2021
723 Clouds 13 1015 62 10000 3.09 90 22:21 03.04.2021
724 Clouds 14 1014 58 10000 4.63 110 21:47 03.04.2021
725 Clouds 14 1014 54 10000 4.63 120 21:23 03.04.2021
726 Clouds 14 1013 54 10000 4.63 110 20:49 03.04.2021
727 Clouds 15 1013 51 10000 5.66 120 20:27 03.04.2021
728 Clear 15 1012 51 10000 7.2 120 19:50 03.04.2021
729 Clear 15 1012 51 10000 7.72 130 19:24 03.04.2021
730 Clear 17 1011 51 10000 8.23 120 18:48 03.04.2021
731 Clouds 16 1011 55 10000 8.23 120 18:30 03.04.2021
732 Clouds 16 1011 55 10000 7.2 120 17:51 03.04.2021
733 Clouds 17 1011 55 10000 7.2 120 17:25 03.04.2021
734 Clouds 17 1011 55 10000 8.75 120 16:51 03.04.2021
735 Rain 18 1011 52 10000 9.26 130 16:22 03.04.2021
736 Clouds 18 1010 55 10000 9.26 130 15:50 03.04.2021
737 Clouds 19 1011 55 10000 8.23 140 15:22 03.04.2021
738 Clouds 19 1011 52 10000 7.2 120 14:44 03.04.2021
739 Clouds 19 1011 55 10000 7.2 110 14:24 03.04.2021
740 Clouds 18 1011 59 10000 7.72 110 13:51 03.04.2021
741 Clouds 18 1011 48 10000 7.2 130 13:24 03.04.2021
742 Clear 18 1011 52 10000 7.2 120 12:56 03.04.2021
743 Clear 18 1011 51 10000 4.63 100 12:32 03.04.2021
744 Clear 17 1010 55 10000 4.63 110 11:39 03.04.2021
745 Clear 17 1010 59 10000 4.12 130 11:19 03.04.2021
746 Clear 16 1010 55 10000 2.57 140 10:43 03.04.2021
747 Clear 16 1009 59 10000 1.54 170 10:22 03.04.2021
748 Clear 14 1008 67 10000 6.17 260 09:29 03.04.2021
749 Clear 14 1008 62 10000 4.12 280 08:58 03.04.2021
750 Clear 13 1008 67 10000 4.12 270 08:31 03.04.2021
751 Clear 12 1008 58 10000 4.63 280 07:29 03.04.2021
752 Clear 12 1008 62 10000 3.6 290 06:50 03.04.2021
753 Clear 13 1009 44 10000 4.12 280 03:53 03.04.2021
754 Clear 14 1009 41 10000 3.6 280 02:52 03.04.2021
755 Clear 14 1012 14 10000 3.13 288 02:26 03.04.2021
756 Clear 16 1009 34 10000 3.6 270 00:29 03.04.2021
757 Clear 16 1009 34 10000 3.6 300 23:50 02.04.2021
758 Clear 16 1010 36 10000 3.09 310 23:24 02.04.2021
759 Clear 16 1009 43 10000 0.45 311 22:55 02.04.2021
760 Clear 16 1009 44 10000 0.45 358 22:36 02.04.2021
761 Clear 18 1009 34 10000 3.09 250 21:46 02.04.2021
762 Clear 18 1009 34 10000 4.12 260 21:26 02.04.2021
763 Clear 19 1009 32 10000 3.6 260 20:53 02.04.2021
764 Clear 20 1009 32 10000 3.09 250 20:34 02.04.2021
765 Clear 22 1009 28 10000 3.09 230 19:59 02.04.2021
766 Clear 22 1009 28 10000 3.09 230 19:39 02.04.2021
767 Clear 22 1008 39 10000 0.89 29 19:21 02.04.2021
768 Clear 24 1008 29 10000 3.6 250 18:40 02.04.2021
769 Clear 25 1009 27 10000 4.12 240 18:20 02.04.2021
770 Clear 26 1009 22 10000 3.6 240 17:40 02.04.2021
771 Clear 26 1009 22 10000 3.6 240 16:51 02.04.2021
772 Clear 26 1009 22 10000 3.6 240 16:51 02.04.2021
773 Clear 26 1010 25 10000 3.09 240 16:22 02.04.2021
774 Clear 25 1011 24 10000 2.57 270 15:35 02.04.2021
775 Clear 25 1011 29 10000 2.57 270 14:55 02.04.2021
776 Clear 25 1012 31 10000 2.06 0 14:31 02.04.2021
777 Clear 24 1012 31 10000 2.06 0 14:31 02.04.2021
778 Clear 24 1012 31 10000 2.06 0 13:44 02.04.2021
779 Clear 22 1013 35 10000 1.54 300 13:23 02.04.2021
780 Clear 22 1013 37 10000 2.06 250 12:41 02.04.2021
781 Clear 21 1013 40 10000 3.6 270 12:20 02.04.2021
782 Clear 20 1013 42 10000 3.6 270 11:56 02.04.2021
783 Clear 20 1014 42 10000 2.57 250 11:21 02.04.2021
784 Clear 20 1014 42 10000 2.57 250 11:21 02.04.2021
785 Clear 18 1014 45 10000 2.57 270 10:50 02.04.2021
786 Clear 18 1014 51 10000 2.57 250 10:29 02.04.2021
787 Clear 16 1014 55 10000 1.54 260 09:53 02.04.2021
788 Clear 14 1014 58 10000 1.54 250 09:27 02.04.2021
789 Clear 13 1014 71 10000 1.03 200 08:54 02.04.2021
790 Clear 14 1014 62 10000 0.51 0 08:30 02.04.2021
791 Clear 13 1013 58 10000 2.06 260 07:30 02.04.2021
792 Clear 13 1013 51 10000 2.06 290 06:52 02.04.2021
793 Clear 14 1014 47 10000 1.54 290 05:28 02.04.2021
794 Clear 16 1015 36 10000 2.06 310 02:30 02.04.2021
795 Clear 17 1015 36 10000 2.57 320 00:50 02.04.2021
796 Clear 17 1015 36 10000 2.06 290 00:22 02.04.2021
797 Clear 18 1015 37 10000 2.57 250 23:39 01.04.2021
798 Clear 18 1015 37 10000 2.57 250 22:57 01.04.2021
799 Clear 19 1015 37 10000 2.06 250 22:20 01.04.2021
800 Clear 19 1015 34 10000 2.57 250 21:50 01.04.2021
801 Clear 20 1014 32 10000 2.06 260 21:27 01.04.2021
802 Clear 21 1014 30 10000 2.57 240 20:47 01.04.2021
803 Clear 21 1014 31 10000 3.09 230 20:25 01.04.2021
804 Clear 23 1014 27 10000 1.54 260 19:56 01.04.2021
805 Clear 24 1017 11 10000 4.02 227 19:35 01.04.2021
806 Clear 25 1014 25 10000 2.57 260 18:46 01.04.2021
807 Clear 26 1014 27 10000 2.57 260 18:19 01.04.2021
808 Clear 26 1014 29 10000 2.06 270 17:52 01.04.2021
809 Clear 26 1015 27 10000 2.57 240 17:32 01.04.2021
810 Clear 26 1015 25 10000 3.09 260 16:53 01.04.2021
811 Clear 26 1016 29 10000 3.09 230 16:30 01.04.2021
812 Clear 25 1016 33 10000 2.57 240 15:47 01.04.2021
813 Clear 25 1016 33 10000 2.57 260 15:20 01.04.2021
814 Clear 24 1017 36 10000 2.57 230 14:45 01.04.2021
815 Clear 24 1017 36 10000 2.57 230 14:45 01.04.2021
816 Clear 24 1017 36 10000 2.57 230 14:45 01.04.2021
817 Clear 24 1017 35 10000 2.57 210 14:26 01.04.2021
818 Clear 24 1018 38 10000 2.57 240 13:55 01.04.2021
819 Clear 23 1018 40 10000 1.54 0 13:30 01.04.2021
820 Clear 22 1018 43 10000 2.06 210 12:51 01.04.2021
821 Clear 22 1018 43 10000 2.06 210 12:32 01.04.2021
822 Clear 21 1019 49 10000 1.03 0 11:49 01.04.2021
823 Clouds 20 1021 15 10000 1.34 236 11:24 01.04.2021
824 Clear 19 1019 48 10000 1.54 220 10:56 01.04.2021
825 Clouds 18 1019 55 8000 1.03 0 10:37 01.04.2021
826 Clouds 17 1019 59 10000 1.32 267 09:56 01.04.2021
827 Clouds 15 1019 68 10000 1.04 265 09:27 01.04.2021
828 Clouds 13 1020 87 6000 1.03 210 08:33 01.04.2021
829 Clear 12 1020 87 10000 0.51 210 07:59 01.04.2021
830 Clear 12 1020 87 10000 0.51 210 07:20 01.04.2021
831 Clear 12 1020 87 10000 0.51 210 06:48 01.04.2021
832 Clear 13 1020 87 10000 0.51 0 03:52 01.04.2021
833 Clear 15 1021 67 10000 1.03 20 00:59 01.04.2021
834 Clear 16 1021 67 10000 1.03 360 23:44 31.03.2021
835 Clear 16 1021 67 10000 1.03 360 23:44 31.03.2021
836 Clear 17 1021 67 10000 1.03 20 23:19 31.03.2021
837 Clear 17 1021 67 10000 0.51 10 22:41 31.03.2021
838 Clear 18 1021 59 10000 1.2 148 22:20 31.03.2021
839 Clear 17 1021 52 10000 0.51 150 21:46 31.03.2021
840 Clear 18 1021 51 10000 1.03 190 21:23 31.03.2021
841 Clear 19 1021 42 10000 1.03 160 20:56 31.03.2021
842 Clear 19 1021 42 10000 1.03 160 20:38 31.03.2021
843 Clear 21 1021 40 10000 1.54 160 20:18 31.03.2021
844 Clear 23 1021 35 10000 1.54 160 19:38 31.03.2021
845 Clear 24 1021 33 10000 2.06 170 19:18 31.03.2021
846 Clear 24 1021 33 10000 2.06 150 18:49 31.03.2021
847 Clear 25 1022 31 10000 1.54 160 17:58 31.03.2021
848 Clear 25 1022 31 10000 1.54 160 17:36 31.03.2021
849 Clear 25 1022 33 10000 2.06 150 17:18 31.03.2021
850 Clear 25 1022 33 10000 1.54 0 16:42 31.03.2021
851 Clear 25 1023 35 10000 2.06 160 16:22 31.03.2021
852 Clear 24 1023 40 10000 1.54 150 15:50 31.03.2021
853 Clear 24 1024 40 10000 1.54 0 15:19 31.03.2021
854 Clear 23 1024 40 10000 2.06 220 14:44 31.03.2021
855 Clear 23 1025 46 10000 2.06 0 14:22 31.03.2021
856 Clear 23 1025 43 10000 2.06 0 13:41 31.03.2021
857 Clear 22 1026 52 10000 2.06 180 12:42 31.03.2021
858 Clear 21 1026 52 10000 1.54 0 12:21 31.03.2021
859 Clear 21 1026 52 10000 1.54 0 12:21 31.03.2021
860 Clear 20 1027 59 8000 1.54 0 11:56 31.03.2021
861 Clear 19 1027 52 8000 1.03 0 11:21 31.03.2021
862 Clear 19 1027 59 8000 0.51 0 10:47 31.03.2021
863 Clear 17 1027 63 7000 0.51 0 10:25 31.03.2021
864 Clear 15 1027 77 7000 0.51 0 09:42 31.03.2021
865 Clear 14 1027 82 7000 0.51 180 08:59 31.03.2021
866 Fog 12 1027 93 5000 0.51 0 08:38 31.03.2021
867 Fog 12 1027 93 5000 0.51 0 07:52 31.03.2021
868 Clear 12 1027 87 10000 0.51 350 06:46 31.03.2021
869 Clear 13 1027 81 10000 1.03 340 03:51 31.03.2021
870 Clear 14 1028 82 10000 0.51 340 01:43 31.03.2021
871 Clear 15 1028 77 10000 1.03 0 00:49 31.03.2021
872 Clear 15 1028 82 10000 1.03 10 00:20 31.03.2021
873 Clear 15 1028 72 10000 1.03 10 23:39 30.03.2021
874 Clear 16 1027 67 10000 1.03 90 22:59 30.03.2021
875 Clear 17 1027 67 10000 1.03 90 22:40 30.03.2021
876 Clear 18 1027 67 10000 1.03 0 22:21 30.03.2021
877 Clear 16 1027 59 10000 1.03 130 21:48 30.03.2021
878 Clear 19 1027 49 10000 2.06 120 21:20 30.03.2021
879 Clear 19 1027 49 10000 2.06 110 20:52 30.03.2021
880 Clear 20 1027 46 10000 2.06 120 20:28 30.03.2021
881 Clear 21 1027 43 10000 2.57 130 19:51 30.03.2021
882 Clear 22 1027 43 10000 2.06 170 19:27 30.03.2021
883 Clear 23 1027 40 10000 1.54 150 18:39 30.03.2021
884 Clear 24 1027 40 10000 2.57 150 17:56 30.03.2021
885 Clear 24 1028 40 10000 2.06 170 17:38 30.03.2021
886 Clear 24 1028 40 10000 2.06 170 17:20 30.03.2021
887 Clear 24 1028 38 10000 1.03 0 16:44 30.03.2021
888 Clear 23 1029 40 10000 1.54 0 16:23 30.03.2021
889 Clear 23 1030 40 10000 2.06 0 15:20 30.03.2021
890 Clear 23 1030 43 10000 1.54 0 14:56 30.03.2021
891 Clear 22 1031 49 10000 1.54 0 14:22 30.03.2021
892 Clear 22 1031 46 10000 1.54 0 13:58 30.03.2021
893 Clear 22 1031 46 10000 1.54 0 13:36 30.03.2021
894 Clear 20 1032 55 10000 1.54 150 12:49 30.03.2021
895 Clear 20 1032 55 10000 1.54 150 12:49 30.03.2021
896 Clear 20 1032 59 10000 2.06 150 12:27 30.03.2021
897 Clear 19 1032 59 10000 1.54 140 11:53 30.03.2021
898 Clear 18 1032 59 10000 1.03 0 11:23 30.03.2021
899 Clear 16 1032 63 10000 1.03 0 10:46 30.03.2021
900 Clear 17 1032 59 10000 1.03 0 10:25 30.03.2021
901 Clear 15 1032 63 10000 0.51 0 09:44 30.03.2021
902 Clear 14 1032 82 10000 0.51 170 09:26 30.03.2021
903 Clear 12 1032 87 10000 1.03 220 08:54 30.03.2021
904 Clear 12 1032 87 10000 1.03 220 08:36 30.03.2021
905 Clear 11 1032 87 10000 0.51 350 07:51 30.03.2021
906 Clouds 11 1031 93 10000 0.51 360 07:22 30.03.2021
907 Clear 12 1031 87 10000 1.54 360 05:26 30.03.2021
908 Clear 12 1032 87 10000 1.54 360 04:58 30.03.2021
909 Clouds 15 1032 71 10000 1.03 360 00:30 30.03.2021
910 Clear 16 1031 63 10000 1.54 30 23:33 29.03.2021
911 Clear 14 1031 63 10000 0.51 0 22:45 29.03.2021
912 Clear 16 1031 59 10000 2.06 140 22:25 29.03.2021
913 Clear 16 1031 51 10000 1.54 150 21:43 29.03.2021
914 Clear 17 1030 51 10000 1.54 150 21:23 29.03.2021
915 Clear 17 1030 48 10000 2.06 150 20:47 29.03.2021
916 Clear 19 1030 48 10000 2.06 160 20:26 29.03.2021
917 Clear 20 1030 45 10000 2.06 150 19:48 29.03.2021
918 Clear 21 1030 43 10000 1.54 170 19:22 29.03.2021
919 Clear 21 1030 40 10000 1.54 180 18:42 29.03.2021
920 Clear 22 1030 37 10000 1.03 0 18:23 29.03.2021
921 Clear 22 1030 37 10000 1.03 0 17:46 29.03.2021
922 Clear 22 1030 37 10000 1.54 0 17:18 29.03.2021
923 Clear 22 1030 37 10000 2.06 230 16:37 29.03.2021
924 Clear 22 1031 40 10000 2.06 0 16:18 29.03.2021
925 Clear 21 1031 45 10000 2.06 190 15:35 29.03.2021
926 Clear 21 1032 45 10000 2.06 210 14:57 29.03.2021
927 Clear 20 1032 48 10000 2.06 0 14:36 29.03.2021
928 Clear 20 1033 49 10000 1.54 0 13:53 29.03.2021
929 Clear 19 1033 45 10000 2.06 230 13:29 29.03.2021
930 Clear 19 1033 52 10000 1.54 0 12:51 29.03.2021
931 Clear 19 1033 52 10000 1.54 0 12:51 29.03.2021
932 Clear 18 1033 59 10000 1.54 0 12:29 29.03.2021
933 Clear 17 1033 63 10000 1.54 0 11:41 29.03.2021
934 Clear 16 1033 67 10000 0.51 0 11:22 29.03.2021
935 Clear 15 1033 67 10000 1.03 0 10:38 29.03.2021
936 Clear 13 1033 71 10000 0.51 0 09:48 29.03.2021
937 Clear 10 1033 87 10000 0.51 0 08:59 29.03.2021
938 Clear 9 1033 93 10000 1.03 180 08:28 29.03.2021
939 Clear 9 1032 93 10000 0.51 0 07:41 29.03.2021
940 Clouds 9 1032 93 10000 0.51 180 06:42 29.03.2021
941 Clouds 11 1033 81 10000 0.51 0 03:59 29.03.2021
942 Clouds 11 1033 81 10000 0.51 0 03:59 29.03.2021
943 Clouds 12 1032 71 10000 1.03 330 01:54 29.03.2021
944 Clouds 13 1032 71 10000 1.03 0 00:23 29.03.2021
945 Clouds 13 1031 76 10000 1.03 260 23:50 28.03.2021
946 Clear 13 1031 76 10000 0.51 0 23:19 28.03.2021
947 Clear 13 1031 71 10000 0.74 138 22:41 28.03.2021
948 Clear 14 1030 71 10000 0.51 0 22:21 28.03.2021
949 Clear 14 1030 67 10000 0.51 180 21:41 28.03.2021
950 Clear 14 1030 58 10000 0.51 190 21:22 28.03.2021
951 Clear 15 1029 55 10000 1.03 220 20:49 28.03.2021
952 Clear 16 1029 48 10000 1.54 220 20:31 28.03.2021
953 Clear 18 1029 48 10000 2.06 210 19:45 28.03.2021
954 Clouds 18 1029 45 10000 2.57 200 19:23 28.03.2021
955 Clear 19 1029 40 10000 2.57 260 18:58 28.03.2021
956 Clouds 19 1029 42 10000 1.54 260 18:28 28.03.2021
957 Clouds 19 1029 42 10000 2.57 210 17:55 28.03.2021
958 Clouds 19 1029 45 10000 2.57 270 17:32 28.03.2021
959 Clouds 19 1029 45 10000 2.57 240 16:46 28.03.2021
960 Clouds 19 1029 45 10000 2.57 240 16:46 28.03.2021
961 Clouds 19 1029 45 10000 2.57 290 16:23 28.03.2021
962 Clouds 18 1030 48 10000 3.09 220 15:42 28.03.2021
963 Clouds 18 1030 52 10000 1.54 0 15:18 28.03.2021
964 Clouds 17 1031 59 10000 2.06 240 14:31 28.03.2021
965 Clouds 17 1031 59 10000 1.54 0 13:48 28.03.2021
966 Clouds 16 1031 55 10000 2.06 250 13:22 28.03.2021
967 Clear 16 1031 63 10000 2.06 0 12:51 28.03.2021
968 Clear 15 1031 63 10000 2.06 0 12:32 28.03.2021
969 Clear 15 1031 67 10000 1.03 0 11:45 28.03.2021
970 Clouds 14 1031 71 10000 1.03 0 11:25 28.03.2021
971 Clouds 12 1031 87 10000 0.51 0 10:44 28.03.2021
972 Clouds 11 1031 87 10000 0.51 0 10:25 28.03.2021
973 Clear 10 1031 81 10000 1.03 0 09:47 28.03.2021
974 Clouds 10 1030 87 10000 0.51 0 09:24 28.03.2021
975 Clouds 9 1030 93 10000 1.03 0 08:46 28.03.2021
976 Clouds 9 1029 93 10000 0.51 0 07:50 28.03.2021
977 Clear 8 1028 93 10000 0.51 0 06:40 28.03.2021
978 Clear 9 1028 87 10000 1.03 40 04:18 28.03.2021
979 Clear 9 1028 87 10000 1.03 40 04:18 28.03.2021
980 Clear 11 1027 71 10000 2.06 300 01:22 28.03.2021
981 Clear 11 1027 66 10000 2.57 260 00:20 28.03.2021
982 Clear 11 1027 66 10000 2.06 260 23:43 27.03.2021
983 Clouds 12 1026 62 10000 2.57 270 22:58 27.03.2021
984 Clouds 12 1026 62 10000 2.57 270 22:36 27.03.2021
985 Clouds 12 1026 62 10000 3.09 280 21:58 27.03.2021
986 Clouds 13 1026 62 10000 3.09 280 21:37 27.03.2021
987 Clouds 13 1026 67 10000 2.57 280 21:19 27.03.2021
988 Clouds 13 1025 71 10000 2.06 260 20:38 27.03.2021
989 Clouds 14 1025 67 10000 2.06 270 20:19 27.03.2021
990 Clouds 14 1024 71 10000 0.51 0 19:42 27.03.2021
991 Clouds 14 1024 71 10000 0.51 0 19:23 27.03.2021
992 Clouds 15 1024 63 10000 0.51 0 18:48 27.03.2021
993 Clouds 15 1024 63 10000 1.03 0 18:28 27.03.2021
994 Clouds 16 1024 63 10000 1.54 260 17:50 27.03.2021
995 Clouds 16 1024 63 10000 1.03 0 17:23 27.03.2021
996 Clouds 16 1024 59 10000 0.51 0 16:49 27.03.2021
997 Clouds 16 1024 59 10000 0.51 0 16:49 27.03.2021
998 Clouds 16 1024 59 10000 1.54 0 16:28 27.03.2021
999 Clouds 16 1024 59 10000 1.54 250 15:48 27.03.2021
1000 Clouds 15 1024 63 10000 2.57 220 15:22 27.03.2021
1001 Clouds 15 1025 59 10000 1.03 0 14:45 27.03.2021
1002 Clouds 15 1025 63 10000 1.03 0 13:50 27.03.2021
1003 Clouds 15 1025 63 10000 2.06 70 13:24 27.03.2021
1004 Clouds 15 1025 72 9000 2.06 50 12:53 27.03.2021
1005 Clouds 13 1025 71 7000 2.06 80 11:59 27.03.2021
1006 Clouds 13 1025 71 10000 2.57 80 11:41 27.03.2021
1007 Clouds 13 1025 71 10000 2.57 80 11:19 27.03.2021
1008 Clouds 13 1025 76 10000 2.06 90 10:43 27.03.2021
1009 Clouds 12 1024 76 10000 2.06 90 10:22 27.03.2021
1010 Clouds 12 1024 76 10000 2.57 80 09:28 27.03.2021
1011 Clouds 12 1024 76 10000 0.51 0 08:43 27.03.2021
1012 Clouds 12 1024 82 10000 1.03 200 08:20 27.03.2021
1013 Clear 11 1023 76 10000 1.03 160 07:32 27.03.2021
1014 Clouds 11 1023 76 10000 0.51 0 06:43 27.03.2021
1015 Clouds 12 1022 71 10000 1.03 0 04:57 27.03.2021
1016 Clouds 12 1022 71 10000 1.03 0 04:39 27.03.2021
1017 Clear 12 1023 67 10000 1.54 300 00:48 27.03.2021
1018 Clear 12 1023 67 10000 2.57 310 00:27 27.03.2021
1019 Clear 12 1024 67 10000 2.06 310 23:48 26.03.2021
1020 Clear 12 1023 67 10000 3.09 270 22:53 26.03.2021
1021 Clear 13 1023 67 10000 3.09 270 22:34 26.03.2021
1022 Clear 13 1023 62 10000 2.57 260 21:25 26.03.2021
1023 Clear 13 1023 62 10000 2.57 240 20:58 26.03.2021
1024 Clouds 14 1025 31 10000 4.92 237 20:32 26.03.2021
1025 Clouds 14 1022 55 10000 2.57 230 19:54 26.03.2021
1026 Clouds 15 1022 55 10000 2.57 230 19:35 26.03.2021
1027 Clouds 16 1022 51 10000 1.03 0 18:59 26.03.2021
1028 Clouds 16 1022 51 10000 1.03 0 18:41 26.03.2021
1029 Clear 17 1022 48 10000 2.57 190 18:18 26.03.2021
1030 Clear 17 1022 48 10000 2.57 180 17:44 26.03.2021
1031 Clear 18 1022 45 10000 2.06 160 16:54 26.03.2021
1032 Clear 18 1022 42 10000 1.54 0 16:31 26.03.2021
1033 Clear 18 1022 45 10000 2.06 170 15:51 26.03.2021
1034 Clear 18 1023 48 10000 1.54 0 14:58 26.03.2021
1035 Clear 18 1023 51 10000 2.06 130 14:23 26.03.2021
1036 Clear 18 1024 48 10000 1.54 260 13:34 26.03.2021
1037 Clear 17 1024 55 10000 1.54 150 12:49 26.03.2021
1038 Clear 17 1024 55 10000 1.54 150 12:49 26.03.2021
1039 Clear 16 1025 55 10000 1.03 0 11:50 26.03.2021
1040 Clear 15 1025 62 10000 1.54 0 11:31 26.03.2021
1041 Clear 15 1025 62 10000 1.54 0 11:31 26.03.2021
1042 Clear 14 1025 67 10000 1.54 70 10:46 26.03.2021
1043 Clear 13 1025 71 10000 1.54 70 10:27 26.03.2021
1044 Clear 13 1026 35 10000 0.45 54 09:42 26.03.2021
1045 Clear 12 1026 36 10000 1.34 98 09:18 26.03.2021
1046 Clear 10 1024 87 10000 1.03 0 08:37 26.03.2021
1047 Clear 8 1023 87 10000 1.03 0 07:59 26.03.2021
1048 Clear 8 1023 87 7000 1.03 0 07:23 26.03.2021
1049 Fog 7 1023 100 7000 1.03 170 06:57 26.03.2021
1050 Clear 8 1023 93 10000 1.54 170 06:27 26.03.2021
1051 Clear 8 1022 93 10000 0.51 0 05:25 26.03.2021
1052 Clear 11 1022 71 10000 2.06 290 01:50 26.03.2021
1053 Clear 11 1022 71 10000 2.57 300 00:23 26.03.2021
1054 Clear 11 1022 66 10000 2.57 300 23:44 25.03.2021
1055 Clear 11 1021 66 10000 3.09 270 22:51 25.03.2021
1056 Clear 11 1021 66 10000 2.57 270 22:27 25.03.2021
1057 Clear 12 1021 62 10000 3.09 260 21:49 25.03.2021
1058 Clear 12 1021 62 10000 3.09 260 21:49 25.03.2021
1059 Clear 12 1021 58 10000 3.09 250 21:31 25.03.2021
1060 Clear 13 1020 54 10000 1.03 180 20:42 25.03.2021
1061 Clear 14 1020 54 10000 1.03 180 20:24 25.03.2021
1062 Clear 14 1020 44 10000 2.06 140 19:43 25.03.2021
1063 Clear 15 1019 41 10000 2.06 150 19:25 25.03.2021
1064 Clear 16 1019 44 10000 2.06 170 18:46 25.03.2021
1065 Clear 17 1019 42 10000 2.06 170 18:26 25.03.2021
1066 Clouds 18 1017 41 10000 0.45 65 17:43 25.03.2021
1067 Clouds 18 1017 42 10000 0.45 50 17:43 25.03.2021
1068 Clouds 18 1021 13 10000 1.79 156 17:24 25.03.2021
1069 Clouds 18 1021 13 10000 1.79 176 16:47 25.03.2021
1070 Clouds 19 1021 13 10000 1.79 192 16:28 25.03.2021
1071 Clouds 19 1022 15 10000 1.79 172 15:43 25.03.2021
1072 Clear 18 1020 45 10000 1.03 0 15:19 25.03.2021
1073 Clear 18 1020 45 10000 1.03 0 14:43 25.03.2021
1074 Clear 18 1021 48 10000 1.54 0 13:48 25.03.2021
1075 Clear 17 1021 51 10000 1.54 140 13:23 25.03.2021
1076 Clear 17 1022 48 10000 1.54 0 12:42 25.03.2021
1077 Clear 16 1022 51 10000 1.54 130 12:20 25.03.2021
1078 Clear 16 1022 55 10000 2.06 240 11:52 25.03.2021
1079 Clear 15 1023 55 10000 1.54 230 11:26 25.03.2021
1080 Clear 14 1023 58 10000 1.54 0 10:52 25.03.2021
1081 Clear 13 1023 67 10000 1.54 220 10:24 25.03.2021
1082 Clear 13 1023 71 10000 1.03 0 09:56 25.03.2021
1083 Clear 12 1022 66 10000 0.51 0 09:38 25.03.2021
1084 Clear 11 1022 66 10000 0.5 111 08:46 25.03.2021
1085 Clear 9 1021 82 10000 0.62 102 07:59 25.03.2021
1086 Clear 7 1021 93 10000 0.51 0 06:59 25.03.2021
1087 Clear 7 1021 87 10000 0.51 0 06:25 25.03.2021
1088 Clear 7 1021 87 10000 0.51 0 05:49 25.03.2021
1089 Clear 8 1021 81 10000 0.51 0 02:48 25.03.2021
1090 Clear 10 1022 71 10000 1.54 10 00:21 25.03.2021
1091 Clear 10 1021 66 10000 1.54 340 23:51 24.03.2021
1092 Clear 11 1021 62 10000 2.06 270 23:28 24.03.2021
1093 Clear 11 1021 66 10000 0.51 0 22:47 24.03.2021
1094 Clear 11 1021 71 10000 1.03 260 22:26 24.03.2021
1095 Clear 12 1021 66 10000 0.51 0 21:42 24.03.2021
1096 Clear 12 1020 58 10000 0.51 0 21:22 24.03.2021
1097 Clear 12 1020 58 10000 1.03 0 20:41 24.03.2021
1098 Clear 13 1020 54 10000 1.03 170 20:20 24.03.2021
1099 Clear 14 1020 41 10000 1.54 160 19:39 24.03.2021
1100 Clear 15 1020 41 10000 1.54 160 19:20 24.03.2021
1101 Clear 16 1020 39 10000 1.03 0 18:43 24.03.2021
1102 Clear 17 1020 34 10000 1.54 240 18:20 24.03.2021
1103 Clear 17 1020 32 10000 1.03 0 17:41 24.03.2021
1104 Clear 17 1020 32 10000 1.03 0 17:23 24.03.2021
1105 Clear 18 1020 36 10000 0.51 0 16:42 24.03.2021
1106 Clear 17 1020 39 10000 1.03 0 16:23 24.03.2021
1107 Clear 17 1020 39 10000 2.57 220 15:44 24.03.2021
1108 Clear 17 1021 39 10000 1.03 0 15:23 24.03.2021
1109 Clear 17 1021 39 10000 1.54 0 14:46 24.03.2021
1110 Clear 16 1022 41 10000 2.57 180 14:24 24.03.2021
1111 Clear 16 1022 41 10000 1.03 0 13:50 24.03.2021
1112 Clear 16 1023 47 10000 2.57 150 13:25 24.03.2021
1113 Clear 15 1023 47 10000 2.57 180 12:41 24.03.2021
1114 Clear 15 1023 51 10000 2.06 200 12:21 24.03.2021
1115 Clear 14 1023 54 10000 2.57 220 11:42 24.03.2021
1116 Clear 12 1024 58 10000 1.54 150 10:53 24.03.2021
1117 Clear 12 1024 54 10000 2.06 160 10:35 24.03.2021
1118 Clear 11 1024 57 10000 2.06 150 09:58 24.03.2021
1119 Clear 10 1023 61 10000 1.03 0 09:37 24.03.2021
1120 Clear 10 1023 61 10000 1.03 0 09:18 24.03.2021
1121 Clear 9 1023 57 10000 0.51 0 08:46 24.03.2021
1122 Clear 8 1023 61 10000 0.51 0 08:24 24.03.2021
1123 Clear 6 1023 75 10000 0.51 0 07:25 24.03.2021
1124 Clear 5 1023 75 10000 1.03 0 06:49 24.03.2021
1125 Clear 6 1022 70 10000 0.51 40 03:19 24.03.2021
1126 Clouds 7 1022 75 10000 0.51 20 00:44 24.03.2021
1127 Clouds 8 1022 57 10000 1.03 20 23:52 23.03.2021
1128 Clear 9 1022 65 10000 1.03 0 23:20 23.03.2021
1129 Clear 9 1022 61 10000 1.03 40 22:51 23.03.2021
1130 Clear 9 1022 57 10000 0.51 0 22:25 23.03.2021
1131 Clear 9 1022 53 10000 0.51 0 21:47 23.03.2021
1132 Clear 10 1022 49 10000 1.03 0 21:29 23.03.2021
1133 Clear 11 1021 46 10000 1.03 170 20:47 23.03.2021
1134 Clear 11 1021 43 10000 1.03 190 20:25 23.03.2021
1135 Clear 12 1021 40 10000 1.54 160 19:48 23.03.2021
1136 Clear 12 1021 40 10000 2.06 170 19:26 23.03.2021
1137 Clear 12 1021 37 10000 1.54 180 18:47 23.03.2021
1138 Clear 13 1021 35 10000 2.06 130 18:23 23.03.2021
1139 Clear 14 1021 35 10000 2.06 0 17:49 23.03.2021
1140 Clear 14 1021 33 10000 1.54 70 17:23 23.03.2021
1141 Clear 14 1021 30 10000 1.03 0 16:57 23.03.2021
1142 Clear 14 1021 30 10000 1.03 0 16:25 23.03.2021
1143 Clear 14 1022 35 10000 1.54 0 15:47 23.03.2021
1144 Clear 14 1022 30 10000 1.03 0 15:18 23.03.2021
1145 Clear 14 1022 33 10000 1.54 0 14:39 23.03.2021
1146 Clear 13 1022 35 10000 2.06 220 14:18 23.03.2021
1147 Clear 13 1023 35 10000 1.03 0 13:43 23.03.2021
1148 Clear 13 1023 38 10000 3.09 130 13:21 23.03.2021
1149 Clear 12 1023 41 10000 4.12 140 12:43 23.03.2021
1150 Clear 12 1023 40 10000 3.09 110 12:21 23.03.2021
1151 Clear 12 1023 40 10000 3.09 110 12:21 23.03.2021
1152 Clear 12 1023 43 10000 4.12 100 11:47 23.03.2021
1153 Clear 12 1023 43 10000 4.12 100 11:47 23.03.2021
1154 Clear 11 1023 43 10000 5.14 100 10:47 23.03.2021
1155 Clear 10 1023 50 10000 4.63 130 10:26 23.03.2021
1156 Clear 10 1023 50 10000 5.14 110 09:59 23.03.2021
1157 Clear 10 1023 50 10000 5.14 110 09:39 23.03.2021
1158 Clear 9 1023 49 10000 4.63 100 09:20 23.03.2021
1159 Clear 9 1022 53 10000 4.12 90 08:40 23.03.2021
1160 Clear 8 1022 57 10000 3.6 80 08:22 23.03.2021
1161 Clear 7 1022 61 10000 3.6 80 07:40 23.03.2021
1162 Clear 6 1022 61 10000 3.09 70 07:19 23.03.2021
1163 Clear 5 1021 60 10000 3.09 70 06:33 23.03.2021
1164 Clear 7 1019 49 10000 3.09 50 03:23 23.03.2021
1165 Clear 7 1018 49 10000 2.57 50 02:18 23.03.2021
1166 Clear 6 1016 52 10000 1.03 0 23:43 22.03.2021
1167 Clear 8 1016 42 10000 1.54 40 22:56 22.03.2021
1168 Clear 7 1016 42 10000 1.54 40 22:37 22.03.2021
1169 Clear 7 1016 42 10000 1.54 40 22:37 22.03.2021
1170 Clear 7 1015 49 10000 1.03 0 22:18 22.03.2021
1171 Clear 7 1015 49 10000 1.54 90 21:40 22.03.2021
1172 Clear 8 1015 49 10000 1.54 90 21:40 22.03.2021
1173 Clear 9 1014 32 10000 1.54 110 21:21 22.03.2021
1174 Clear 9 1013 32 10000 2.06 100 20:41 22.03.2021
1175 Clear 10 1013 30 10000 2.06 120 20:21 22.03.2021
1176 Clear 10 1012 30 10000 2.06 140 19:53 22.03.2021
1177 Clear 11 1012 30 10000 1.54 160 19:31 22.03.2021
1178 Clear 14 1011 30 10000 1.54 170 18:47 22.03.2021
1179 Clear 14 1011 28 10000 2.06 150 18:29 22.03.2021
1180 Clear 14 1011 25 10000 2.57 160 17:58 22.03.2021
1181 Clear 15 1011 25 10000 2.57 160 17:38 22.03.2021
1182 Clear 15 1011 25 10000 3.09 140 17:19 22.03.2021
1183 Clear 15 1011 25 10000 2.57 140 16:43 22.03.2021
1184 Clear 15 1011 26 10000 3.09 120 15:59 22.03.2021
1185 Clear 16 1011 26 10000 3.09 120 15:38 22.03.2021
1186 Clear 15 1011 26 10000 2.06 150 15:18 22.03.2021
1187 Clear 15 1011 26 10000 1.54 0 14:50 22.03.2021
1188 Clear 14 1011 30 10000 1.54 0 14:29 22.03.2021
1189 Clouds 15 1013 14 10000 2.68 218 13:43 22.03.2021
1190 Clear 14 1012 33 10000 1.54 0 13:22 22.03.2021
1191 Clouds 13 1014 15 10000 2.24 248 12:47 22.03.2021
1192 Clear 12 1012 37 10000 1.54 0 12:23 22.03.2021
1193 Clouds 12 1012 45 10000 0.45 228 11:47 22.03.2021
1194 Clear 10 1012 49 10000 1.54 0 11:25 22.03.2021
1195 Clear 9 1012 53 10000 1.03 0 10:44 22.03.2021
1196 Clear 8 1013 56 10000 1.03 0 10:24 22.03.2021
1197 Clear 6 1012 56 10000 0.51 0 09:43 22.03.2021
1198 Clear 5 1012 60 10000 0.51 0 09:22 22.03.2021
1199 Clear 4 1012 65 10000 0.51 0 08:44 22.03.2021
1200 Clear 4 1012 69 10000 0.51 0 08:24 22.03.2021
1201 Clear 2 1012 64 10000 0.51 0 07:45 22.03.2021
1202 Clear 3 1011 75 10000 0.51 0 06:57 22.03.2021
1203 Clear 3 1011 75 10000 0.51 0 06:35 22.03.2021
1204 Clear 4 1012 69 10000 0.51 0 02:38 22.03.2021
1205 Clear 5 1011 56 10000 1.03 160 00:33 22.03.2021
1206 Clear 5 1011 56 10000 1.03 180 23:54 21.03.2021
1207 Clear 5 1011 56 10000 1.03 150 23:20 21.03.2021
1208 Clear 6 1011 48 10000 0.51 0 22:56 21.03.2021
1209 Clear 6 1011 48 10000 1.03 0 22:18 21.03.2021
1210 Clouds 7 1010 43 10000 1.45 218 21:40 21.03.2021
1211 Clouds 7 1011 45 10000 1.03 190 21:22 21.03.2021
1212 Clouds 7 1011 45 10000 2.06 200 20:43 21.03.2021
1213 Clouds 7 1011 39 10000 1.03 220 20:25 21.03.2021
1214 Clouds 7 1011 36 10000 1.03 0 19:53 21.03.2021
1215 Clouds 7 1011 36 10000 1.54 200 19:21 21.03.2021
1216 Clouds 8 1011 34 10000 1.54 210 18:48 21.03.2021
1217 Clouds 8 1011 34 10000 1.03 0 18:27 21.03.2021
1218 Clouds 9 1011 31 10000 0.51 0 17:48 21.03.2021
1219 Clear 9 1012 34 10000 2.06 140 17:21 21.03.2021
1220 Clear 9 1012 31 10000 1.54 50 16:58 21.03.2021
1221 Clear 9 1012 31 10000 1.54 0 16:32 21.03.2021
1222 Clear 9 1013 31 10000 2.06 0 15:58 21.03.2021
1223 Clear 9 1013 31 10000 2.06 0 15:39 21.03.2021
1224 Clear 9 1013 31 10000 2.57 130 15:19 21.03.2021
1225 Clear 9 1014 31 10000 2.57 120 14:44 21.03.2021
1226 Clear 9 1015 31 10000 1.03 0 14:26 21.03.2021
1227 Clear 9 1015 37 10000 2.57 130 13:54 21.03.2021
1228 Clear 8 1016 33 10000 1.54 0 12:59 21.03.2021
1229 Clear 8 1016 33 10000 1.54 0 12:41 21.03.2021
1230 Clear 7 1017 36 10000 2.06 170 12:22 21.03.2021
1231 Clear 7 1018 36 10000 3.09 140 11:28 21.03.2021
1232 Clear 6 1018 39 10000 3.09 130 10:59 21.03.2021
1233 Clear 6 1018 39 10000 3.09 130 10:41 21.03.2021
1234 Clear 6 1018 39 10000 3.09 150 10:21 21.03.2021
1235 Clear 5 1018 42 10000 3.09 120 09:44 21.03.2021
1236 Clear 5 1018 45 10000 2.06 90 09:26 21.03.2021
1237 Clear 5 1018 48 10000 2.06 90 08:39 21.03.2021
1238 Clear 4 1018 48 10000 1.54 90 08:20 21.03.2021
1239 Clear 3 1018 64 10000 1.03 0 07:37 21.03.2021
1240 Clouds 2 1018 74 10000 1.03 20 06:50 21.03.2021
1241 Clouds 4 1019 52 10000 1.54 90 04:59 21.03.2021
1242 Clouds 4 1020 70 10000 2.06 40 01:54 21.03.2021
1243 Clouds 4 1020 69 10000 2.06 20 00:40 21.03.2021
1244 Clouds 4 1020 75 10000 1.03 0 00:21 21.03.2021
1245 Clouds 5 1020 65 10000 1.54 50 23:47 20.03.2021
1246 Clear 5 1020 60 10000 2.06 50 23:20 20.03.2021
1247 Clear 5 1019 70 10000 2.06 50 22:50 20.03.2021
1248 Clear 6 1019 65 10000 2.06 60 22:21 20.03.2021
1249 Clear 6 1018 65 10000 2.57 70 21:45 20.03.2021
1250 Clear 6 1018 61 10000 1.54 60 21:24 20.03.2021
1251 Clear 6 1018 56 10000 3.09 100 20:44 20.03.2021
1252 Clear 6 1018 61 10000 3.6 130 20:22 20.03.2021
1253 Clear 7 1017 57 10000 4.12 140 19:48 20.03.2021
1254 Clear 7 1017 53 10000 6.17 150 19:26 20.03.2021
1255 Clear 9 1016 40 10000 5.66 140 18:49 20.03.2021
1256 Clear 9 1016 40 10000 6.69 150 18:26 20.03.2021
1257 Clear 10 1016 34 10000 5.66 140 17:54 20.03.2021
1258 Clear 11 1015 28 10000 4.12 120 17:32 20.03.2021
1259 Clouds 11 1015 25 10000 3.09 140 16:45 20.03.2021
1260 Clouds 11 1015 25 10000 1.54 180 16:21 20.03.2021
1261 Clouds 11 1016 25 10000 2.06 0 15:57 20.03.2021
1262 Clouds 12 1016 25 10000 2.06 0 15:39 20.03.2021
1263 Clear 11 1016 28 10000 3.6 140 14:45 20.03.2021
1264 Clear 11 1017 30 10000 3.6 170 14:23 20.03.2021
1265 Clear 11 1017 34 10000 2.57 180 13:33 20.03.2021
1266 Clear 11 1018 37 10000 2.57 150 12:51 20.03.2021
1267 Clear 10 1018 43 10000 2.06 0 12:26 20.03.2021
1268 Clear 9 1019 49 10000 2.57 140 11:45 20.03.2021
1269 Clear 9 1019 49 10000 2.06 190 11:27 20.03.2021
1270 Clear 8 1018 49 10000 2.06 240 10:54 20.03.2021
1271 Clouds 8 1018 53 10000 1.03 0 10:27 20.03.2021
1272 Clear 7 1020 25 10000 2.24 160 09:56 20.03.2021
1273 Clear 6 1018 70 10000 0.51 0 09:27 20.03.2021
1274 Clear 5 1018 81 10000 1.03 180 08:56 20.03.2021
1275 Clear 3 1018 81 10000 1.03 0 08:30 20.03.2021
1276 Clear 3 1018 81 10000 1.03 0 08:30 20.03.2021
1277 Clear 3 1018 93 10000 1.03 0 07:51 20.03.2021
1278 Fog 2 1017 93 10000 1.03 160 07:31 20.03.2021
1279 Fog 2 1017 93 10000 1.03 180 06:47 20.03.2021
1280 Clear 2 1017 93 10000 0.51 310 06:18 20.03.2021
1281 Clear 3 1018 93 10000 0.51 0 03:46 20.03.2021
1282 Clear 4 1018 80 10000 1.03 40 02:44 20.03.2021
1283 Clear 5 1018 81 10000 1.03 50 23:57 19.03.2021
1284 Clear 5 1018 75 10000 1.03 50 23:29 19.03.2021
1285 Clear 5 1017 70 10000 1.03 0 22:46 19.03.2021
1286 Clear 5 1017 65 10000 2.06 70 22:26 19.03.2021
1287 Clear 6 1017 65 10000 2.57 80 21:53 19.03.2021
1288 Clear 6 1017 56 10000 2.57 110 21:21 19.03.2021
1289 Clear 7 1016 65 10000 1.54 50 20:47 19.03.2021
1290 Clear 7 1016 49 10000 2.06 110 20:27 19.03.2021
1291 Clear 8 1015 49 10000 2.06 120 19:59 19.03.2021
1292 Clear 7 1015 49 10000 2.06 120 19:39 19.03.2021
1293 Clear 8 1015 49 10000 2.06 110 19:19 19.03.2021
1294 Clear 8 1015 49 10000 3.09 90 18:39 19.03.2021
1295 Clouds 9 1015 46 10000 3.09 110 18:18 19.03.2021
1296 Clouds 9 1015 46 10000 3.09 70 17:51 19.03.2021
1297 Clouds 9 1014 46 10000 3.6 70 17:27 19.03.2021
1298 Clouds 10 1014 49 10000 4.12 80 16:51 19.03.2021
1299 Clouds 10 1014 49 10000 4.63 60 16:26 19.03.2021
1300 Clouds 9 1015 49 10000 5.14 60 15:43 19.03.2021
1301 Clouds 9 1014 49 10000 6.17 60 15:22 19.03.2021
1302 Clouds 9 1014 34 10000 4.12 90 14:42 19.03.2021
1303 Clouds 9 1015 43 10000 3.09 110 14:21 19.03.2021
1304 Clouds 9 1015 46 10000 3.6 130 13:34 19.03.2021
1305 Clouds 9 1015 49 10000 3.09 140 12:49 19.03.2021
1306 Clouds 9 1016 53 10000 3.6 90 12:30 19.03.2021
1307 Clouds 8 1016 57 10000 3.09 130 11:39 19.03.2021
1308 Clouds 8 1016 65 10000 3.09 70 10:53 19.03.2021
1309 Clouds 7 1016 61 10000 3.09 100 10:27 19.03.2021
1310 Clouds 7 1016 61 10000 3.6 100 09:48 19.03.2021
1311 Clear 6 1016 65 10000 4.12 90 09:29 19.03.2021
1312 Clouds 6 1018 31 10000 2.68 83 08:54 19.03.2021
1313 Clear 5 1015 70 10000 3.6 90 08:32 19.03.2021
1314 Clear 4 1015 70 10000 2.57 80 07:52 19.03.2021
1315 Clear 4 1015 70 10000 2.57 80 07:34 19.03.2021
1316 Clear 4 1015 70 10000 2.57 90 06:36 19.03.2021
1317 Clear 5 1015 70 10000 2.57 90 02:45 19.03.2021
1318 Clear 6 1015 65 10000 2.06 60 23:58 18.03.2021
1319 Clear 6 1015 75 10000 2.06 60 23:30 18.03.2021
1320 Clouds 6 1016 70 10000 1.03 40 22:58 18.03.2021
1321 Clouds 6 1016 70 10000 1.03 340 22:27 18.03.2021
1322 Clouds 7 1016 61 10000 2.06 50 21:56 18.03.2021
1323 Clouds 7 1016 61 10000 2.06 50 21:38 18.03.2021
1324 Clouds 7 1016 65 10000 2.06 40 20:43 18.03.2021
1325 Clouds 7 1015 65 10000 1.54 60 20:23 18.03.2021
1326 Clouds 7 1015 61 10000 1.03 0 19:45 18.03.2021
1327 Clouds 7 1015 57 10000 2.06 110 19:24 18.03.2021
1328 Clear 8 1015 57 10000 3.09 150 18:53 18.03.2021
1329 Clear 8 1015 61 10000 3.72 129 18:27 18.03.2021
1330 Clouds 8 1015 57 10000 4.63 150 17:47 18.03.2021
1331 Clouds 8 1015 57 10000 5.66 140 17:25 18.03.2021
1332 Clouds 9 1016 57 10000 6.69 130 16:42 18.03.2021
1333 Clouds 8 1016 65 10000 5.14 140 16:23 18.03.2021
1334 Clouds 9 1016 61 10000 4.12 120 15:41 18.03.2021
1335 Clouds 9 1017 57 10000 3.6 90 15:23 18.03.2021
1336 Rain 9 1016 53 10000 7.2 350 14:50 18.03.2021
1337 Rain 9 1016 49 10000 4.63 50 14:28 18.03.2021
1338 Rain 11 1017 46 10000 4.12 160 13:48 18.03.2021
1339 Clouds 10 1017 46 10000 3.6 140 13:25 18.03.2021
1340 Clouds 10 1018 46 10000 3.6 140 12:42 18.03.2021
1341 Clouds 10 1018 50 10000 4.12 140 12:24 18.03.2021
1342 Clouds 10 1018 53 10000 4.63 120 11:46 18.03.2021
1343 Clouds 10 1018 53 10000 4.63 140 11:25 18.03.2021
1344 Clear 9 1018 53 10000 5.14 140 10:44 18.03.2021
1345 Clear 8 1018 65 10000 4.63 120 10:23 18.03.2021
1346 Clear 8 1019 65 10000 3.6 130 09:53 18.03.2021
1347 Clear 7 1018 70 10000 3.6 140 09:27 18.03.2021
1348 Clear 6 1018 65 10000 2.57 110 08:46 18.03.2021
1349 Clear 5 1018 70 10000 2.57 110 08:26 18.03.2021
1350 Clouds 5 1018 65 10000 3.09 100 07:48 18.03.2021
1351 Clouds 4 1018 60 10000 1.54 100 06:50 18.03.2021
1352 Clouds 4 1017 56 10000 1.54 100 06:26 18.03.2021
1353 Clouds 4 1017 56 10000 2.57 70 05:27 18.03.2021
1354 Clouds 7 1017 39 10000 2.57 20 00:49 18.03.2021
1355 Clouds 7 1016 33 10000 2.57 10 23:39 17.03.2021
1356 Clear 9 1016 27 10000 4.63 20 22:43 17.03.2021
1357 Clear 9 1016 29 10000 4.63 20 22:24 17.03.2021
1358 Clear 10 1016 27 10000 3.6 30 21:52 17.03.2021
1359 Clear 10 1015 25 10000 5.66 10 21:32 17.03.2021
1360 Clear 10 1015 23 10000 5.66 360 20:55 17.03.2021
1361 Clear 10 1015 23 10000 5.66 360 20:55 17.03.2021
1362 Clear 11 1015 22 10000 6.69 10 20:37 17.03.2021
1363 Clear 11 1015 22 10000 6.69 10 20:19 17.03.2021
1364 Clear 12 1014 19 10000 6.69 360 19:41 17.03.2021
1365 Clear 12 1014 19 10000 6.69 360 19:20 17.03.2021
1366 Clear 12 1014 19 10000 6.69 360 19:20 17.03.2021
1367 Clear 12 1014 18 10000 6.17 360 18:52 17.03.2021
1368 Clear 13 1013 16 10000 7.72 360 18:32 17.03.2021
1369 Clear 14 1013 21 10000 7.72 10 17:42 17.03.2021
1370 Clouds 15 1013 25 10000 3.6 340 17:23 17.03.2021
1371 Clouds 15 1013 23 10000 3.09 350 16:43 17.03.2021
1372 Clouds 15 1013 23 10000 4.12 340 16:21 17.03.2021
1373 Clouds 15 1013 21 10000 2.06 0 15:46 17.03.2021
1374 Clouds 15 1014 23 10000 3.09 280 15:28 17.03.2021
1375 Clouds 15 1014 21 10000 2.06 0 14:40 17.03.2021
1376 Clouds 15 1014 23 10000 1.54 0 14:20 17.03.2021
1377 Clear 15 1015 24 10000 1.54 0 13:55 17.03.2021
1378 Clear 14 1015 26 10000 2.57 220 13:25 17.03.2021
1379 Clear 13 1016 30 10000 2.57 180 12:48 17.03.2021
1380 Clear 13 1016 30 10000 2.06 170 12:27 17.03.2021
1381 Clear 12 1016 33 10000 1.54 210 11:41 17.03.2021
1382 Clear 12 1016 33 10000 1.54 210 11:21 17.03.2021
1383 Clear 12 1016 24 10000 1.03 0 10:52 17.03.2021
1384 Clear 12 1017 30 10000 2.06 90 10:23 17.03.2021
1385 Clear 11 1017 34 10000 1.54 90 09:46 17.03.2021
1386 Clear 9 1017 37 10000 1.03 0 09:20 17.03.2021
1387 Clear 8 1017 45 10000 1.54 10 08:47 17.03.2021
1388 Clear 6 1016 48 10000 1.54 340 08:27 17.03.2021
1389 Clear 5 1016 52 10000 3.09 10 07:43 17.03.2021
1390 Clouds 5 1016 48 10000 1.54 350 06:59 17.03.2021
1391 Clouds 5 1016 48 10000 1.54 360 06:29 17.03.2021
1392 Clouds 6 1017 39 10000 1.54 260 04:18 17.03.2021
1393 Clear 8 1017 33 10000 1.54 180 02:41 17.03.2021
1394 Clear 9 1017 23 10000 6.17 30 00:39 17.03.2021
1395 Clouds 10 1018 23 10000 7.72 10 23:27 16.03.2021
1396 Clouds 10 1018 23 10000 7.2 360 22:46 16.03.2021
1397 Clouds 10 1017 20 10000 7.2 360 22:28 16.03.2021
1398 Clouds 10 1018 23 10000 5.14 350 21:45 16.03.2021
1399 Clear 10 1017 22 10000 5.14 360 21:26 16.03.2021
1400 Clear 10 1017 20 10000 6.17 350 20:58 16.03.2021
1401 Clear 11 1017 20 10000 5.66 350 20:20 16.03.2021
1402 Clear 11 1017 19 10000 7.2 350 19:51 16.03.2021
1403 Clear 11 1017 17 10000 7.2 360 19:29 16.03.2021
1404 Clear 12 1016 17 10000 8.75 350 18:57 16.03.2021
1405 Clear 12 1016 17 10000 8.75 350 18:57 16.03.2021
1406 Clear 12 1016 17 10000 8.75 350 18:39 16.03.2021
1407 Clear 13 1016 15 10000 8.75 360 17:59 16.03.2021
1408 Clear 13 1016 15 10000 8.75 360 17:59 16.03.2021
1409 Clear 13 1016 15 10000 8.75 360 17:40 16.03.2021
1410 Clear 13 1015 17 10000 9.26 360 17:21 16.03.2021
1411 Clear 14 1016 18 10000 8.23 340 16:47 16.03.2021
1412 Clear 15 1016 18 10000 7.2 340 16:25 16.03.2021
1413 Clear 15 1016 17 10000 7.2 340 15:46 16.03.2021
1414 Clear 15 1015 18 10000 8.23 350 15:20 16.03.2021
1415 Clear 14 1015 20 10000 7.72 10 14:57 16.03.2021
1416 Clear 15 1015 20 10000 7.72 10 14:38 16.03.2021
1417 Clear 15 1016 21 10000 6.17 350 14:18 16.03.2021
1418 Clear 15 1016 20 10000 6.17 10 13:44 16.03.2021
1419 Clear 15 1016 18 10000 7.2 360 13:21 16.03.2021
1420 Clear 15 1016 21 10000 5.14 340 12:46 16.03.2021
1421 Clear 15 1016 21 10000 6.17 350 12:27 16.03.2021
1422 Clear 14 1016 24 10000 5.66 340 11:38 16.03.2021
1423 Clear 13 1016 22 10000 6.17 330 10:53 16.03.2021
1424 Clear 12 1017 22 10000 5.14 310 10:24 16.03.2021
1425 Clear 11 1016 24 10000 6.69 330 09:47 16.03.2021
1426 Clear 11 1016 25 10000 6.17 330 09:29 16.03.2021
1427 Clear 10 1016 27 10000 5.14 320 08:57 16.03.2021
1428 Clear 11 1016 27 10000 5.14 320 08:39 16.03.2021
1429 Clear 9 1015 36 10000 3.6 330 07:57 16.03.2021
1430 Clear 9 1015 31 10000 4.12 320 07:30 16.03.2021
1431 Clear 8 1014 34 10000 3.6 330 06:39 16.03.2021
1432 Clear 8 1014 34 10000 3.6 320 05:37 16.03.2021
1433 Clear 8 1014 34 10000 3.6 320 05:18 16.03.2021
1434 Clear 9 1012 25 10000 4.63 320 02:44 16.03.2021
1435 Clear 9 1012 34 10000 5.14 330 01:59 16.03.2021
1436 Clear 11 1011 35 10000 4.63 330 23:55 15.03.2021
1437 Clear 11 1011 35 10000 5.14 340 23:28 15.03.2021
1438 Clear 11 1010 32 10000 5.14 320 22:50 15.03.2021
1439 Clear 11 1010 35 10000 3.6 310 22:29 15.03.2021
1440 Clear 11 1010 32 10000 3.09 330 21:53 15.03.2021
1441 Clear 11 1009 35 10000 3.6 330 21:33 15.03.2021
1442 Clear 12 1009 33 10000 3.6 330 20:57 15.03.2021
1443 Clear 12 1009 33 10000 3.6 330 20:38 15.03.2021
1444 Clear 12 1009 33 10000 3.6 330 20:38 15.03.2021
1445 Clear 12 1009 33 10000 3.6 330 20:20 15.03.2021
1446 Clear 12 1009 35 10000 1.54 310 19:48 15.03.2021
1447 Clear 13 1008 33 10000 2.57 320 19:30 15.03.2021
1448 Clear 14 1008 29 10000 4.63 310 18:48 15.03.2021
1449 Clear 14 1008 29 10000 3.6 320 18:23 15.03.2021
1450 Clear 15 1008 29 10000 4.12 300 17:55 15.03.2021
1451 Clear 16 1008 29 10000 4.63 310 17:29 15.03.2021
1452 Clear 16 1008 29 10000 4.63 310 16:50 15.03.2021
1453 Clear 16 1008 31 10000 4.63 300 16:31 15.03.2021
1454 Clear 16 1008 29 10000 4.63 290 15:45 15.03.2021
1455 Clear 16 1008 31 10000 5.66 310 15:25 15.03.2021
1456 Clear 16 1008 29 10000 4.63 260 14:43 15.03.2021
1457 Clear 16 1009 29 10000 4.63 280 14:22 15.03.2021
1458 Clear 15 1009 31 10000 4.12 270 13:46 15.03.2021
1459 Clear 15 1009 31 10000 4.12 270 13:46 15.03.2021
1460 Clear 15 1010 26 10000 5.14 290 13:24 15.03.2021
1461 Clear 15 1010 29 10000 5.14 270 12:47 15.03.2021
1462 Clear 14 1010 30 10000 4.12 280 12:19 15.03.2021
1463 Clear 14 1011 35 10000 4.12 260 11:48 15.03.2021
1464 Clear 12 1011 40 10000 3.6 260 11:30 15.03.2021
1465 Clear 11 1012 40 10000 3.09 260 10:49 15.03.2021
1466 Clear 10 1012 50 10000 3.6 250 10:30 15.03.2021
1467 Clear 9 1012 57 10000 2.57 250 09:51 15.03.2021
1468 Clear 8 1012 61 10000 3.09 250 09:31 15.03.2021
1469 Clear 7 1012 65 10000 2.57 240 08:49 15.03.2021
1470 Clear 6 1012 65 10000 2.06 250 08:28 15.03.2021
1471 Clear 4 1012 75 10000 1.54 260 07:49 15.03.2021
1472 Clear 4 1012 75 10000 1.54 250 07:30 15.03.2021
1473 Clear 4 1012 75 10000 2.06 250 06:36 15.03.2021
1474 Clear 4 1012 75 10000 2.06 260 05:31 15.03.2021
1475 Clear 5 1013 81 10000 1.03 0 01:26 15.03.2021
1476 Clear 6 1013 70 10000 4.63 50 23:52 14.03.2021
1477 Clear 7 1013 45 10000 3.09 50 23:19 14.03.2021
1478 Clear 8 1013 40 10000 3.09 340 22:42 14.03.2021
1479 Clear 9 1013 40 10000 4.12 350 22:19 14.03.2021
1480 Clear 9 1013 34 10000 4.63 330 21:44 14.03.2021
1481 Clear 10 1012 34 10000 5.14 330 21:18 14.03.2021
1482 Clear 10 1012 30 10000 5.66 330 20:43 14.03.2021
1483 Clear 11 1012 28 10000 6.69 330 20:24 14.03.2021
1484 Clear 11 1011 24 10000 6.17 330 19:42 14.03.2021
1485 Clear 12 1011 22 10000 5.66 330 19:22 14.03.2021
1486 Clear 12 1010 19 10000 5.66 320 18:46 14.03.2021
1487 Clear 13 1010 18 10000 5.14 330 18:18 14.03.2021
1488 Clear 14 1009 17 10000 6.17 320 17:39 14.03.2021
1489 Clear 14 1009 15 10000 8.23 330 17:20 14.03.2021
1490 Clear 14 1009 17 10000 7.2 330 16:42 14.03.2021
1491 Clear 14 1008 17 10000 7.72 330 16:23 14.03.2021
1492 Clear 15 1008 15 10000 7.2 320 15:49 14.03.2021
1493 Clear 15 1008 14 10000 7.2 330 15:24 14.03.2021
1494 Clear 15 1008 14 10000 7.72 320 14:40 14.03.2021
1495 Clear 14 1008 14 10000 8.23 310 14:20 14.03.2021
1496 Clear 14 1008 14 10000 9.77 330 13:45 14.03.2021
1497 Clear 15 1008 15 10000 9.26 330 13:26 14.03.2021
1498 Clear 14 1007 15 10000 8.23 310 12:43 14.03.2021
1499 Clear 14 1007 19 10000 8.23 320 12:23 14.03.2021
1500 Clear 13 1007 18 10000 7.72 320 11:41 14.03.2021
1501 Clear 13 1007 21 10000 6.17 310 11:23 14.03.2021
1502 Clouds 13 1007 30 10000 5.14 280 10:38 14.03.2021
1503 Clouds 12 1007 62 10000 4.63 260 10:20 14.03.2021
1504 Rain 11 1006 76 10000 4.63 250 09:59 14.03.2021
1505 Clouds 11 1006 50 10000 3.6 290 09:40 14.03.2021
1506 Clouds 10 1006 50 10000 3.6 290 09:20 14.03.2021
1507 Rain 9 1004 76 10000 7.86 320 08:39 14.03.2021
1508 Clouds 8 1006 81 10000 1.03 0 07:59 14.03.2021
1509 Clouds 8 1005 81 10000 0.51 0 07:28 14.03.2021
1510 Clear 8 1004 81 10000 1.03 0 05:38 14.03.2021
1511 Clear 7 1004 87 10000 2.06 110 05:38 14.03.2021
1512 Clouds 9 1007 76 10000 1.54 350 01:29 14.03.2021
1513 Clear 9 1007 81 10000 1.54 350 00:42 14.03.2021
1514 Clear 9 1007 76 10000 1.54 340 00:18 14.03.2021
1515 Clear 9 1007 81 10000 1.54 330 23:42 13.03.2021
1516 Clear 10 1008 71 10000 2.57 360 23:19 13.03.2021
1517 Clear 10 1008 75 10000 1.03 0 22:46 13.03.2021
1518 Clear 10 1008 81 10000 1.03 270 22:21 13.03.2021
1519 Clear 11 1009 71 10000 1.03 0 21:35 13.03.2021
1520 Clear 12 1009 66 10000 1.54 110 20:59 13.03.2021
1521 Clouds 13 1008 63 10000 0.67 199 20:41 13.03.2021
1522 Clear 12 1009 58 10000 1.54 130 20:23 13.03.2021
1523 Clear 13 1009 54 10000 1.54 110 19:40 13.03.2021
1524 Clouds 13 1009 51 10000 2.06 90 19:22 13.03.2021
1525 Clear 14 1009 51 10000 2.57 120 18:42 13.03.2021
1526 Clear 14 1009 44 10000 3.09 130 18:20 13.03.2021
1527 Clear 15 1010 44 10000 2.57 140 17:49 13.03.2021
1528 Clear 15 1010 47 10000 2.06 150 17:31 13.03.2021
1529 Clear 16 1010 41 10000 2.57 140 16:53 13.03.2021
1530 Clear 16 1010 41 10000 2.57 140 16:35 13.03.2021
1531 Clear 16 1011 41 10000 1.03 0 15:56 13.03.2021
1532 Clouds 16 1011 41 10000 2.06 0 15:18 13.03.2021
1533 Clouds 16 1011 41 10000 1.54 0 14:41 13.03.2021
1534 Clouds 15 1012 47 10000 2.57 110 14:21 13.03.2021
1535 Clouds 15 1013 54 10000 1.54 0 13:27 13.03.2021
1536 Clouds 14 1013 62 10000 2.06 70 12:52 13.03.2021
1537 Clouds 14 1014 67 10000 1.03 0 12:34 13.03.2021
1538 Clouds 13 1014 71 8000 3.09 130 11:54 13.03.2021
1539 Clouds 12 1014 76 6000 3.09 110 11:32 13.03.2021
1540 Clouds 11 1014 76 8000 3.09 90 10:56 13.03.2021
1541 Clouds 10 1015 76 10000 2.57 70 10:31 13.03.2021
1542 Clouds 9 1015 81 10000 2.06 100 09:59 13.03.2021
1543 Clouds 8 1015 81 10000 2.06 130 09:31 13.03.2021
1544 Fog 7 1014 100 4600 1.03 0 08:54 13.03.2021
1545 Fog 6 1014 100 350 1.03 20 08:20 13.03.2021
1546 Fog 5 1014 100 200 1.03 0 07:56 13.03.2021
1547 Fog 5 1013 100 1500 1.54 10 07:28 13.03.2021
1548 Mist 7 1012 100 5000 0.51 0 04:45 13.03.2021
1549 Clear 8 1013 93 8000 1.54 360 01:22 13.03.2021
1550 Clear 9 1013 93 8000 1.54 30 00:23 13.03.2021
1551 Clear 9 1013 87 8000 1.54 80 23:33 12.03.2021
1552 Clear 10 1013 93 8000 1.03 0 22:56 12.03.2021
1553 Clear 11 1013 87 10000 2.06 110 22:29 12.03.2021
1554 Clear 11 1012 87 10000 1.03 0 21:54 12.03.2021
1555 Clear 11 1012 87 10000 1.03 0 21:36 12.03.2021
1556 Clear 11 1012 87 10000 1.03 0 21:36 12.03.2021
1557 Clear 11 1012 87 10000 0.51 0 21:18 12.03.2021
1558 Clear 12 1012 81 10000 1.03 190 20:41 12.03.2021
1559 Clear 12 1011 81 10000 1.54 160 20:19 12.03.2021
1560 Clear 13 1011 71 10000 1.03 170 19:43 12.03.2021
1561 Clear 13 1010 71 10000 1.54 190 19:24 12.03.2021
1562 Clear 14 1010 67 10000 2.06 180 18:39 12.03.2021
1563 Clear 15 1010 67 10000 3.09 180 18:19 12.03.2021
1564 Clear 15 1010 63 10000 2.57 180 17:40 12.03.2021
1565 Clear 16 1010 63 10000 3.09 160 17:22 12.03.2021
1566 Clouds 16 1010 59 10000 2.06 180 16:42 12.03.2021
1567 Clouds 16 1010 55 10000 2.06 200 15:55 12.03.2021
1568 Clear 16 1010 55 10000 2.06 190 15:35 12.03.2021
1569 Clear 16 1010 51 10000 1.54 220 14:49 12.03.2021
1570 Clear 16 1011 55 10000 1.54 0 14:21 12.03.2021
1571 Clear 16 1011 51 10000 2.57 230 13:45 12.03.2021
1572 Clear 15 1012 58 10000 1.54 0 13:24 12.03.2021
1573 Clear 15 1012 58 10000 2.06 0 12:59 12.03.2021
1574 Clear 15 1012 58 10000 2.06 0 12:41 12.03.2021
1575 Clear 14 1012 62 10000 2.06 0 12:20 12.03.2021
1576 Clear 14 1013 58 10000 2.57 240 11:51 12.03.2021
1577 Clear 13 1013 67 10000 1.54 250 11:22 12.03.2021
1578 Clouds 13 1014 66 10000 1.03 0 10:53 12.03.2021
1579 Clouds 13 1013 70 10000 1.14 275 10:25 12.03.2021
1580 Clouds 12 1014 76 7000 1.03 0 09:54 12.03.2021
1581 Clouds 11 1014 76 7000 1.03 0 09:54 12.03.2021
1582 Clouds 10 1014 76 6000 1.03 0 09:24 12.03.2021
1583 Clouds 8 1014 93 6000 1.03 0 08:44 12.03.2021
1584 Mist 7 1013 100 4000 1.03 300 07:57 12.03.2021
1585 Mist 7 1013 93 3500 0.51 0 07:32 12.03.2021
1586 Clouds 7 1013 93 8000 0.51 0 06:49 12.03.2021
1587 Clouds 7 1013 93 8000 0.51 0 06:26 12.03.2021
1588 Clouds 9 1014 87 8000 1.03 0 02:20 12.03.2021
1589 Clouds 9 1014 81 10000 1.03 40 00:18 12.03.2021
1590 Clouds 9 1015 81 10000 1.54 60 23:25 11.03.2021
1591 Clouds 9 1015 81 10000 1.03 0 22:43 11.03.2021
1592 Clouds 10 1015 76 10000 1.03 120 22:22 11.03.2021
1593 Clouds 10 1015 76 10000 1.03 0 21:46 11.03.2021
1594 Clouds 10 1015 81 10000 0.51 170 21:26 11.03.2021
1595 Clouds 10 1016 71 10000 0.51 150 20:49 11.03.2021
1596 Clouds 10 1016 81 10000 0.51 0 20:27 11.03.2021
1597 Clouds 10 1016 71 10000 0.51 0 19:57 11.03.2021
1598 Clouds 10 1016 71 10000 0.51 0 19:38 11.03.2021
1599 Clouds 10 1016 71 10000 1.03 170 18:55 11.03.2021
1600 Clouds 11 1016 71 7000 1.54 180 18:35 11.03.2021
1601 Clouds 11 1016 66 10000 2.57 200 17:57 11.03.2021
1602 Clouds 11 1016 66 10000 2.57 200 17:39 11.03.2021
1603 Clouds 11 1017 71 10000 2.06 180 16:42 11.03.2021
1604 Clouds 12 1017 62 10000 1.54 190 16:24 11.03.2021
1605 Clouds 12 1017 62 10000 1.54 180 15:44 11.03.2021
1606 Clouds 12 1018 62 8000 2.06 170 15:21 11.03.2021
1607 Clouds 11 1018 58 7000 0.51 0 14:45 11.03.2021
1608 Clouds 11 1019 62 8000 0.51 0 14:19 11.03.2021
1609 Clouds 11 1019 58 8000 1.03 0 13:46 11.03.2021
1610 Clouds 11 1019 62 8000 1.54 80 13:22 11.03.2021
1611 Clouds 11 1020 62 7000 1.54 80 12:56 11.03.2021
1612 Clouds 10 1020 66 7000 1.54 70 12:30 11.03.2021
1613 Clouds 9 1020 61 7000 1.54 100 11:49 11.03.2021
1614 Clouds 9 1020 66 7000 2.06 100 11:31 11.03.2021
1615 Clouds 8 1020 66 7000 1.03 0 10:57 11.03.2021
1616 Clouds 8 1020 66 8000 1.54 70 10:28 11.03.2021
1617 Clouds 7 1020 65 8000 1.54 110 09:53 11.03.2021
1618 Clouds 7 1020 70 8000 1.54 60 09:34 11.03.2021
1619 Clouds 7 1020 65 7000 1.03 0 08:51 11.03.2021
1620 Clouds 7 1020 65 7000 1.03 0 08:32 11.03.2021
1621 Clouds 6 1019 75 8000 1.03 10 07:50 11.03.2021
1622 Clouds 6 1019 75 10000 0.51 40 07:21 11.03.2021
1623 Clouds 6 1019 81 10000 0.51 20 06:47 11.03.2021
1624 Clouds 6 1019 81 10000 1.54 30 06:23 11.03.2021
1625 Clear 7 1019 87 10000 1.03 350 02:31 11.03.2021
1626 -273 0 0 0 0 0 00:32 11.03.2021
1627 Clear 7 1019 81 10000 1.03 20 00:31 11.03.2021
1628 Clear 8 1019 75 10000 1.03 0 23:23 10.03.2021
1629 Clear 8 1019 70 10000 0.51 0 22:42 10.03.2021
1630 Clear 9 1019 57 10000 0.51 0 22:21 10.03.2021
1631 Clear 9 1018 61 10000 0.51 0 21:44 10.03.2021
1632 Clear 10 1018 57 10000 0.51 0 21:22 10.03.2021
1633 Clear 10 1018 57 10000 0.51 0 21:22 10.03.2021
1634 Clear 10 1018 70 10000 1.03 220 20:45 10.03.2021
1635 Clear 10 1018 57 10000 0.51 210 20:27 10.03.2021
1636 Clear 11 1018 46 10000 1.54 210 19:43 10.03.2021
1637 Clear 12 1017 43 10000 1.54 190 19:24 10.03.2021
1638 Clear 12 1017 40 10000 2.06 210 18:44 10.03.2021
1639 Clear 13 1017 38 10000 2.06 210 18:24 10.03.2021
1640 Clear 13 1017 38 10000 2.06 220 17:55 10.03.2021
1641 Clear 14 1017 38 10000 2.06 220 17:36 10.03.2021
1642 Clear 14 1017 38 10000 2.57 250 17:18 10.03.2021
1643 Clear 14 1017 38 10000 3.09 250 16:41 10.03.2021
1644 Clear 14 1017 41 10000 2.06 240 16:22 10.03.2021
1645 Clear 14 1017 41 10000 2.06 190 15:44 10.03.2021
1646 Clear 14 1017 41 10000 1.54 0 15:22 10.03.2021
1647 Clear 13 1017 44 10000 1.54 170 14:46 10.03.2021
1648 Clear 13 1018 47 10000 2.06 190 14:19 10.03.2021
1649 Clear 13 1018 50 10000 1.03 0 13:50 10.03.2021
1650 Clear 13 1019 54 10000 2.57 180 13:27 10.03.2021
1651 Clear 13 1019 47 10000 1.03 0 12:45 10.03.2021
1652 Clear 12 1019 54 10000 2.06 190 12:19 10.03.2021
1653 Clear 11 1019 57 10000 2.57 140 11:32 10.03.2021
1654 Clear 11 1019 62 10000 2.06 160 10:59 10.03.2021
1655 Clear 11 1019 62 10000 2.06 160 10:38 10.03.2021
1656 Clear 10 1019 66 10000 1.54 70 10:20 10.03.2021
1657 Clear 9 1019 71 10000 1.54 40 09:42 10.03.2021
1658 Clear 8 1019 76 10000 1.54 50 09:22 10.03.2021
1659 Clouds 7 1020 31 10000 1.34 325 08:57 10.03.2021
1660 Clouds 7 1021 31 10000 1.34 319 08:57 10.03.2021
1661 Clouds 7 1020 31 10000 0.89 315 08:38 10.03.2021
1662 Clear 5 1018 87 10000 1.54 20 08:20 10.03.2021
1663 Clouds 5 1017 93 9000 1.03 130 07:30 10.03.2021
1664 Clouds 5 1017 93 9000 1.03 130 07:30 10.03.2021
1665 Clear 5 1017 87 10000 1.03 340 06:56 10.03.2021
1666 Clear 5 1016 93 10000 1.03 340 06:23 10.03.2021
1667 Clear 7 1015 81 10000 0.51 360 02:27 10.03.2021
1668 Clear 8 1015 75 10000 2.06 80 23:49 09.03.2021
1669 Clouds 8 1014 81 10000 0.51 0 23:19 09.03.2021
1670 Clouds 8 1014 75 10000 1.03 40 22:39 09.03.2021
1671 Clouds 9 1014 76 10000 0.51 20 22:18 09.03.2021
1672 Clouds 9 1014 66 10000 0.51 0 21:45 09.03.2021
1673 Clouds 9 1014 61 10000 0.51 200 21:24 09.03.2021
1674 Clouds 10 1013 61 10000 1.54 190 20:58 09.03.2021
1675 Clouds 10 1013 61 10000 2.06 190 20:39 09.03.2021
1676 Clouds 10 1013 61 10000 2.06 190 20:20 09.03.2021
1677 Rain 10 1013 66 10000 2.06 190 19:46 09.03.2021
1678 Clear 11 1013 57 10000 1.54 190 19:25 09.03.2021
1679 Clear 11 1013 53 10000 1.54 170 18:48 09.03.2021
1680 Clear 11 1012 50 10000 2.06 180 18:25 09.03.2021
1681 Clear 12 1012 54 10000 1.54 160 17:50 09.03.2021
1682 Clouds 12 1012 47 10000 1.54 180 17:29 09.03.2021
1683 Clouds 12 1013 41 10000 1.54 220 16:44 09.03.2021
1684 Clouds 12 1013 40 10000 1.03 0 16:26 09.03.2021
1685 Clouds 13 1013 41 10000 1.03 0 15:59 09.03.2021
1686 Clouds 13 1013 47 10000 1.54 300 15:30 09.03.2021
1687 Clear 13 1014 50 10000 1.03 0 14:55 09.03.2021
1688 Clouds 13 1014 47 10000 1.03 0 14:28 09.03.2021
1689 Clouds 12 1015 54 10000 1.54 0 13:43 09.03.2021
1690 Clouds 12 1015 54 10000 1.54 0 13:22 09.03.2021
1691 Clouds 12 1015 62 10000 3.09 160 12:56 09.03.2021
1692 Clouds 12 1015 64 10000 0.45 180 12:38 09.03.2021
1693 Clear 11 1016 62 10000 3.09 140 11:58 09.03.2021
1694 Clear 11 1016 62 10000 2.57 130 11:39 09.03.2021
1695 Clear 11 1016 62 10000 2.57 130 11:19 09.03.2021
1696 Clear 10 1016 66 10000 2.06 110 10:41 09.03.2021
1697 Clear 9 1016 76 10000 2.06 110 10:21 09.03.2021
1698 Clouds 9 1016 76 8000 1.54 60 09:47 09.03.2021
1699 Clouds 8 1016 81 8000 1.03 0 09:28 09.03.2021
1700 Clouds 7 1016 93 7000 1.03 20 08:58 09.03.2021
1701 Clouds 6 1016 93 7000 1.03 20 08:33 09.03.2021
1702 Fog 5 1016 100 4000 1.03 350 07:47 09.03.2021
1703 Clear 4 1016 100 6000 1.54 10 07:28 09.03.2021
1704 Clear 4 1016 100 10000 0.51 0 06:59 09.03.2021
1705 Clear 5 1016 93 10000 0.51 10 05:53 09.03.2021
1706 Clear 7 1017 75 10000 2.57 60 01:48 09.03.2021
1707 Clear 7 1017 70 10000 1.54 60 23:58 08.03.2021
1708 Clear 8 1017 70 10000 1.54 60 23:39 08.03.2021
1709 Clear 8 1017 70 10000 1.54 60 23:19 08.03.2021
1710 Clear 8 1016 70 10000 2.06 60 22:40 08.03.2021
1711 Clear 8 1016 70 10000 2.06 60 22:40 08.03.2021
1712 Clear 8 1016 71 10000 2.57 60 22:21 08.03.2021
1713 Clear 8 1016 71 10000 2.06 50 21:50 08.03.2021
1714 Clear 9 1016 71 10000 2.06 60 21:29 08.03.2021
1715 Clear 8 1016 71 10000 1.03 50 20:43 08.03.2021
1716 Clear 9 1016 66 10000 2.06 110 20:22 08.03.2021
1717 Clear 10 1016 62 10000 2.06 110 19:46 08.03.2021
1718 Clear 10 1015 62 10000 2.57 130 19:24 08.03.2021
1719 Clear 10 1015 62 10000 3.09 130 18:38 08.03.2021
1720 Clear 11 1015 58 10000 3.6 120 18:19 08.03.2021
1721 Clear 11 1015 58 10000 3.6 120 18:19 08.03.2021
1722 Clear 12 1014 54 10000 2.57 100 17:44 08.03.2021
1723 Clear 12 1014 54 10000 2.06 90 17:23 08.03.2021
1724 Clear 12 1015 50 10000 2.57 110 16:43 08.03.2021
1725 Clear 12 1015 58 10000 1.54 180 16:24 08.03.2021
1726 Clear 13 1015 54 10000 2.57 100 15:42 08.03.2021
1727 Clear 12 1015 54 10000 1.54 0 15:23 08.03.2021
1728 Clear 12 1016 58 10000 2.06 0 14:22 08.03.2021
1729 Clear 12 1016 58 10000 2.06 0 14:22 08.03.2021
1730 Clear 12 1016 58 10000 1.54 10 13:57 08.03.2021
1731 Clear 11 1017 58 10000 1.54 130 13:23 08.03.2021
1732 Clear 10 1017 57 10000 1.03 0 12:58 08.03.2021
1733 Clear 10 1017 57 10000 1.03 0 12:35 08.03.2021
1734 Clear 9 1017 61 10000 2.57 120 11:50 08.03.2021
1735 Clear 9 1018 66 10000 2.06 120 11:30 08.03.2021
1736 Clear 8 1018 70 10000 2.57 120 10:56 08.03.2021
1737 Clear 8 1016 64 10000 1.79 87 10:37 08.03.2021
1738 Clear 7 1018 56 10000 1.54 0 10:18 08.03.2021
1739 Clear 5 1018 81 10000 2.06 100 09:26 08.03.2021
1740 Clear 5 1018 81 10000 2.06 100 09:26 08.03.2021
1741 Clear 5 1018 75 10000 1.03 0 08:50 08.03.2021
1742 Clear 4 1017 81 10000 1.03 80 08:23 08.03.2021
1743 Clouds 4 1017 93 10000 1.03 10 07:21 08.03.2021
1744 Clear 4 1017 93 10000 1.03 20 05:23 08.03.2021
1745 Clear 5 1019 93 10000 1.03 10 02:19 08.03.2021
1746 Clear 5 1019 93 10000 0.51 0 00:42 08.03.2021
1747 Clear 6 1019 87 10000 1.03 20 23:53 07.03.2021
1748 Clear 7 1020 87 10000 0.51 0 23:21 07.03.2021
1749 Clear 7 1020 81 10000 0.51 0 22:47 07.03.2021
1750 Clear 7 1020 87 10000 1.03 180 22:27 07.03.2021
1751 Clear 7 1020 87 10000 1.03 180 22:27 07.03.2021
1752 Clear 8 1019 81 10000 0.51 170 21:53 07.03.2021
1753 Clear 8 1019 81 10000 0.51 170 21:32 07.03.2021
1754 Clear 8 1020 75 10000 0.51 0 20:58 07.03.2021
1755 Clear 8 1020 75 10000 1.03 210 20:40 07.03.2021
1756 Clear 9 1020 75 10000 1.03 210 20:18 07.03.2021
1757 Clear 9 1020 61 10000 1.03 220 19:40 07.03.2021
1758 Clear 9 1020 61 10000 1.54 210 19:22 07.03.2021
1759 Clear 10 1019 61 10000 2.06 200 18:51 07.03.2021
1760 Clear 10 1019 57 10000 1.54 180 18:21 07.03.2021
1761 Clear 11 1020 50 10000 1.03 0 17:57 07.03.2021
1762 Clear 11 1020 50 10000 1.03 0 17:37 07.03.2021
1763 Clear 11 1020 50 10000 1.03 0 17:18 07.03.2021
1764 Clear 12 1020 50 10000 1.03 0 16:42 07.03.2021
1765 Clear 12 1021 50 10000 1.54 60 16:20 07.03.2021
1766 Clear 12 1021 50 10000 1.54 30 15:49 07.03.2021
1767 Clear 12 1022 50 10000 1.54 50 15:31 07.03.2021
1768 Clear 11 1022 50 10000 0.51 0 14:47 07.03.2021
1769 Clear 10 1023 53 10000 1.03 0 14:28 07.03.2021
1770 Clear 11 1024 50 10000 1.54 150 13:45 07.03.2021
1771 Clear 10 1024 53 10000 1.03 0 13:26 07.03.2021
1772 Clear 10 1025 53 10000 1.03 0 12:48 07.03.2021
1773 Clear 10 1025 49 10000 1.03 0 12:29 07.03.2021
1774 Clear 9 1025 57 10000 2.06 110 11:52 07.03.2021
1775 Clear 8 1026 57 10000 2.57 120 11:23 07.03.2021
1776 Clear 8 1026 57 10000 2.06 150 10:51 07.03.2021
1777 Clear 7 1026 61 10000 2.06 100 10:33 07.03.2021
1778 Clear 7 1026 61 10000 1.54 90 09:52 07.03.2021
1779 Clear 6 1026 65 10000 0.51 0 09:26 07.03.2021
1780 Clear 5 1026 75 10000 0.51 0 08:48 07.03.2021
1781 Clear 4 1026 93 10000 0.51 0 08:25 07.03.2021
1782 Clear 3 1026 86 10000 0.37 118 07:51 07.03.2021
1783 Clear 5 1029 81 10000 1.03 30 02:44 07.03.2021
1784 Clear 5 1029 87 10000 1.03 60 02:24 07.03.2021
1785 Clouds 6 1029 61 10000 1.54 80 00:24 07.03.2021
1786 Clouds 6 1029 61 10000 1.54 120 23:39 06.03.2021
1787 Clouds 6 1029 70 10000 1.03 0 22:57 06.03.2021
1788 Clouds 7 1029 65 10000 1.54 90 22:38 06.03.2021
1789 Clouds 7 1029 65 10000 1.54 90 22:19 06.03.2021
1790 Clouds 7 1029 70 10000 1.54 40 21:25 06.03.2021
1791 Clouds 7 1029 66 10000 1.03 50 20:59 06.03.2021
1792 Clouds 7 1029 66 10000 1.03 50 20:40 06.03.2021
1793 Clouds 8 1029 66 10000 1.54 60 19:51 06.03.2021
1794 Clouds 8 1028 70 10000 1.03 0 19:23 06.03.2021
1795 Clouds 8 1028 66 10000 1.54 80 18:57 06.03.2021
1796 Clouds 8 1028 66 10000 1.54 80 18:38 06.03.2021
1797 Clouds 9 1028 61 10000 2.06 100 18:19 06.03.2021
1798 Clouds 9 1028 57 10000 3.09 90 17:47 06.03.2021
1799 Clouds 9 1028 57 10000 3.09 80 17:26 06.03.2021
1800 Clouds 9 1028 61 10000 3.6 80 16:52 06.03.2021
1801 Clouds 9 1028 57 10000 4.63 90 16:30 06.03.2021
1802 Clouds 9 1028 61 10000 4.12 120 15:55 06.03.2021
1803 Clouds 9 1029 61 10000 5.14 110 15:34 06.03.2021
1804 Clouds 9 1029 61 10000 5.14 100 14:54 06.03.2021
1805 Clouds 8 1029 61 10000 5.66 100 14:30 06.03.2021
1806 Rain 8 1029 66 10000 5.14 90 13:46 06.03.2021
1807 Clouds 8 1029 66 10000 6.69 90 13:24 06.03.2021
1808 Clouds 8 1029 66 10000 6.69 110 12:48 06.03.2021
1809 Clouds 7 1029 70 10000 6.69 100 12:20 06.03.2021
1810 Clouds 7 1029 70 10000 7.2 110 11:58 06.03.2021
1811 Rain 7 1029 70 10000 6.17 100 11:23 06.03.2021
1812 Rain 6 1029 75 10000 5.66 100 10:54 06.03.2021
1813 Rain 6 1029 75 10000 5.66 100 10:35 06.03.2021
1814 Rain 6 1028 81 10000 6.17 100 09:50 06.03.2021
1815 Rain 6 1028 76 10000 5.14 100 09:21 06.03.2021
1816 Rain 7 1027 81 10000 5.66 100 08:53 06.03.2021
1817 Rain 7 1026 81 10000 6.17 100 08:25 06.03.2021
1818 Rain 7 1025 87 10000 7.2 110 07:42 06.03.2021
1819 Rain 7 1025 87 10000 7.2 120 07:21 06.03.2021
1820 Clouds 8 1024 93 6000 7.2 130 05:40 06.03.2021
1821 Rain 10 1021 81 10000 4.63 120 02:51 06.03.2021
1822 Clouds 10 1020 76 10000 1.03 20 01:28 06.03.2021
1823 Clouds 10 1020 76 10000 1.54 360 00:44 06.03.2021
1824 Clear 10 1019 76 10000 1.54 290 23:34 05.03.2021
1825 Clear 10 1018 76 10000 2.06 280 22:58 05.03.2021
1826 Clear 11 1018 76 10000 2.06 280 22:39 05.03.2021
1827 Clear 11 1018 71 10000 2.57 270 22:20 05.03.2021
1828 Clouds 11 1018 71 10000 2.57 260 21:41 05.03.2021
1829 Clear 12 1017 66 10000 2.06 250 21:22 05.03.2021
1830 Clouds 12 1017 66 10000 2.06 240 20:42 05.03.2021
1831 Rain 12 1017 71 10000 1.03 260 20:23 05.03.2021
1832 Clear 13 1016 71 10000 0.51 230 19:44 05.03.2021
1833 Clear 13 1016 66 10000 0.51 0 19:22 05.03.2021
1834 Clear 14 1015 58 10000 2.06 280 18:44 05.03.2021
1835 Clear 14 1015 55 10000 2.57 280 18:25 05.03.2021
1836 Clear 15 1015 48 10000 2.57 260 17:43 05.03.2021
1837 Clear 16 1015 51 10000 2.57 270 17:24 05.03.2021
1838 Clear 16 1015 51 10000 2.57 250 16:41 05.03.2021
1839 Clear 16 1014 48 10000 3.09 240 16:23 05.03.2021
1840 Clear 16 1014 44 10000 3.09 250 15:53 05.03.2021
1841 Clear 16 1015 39 10000 3.09 250 15:26 05.03.2021
1842 Clear 16 1015 41 10000 2.57 240 14:40 05.03.2021
1843 Clear 15 1015 47 10000 3.09 240 14:21 05.03.2021
1844 Clear 15 1015 51 10000 2.57 250 13:42 05.03.2021
1845 Clear 15 1016 51 10000 3.09 230 13:20 05.03.2021
1846 Clear 15 1016 54 10000 2.57 270 12:40 05.03.2021
1847 Clear 13 1016 62 10000 2.06 250 11:39 05.03.2021
1848 Clear 13 1016 66 10000 1.54 250 11:19 05.03.2021
1849 Clear 12 1016 66 10000 1.54 240 10:43 05.03.2021
1850 Clear 12 1016 71 10000 2.06 240 10:24 05.03.2021
1851 Clear 10 1016 76 10000 1.54 240 09:52 05.03.2021
1852 Clear 10 1016 81 10000 1.54 270 09:27 05.03.2021
1853 Clear 9 1016 87 10000 0.51 0 08:56 05.03.2021
1854 Clear 8 1016 87 10000 0.51 0 08:36 05.03.2021
1855 Clear 8 1016 81 8000 1.03 170 08:18 05.03.2021
1856 Clouds 8 1016 87 10000 1.03 200 07:30 05.03.2021
1857 Clouds 8 1016 81 10000 0.51 0 06:33 05.03.2021
1858 Clouds 9 1016 81 10000 0.51 40 05:33 05.03.2021
1859 Clouds 9 1018 76 10000 1.03 0 00:54 05.03.2021
1860 Clouds 9 1018 71 10000 1.54 300 23:45 04.03.2021
1861 Clouds 9 1018 71 10000 2.06 300 23:22 04.03.2021
1862 Clear 9 1018 71 10000 2.06 280 22:29 04.03.2021
1863 Clear 10 1018 71 10000 2.57 270 21:53 04.03.2021
1864 Clouds 10 1019 66 10000 2.06 260 21:29 04.03.2021
1865 Clouds 11 1019 71 10000 2.06 260 20:43 04.03.2021
1866 Clouds 11 1019 71 10000 1.54 260 20:24 04.03.2021
1867 Clear 11 1019 71 10000 1.03 260 19:59 04.03.2021
1868 Clear 11 1019 71 10000 1.03 260 19:40 04.03.2021
1869 Clear 12 1019 66 10000 2.06 240 19:21 04.03.2021
1870 Clear 12 1019 66 10000 1.54 250 18:45 04.03.2021
1871 Clouds 13 1018 62 10000 1.54 260 18:25 04.03.2021
1872 Clouds 13 1019 58 10000 2.57 270 17:46 04.03.2021
1873 Clouds 14 1019 58 10000 2.57 260 17:28 04.03.2021
1874 Clouds 14 1019 54 10000 3.09 260 16:47 04.03.2021
1875 Clouds 14 1020 58 10000 2.57 250 16:28 04.03.2021
1876 Clouds 14 1020 58 10000 3.09 280 15:50 04.03.2021
1877 Clouds 14 1020 58 10000 3.6 260 15:31 04.03.2021
1878 Clouds 14 1021 58 10000 3.09 250 14:49 04.03.2021
1879 Clouds 14 1021 54 10000 3.6 270 14:26 04.03.2021
1880 Clouds 14 1022 58 10000 3.09 270 13:48 04.03.2021
1881 Clouds 14 1022 58 10000 3.09 260 13:30 04.03.2021
1882 Clouds 13 1022 62 10000 4.12 270 12:53 04.03.2021
1883 Clouds 13 1023 62 10000 3.09 280 12:35 04.03.2021
1884 Clouds 13 1023 62 10000 3.09 280 11:47 04.03.2021
1885 Clouds 12 1023 62 8000 2.57 290 11:25 04.03.2021
1886 Mist 11 1024 71 5000 1.03 0 10:47 04.03.2021
1887 Mist 10 1024 76 5000 0.51 0 10:26 04.03.2021
1888 Mist 8 1024 93 3500 1.03 200 09:39 04.03.2021
1889 Mist 7 1024 93 5000 0.51 0 08:59 04.03.2021
1890 Mist 7 1024 93 5000 0.51 0 08:35 04.03.2021
1891 Mist 6 1024 100 4000 0.51 10 07:53 04.03.2021
1892 Mist 5 1024 100 5000 0.51 0 07:21 04.03.2021
1893 Clear 5 1024 93 10000 0.51 0 06:24 04.03.2021
1894 Clear 6 1026 93 10000 1.07 250 02:49 04.03.2021
1895 Clear 7 1027 87 10000 1.03 20 01:32 04.03.2021
1896 Clear 9 1028 81 10000 0.51 0 22:43 03.03.2021
1897 Clouds 9 1028 81 10000 0.51 200 22:25 03.03.2021
1898 Clouds 9 1028 76 10000 0.51 200 21:43 03.03.2021
1899 Clouds 10 1028 76 10000 0.51 0 21:24 03.03.2021
1900 Clear 10 1028 66 10000 0.51 260 20:57 03.03.2021
1901 Clear 10 1028 66 10000 0.51 260 20:39 03.03.2021
1902 Clouds 11 1028 61 8000 0.51 0 19:59 03.03.2021
1903 Clouds 11 1028 61 8000 0.51 0 19:40 03.03.2021
1904 Clouds 11 1029 57 8000 0.51 0 19:20 03.03.2021
1905 Clouds 12 1028 58 8000 1.03 230 18:45 03.03.2021
1906 Clouds 12 1028 54 8000 1.03 260 18:20 03.03.2021
1907 Clouds 13 1028 47 8000 1.03 0 17:42 03.03.2021
1908 Clouds 13 1029 47 8000 1.54 280 17:18 03.03.2021
1909 Clouds 13 1029 47 8000 2.06 240 16:40 03.03.2021
1910 Clouds 14 1029 47 8000 2.06 240 16:21 03.03.2021
1911 Clouds 14 1030 47 8000 1.54 250 15:33 03.03.2021
1912 Clouds 14 1030 47 7000 2.06 270 14:54 03.03.2021
1913 Clouds 14 1031 47 7000 2.57 270 14:29 03.03.2021
1914 Clear 13 1031 54 10000 2.06 240 13:52 03.03.2021
1915 Clear 13 1031 54 10000 2.06 240 13:52 03.03.2021
1916 Clear 13 1032 54 10000 1.54 230 13:31 03.03.2021
1917 Clear 12 1032 58 10000 1.54 0 12:44 03.03.2021
1918 Clear 12 1032 58 10000 1.54 210 12:24 03.03.2021
1919 Clear 12 1032 66 10000 1.03 0 11:47 03.03.2021
1920 Clear 11 1032 66 10000 1.03 0 11:28 03.03.2021
1921 Clear 10 1033 66 10000 0.51 0 10:47 03.03.2021
1922 Clear 9 1033 66 10000 0.51 0 10:25 03.03.2021
1923 Clear 9 1033 81 10000 0.51 0 09:46 03.03.2021
1924 Clear 7 1033 87 10000 0.51 0 08:59 03.03.2021
1925 Clear 7 1033 87 10000 0.51 0 08:39 03.03.2021
1926 Clear 7 1032 87 10000 0.51 290 08:20 03.03.2021
1927 Clear 7 1032 93 10000 0.51 0 07:39 03.03.2021
1928 Clear 7 1032 87 10000 1.03 170 06:50 03.03.2021
1929 Clear 7 1032 81 10000 1.03 20 05:45 03.03.2021
1930 Clear 7 1032 87 10000 0.51 0 04:50 03.03.2021
1931 Clear 7 1032 93 10000 1.03 340 04:25 03.03.2021
1932 Clear 8 1033 81 10000 0.51 350 00:44 03.03.2021
1933 Clear 9 1033 81 10000 1.03 330 23:53 02.03.2021
1934 Clear 9 1033 75 10000 1.03 10 22:58 02.03.2021
1935 Clear 9 1033 75 10000 1.03 10 22:40 02.03.2021
1936 Clear 9 1033 81 10000 1.03 0 22:18 02.03.2021
1937 Clear 10 1033 70 10000 0.51 20 21:39 02.03.2021
1938 Clear 10 1033 61 10000 0.51 20 21:18 02.03.2021
1939 Clear 11 1033 66 10000 0.51 310 20:44 02.03.2021
1940 Clear 11 1033 61 10000 0.51 0 20:22 02.03.2021
1941 Clear 12 1033 47 10000 1.54 90 19:50 02.03.2021
1942 Clear 12 1033 47 10000 1.54 90 19:32 02.03.2021
1943 Clear 13 1032 38 10000 1.54 120 18:58 02.03.2021
1944 Clear 13 1032 38 10000 1.54 120 18:39 02.03.2021
1945 Clear 14 1032 41 10000 1.54 160 18:19 02.03.2021
1946 Clear 15 1032 41 10000 2.06 170 17:40 02.03.2021
1947 Clear 15 1032 36 10000 1.54 170 17:20 02.03.2021
1948 Clear 16 1032 38 10000 2.06 160 16:48 02.03.2021
1949 Clouds 16 1034 14 10000 1.34 143 15:55 02.03.2021
1950 Clouds 16 1032 40 10000 0.45 184 15:29 02.03.2021
1951 Clear 16 1033 38 10000 1.03 0 14:53 02.03.2021
1952 Clear 15 1033 41 10000 1.54 0 14:20 02.03.2021
1953 Clear 15 1034 38 10000 1.54 190 13:47 02.03.2021
1954 Clear 15 1034 47 10000 1.54 0 13:26 02.03.2021
1955 Clouds 15 1034 49 10000 0.45 169 12:47 02.03.2021
1956 Clouds 14 1034 52 10000 1.06 158 12:25 02.03.2021
1957 Clouds 14 1033 45 10000 1.06 159 11:47 02.03.2021
1958 Clouds 13 1034 50 10000 1 137 11:23 02.03.2021
1959 Clouds 13 1036 20 10000 1.79 101 10:53 02.03.2021
1960 Clear 12 1035 57 10000 1.03 0 10:29 02.03.2021
1961 Clear 10 1035 71 10000 0.51 0 09:43 02.03.2021
1962 Clear 9 1034 71 10000 0.51 0 09:24 02.03.2021
1963 Clear 7 1034 87 10000 0.51 0 08:53 02.03.2021
1964 Clear 6 1034 100 10000 1.03 30 08:33 02.03.2021
1965 Clear 5 1034 93 8000 1.03 340 07:46 02.03.2021
1966 Clouds 5 1033 100 8000 0.51 0 06:37 02.03.2021
1967 Clear 5 1033 100 10000 0.51 0 05:50 02.03.2021
1968 Clear 5 1033 100 10000 0.51 0 05:32 02.03.2021
1969 Clear 6 1032 93 10000 0.8 64 04:24 02.03.2021
1970 Clear 7 1032 87 10000 1.03 360 01:42 02.03.2021
1971 Clear 7 1032 81 10000 1.03 10 01:19 02.03.2021
1972 Clear 8 1032 70 10000 1.03 10 23:29 01.03.2021
1973 Clear 8 1032 65 10000 0.51 10 22:43 01.03.2021
1974 Clear 9 1032 61 10000 1.03 0 22:25 01.03.2021
1975 Clear 9 1031 65 10000 1.03 350 21:53 01.03.2021
1976 Clear 10 1031 61 10000 1.03 20 21:24 01.03.2021
1977 Clear 11 1031 53 10000 0.51 0 21:00 01.03.2021
1978 Clear 11 1031 53 10000 0.51 0 20:41 01.03.2021
1979 Clear 12 1030 49 10000 1.25 180 20:19 01.03.2021
1980 Clear 12 1030 40 10000 1.54 180 19:43 01.03.2021
1981 Clear 12 1030 43 10000 2.06 180 19:20 01.03.2021
1982 Clear 13 1030 43 10000 2.06 170 18:42 01.03.2021
1983 Clear 14 1030 38 10000 2.06 170 18:22 01.03.2021
1984 Clear 15 1029 38 10000 2.06 160 17:46 01.03.2021
1985 Clear 15 1029 38 10000 2.06 170 17:21 01.03.2021
1986 Clear 16 1029 38 10000 1.54 180 16:46 01.03.2021
1987 Clear 16 1029 36 10000 1.54 0 16:26 01.03.2021
1988 Clear 16 1030 39 10000 1.54 0 15:46 01.03.2021
1989 Clear 16 1030 38 10000 1.03 0 15:22 01.03.2021
1990 Clear 16 1030 38 10000 2.06 230 14:55 01.03.2021
1991 Clear 15 1030 38 10000 2.06 230 14:36 01.03.2021
1992 Clear 15 1030 44 10000 1.54 0 13:44 01.03.2021
1993 Clear 15 1031 47 10000 1.54 0 13:25 01.03.2021
1994 Clear 14 1031 47 10000 1.03 0 12:59 01.03.2021
1995 Clear 14 1031 47 10000 1.03 0 12:40 01.03.2021
1996 Clear 13 1031 50 10000 1.54 0 12:19 01.03.2021
1997 Clear 12 1031 54 10000 1.03 0 11:42 01.03.2021
1998 Clear 11 1031 66 10000 1.54 160 10:57 01.03.2021
1999 Clear 11 1031 66 10000 1.54 160 10:36 01.03.2021
2000 Clear 10 1031 62 10000 1.03 0 10:18 01.03.2021
2001 Clear 9 1031 66 10000 1.03 170 09:44 01.03.2021
2002 Clear 7 1031 76 10000 1.03 160 09:23 01.03.2021
2003 Clear 7 1031 75 10000 0.51 0 08:52 01.03.2021
2004 Clear 5 1031 100 10000 0.51 0 08:21 01.03.2021
2005 Clear 5 1031 87 10000 1.54 10 06:53 01.03.2021
2006 Clear 5 1031 100 10000 1.03 360 04:45 01.03.2021
2007 Clear 7 1031 87 10000 0.51 350 01:48 01.03.2021
2008 Clear 8 1031 75 10000 1.54 360 23:40 28.02.2021
2009 Clear 8 1031 81 10000 0.51 330 22:52 28.02.2021
2010 Clear 8 1031 75 10000 1.54 360 22:23 28.02.2021
2011 Clear 9 1031 70 10000 1.03 10 21:54 28.02.2021
2012 Clear 9 1031 70 10000 1.03 10 21:32 28.02.2021
2013 Clear 9 1031 61 10000 0.51 0 20:58 28.02.2021
2014 Clear 10 1030 62 10000 0.8 146 20:37 28.02.2021
2015 Clear 10 1031 57 10000 1.54 140 19:48 28.02.2021
2016 Clear 10 1031 53 10000 3.09 130 19:28 28.02.2021
2017 Clear 11 1031 50 10000 2.57 140 18:59 28.02.2021
2018 Clear 11 1031 50 10000 2.57 140 18:38 28.02.2021
2019 Clear 12 1030 47 10000 2.06 130 18:19 28.02.2021
2020 Clear 12 1030 50 10000 2.06 160 17:46 28.02.2021
2021 Clear 13 1030 50 10000 2.57 160 17:27 28.02.2021
2022 Clear 13 1031 44 10000 2.06 120 16:51 28.02.2021
2023 Clear 13 1030 37 10000 0.89 172 16:30 28.02.2021
2024 Clear 13 1031 44 10000 2.06 0 15:53 28.02.2021
2025 Clear 13 1031 35 10000 1.34 136 15:31 28.02.2021
2026 Clear 13 1032 44 10000 1.54 0 14:59 28.02.2021
2027 Clear 13 1032 44 10000 1.54 0 14:39 28.02.2021
2028 Clear 13 1032 47 10000 3.09 130 14:20 28.02.2021
2029 Clear 13 1032 47 10000 3.09 130 14:20 28.02.2021
2030 Clear 12 1033 43 10000 3.6 120 13:42 28.02.2021
2031 Clear 12 1033 43 10000 4.63 130 13:19 28.02.2021
2032 Clear 12 1034 50 10000 4.63 110 12:55 28.02.2021
2033 Clear 12 1034 46 10000 4.63 120 12:36 28.02.2021
2034 Clear 12 1034 46 10000 4.63 120 12:18 28.02.2021
2035 Clear 11 1034 50 10000 4.63 110 11:42 28.02.2021
2036 Clear 10 1034 50 10000 5.14 120 11:22 28.02.2021
2037 Clear 10 1034 50 10000 5.66 110 10:45 28.02.2021
2038 Clear 10 1034 57 10000 5.14 90 10:25 28.02.2021
2039 Clear 9 1034 61 10000 4.12 90 09:42 28.02.2021
2040 Clear 9 1034 61 10000 4.12 90 09:42 28.02.2021
2041 Clear 9 1034 61 10000 3.09 70 09:24 28.02.2021
2042 Clear 9 1033 61 10000 3.09 70 08:47 28.02.2021
2043 Clouds 9 1033 64 10000 3.47 88 08:29 28.02.2021
2044 Clear 8 1033 65 10000 2.57 70 07:50 28.02.2021
2045 Clear 8 1032 65 10000 2.57 70 07:30 28.02.2021
2046 Clouds 9 1032 61 10000 3.09 60 06:27 28.02.2021
2047 Clouds 9 1031 61 10000 3.09 70 05:24 28.02.2021
2048 Clouds 10 1031 61 10000 4.12 70 03:24 28.02.2021
2049 Clouds 11 1031 62 10000 3.6 70 01:36 28.02.2021
2050 Clouds 11 1030 62 10000 4.12 80 00:43 28.02.2021
2051 Clouds 12 1030 58 10000 4.12 80 00:23 28.02.2021
2052 Clouds 12 1030 62 10000 3.6 70 23:44 27.02.2021
2053 Clouds 13 1030 58 10000 4.63 100 23:19 27.02.2021
2054 Clouds 13 1029 66 10000 3.6 80 22:44 27.02.2021
2055 Clouds 13 1029 66 10000 3.09 80 22:19 27.02.2021
2056 Clouds 13 1028 62 10000 3.09 100 21:40 27.02.2021
2057 Clear 13 1028 62 10000 3.09 80 21:22 27.02.2021
2058 Clear 13 1027 62 10000 2.06 80 20:47 27.02.2021
2059 Clear 13 1027 62 10000 3.09 100 20:27 27.02.2021
2060 Clear 14 1027 58 10000 2.57 110 19:45 27.02.2021
2061 Clear 14 1026 55 10000 2.57 110 19:26 27.02.2021
2062 Clear 15 1026 55 10000 3.09 120 18:44 27.02.2021
2063 Clear 16 1025 51 10000 3.09 110 18:21 27.02.2021
2064 Clear 17 1025 45 10000 4.63 120 17:54 27.02.2021
2065 Clear 17 1025 45 10000 5.14 130 17:36 27.02.2021
2066 Clear 17 1025 45 10000 5.14 130 17:18 27.02.2021
2067 Clear 18 1025 42 10000 6.17 110 16:44 27.02.2021
2068 Clear 18 1025 48 10000 4.63 100 16:25 27.02.2021
2069 Clear 18 1025 45 10000 4.12 110 15:41 27.02.2021
2070 Clear 18 1025 45 10000 4.63 80 14:56 27.02.2021
2071 Clear 18 1025 45 10000 4.12 110 14:37 27.02.2021
2072 Clear 18 1025 45 10000 3.6 120 13:56 27.02.2021
2073 Clear 18 1025 45 10000 3.6 120 13:37 27.02.2021
2074 Clear 17 1025 55 10000 2.06 80 12:58 27.02.2021
2075 Clear 17 1025 55 10000 2.06 80 12:36 27.02.2021
2076 Clear 17 1026 39 10000 2.24 39 12:18 27.02.2021
2077 Clear 16 1025 55 10000 3.09 60 11:42 27.02.2021
2078 Clear 16 1025 40 10000 3.13 41 11:23 27.02.2021
2079 Clear 15 1025 62 10000 2.57 50 10:46 27.02.2021
2080 Clear 14 1025 58 10000 1.03 0 10:27 27.02.2021
2081 Clear 13 1024 76 10000 1.54 60 09:48 27.02.2021
2082 Clear 12 1024 81 10000 0.51 0 09:26 27.02.2021
2083 Clear 10 1024 87 10000 1.03 0 08:41 27.02.2021
2084 Clear 9 1023 93 7000 0.51 0 08:21 27.02.2021
2085 Mist 8 1023 93 5000 0.51 0 07:41 27.02.2021
2086 Clouds 9 1022 93 10000 0.51 330 04:46 27.02.2021
2087 Clouds 11 1024 87 10000 0.51 0 00:42 27.02.2021
2088 Clouds 11 1024 93 10000 0.51 0 23:54 26.02.2021
2089 Clouds 11 1024 81 10000 1.03 350 23:27 26.02.2021
2090 Clouds 11 1024 87 10000 0.51 0 22:46 26.02.2021
2091 Clouds 12 1024 81 10000 1.03 0 22:26 26.02.2021
2092 Clouds 12 1024 76 10000 1.03 10 21:43 26.02.2021
2093 Clouds 13 1024 76 10000 1.03 30 21:22 26.02.2021
2094 Clouds 14 1024 76 10000 1.03 40 20:44 26.02.2021
2095 Clear 14 1024 71 10000 0.51 170 20:21 26.02.2021
2096 Clear 15 1024 62 10000 1.03 170 19:42 26.02.2021
2097 Clear 15 1024 62 10000 1.03 170 19:22 26.02.2021
2098 Clear 16 1024 51 10000 1.54 170 18:42 26.02.2021
2099 Clear 17 1024 48 10000 1.54 170 18:21 26.02.2021
2100 Clear 18 1024 48 10000 1.54 200 17:40 26.02.2021
2101 Clear 19 1024 42 10000 1.03 0 17:22 26.02.2021
2102 Clear 19 1024 42 10000 1.54 190 16:52 26.02.2021
2103 Clear 20 1025 42 10000 1.03 0 16:31 26.02.2021
2104 Clear 20 1025 42 10000 1.03 0 15:57 26.02.2021
2105 Clear 19 1025 42 10000 1.03 0 15:37 26.02.2021
2106 Clear 19 1026 42 10000 0.51 0 15:19 26.02.2021
2107 Clear 19 1026 45 10000 1.03 0 14:44 26.02.2021
2108 Clear 19 1027 48 10000 1.03 0 14:24 26.02.2021
2109 Clear 18 1028 59 10000 1.54 120 13:39 26.02.2021
2110 Clear 18 1028 59 10000 1.54 120 13:20 26.02.2021
2111 Clear 16 1028 67 9000 1.54 160 12:38 26.02.2021
2112 Clear 16 1029 67 9000 2.06 140 11:51 26.02.2021
2113 Clear 15 1029 67 9000 2.06 140 11:51 26.02.2021
2114 Clear 15 1029 67 9000 2.06 140 11:33 26.02.2021
2115 Clear 14 1029 71 9000 1.03 0 10:46 26.02.2021
2116 Clear 13 1029 76 9000 0.51 0 09:55 26.02.2021
2117 Clear 10 1029 87 9000 0.51 170 09:31 26.02.2021
2118 Clear 8 1029 100 9000 1.03 160 08:54 26.02.2021
2119 Fog 8 1029 100 9000 0.4 252 08:25 26.02.2021
2120 Fog 7 1029 100 9000 0.4 251 07:49 26.02.2021
2121 Fog 7 1029 100 9000 0.4 251 07:49 26.02.2021
2122 Clear 8 1029 100 10000 0.51 0 06:36 26.02.2021
2123 Clear 7 1029 100 10000 0.51 340 05:27 26.02.2021
2124 Clear 8 1030 93 10000 0.51 0 03:46 26.02.2021
2125 Clear 10 1031 93 10000 0.51 320 01:37 26.02.2021
2126 Clear 10 1031 93 10000 1.03 20 23:49 25.02.2021
2127 Clear 11 1031 87 10000 0.51 0 23:28 25.02.2021
2128 Clear 11 1031 87 10000 0.51 0 22:49 25.02.2021
2129 Clear 12 1031 87 10000 1.03 360 22:19 25.02.2021
2130 Clear 12 1030 76 10000 0.51 0 21:38 25.02.2021
2131 Clear 12 1030 76 10000 0.51 0 21:19 25.02.2021
2132 Clear 12 1030 76 10000 0.51 0 21:19 25.02.2021
2133 Clear 13 1030 81 10000 0.51 0 20:40 25.02.2021
2134 Clear 13 1030 76 10000 0.51 0 20:22 25.02.2021
2135 Clear 14 1030 71 10000 0.51 0 19:51 25.02.2021
2136 Clear 15 1030 58 10000 1.54 190 19:21 25.02.2021
2137 Clear 15 1030 58 10000 1.03 200 18:56 25.02.2021
2138 Clear 17 1030 51 10000 2.06 180 18:20 25.02.2021
2139 Clear 18 1029 48 10000 1.54 190 17:47 25.02.2021
2140 Clear 19 1030 42 10000 1.54 190 17:25 25.02.2021
2141 Clear 20 1030 37 10000 1.03 0 16:43 25.02.2021
2142 Clear 20 1030 40 10000 2.06 260 16:24 25.02.2021
2143 Clear 20 1031 40 10000 1.54 220 15:30 25.02.2021
2144 Clear 20 1031 42 10000 1.54 260 14:49 25.02.2021
2145 Clear 19 1031 39 10000 1.03 0 14:22 25.02.2021
2146 Clear 18 1031 45 10000 0.51 0 13:50 25.02.2021
2147 Clear 18 1032 48 10000 1.54 180 13:25 25.02.2021
2148 Clear 18 1032 45 10000 0.51 0 12:47 25.02.2021
2149 Clear 16 1032 51 10000 1.03 0 12:21 25.02.2021
2150 Clear 16 1033 51 10000 1.03 0 11:43 25.02.2021
2151 Clear 16 1033 54 10000 0.51 0 11:18 25.02.2021
2152 Clear 15 1033 58 10000 0.51 0 10:38 25.02.2021
2153 Clear 12 1033 81 10000 0.51 0 09:58 25.02.2021
2154 Clear 11 1033 81 10000 0.51 0 09:38 25.02.2021
2155 Fog 8 1033 100 8000 0.51 0 08:50 25.02.2021
2156 Fog 7 1033 100 5000 0.51 0 08:22 25.02.2021
2157 Fog 6 1033 100 5000 0.51 0 07:50 25.02.2021
2158 Fog 7 1032 93 5000 0.51 210 07:19 25.02.2021
2159 Clear 7 1032 93 10000 0.51 240 05:57 25.02.2021
2160 Clear 9 1033 93 10000 0.51 0 01:52 25.02.2021
2161 Clear 10 1033 93 10000 0.51 0 01:33 25.02.2021
2162 Clear 10 1033 81 10000 0.51 20 00:37 25.02.2021
2163 Clear 11 1033 81 10000 0.71 292 23:40 24.02.2021
2164 Clear 11 1033 81 10000 1.03 10 22:58 24.02.2021
2165 Clear 12 1033 76 10000 1.03 10 22:30 24.02.2021
2166 Clear 12 1033 66 10000 1.03 10 21:56 24.02.2021
2167 Clear 12 1033 66 10000 1.03 10 21:34 24.02.2021
2168 Clear 13 1033 76 10000 0.86 283 20:51 24.02.2021
2169 Clear 13 1033 71 10000 0.51 0 20:29 24.02.2021
2170 Clear 13 1033 71 10000 0.9 278 19:51 24.02.2021
2171 Clear 15 1033 58 10000 0.51 0 19:24 24.02.2021
2172 Clear 15 1033 58 10000 0.51 220 18:54 24.02.2021
2173 Clear 16 1033 39 10000 0.51 190 18:32 24.02.2021
2174 Clear 20 1033 40 10000 0.51 0 17:45 24.02.2021
2175 Clear 20 1033 37 10000 1.03 0 17:25 24.02.2021
2176 Clear 19 1033 37 10000 1.03 0 16:48 24.02.2021
2177 Clear 20 1033 40 10000 1.03 0 16:21 24.02.2021
2178 Clear 20 1034 37 10000 1.54 260 15:55 24.02.2021
2179 Clear 20 1034 37 10000 1.54 260 15:34 24.02.2021
2180 Clear 19 1034 45 10000 1.03 0 14:50 24.02.2021
2181 Clear 19 1035 45 10000 1.54 270 14:29 24.02.2021
2182 Clear 18 1035 45 10000 1.54 260 13:44 24.02.2021
2183 Clear 18 1036 48 10000 1.54 250 13:24 24.02.2021
2184 Clear 17 1036 51 10000 1.54 240 12:58 24.02.2021
2185 Clear 17 1037 55 10000 1.54 240 12:36 24.02.2021
2186 Clear 16 1037 58 10000 2.06 220 11:56 24.02.2021
2187 Clear 15 1037 67 10000 2.06 250 11:31 24.02.2021
2188 Clear 13 1037 71 10000 1.54 240 10:41 24.02.2021
2189 Clear 12 1037 76 10000 1.54 250 10:22 24.02.2021
2190 Clear 9 1037 93 10000 1.03 0 09:26 24.02.2021
2191 Clear 8 1037 100 10000 1.03 0 08:50 24.02.2021
2192 Clear 7 1037 100 10000 1.03 0 08:32 24.02.2021
2193 Fog 6 1036 100 3000 1.03 190 07:38 24.02.2021
2194 Fog 7 1036 100 450 0.51 160 07:18 24.02.2021
2195 Fog 7 1036 100 350 1.23 278 05:25 24.02.2021
2196 Mist 9 1037 93 3700 1.28 270 01:25 24.02.2021
2197 Clear 11 1037 93 10000 0.51 0 23:38 23.02.2021
2198 Clear 11 1037 93 10000 0.51 0 22:46 23.02.2021
2199 Clear 12 1036 77 10000 1.16 292 22:22 23.02.2021
2200 Clear 12 1038 36 10000 1.79 250 21:47 23.02.2021
2201 Clear 12 1036 87 10000 1.03 290 21:24 23.02.2021
2202 Clear 12 1036 87 10000 0.51 0 20:56 23.02.2021
2203 Clear 11 1036 87 10000 0.51 260 20:37 23.02.2021
2204 Clear 12 1036 87 10000 0.51 260 20:18 23.02.2021
2205 Clear 12 1036 76 10000 0.51 0 19:41 23.02.2021
2206 Clear 13 1036 71 10000 0.51 160 19:22 23.02.2021
2207 Clear 14 1036 67 8000 1.03 180 18:44 23.02.2021
2208 Clear 15 1035 58 8000 1.54 160 18:24 23.02.2021
2209 Clear 16 1035 63 10000 1.54 170 17:49 23.02.2021
2210 Clear 16 1035 51 10000 1.03 0 17:26 23.02.2021
2211 Clear 17 1035 51 10000 0.51 0 16:44 23.02.2021
2212 Clear 16 1035 48 10000 1.03 0 16:21 23.02.2021
2213 Clear 17 1035 51 10000 1.03 0 15:45 23.02.2021
2214 Clear 16 1035 51 10000 2.06 280 15:27 23.02.2021
2215 Clear 16 1035 51 10000 1.54 300 14:46 23.02.2021
2216 Clear 16 1036 51 10000 1.54 260 14:28 23.02.2021
2217 Clear 16 1036 58 10000 2.06 260 13:59 23.02.2021
2218 Clear 15 1036 58 10000 2.06 260 13:34 23.02.2021
2219 Clear 15 1036 62 9000 3.09 260 12:57 23.02.2021
2220 Clear 14 1036 67 7000 2.06 250 12:23 23.02.2021
2221 Clear 12 1036 71 6000 2.06 240 11:55 23.02.2021
2222 Clouds 12 1036 76 8000 2.06 230 11:26 23.02.2021
2223 Clouds 11 1036 76 9000 2.06 250 10:54 23.02.2021
2224 Clouds 10 1036 87 7000 1.54 250 10:36 23.02.2021
2225 Clouds 9 1036 87 6000 1.03 0 09:55 23.02.2021
2226 Clouds 9 1036 87 6000 1.03 0 09:36 23.02.2021
2227 Mist 8 1036 100 5000 1.54 250 09:18 23.02.2021
2228 Mist 6 1035 100 2900 1.03 0 08:40 23.02.2021
2229 Mist 6 1035 100 1200 0.51 0 08:20 23.02.2021
2230 Fog 6 1034 100 200 1.54 280 06:50 23.02.2021
2231 Fog 7 1034 100 1500 1.54 250 05:22 23.02.2021
2232 Mist 8 1034 93 4000 1.54 250 02:36 23.02.2021
2233 Mist 9 1034 93 4000 2.06 250 00:55 23.02.2021
2234 Fog 9 1034 93 4000 1.54 240 00:18 23.02.2021
2235 Clouds 9 1034 93 6000 1.03 230 23:24 22.02.2021
2236 Clouds 9 1033 93 6000 1.03 240 22:41 22.02.2021
2237 Clouds 9 1033 93 6000 1.03 240 22:21 22.02.2021
2238 Clouds 10 1033 87 7000 1.54 240 21:46 22.02.2021
2239 Clouds 10 1033 87 6000 1.54 250 21:23 22.02.2021
2240 Clouds 10 1033 87 7000 1.03 0 20:53 22.02.2021
2241 Clouds 11 1033 87 7000 1.03 0 20:31 22.02.2021
2242 Clouds 11 1033 82 7000 1.03 0 19:54 22.02.2021
2243 Clouds 11 1033 82 7000 1.03 0 19:35 22.02.2021
2244 Mist 12 1032 76 5000 2.06 220 18:58 22.02.2021
2245 Mist 12 1032 76 5000 2.06 220 18:40 22.02.2021
2246 Mist 12 1032 76 5000 2.57 210 18:20 22.02.2021
2247 Mist 13 1031 71 5000 2.57 190 17:27 22.02.2021
2248 Mist 13 1031 76 4000 2.06 170 16:57 22.02.2021
2249 Mist 13 1031 76 4000 2.06 170 16:39 22.02.2021
2250 Mist 13 1031 76 5000 2.57 140 15:52 22.02.2021
2251 Clouds 14 1031 82 6000 2.57 150 15:28 22.02.2021
2252 Clouds 14 1031 76 6000 2.57 150 14:48 22.02.2021
2253 Clouds 14 1031 76 6000 1.54 140 14:29 22.02.2021
2254 Clouds 13 1031 82 6000 2.06 140 13:47 22.02.2021
2255 Mist 13 1031 82 5000 2.06 160 12:59 22.02.2021
2256 Mist 13 1031 82 5000 2.06 160 12:40 22.02.2021
2257 Mist 13 1031 82 5000 2.06 130 12:20 22.02.2021
2258 Mist 13 1031 82 5000 1.54 130 11:42 22.02.2021
2259 Mist 12 1031 82 5000 1.54 90 11:24 22.02.2021
2260 Clouds 12 1030 80 10000 0.79 266 10:46 22.02.2021
2261 Mist 11 1031 87 5000 1.03 0 10:26 22.02.2021
2262 Mist 10 1031 87 5000 1.54 70 09:43 22.02.2021
2263 Mist 9 1031 93 4000 0.51 0 09:25 22.02.2021
2264 Fog 8 1030 100 3000 0.51 0 08:50 22.02.2021
2265 Fog 7 1030 100 3000 0.51 0 08:29 22.02.2021
2266 Fog 7 1030 100 3000 1.03 10 07:56 22.02.2021
2267 Mist 7 1030 100 4000 0.51 360 07:26 22.02.2021
2268 Clouds 8 1030 100 8000 1.03 0 06:44 22.02.2021
2269 Clouds 8 1030 93 8000 1.03 280 05:42 22.02.2021
2270 Clouds 9 1029 87 10000 0.51 0 03:27 22.02.2021
2271 Clouds 10 1029 81 10000 1.03 50 02:48 22.02.2021
2272 Clouds 10 1029 76 10000 2.06 350 00:45 22.02.2021
2273 Clouds 10 1029 76 10000 3.09 360 00:20 22.02.2021
2274 Clouds 10 1028 81 8000 2.06 20 23:29 21.02.2021
2275 Clouds 11 1028 76 10000 1.03 30 22:43 21.02.2021
2276 Clouds 10 1028 76 10000 1.54 40 22:22 21.02.2021
2277 Clouds 10 1028 76 10000 1.54 60 21:37 21.02.2021
2278 Clouds 11 1028 76 10000 1.03 80 20:59 21.02.2021
2279 Clouds 11 1028 76 10000 1.03 80 20:40 21.02.2021
2280 Clouds 11 1028 76 10000 1.03 0 20:19 21.02.2021
2281 Clouds 11 1027 76 10000 2.06 50 19:50 21.02.2021
2282 Clouds 11 1027 76 10000 2.06 80 19:32 21.02.2021
2283 Clouds 12 1027 76 8000 2.06 70 18:43 21.02.2021
2284 Clouds 12 1026 66 7000 2.06 100 18:24 21.02.2021
2285 Clouds 13 1026 71 7000 2.06 90 17:29 21.02.2021
2286 Clouds 13 1026 71 7000 2.57 70 16:57 21.02.2021
2287 Clouds 13 1026 71 7000 2.57 80 16:34 21.02.2021
2288 Clouds 13 1026 71 7000 1.54 80 15:54 21.02.2021
2289 Clouds 13 1026 76 7000 1.03 0 15:22 21.02.2021
2290 Mist 13 1026 71 5000 1.54 140 14:50 21.02.2021
2291 Mist 13 1026 76 5000 1.03 0 14:28 21.02.2021
2292 Mist 13 1027 76 3500 1.54 0 13:46 21.02.2021
2293 Mist 12 1027 82 3000 1.54 80 13:23 21.02.2021
2294 Mist 11 1028 81 3000 1.54 80 12:32 21.02.2021
2295 Mist 11 1028 81 3000 2.06 90 11:55 21.02.2021
2296 Mist 10 1028 81 2500 2.57 90 11:36 21.02.2021
2297 Mist 9 1027 87 2000 1.54 50 10:26 21.02.2021
2298 Mist 9 1027 87 1500 1.54 70 09:57 21.02.2021
2299 Mist 8 1027 87 1500 1.54 70 09:35 21.02.2021
2300 Mist 8 1027 93 1500 1.03 60 08:59 21.02.2021
2301 Mist 8 1027 93 1500 1.54 70 08:30 21.02.2021
2302 Mist 8 1026 93 1700 1.03 40 07:37 21.02.2021
2303 Fog 8 1026 100 900 2.06 40 06:59 21.02.2021
2304 Mist 8 1026 100 2000 1.54 90 04:44 21.02.2021
2305 Mist 9 1026 93 4000 2.06 90 02:31 21.02.2021
2306 Mist 9 1026 93 5000 1.03 260 00:47 21.02.2021
2307 Mist 9 1026 93 5000 1.03 260 00:20 21.02.2021
2308 Clouds 9 1026 87 6000 1.54 230 23:28 20.02.2021
2309 Clouds 10 1026 87 6000 1.54 250 22:47 20.02.2021
2310 Clouds 10 1026 87 6000 1.03 0 22:27 20.02.2021
2311 Mist 10 1026 87 5000 1.03 0 21:45 20.02.2021
2312 Mist 10 1026 87 5000 1.54 250 21:26 20.02.2021
2313 Mist 10 1026 87 5000 2.06 250 20:49 20.02.2021
2314 Mist 10 1026 87 5000 1.03 0 20:28 20.02.2021
2315 Mist 10 1026 87 5000 1.03 0 19:53 20.02.2021
2316 Mist 10 1025 93 5000 1.54 240 19:31 20.02.2021
2317 Mist 11 1025 82 2500 1.54 240 18:45 20.02.2021
2318 Mist 11 1025 82 2500 1.03 200 18:24 20.02.2021
2319 Mist 12 1025 82 2500 1.54 220 17:41 20.02.2021
2320 Mist 12 1025 82 2500 1.54 240 17:22 20.02.2021
2321 Mist 12 1025 82 2500 1.54 280 16:33 20.02.2021
2322 Mist 11 1025 87 2500 2.06 240 15:56 20.02.2021
2323 Mist 11 1025 87 2500 1.54 240 15:36 20.02.2021
2324 Mist 11 1026 82 2500 2.57 220 14:49 20.02.2021
2325 Mist 11 1026 87 2500 2.06 220 14:24 20.02.2021
2326 Mist 11 1026 82 2500 1.54 240 13:49 20.02.2021
2327 Mist 11 1026 87 2000 1.54 190 13:27 20.02.2021
2328 Mist 11 1026 87 2000 1.54 190 13:27 20.02.2021
2329 Mist 11 1026 87 2500 1.54 140 12:51 20.02.2021
2330 Mist 11 1026 87 2500 1.03 0 12:32 20.02.2021
2331 Mist 11 1026 87 2000 0.51 0 11:44 20.02.2021
2332 Mist 10 1026 87 2000 0.51 0 11:26 20.02.2021
2333 Mist 10 1026 93 2000 0.51 0 10:50 20.02.2021
2334 Mist 9 1026 93 2000 0.51 0 09:59 20.02.2021
2335 Mist 9 1026 93 2000 0.51 0 09:40 20.02.2021
2336 Mist 8 1025 93 1500 0.51 0 08:48 20.02.2021
2337 Mist 8 1025 100 2000 1.03 260 08:18 20.02.2021
2338 Mist 8 1024 93 5000 1.54 240 03:33 20.02.2021
2339 Mist 8 1024 93 5000 1.03 260 02:28 20.02.2021
2340 Mist 9 1025 93 5000 1.03 260 01:49 20.02.2021
2341 Mist 9 1024 93 5000 1.03 0 00:45 20.02.2021
2342 Mist 9 1025 93 4000 1.54 260 00:20 20.02.2021
2343 Mist 9 1025 93 4000 1.03 0 23:18 19.02.2021
2344 Mist 9 1025 93 4000 1.54 260 22:28 19.02.2021
2345 Mist 9 1024 93 4000 2.06 250 21:58 19.02.2021
2346 Mist 9 1024 93 4000 2.06 250 21:32 19.02.2021
2347 Mist 9 1024 93 4000 1.03 0 20:49 19.02.2021
2348 Mist 9 1024 93 4000 1.03 0 20:30 19.02.2021
2349 Mist 9 1024 100 4000 2.06 220 19:57 19.02.2021
2350 Mist 10 1024 87 4000 1.03 0 19:27 19.02.2021
2351 Mist 10 1024 87 3000 1.54 230 18:57 19.02.2021
2352 Mist 10 1023 93 2000 1.03 0 18:34 19.02.2021
2353 Mist 10 1023 93 3000 1.54 240 17:51 19.02.2021
2354 Mist 10 1023 93 3000 1.03 0 17:22 19.02.2021
2355 Mist 11 1023 82 3000 2.06 230 16:38 19.02.2021
2356 Mist 11 1023 82 3000 2.06 230 16:18 19.02.2021
2357 Mist 11 1023 87 3000 1.54 240 15:41 19.02.2021
2358 Mist 10 1024 87 3000 1.54 240 15:20 19.02.2021
2359 Mist 10 1024 93 3000 1.54 240 14:38 19.02.2021
2360 Mist 10 1024 93 3000 2.06 260 14:18 19.02.2021
2361 Mist 10 1024 87 3000 1.54 260 13:42 19.02.2021
2362 Mist 10 1025 93 3000 2.06 250 13:24 19.02.2021
2363 Mist 10 1025 87 3000 2.06 270 12:41 19.02.2021
2364 Mist 9 1025 93 3000 2.06 270 12:22 19.02.2021
2365 Mist 9 1025 93 3000 2.06 230 11:50 19.02.2021
2366 Mist 9 1024 93 3500 1.54 250 11:22 19.02.2021
2367 Mist 9 1024 87 2500 2.06 260 10:47 19.02.2021
2368 Mist 8 1024 93 1500 2.06 270 10:21 19.02.2021
2369 Mist 8 1024 93 2000 1.54 260 09:39 19.02.2021
2370 Mist 8 1024 100 1000 1.54 250 09:21 19.02.2021
2371 Mist 8 1024 100 1000 1.03 0 08:49 19.02.2021
2372 Mist 8 1024 100 1200 1.03 0 08:22 19.02.2021
2373 Mist 8 1023 100 2000 1.03 270 07:48 19.02.2021
2374 Mist 8 1023 100 2500 1.03 0 07:27 19.02.2021
2375 Mist 8 1023 100 2500 1.54 250 06:47 19.02.2021
2376 Fog 7 1023 100 1200 1.03 200 04:44 19.02.2021
2377 Fog 7 1023 100 800 0.51 200 04:25 19.02.2021
2378 Fog 8 1023 100 1200 1.03 0 01:46 19.02.2021
2379 Fog 8 1023 100 1000 1.03 160 00:36 19.02.2021
2380 Fog 8 1023 100 1200 0.51 0 23:50 18.02.2021
2381 Fog 8 1023 100 800 0.51 0 23:32 18.02.2021
2382 Mist 8 1023 100 4000 1.03 0 22:44 18.02.2021
2383 Mist 8 1023 93 4000 1.03 170 22:26 18.02.2021
2384 Mist 8 1023 93 4000 0.51 0 21:42 18.02.2021
2385 Mist 8 1023 100 4000 1.03 0 21:24 18.02.2021
2386 Drizzle 8 1023 93 3000 0.34 308 20:41 18.02.2021
2387 Drizzle 8 1023 93 3000 1.03 0 20:21 18.02.2021
2388 Drizzle 8 1023 93 3000 1.54 240 19:46 18.02.2021
2389 Mist 8 1023 93 4000 1.03 230 19:22 18.02.2021
2390 Mist 8 1023 87 3500 1.54 220 18:51 18.02.2021
2391 Mist 9 1022 87 3000 1.54 230 18:27 18.02.2021
2392 Mist 9 1022 87 3500 1.54 260 17:52 18.02.2021
2393 Mist 9 1022 87 3500 2.06 240 17:25 18.02.2021
2394 Mist 9 1023 87 3500 2.57 220 16:51 18.02.2021
2395 Mist 9 1023 76 3500 2.06 210 16:32 18.02.2021
2396 Mist 9 1023 81 3500 1.03 250 15:43 18.02.2021
2397 Mist 9 1023 81 4000 2.06 230 15:24 18.02.2021
2398 Mist 9 1023 81 4000 2.06 230 15:24 18.02.2021
2399 Mist 9 1023 71 5000 1.03 0 14:56 18.02.2021
2400 Mist 9 1023 76 5000 1.03 0 14:36 18.02.2021
2401 Rain 9 1024 71 5000 2.06 260 13:50 18.02.2021
2402 Mist 9 1024 71 5000 3.09 220 13:22 18.02.2021
2403 Mist 9 1024 71 5000 2.06 210 12:56 18.02.2021
2404 Mist 9 1024 66 5000 2.06 180 12:36 18.02.2021
2405 Mist 9 1024 66 5000 1.54 180 11:48 18.02.2021
2406 Mist 9 1024 66 5000 2.06 150 11:28 18.02.2021
2407 Mist 9 1024 66 5000 2.06 150 11:28 18.02.2021
2408 Clouds 9 1023 74 10000 0.51 202 10:58 18.02.2021
2409 Mist 9 1024 61 5000 1.54 120 10:40 18.02.2021
2410 Mist 8 1024 66 5000 2.06 110 10:20 18.02.2021
2411 Mist 8 1024 66 5000 0.51 0 09:39 18.02.2021
2412 Mist 8 1024 76 5000 2.06 50 09:19 18.02.2021
2413 Clouds 7 1024 70 6000 1.03 50 08:31 18.02.2021
2414 Clouds 7 1023 70 6000 1.54 40 07:58 18.02.2021
2415 Clouds 7 1023 70 6000 1.54 80 07:30 18.02.2021
2416 Clouds 7 1023 76 6000 2.06 70 06:20 18.02.2021
2417 Clouds 7 1023 81 6000 3.09 80 00:53 18.02.2021
2418 Clouds 7 1023 87 6000 3.09 80 23:48 17.02.2021
2419 Clouds 7 1023 87 10000 2.06 60 23:20 17.02.2021
2420 Clear 7 1022 93 10000 1.54 40 22:44 17.02.2021
2421 Clear 7 1022 93 10000 1.03 70 22:22 17.02.2021
2422 Clear 8 1022 93 10000 1.54 140 21:46 17.02.2021
2423 Clear 8 1021 87 10000 1.54 180 21:21 17.02.2021
2424 Clear 9 1021 87 10000 2.06 180 20:43 17.02.2021
2425 Clear 9 1021 87 10000 1.54 180 20:24 17.02.2021
2426 Clear 9 1020 87 10000 0.51 220 19:38 17.02.2021
2427 Clear 10 1020 87 10000 0.51 220 19:19 17.02.2021
2428 Clear 11 1020 71 10000 1.03 220 18:41 17.02.2021
2429 Clear 12 1020 66 10000 1.54 230 18:18 17.02.2021
2430 Clear 13 1020 67 10000 2.06 240 17:37 17.02.2021
2431 Clear 13 1020 67 10000 2.06 240 17:18 17.02.2021
2432 Clear 13 1020 62 10000 2.06 240 16:43 17.02.2021
2433 Clear 13 1020 62 10000 3.09 240 16:22 17.02.2021
2434 Clear 13 1020 67 10000 2.57 260 15:44 17.02.2021
2435 Clear 13 1020 62 10000 2.06 240 15:23 17.02.2021
2436 Clear 13 1020 66 10000 1.54 240 14:45 17.02.2021
2437 Clear 13 1021 66 10000 2.06 240 14:26 17.02.2021
2438 Clear 12 1021 66 10000 2.57 220 13:45 17.02.2021
2439 Clouds 12 1022 71 10000 3.09 230 13:24 17.02.2021
2440 Clouds 10 1022 71 10000 2.57 240 12:39 17.02.2021
2441 Clouds 9 1022 71 10000 3.09 250 12:20 17.02.2021
2442 Clouds 8 1022 76 10000 3.09 250 11:36 17.02.2021
2443 Clouds 8 1022 76 10000 3.09 250 11:18 17.02.2021
2444 Clouds 8 1022 87 10000 2.57 250 10:44 17.02.2021
2445 Clouds 7 1022 81 10000 2.06 230 10:23 17.02.2021
2446 Clouds 7 1022 87 10000 2.06 250 09:44 17.02.2021
2447 Clouds 6 1022 87 10000 2.57 250 09:25 17.02.2021
2448 Clouds 6 1021 87 10000 2.57 250 08:42 17.02.2021
2449 Clouds 5 1021 87 10000 2.06 250 08:21 17.02.2021
2450 Clouds 5 1021 93 9000 1.54 240 07:26 17.02.2021
2451 Mist 5 1022 100 1200 1.54 140 05:53 17.02.2021
2452 Mist 6 1023 100 1900 1.54 80 02:34 17.02.2021
2453 Drizzle 6 1023 100 1300 1.03 0 01:55 17.02.2021
2454 Mist 6 1023 100 3100 1.03 0 00:33 17.02.2021
2455 Mist 7 1023 100 4200 1.54 260 23:54 16.02.2021
2456 Mist 7 1023 100 4200 1.54 260 23:34 16.02.2021
2457 Clouds 7 1023 87 10000 1.03 0 22:43 16.02.2021
2458 Clouds 7 1023 87 10000 1.54 270 22:24 16.02.2021
2459 Clouds 7 1024 81 10000 1.54 260 21:42 16.02.2021
2460 Clouds 7 1024 76 10000 1.03 0 21:22 16.02.2021
2461 Clouds 7 1024 76 10000 1.03 0 20:59 16.02.2021
2462 Clouds 7 1024 76 10000 1.03 0 20:41 16.02.2021
2463 Clouds 8 1024 70 10000 1.03 200 20:20 16.02.2021
2464 Clouds 8 1024 71 10000 1.03 0 19:42 16.02.2021
2465 Clouds 8 1024 71 10000 2.06 210 19:22 16.02.2021
2466 Clouds 8 1024 71 10000 2.06 200 18:40 16.02.2021
2467 Clouds 8 1024 71 10000 2.06 180 18:22 16.02.2021
2468 Clouds 8 1024 71 10000 1.54 170 17:50 16.02.2021
2469 Clouds 9 1024 71 10000 1.54 300 17:26 16.02.2021
2470 Clouds 10 1024 66 10000 1.54 270 16:51 16.02.2021
2471 Clouds 10 1024 62 10000 3.09 270 16:29 16.02.2021
2472 Clouds 10 1024 62 10000 3.09 290 15:47 16.02.2021
2473 Clouds 10 1024 72 10000 0.93 276 15:26 16.02.2021
2474 Clouds 10 1025 62 10000 4.12 300 14:51 16.02.2021
2475 Clouds 10 1025 62 10000 4.12 310 14:32 16.02.2021
2476 Clouds 10 1025 62 10000 3.6 290 13:58 16.02.2021
2477 Clouds 10 1025 62 10000 3.6 290 13:35 16.02.2021
2478 Clouds 8 1026 61 10000 2.06 240 12:47 16.02.2021
2479 Clouds 8 1026 61 10000 2.57 250 12:26 16.02.2021
2480 Clouds 7 1026 65 10000 2.06 250 11:50 16.02.2021
2481 Clouds 6 1027 70 10000 2.06 240 11:24 16.02.2021
2482 Clouds 5 1027 75 10000 2.06 250 10:58 16.02.2021
2483 Clouds 4 1027 80 10000 2.57 240 10:39 16.02.2021
2484 Clouds 4 1027 80 10000 2.57 240 10:20 16.02.2021
2485 Clouds 4 1027 80 10000 1.54 230 09:48 16.02.2021
2486 Clouds 3 1028 75 10000 1.03 0 09:26 16.02.2021
2487 Clouds 2 1027 86 10000 0.51 0 08:45 16.02.2021
2488 Clouds 2 1027 86 10000 0.51 0 08:45 16.02.2021
2489 Clouds 1 1027 86 10000 1.03 180 08:22 16.02.2021
2490 Clouds 1 1028 86 10000 1.03 10 07:30 16.02.2021
2491 Clear 1 1028 76 10000 1.2 275 06:21 16.02.2021
2492 Clear 2 1032 80 10000 1.3 278 01:21 16.02.2021
2493 Clear 2 1032 69 10000 0.51 0 23:46 15.02.2021
2494 Clear 3 1032 69 10000 1.03 260 23:24 15.02.2021
2495 Clear 3 1033 64 10000 1.03 0 22:44 15.02.2021
2496 Clear 3 1033 60 10000 1.54 250 22:23 15.02.2021
2497 Clear 3 1033 69 10000 1.03 250 21:42 15.02.2021
2498 Clear 3 1033 69 10000 1.03 250 21:22 15.02.2021
2499 Clear 4 1033 60 10000 1.03 240 20:47 15.02.2021
2500 Clear 4 1034 60 10000 1.03 240 20:27 15.02.2021
2501 Clear 4 1034 65 10000 1.54 270 19:44 15.02.2021
2502 Clear 5 1034 52 10000 1.54 260 19:24 15.02.2021
2503 Clear 5 1034 48 10000 1.54 250 18:47 15.02.2021
2504 Clear 5 1035 49 10000 2.06 240 18:26 15.02.2021
2505 Clear 6 1035 45 10000 1.54 240 17:43 15.02.2021
2506 Clear 7 1035 45 10000 2.06 260 17:25 15.02.2021
2507 Clear 7 1036 42 10000 2.06 260 16:57 15.02.2021
2508 Clear 7 1036 39 10000 3.09 270 16:28 15.02.2021
2509 Clear 8 1036 39 10000 2.57 260 15:52 15.02.2021
2510 Clouds 8 1036 36 10000 2.06 270 15:25 15.02.2021
2511 Clouds 8 1036 42 10000 2.06 220 14:59 15.02.2021
2512 Clouds 7 1036 42 10000 2.06 220 14:36 15.02.2021
2513 Clear 7 1037 45 10000 1.03 0 14:18 15.02.2021
2514 Clear 7 1036 39 10000 0.89 221 13:44 15.02.2021
2515 Clear 7 1038 42 10000 1.03 0 13:18 15.02.2021
2516 Clear 7 1038 45 10000 0.51 0 12:43 15.02.2021
2517 Clear 6 1038 48 10000 1.54 40 12:19 15.02.2021
2518 Clear 5 1039 52 10000 1.54 60 11:41 15.02.2021
2519 Clear 5 1039 52 10000 1.03 0 11:19 15.02.2021
2520 Clear 4 1039 56 10000 1.54 90 10:46 15.02.2021
2521 Clear 3 1039 55 10000 0.51 0 10:22 15.02.2021
2522 Clear 2 1038 69 10000 0.51 0 09:53 15.02.2021
2523 Clear 1 1038 74 10000 0.51 0 09:33 15.02.2021
2524 Clear 1 1038 74 10000 0.51 0 09:33 15.02.2021
2525 Clear 0 1038 74 10000 0.51 0 08:41 15.02.2021
2526 Clear -1 1038 86 10000 0.51 0 07:38 15.02.2021
2527 Clear -1 1038 86 10000 0.51 0 06:45 15.02.2021
2528 Clear -1 1038 64 10000 0.38 190 06:27 15.02.2021
2529 Clear 1 1039 86 10000 0.51 0 02:22 15.02.2021
2530 Clear 1 1038 93 10000 0.51 210 00:33 15.02.2021
2531 Clear 1 1038 80 10000 0.51 0 23:33 14.02.2021
2532 Clear 1 1038 86 10000 1.03 10 22:52 14.02.2021
2533 Clear 1 1038 69 10000 1.03 0 22:34 14.02.2021
2534 Clear 2 1038 80 10000 1.03 0 21:57 14.02.2021
2535 Clear 2 1037 74 10000 0.51 280 21:37 14.02.2021
2536 Clear 2 1037 64 10000 0.51 0 20:56 14.02.2021
2537 Clear 2 1037 64 10000 1.03 250 20:38 14.02.2021
2538 Clear 2 1037 64 10000 1.03 250 20:20 14.02.2021
2539 Clear 3 1037 56 10000 1.54 250 19:38 14.02.2021
2540 Clear 3 1037 56 10000 2.57 260 18:48 14.02.2021
2541 Clear 4 1037 52 10000 2.06 260 18:29 14.02.2021
2542 Clear 4 1037 52 10000 2.57 250 17:48 14.02.2021
2543 Clear 5 1037 49 10000 3.09 240 17:28 14.02.2021
2544 Clear 6 1037 49 10000 3.09 260 16:42 14.02.2021
2545 Clear 6 1037 49 10000 3.6 250 16:23 14.02.2021
2546 Clear 6 1037 45 10000 3.09 220 15:45 14.02.2021
2547 Clear 6 1038 42 10000 3.09 260 15:25 14.02.2021
2548 Clear 6 1038 48 10000 2.57 240 14:33 14.02.2021
2549 Clear 5 1039 48 10000 3.09 230 13:59 14.02.2021
2550 Clear 5 1039 56 10000 2.06 230 13:33 14.02.2021
2551 Clear 4 1039 56 10000 2.57 230 12:58 14.02.2021
2552 Clear 4 1039 60 10000 2.57 240 12:22 14.02.2021
2553 Clear 3 1039 60 10000 2.06 240 11:52 14.02.2021
2554 Clear 3 1039 56 10000 1.03 0 11:26 14.02.2021
2555 Clear 2 1039 69 10000 1.54 260 10:53 14.02.2021
2556 Clear -1 1039 80 10000 1.54 250 09:58 14.02.2021
2557 Clear -1 1038 80 10000 1.54 260 09:39 14.02.2021
2558 Clear -2 1038 80 10000 1.54 260 09:21 14.02.2021
2559 Clear -2 1038 74 10000 1.54 250 08:43 14.02.2021
2560 Clear -2 1038 93 10000 1.03 250 07:58 14.02.2021
2561 Clear -2 1037 74 10000 1.54 20 06:52 14.02.2021
2562 Clear -2 1037 64 10000 1.54 280 05:43 14.02.2021
2563 Clear -1 1037 64 10000 2.06 330 03:33 14.02.2021
2564 Clear -1 1036 74 10000 2.06 350 02:29 14.02.2021
2565 Clouds 0 1036 69 10000 0.51 0 00:48 14.02.2021
2566 Clouds 0 1036 64 10000 0.51 350 00:29 14.02.2021
2567 Clouds 0 1035 74 10000 1.03 0 23:41 13.02.2021
2568 Clouds 0 1035 74 10000 1.03 0 23:21 13.02.2021
2569 Clouds 0 1035 69 10000 0.55 298 22:43 13.02.2021
2570 Clouds 0 1035 74 10000 0.51 0 22:20 13.02.2021
2571 Clouds 0 1034 69 10000 0.51 270 21:42 13.02.2021
2572 Clear 0 1034 74 10000 0.63 151 21:21 13.02.2021
2573 Clear 0 1033 69 10000 1.03 200 20:30 13.02.2021
2574 Clear 0 1032 55 10000 1.54 190 19:56 13.02.2021
2575 Clear 0 1032 51 10000 1.03 180 19:37 13.02.2021
2576 Clear 0 1032 51 10000 1.03 180 19:18 13.02.2021
2577 Clear 0 1031 55 10000 1.54 190 18:40 13.02.2021
2578 Clear 1 1031 47 10000 1.03 0 17:57 13.02.2021
2579 Clear 1 1031 47 10000 1.54 0 17:38 13.02.2021
2580 Clear 1 1031 47 10000 1.54 0 17:19 13.02.2021
2581 Clear 2 1031 44 10000 2.06 0 16:42 13.02.2021
2582 Clear 1 1030 44 10000 2.57 150 16:18 13.02.2021
2583 Clouds 2 1030 44 6000 3.6 110 15:29 13.02.2021
2584 Clouds 1 1030 40 10000 5.14 130 14:50 13.02.2021
2585 Clouds 2 1030 40 10000 5.14 130 14:30 13.02.2021
2586 Clouds 1 1030 44 10000 5.14 100 13:44 13.02.2021
2587 Clouds 1 1030 44 10000 5.14 100 13:24 13.02.2021
2588 Clouds 1 1030 44 10000 4.12 100 12:41 13.02.2021
2589 Clouds 0 1030 44 10000 5.14 110 12:18 13.02.2021
2590 Clouds 0 1030 43 10000 6.17 100 11:41 13.02.2021
2591 Clouds 0 1030 47 10000 5.66 100 11:19 13.02.2021
2592 Clouds 0 1029 51 10000 6.17 110 10:44 13.02.2021
2593 Clouds 0 1029 47 10000 5.66 100 10:23 13.02.2021
2594 Clouds 0 1029 51 10000 5.14 110 09:50 13.02.2021
2595 Clouds 0 1028 59 10000 3.6 120 09:29 13.02.2021
2596 Clouds -1 1028 55 10000 4.63 120 08:52 13.02.2021
2597 Clouds -1 1028 59 10000 4.12 110 08:26 13.02.2021
2598 Clouds -1 1027 59 10000 4.63 110 07:43 13.02.2021
2599 Clouds -1 1027 74 10000 2.06 120 06:25 13.02.2021
2600 Clouds -1 1026 80 10000 2.06 120 05:18 13.02.2021
2601 Clouds 0 1026 80 10000 3.09 100 02:44 13.02.2021
2602 Clouds 0 1026 80 10000 4.12 110 01:25 13.02.2021
2603 Snow 0 1026 93 6000 1.54 60 00:19 13.02.2021
2604 Snow 0 1026 93 6000 2.57 70 23:45 12.02.2021
2605 Snow 0 1026 86 6000 3.09 90 23:19 12.02.2021
2606 Clouds 0 1025 86 8000 4.12 120 22:32 12.02.2021
2607 Snow 0 1025 86 5000 3.6 110 21:59 12.02.2021
2608 Snow 0 1025 86 5000 3.6 110 21:40 12.02.2021
2609 Snow 0 1025 80 5000 3.09 90 21:21 12.02.2021
2610 Clouds 1 1025 69 10000 3.6 100 20:41 12.02.2021
2611 Clouds 1 1025 69 10000 3.6 100 20:41 12.02.2021
2612 Snow 1 1024 64 10000 5.14 110 20:23 12.02.2021
2613 Snow 2 1024 55 10000 3.6 110 19:54 12.02.2021
2614 Snow 2 1024 55 10000 5.66 100 19:29 12.02.2021
2615 Rain 2 1023 55 10000 4.12 120 18:35 12.02.2021
2616 Rain 2 1023 56 10000 2.57 110 17:56 12.02.2021
2617 Clouds 3 1023 52 10000 3.6 130 17:35 12.02.2021
2618 Clouds 3 1023 52 10000 4.12 110 16:53 12.02.2021
2619 Clouds 3 1023 52 10000 4.12 120 16:18 12.02.2021
2620 Clouds 3 1023 52 10000 5.14 140 15:41 12.02.2021
2621 Clouds 3 1024 48 10000 5.66 130 15:19 12.02.2021
2622 Clouds 4 1024 48 10000 5.66 120 14:34 12.02.2021
2623 Clouds 4 1024 45 10000 6.17 120 13:49 12.02.2021
2624 Clouds 4 1024 52 10000 5.14 120 13:29 12.02.2021
2625 Clouds 4 1024 52 10000 5.14 120 12:53 12.02.2021
2626 Clouds 4 1024 52 10000 6.17 110 12:35 12.02.2021
2627 Clouds 4 1024 52 10000 6.17 110 11:47 12.02.2021
2628 Clouds 4 1024 52 10000 5.66 100 11:21 12.02.2021
2629 Clouds 4 1024 56 10000 5.14 90 10:48 12.02.2021
2630 Clouds 4 1023 60 10000 5.14 100 09:59 12.02.2021
2631 Clouds 4 1023 60 10000 4.63 90 09:39 12.02.2021
2632 Clouds 4 1023 60 10000 4.63 90 09:21 12.02.2021
2633 Clouds 4 1022 65 10000 4.63 90 08:44 12.02.2021
2634 Clouds 4 1022 65 10000 4.63 90 08:21 12.02.2021
2635 Clouds 4 1022 70 10000 4.12 90 07:51 12.02.2021
2636 Clouds 4 1022 70 10000 4.12 90 07:51 12.02.2021
2637 Clouds 4 1022 70 10000 4.12 90 07:21 12.02.2021
2638 Clouds 4 1022 70 10000 4.63 90 06:49 12.02.2021
2639 Clouds 4 1021 65 10000 4.12 90 05:29 12.02.2021
2640 Clouds 5 1021 70 10000 3.6 90 03:32 12.02.2021
2641 Clouds 7 1020 76 10000 4.63 100 00:28 12.02.2021
2642 Clouds 7 1019 81 10000 5.14 110 23:23 11.02.2021
2643 Clouds 7 1019 87 10000 5.14 110 22:59 11.02.2021
2644 Clouds 7 1018 87 10000 4.63 120 22:41 11.02.2021
2645 Clouds 7 1018 87 10000 4.63 120 22:22 11.02.2021
2646 Clouds 7 1018 81 10000 4.12 110 21:43 11.02.2021
2647 Clouds 8 1017 81 10000 6.17 110 21:24 11.02.2021
2648 Clouds 8 1017 81 10000 7.2 110 20:47 11.02.2021
2649 Clouds 8 1016 87 10000 7.72 120 20:23 11.02.2021
2650 Clouds 8 1016 87 10000 5.66 120 19:52 11.02.2021
2651 Clouds 8 1016 87 10000 5.66 120 19:34 11.02.2021
2652 Clear 9 1014 76 10000 5.14 120 18:59 11.02.2021
2653 Clear 10 1014 66 10000 2.57 120 18:31 11.02.2021
2654 Clear 11 1013 66 10000 3.09 130 17:58 11.02.2021
2655 Clear 11 1013 66 10000 3.09 130 17:37 11.02.2021
2656 Clear 12 1013 62 10000 3.09 140 17:19 11.02.2021
2657 Clear 12 1012 66 10000 2.57 130 16:41 11.02.2021
2658 Clear 12 1012 66 10000 2.57 130 16:23 11.02.2021
2659 Clear 12 1012 71 10000 2.06 150 15:44 11.02.2021
2660 Clear 12 1012 71 10000 2.06 150 15:44 11.02.2021
2661 Clear 12 1012 76 10000 2.57 170 15:26 11.02.2021
2662 Clouds 12 1012 66 10000 2.06 140 14:51 11.02.2021
2663 Clear 12 1011 66 10000 1.54 140 14:30 11.02.2021
2664 Clear 11 1011 76 10000 1.54 160 13:42 11.02.2021
2665 Clear 11 1011 76 10000 1.54 160 13:19 11.02.2021
2666 Clear 11 1011 81 10000 2.06 0 12:53 11.02.2021
2667 Clear 11 1011 81 10000 2.06 150 12:30 11.02.2021
2668 Clear 10 1011 81 10000 2.06 160 11:47 11.02.2021
2669 Clear 9 1011 81 10000 2.57 150 11:25 11.02.2021
2670 Clear 9 1010 87 10000 2.06 140 10:45 11.02.2021
2671 Clear 8 1010 100 10000 1.54 130 10:26 11.02.2021
2672 Clear 6 1009 100 10000 0.51 70 09:54 11.02.2021
2673 Fog 4 1009 100 600 0.51 0 09:24 11.02.2021
2674 Fog 4 1009 100 100 0.51 0 08:54 11.02.2021
2675 Fog 4 1008 100 800 0.51 0 08:28 11.02.2021
2676 Fog 3 1008 100 100 1.54 180 07:38 11.02.2021
2677 Fog 3 1007 100 1500 0.51 20 06:41 11.02.2021
2678 Fog 3 1006 100 1500 0.51 0 05:33 11.02.2021
2679 Clear 5 1004 93 10000 1.54 290 02:29 11.02.2021
2680 Clear 6 1003 93 10000 1.54 270 00:54 11.02.2021
2681 Clear 5 1003 93 10000 1.54 280 00:21 11.02.2021
2682 Clear 5 1002 93 10000 1.03 0 23:44 10.02.2021
2683 Clear 6 1002 93 10000 2.57 280 22:53 10.02.2021
2684 Clear 6 1002 93 10000 2.57 280 22:53 10.02.2021
2685 Clouds 6 1002 93 10000 2.06 270 22:29 10.02.2021
2686 Clouds 6 1002 93 10000 2.06 270 22:29 10.02.2021
2687 Clouds 6 1001 93 10000 2.06 250 21:59 10.02.2021
2688 Clouds 7 1001 93 10000 1.54 260 21:38 10.02.2021
2689 Clouds 7 1001 93 10000 1.54 260 21:19 10.02.2021
2690 Clouds 7 1001 93 10000 1.54 250 20:40 10.02.2021
2691 Clouds 7 1000 93 10000 1.03 0 20:22 10.02.2021
2692 Clouds 7 1000 93 10000 2.06 240 19:45 10.02.2021
2693 Clouds 8 999 93 10000 2.06 250 19:24 10.02.2021
2694 Clouds 8 999 93 10000 1.54 250 18:40 10.02.2021
2695 Clouds 8 999 93 10000 1.54 250 18:22 10.02.2021
2696 Clouds 8 999 93 10000 1.54 250 17:51 10.02.2021
2697 Clouds 9 999 87 10000 1.03 0 17:23 10.02.2021
2698 Clouds 9 999 87 10000 1.03 0 16:53 10.02.2021
2699 Clouds 9 999 87 10000 2.06 200 16:29 10.02.2021
2700 Clouds 8 998 93 10000 2.06 140 15:47 10.02.2021
2701 Clouds 8 998 93 10000 1.03 0 15:23 10.02.2021
2702 Clouds 8 998 93 10000 1.54 90 14:42 10.02.2021
2703 Clouds 8 998 93 10000 1.54 90 14:21 10.02.2021
2704 Clouds 8 998 93 10000 2.57 30 13:50 10.02.2021
2705 Rain 8 998 93 10000 1.54 40 13:28 10.02.2021
2706 Rain 7 998 93 10000 2.57 40 12:48 10.02.2021
2707 Rain 7 998 93 7000 3.6 30 12:29 10.02.2021
2708 Rain 7 998 100 6000 2.06 60 11:47 10.02.2021
2709 Rain 7 998 100 5000 2.06 30 11:29 10.02.2021
2710 Rain 7 998 93 3500 1.03 0 10:49 10.02.2021
2711 Rain 7 998 93 3000 2.57 30 10:20 10.02.2021
2712 Rain 7 998 93 3000 2.57 10 09:43 10.02.2021
2713 Clouds 7 997 93 5000 1.54 360 09:22 10.02.2021
2714 Rain 7 998 93 3500 1.03 0 08:50 10.02.2021
2715 Rain 7 997 93 3500 1.03 0 08:29 10.02.2021
2716 Rain 7 997 100 3600 2.06 120 07:18 10.02.2021
2717 Mist 7 998 100 3700 5.66 110 04:47 10.02.2021
2718 Rain 8 1001 100 3300 3.6 110 00:51 10.02.2021
2719 Rain 8 1001 100 6000 1.54 60 23:39 09.02.2021
2720 Rain 8 1001 100 6000 1.54 60 23:19 09.02.2021
2721 Rain 8 1001 93 7000 1.54 120 22:25 09.02.2021
2722 Rain 8 1001 93 7000 2.06 130 21:58 09.02.2021
2723 Rain 9 1001 93 7000 2.06 130 21:40 09.02.2021
2724 Rain 9 1001 93 10000 1.03 0 21:18 09.02.2021
2725 Rain 9 1001 93 10000 1.03 150 20:41 09.02.2021
2726 Clouds 9 1001 93 10000 0.51 160 20:22 09.02.2021
2727 Clouds 9 1001 93 10000 2.06 140 19:39 09.02.2021
2728 Clouds 10 1001 81 10000 1.03 0 19:18 09.02.2021
2729 Clouds 10 1000 81 10000 1.03 190 18:41 09.02.2021
2730 Clouds 10 1000 81 10000 1.03 170 17:58 09.02.2021
2731 Clouds 10 1000 81 10000 1.03 170 17:40 09.02.2021
2732 Clouds 10 1000 81 10000 1.54 180 17:22 09.02.2021
2733 Clouds 11 1000 71 10000 1.03 0 16:47 09.02.2021
2734 Clouds 11 1000 71 10000 0.51 0 16:19 09.02.2021
2735 Clouds 11 1000 71 10000 0.51 0 15:50 09.02.2021
2736 Clouds 10 1000 76 10000 1.03 0 15:27 09.02.2021
2737 Clouds 10 1000 81 10000 1.03 0 14:56 09.02.2021
2738 Clouds 10 1000 87 8000 1.03 0 14:28 09.02.2021
2739 Clouds 10 1000 81 6000 1.03 0 13:53 09.02.2021
2740 Mist 9 1000 87 5000 0.51 0 13:28 09.02.2021
2741 Drizzle 9 1000 100 5000 0.51 0 12:55 09.02.2021
2742 Drizzle 9 1000 100 5000 0.51 0 12:36 09.02.2021
2743 Mist 8 1000 93 5000 1.54 190 11:59 09.02.2021
2744 Mist 8 1000 93 5000 1.54 190 11:59 09.02.2021
2745 Mist 8 1000 93 5000 1.54 190 11:40 09.02.2021
2746 Mist 8 1000 93 5000 1.03 170 11:20 09.02.2021
2747 Mist 8 1000 93 5000 1.03 180 10:50 09.02.2021
2748 Drizzle 8 999 93 5000 0.51 0 10:19 09.02.2021
2749 Drizzle 7 999 93 5000 1.03 130 09:43 09.02.2021
2750 Drizzle 7 999 93 5000 1.03 130 09:25 09.02.2021
2751 Clouds 7 999 100 7000 0.51 280 08:47 09.02.2021
2752 Clouds 7 999 100 10000 0.51 0 08:26 09.02.2021
2753 Drizzle 7 998 93 10000 0.51 10 06:55 09.02.2021
2754 Clouds 7 997 81 10000 2.06 70 04:53 09.02.2021
2755 Clouds 7 998 81 10000 2.06 60 03:41 09.02.2021
2756 Clouds 8 997 76 10000 3.09 60 00:39 09.02.2021
2757 Clouds 8 997 76 10000 2.57 50 23:57 08.02.2021
2758 Clouds 8 997 76 10000 2.57 40 23:21 08.02.2021
2759 Clouds 7 997 81 10000 2.06 30 22:44 08.02.2021
2760 Clouds 8 997 81 10000 1.54 80 22:25 08.02.2021
2761 Clouds 7 997 100 10000 2.06 10 21:57 08.02.2021
2762 Clouds 7 997 100 10000 2.06 10 21:34 08.02.2021
2763 Clouds 7 996 93 10000 1.03 0 20:59 08.02.2021
2764 Clouds 7 996 93 10000 1.03 0 20:40 08.02.2021
2765 Clouds 7 996 100 10000 0.51 0 20:21 08.02.2021
2766 Clear 8 996 93 10000 0.51 0 19:45 08.02.2021
2767 Clear 8 995 93 10000 0.51 0 19:25 08.02.2021
2768 Clear 8 995 87 10000 0.51 0 18:49 08.02.2021
2769 Clear 8 995 87 10000 2.06 180 18:24 08.02.2021
2770 Clear 10 995 46 10000 1.03 0 17:47 08.02.2021
2771 Clear 11 994 40 10000 1.54 220 17:26 08.02.2021
2772 Clear 12 994 41 10000 1.03 0 16:47 08.02.2021
2773 Clear 12 994 43 10000 1.54 330 16:23 08.02.2021
2774 Clear 12 994 50 10000 1.03 0 15:48 08.02.2021
2775 Clear 12 994 54 10000 2.06 220 15:21 08.02.2021
2776 Clear 11 993 54 10000 2.06 240 14:58 08.02.2021
2777 Clear 11 994 58 10000 2.06 250 14:39 08.02.2021
2778 Clear 11 994 58 10000 2.06 250 14:20 08.02.2021
2779 Clear 10 994 71 10000 2.57 240 13:40 08.02.2021
2780 Clear 10 994 71 10000 2.57 240 13:22 08.02.2021
2781 Clear 9 994 71 10000 1.54 240 12:37 08.02.2021
2782 Clear 10 994 71 10000 2.06 250 11:51 08.02.2021
2783 Clear 9 994 76 10000 2.57 250 11:23 08.02.2021
2784 Clear 7 994 93 10000 1.54 250 10:46 08.02.2021
2785 Clouds 6 994 93 10000 1.54 250 10:24 08.02.2021
2786 Clouds 5 994 100 10000 1.54 230 09:55 08.02.2021
2787 Clouds 5 993 93 10000 2.06 250 09:36 08.02.2021
2788 Clouds 4 993 100 10000 2.06 260 08:51 08.02.2021
2789 Clouds 4 993 100 10000 3.6 260 08:23 08.02.2021
2790 Clouds 4 992 93 10000 3.09 260 07:36 08.02.2021
2791 Clouds 5 992 87 10000 3.6 270 06:30 08.02.2021
2792 Clouds 5 991 100 10000 1.54 210 03:58 08.02.2021
2793 Rain 6 992 100 5000 1.03 0 01:50 08.02.2021
2794 Mist 7 992 100 5000 0.51 0 00:23 08.02.2021
2795 Clouds 7 993 100 6000 1.03 180 23:52 07.02.2021
2796 Clouds 7 993 100 6000 1.54 140 23:27 07.02.2021
2797 Clouds 7 993 93 6000 0.51 0 22:46 07.02.2021
2798 Clouds 7 993 100 6000 1.03 0 22:28 07.02.2021
2799 Rain 7 993 93 7000 0.51 0 21:57 07.02.2021
2800 Rain 7 993 93 10000 0.51 0 21:39 07.02.2021
2801 Rain 7 993 93 10000 0.51 0 21:19 07.02.2021
2802 Rain 7 993 93 10000 1.03 200 20:44 07.02.2021
2803 Clouds 7 994 93 10000 1.54 190 20:26 07.02.2021
2804 Drizzle 7 994 93 6000 1.03 200 19:42 07.02.2021
2805 Drizzle 8 994 93 6000 0.51 0 19:22 07.02.2021
2806 Drizzle 8 994 100 6000 1.03 0 18:43 07.02.2021
2807 Clouds 7 994 100 10000 1.54 260 18:25 07.02.2021
2808 Rain 8 994 100 10000 1.03 0 17:44 07.02.2021
2809 Rain 8 994 100 10000 1.54 220 17:22 07.02.2021
2810 Rain 8 995 100 10000 2.06 210 16:57 07.02.2021
2811 Clouds 8 995 100 10000 1.54 190 16:36 07.02.2021
2812 Clouds 8 995 100 10000 1.54 190 16:18 07.02.2021
2813 Rain 8 995 100 10000 1.54 150 15:41 07.02.2021
2814 Clouds 8 995 93 10000 1.03 0 15:21 07.02.2021
2815 Clouds 8 995 93 10000 1.03 0 14:42 07.02.2021
2816 Clouds 8 995 93 10000 3.09 350 14:24 07.02.2021
2817 Clouds 8 996 93 10000 3.09 10 13:40 07.02.2021
2818 Clouds 8 997 93 7000 2.06 360 13:22 07.02.2021
2819 Rain 8 998 93 6000 1.54 270 12:39 07.02.2021
2820 Rain 7 998 93 6000 1.54 310 12:20 07.02.2021
2821 Rain 8 998 93 7000 3.6 30 11:41 07.02.2021
2822 Rain 8 999 100 2000 1.03 0 11:23 07.02.2021
2823 Rain 8 1000 100 2000 1.03 350 10:29 07.02.2021
2824 Rain 8 1000 100 3000 1.03 0 09:55 07.02.2021
2825 Mist 8 1001 100 2000 1.03 260 09:37 07.02.2021
2826 Mist 8 1001 100 2000 1.03 260 09:18 07.02.2021
2827 Mist 8 1001 100 5000 2.06 90 07:56 07.02.2021
2828 Rain 8 1003 100 7000 4.12 110 06:25 07.02.2021
2829 Rain 8 1005 100 6000 3.6 110 04:36 07.02.2021
2830 Rain 9 1007 93 6000 4.63 120 02:31 07.02.2021
2831 Rain 9 1008 93 5000 3.6 120 00:38 07.02.2021
2832 Mist 9 1009 93 5000 3.6 100 23:51 06.02.2021
2833 Mist 9 1009 93 5000 3.6 90 22:54 06.02.2021
2834 Mist 9 1010 93 5000 3.09 70 22:19 06.02.2021
2835 Mist 9 1011 93 5000 2.06 140 21:37 06.02.2021
2836 Mist 9 1011 93 5000 2.06 140 21:19 06.02.2021
2837 Mist 9 1010 93 5000 2.06 110 20:43 06.02.2021
2838 Mist 9 1010 93 5000 2.06 70 20:22 06.02.2021
2839 Mist 9 1010 93 5000 2.06 70 19:45 06.02.2021
2840 Mist 9 1011 93 4000 1.54 80 19:23 06.02.2021
2841 Mist 9 1011 93 3500 1.54 80 18:44 06.02.2021
2842 Mist 9 1012 93 3500 0.51 0 18:24 06.02.2021
2843 Mist 10 1011 87 3000 1.54 140 17:41 06.02.2021
2844 Mist 10 1012 93 3500 1.54 160 17:21 06.02.2021
2845 Mist 10 1012 87 3500 1.54 130 16:52 06.02.2021
2846 Mist 10 1012 87 3500 1.03 0 16:30 06.02.2021
2847 Mist 10 1012 93 3500 1.54 110 15:53 06.02.2021
2848 Mist 10 1012 87 3500 1.54 130 15:34 06.02.2021
2849 Mist 10 1013 87 3500 1.03 130 14:59 06.02.2021
2850 Mist 10 1013 93 3500 1.54 170 14:39 06.02.2021
2851 Mist 10 1013 93 3500 1.54 170 14:21 06.02.2021
2852 Mist 10 1014 87 3500 2.06 140 13:44 06.02.2021
2853 Mist 10 1014 93 3500 1.54 110 12:41 06.02.2021
2854 Mist 10 1014 93 3000 1.54 90 12:20 06.02.2021
2855 Mist 9 1015 100 2500 1.54 60 11:40 06.02.2021
2856 Mist 9 1015 100 2500 1.54 60 11:20 06.02.2021
2857 Mist 9 1015 100 3000 1.54 50 10:52 06.02.2021
2858 Mist 9 1015 100 3000 1.03 40 10:26 06.02.2021
2859 Mist 9 1015 100 3000 0.51 40 09:38 06.02.2021
2860 Mist 8 1015 100 2000 1.03 20 09:19 06.02.2021
2861 Mist 8 1015 100 1500 0.51 10 08:59 06.02.2021
2862 Fog 8 1015 100 1500 0.51 320 08:29 06.02.2021
2863 Mist 8 1015 100 1500 1.03 20 06:58 06.02.2021
2864 Mist 8 1016 100 2500 1.54 40 05:41 06.02.2021
2865 Mist 8 1017 100 3500 1.03 70 02:50 06.02.2021
2866 Clouds 8 1017 100 6000 0.51 0 00:58 06.02.2021
2867 Clouds 9 1017 93 6000 0.51 110 00:40 06.02.2021
2868 Clouds 9 1017 93 6000 0.51 110 00:18 06.02.2021
2869 Clouds 9 1017 93 8000 0.51 160 23:34 05.02.2021
2870 Clouds 9 1017 93 8000 1.03 180 22:56 05.02.2021
2871 Clouds 9 1017 93 8000 1.03 0 22:25 05.02.2021
2872 Clouds 9 1017 93 8000 1.54 160 21:59 05.02.2021
2873 Clouds 9 1017 93 8000 1.54 160 21:39 05.02.2021
2874 Clouds 9 1017 93 10000 0.51 0 20:58 05.02.2021
2875 Clouds 9 1017 93 10000 0.51 200 20:34 05.02.2021
2876 Clouds 9 1017 93 7000 1.03 170 19:46 05.02.2021
2877 Clouds 9 1017 93 6000 0.51 0 19:18 05.02.2021
2878 Clouds 9 1017 93 6000 1.03 0 18:43 05.02.2021
2879 Mist 9 1017 93 5000 1.03 0 18:19 05.02.2021
2880 Mist 9 1017 93 3500 2.06 220 17:38 05.02.2021
2881 Mist 9 1017 93 3500 1.54 230 17:19 05.02.2021
2882 Mist 9 1017 93 3500 2.06 220 16:43 05.02.2021
2883 Mist 10 1017 100 2500 2.06 210 16:21 05.02.2021
2884 Mist 10 1017 100 2500 1.54 250 15:50 05.02.2021
2885 Mist 10 1017 100 2500 1.54 220 15:22 05.02.2021
2886 Mist 9 1017 100 2500 1.54 260 14:38 05.02.2021
2887 Mist 9 1018 100 2500 1.54 250 14:20 05.02.2021
2888 Mist 9 1018 93 2500 1.03 0 13:48 05.02.2021
2889 Mist 9 1019 93 2500 1.03 0 13:30 05.02.2021
2890 Mist 9 1019 93 2500 1.03 0 13:30 05.02.2021
2891 Mist 9 1019 93 2500 1.03 0 12:44 05.02.2021
2892 Mist 9 1019 93 2500 1.03 0 12:21 05.02.2021
2893 Mist 8 1019 93 2500 0.51 0 11:39 05.02.2021
2894 Mist 8 1019 93 1800 1.03 0 11:20 05.02.2021
2895 Mist 8 1019 100 1600 1.03 0 10:48 05.02.2021
2896 Mist 8 1019 100 1200 0.51 0 10:25 05.02.2021
2897 Drizzle 8 1019 100 1200 0.51 0 09:43 05.02.2021
2898 Fog 8 1019 100 800 1.03 50 09:24 05.02.2021
2899 Mist 7 1019 100 1200 0.51 0 08:42 05.02.2021
2900 Mist 7 1018 100 1500 0.51 0 07:43 05.02.2021
2901 Mist 7 1018 100 1200 0.51 60 07:24 05.02.2021
2902 Mist 7 1018 100 2000 1.03 60 06:34 05.02.2021
2903 Drizzle 7 1018 100 1000 1.54 70 05:35 05.02.2021
2904 Drizzle 8 1019 100 2000 1.03 0 02:26 05.02.2021
2905 Mist 8 1019 93 2000 1.54 120 01:43 05.02.2021
2906 Mist 8 1019 100 2000 1.54 130 00:37 05.02.2021
2907 Mist 8 1019 100 2000 2.06 100 00:19 05.02.2021
2908 Drizzle 8 1019 100 2000 2.06 110 23:43 04.02.2021
2909 Mist 8 1019 100 3000 1.54 90 23:25 04.02.2021
2910 Mist 8 1019 100 3000 1.54 60 22:55 04.02.2021
2911 Mist 8 1019 100 3000 1.03 50 22:35 04.02.2021
2912 Mist 8 1019 100 3500 0.51 0 21:58 04.02.2021
2913 Drizzle 8 1019 100 4000 1.03 0 21:39 04.02.2021
2914 Mist 8 1019 100 4000 1.03 120 20:58 04.02.2021
2915 Drizzle 8 1019 100 4000 1.03 130 20:34 04.02.2021
2916 Drizzle 8 1019 100 4000 1.03 130 20:34 04.02.2021
2917 Drizzle 8 1019 100 6000 1.03 0 19:53 04.02.2021
2918 Clouds 8 1018 100 6000 0.51 0 19:27 04.02.2021
2919 Mist 9 1018 100 5000 1.03 190 18:46 04.02.2021
2920 Mist 9 1018 93 5000 2.06 170 18:24 04.02.2021
2921 Mist 9 1018 93 5000 1.03 170 17:47 04.02.2021
2922 Mist 9 1017 93 5000 1.03 180 17:22 04.02.2021
2923 Mist 9 1017 93 5000 1.03 0 16:50 04.02.2021
2924 Mist 9 1017 93 5000 1.03 0 16:50 04.02.2021
2925 Mist 10 1017 93 5000 1.03 0 16:21 04.02.2021
2926 Clouds 9 1017 93 8000 1.54 230 15:41 04.02.2021
2927 Clouds 9 1017 93 8000 1.54 230 15:22 04.02.2021
2928 Clouds 9 1017 93 10000 1.54 240 14:58 04.02.2021
2929 Clouds 9 1018 87 10000 2.57 230 14:40 04.02.2021
2930 Clouds 9 1018 87 10000 2.57 230 14:20 04.02.2021
2931 Clouds 9 1018 87 8000 1.54 230 13:44 04.02.2021
2932 Clouds 9 1018 87 8000 2.06 240 12:57 04.02.2021
2933 Clouds 9 1018 87 6000 2.06 230 12:33 04.02.2021
2934 Clouds 9 1018 87 8000 2.06 230 11:53 04.02.2021
2935 Clouds 8 1018 93 6000 2.06 240 11:33 04.02.2021
2936 Clouds 8 1017 93 6000 2.06 230 10:48 04.02.2021
2937 Mist 7 1017 93 5000 1.54 240 10:18 04.02.2021
2938 Mist 7 1016 100 5000 1.54 210 09:43 04.02.2021
2939 Mist 6 1016 93 5000 1.54 260 09:19 04.02.2021
2940 Clouds 6 1014 96 10000 1.71 265 08:46 04.02.2021
2941 Clouds 6 1014 96 10000 1.88 269 08:23 04.02.2021
2942 Clouds 6 1015 93 6000 2.06 260 07:42 04.02.2021
2943 Mist 6 1015 100 5000 2.06 290 07:20 04.02.2021
2944 Mist 6 1015 100 4000 1.54 260 06:41 04.02.2021
2945 Clouds 6 1015 100 6000 2.06 250 03:54 04.02.2021
2946 Clouds 6 1015 100 6000 2.06 250 03:54 04.02.2021
2947 Mist 6 1015 100 5000 1.54 240 02:26 04.02.2021
2948 Mist 6 1015 100 3900 1.54 230 00:48 04.02.2021
2949 Mist 6 1014 100 2000 1.03 0 23:40 03.02.2021
2950 Drizzle 6 1014 100 2000 0.51 200 22:44 03.02.2021
2951 Drizzle 6 1014 100 1500 1.03 0 22:23 03.02.2021
2952 Mist 6 1014 100 1200 0.51 0 21:58 03.02.2021
2953 Drizzle 6 1014 100 1200 0.51 0 21:38 03.02.2021
2954 Drizzle 6 1014 100 1200 0.51 190 21:20 03.02.2021
2955 Drizzle 6 1014 100 1200 0.51 0 20:45 03.02.2021
2956 Drizzle 6 1014 100 1200 0.41 303 20:24 03.02.2021
2957 Drizzle 6 1014 100 1200 0.51 0 19:45 03.02.2021
2958 Mist 6 1014 100 1500 0.51 0 19:21 03.02.2021
2959 Drizzle 6 1014 100 1500 1.03 120 18:48 03.02.2021
2960 Drizzle 6 1013 100 1500 0.51 50 18:20 03.02.2021
2961 Drizzle 6 1013 100 1500 0.51 0 17:52 03.02.2021
2962 Drizzle 6 1013 100 1500 0.51 0 17:31 03.02.2021
2963 Mist 6 1013 100 1500 1.03 50 16:56 03.02.2021
2964 Mist 6 1013 100 1500 0.51 0 16:30 03.02.2021
2965 Mist 6 1013 100 1500 0.51 0 16:30 03.02.2021
2966 Mist 6 1014 100 1200 0.51 0 15:46 03.02.2021
2967 Fog 6 1014 100 800 1.54 120 15:25 03.02.2021
2968 Fog 6 1014 100 700 2.06 80 14:54 03.02.2021
2969 Fog 6 1014 100 600 1.54 70 14:26 03.02.2021
2970 Drizzle 6 1015 100 600 1.54 100 13:54 03.02.2021
2971 Drizzle 6 1015 100 600 1.54 80 13:28 03.02.2021
2972 Drizzle 6 1015 100 600 2.06 70 12:49 03.02.2021
2973 Drizzle 6 1015 100 600 2.06 50 12:27 03.02.2021
2974 Drizzle 6 1016 100 600 3.09 50 11:54 03.02.2021
2975 Fog 6 1016 100 600 3.09 50 11:34 03.02.2021
2976 Drizzle 6 1015 100 500 2.57 50 10:54 03.02.2021
2977 Drizzle 6 1016 100 500 2.06 40 10:22 03.02.2021
2978 Drizzle 5 1015 100 700 1.03 0 09:47 03.02.2021
2979 Drizzle 5 1015 100 700 1.03 20 09:28 03.02.2021
2980 Drizzle 5 1015 100 1000 1.03 0 08:53 03.02.2021
2981 Drizzle 5 1015 100 1200 1.54 90 08:27 03.02.2021
2982 Mist 5 1015 100 2100 0.51 0 07:39 03.02.2021
2983 Mist 5 1014 100 2400 0.51 0 06:41 03.02.2021
2984 Mist 5 1015 100 1700 1.54 180 04:54 03.02.2021
2985 Mist 5 1015 100 1500 1.03 180 04:29 03.02.2021
2986 Mist 5 1015 100 1200 1.54 170 03:18 03.02.2021
2987 Fog 5 1015 100 900 1.03 0 02:26 03.02.2021
2988 Mist 5 1015 100 1900 0.51 0 00:30 03.02.2021
2989 Mist 4 1015 100 1300 1.03 0 23:53 02.02.2021
2990 Mist 5 1014 100 1200 2.06 160 23:29 02.02.2021
2991 Mist 5 1014 100 1200 1.03 170 22:59 02.02.2021
2992 Mist 5 1014 100 1000 1.03 0 22:22 02.02.2021
2993 Fog 5 1015 100 800 1.03 0 21:55 02.02.2021
2994 Fog 5 1015 100 600 1.03 0 21:30 02.02.2021
2995 Fog 5 1014 100 600 1.54 50 20:59 02.02.2021
2996 Fog 5 1014 100 600 1.03 40 20:41 02.02.2021
2997 Fog 5 1014 100 600 1.03 40 20:18 02.02.2021
2998 Fog 5 1014 100 600 1.03 40 20:18 02.02.2021
2999 Fog 4 1014 100 600 1.03 0 19:42 02.02.2021
3000 Fog 5 1013 100 600 2.06 200 19:23 02.02.2021
3001 Fog 5 1013 100 800 1.54 210 18:44 02.02.2021
3002 Fog 5 1013 100 800 1.54 190 18:25 02.02.2021
3003 Mist 6 1013 100 1400 0.51 0 17:49 02.02.2021
3004 Mist 7 1013 100 1800 1.54 240 17:22 02.02.2021
3005 Mist 7 1012 100 2000 1.54 210 16:56 02.02.2021
3006 Mist 8 1012 100 2000 1.54 210 16:37 02.02.2021
3007 Mist 8 1012 93 3500 2.06 150 15:58 02.02.2021
3008 Mist 8 1012 93 3500 2.06 150 15:40 02.02.2021
3009 Mist 9 1012 87 4000 1.54 160 15:20 02.02.2021
3010 Mist 8 1013 93 4000 1.03 0 14:39 02.02.2021
3011 Mist 8 1013 93 2000 0.51 0 14:18 02.02.2021
3012 Mist 8 1012 100 2000 2.06 170 13:44 02.02.2021
3013 Mist 7 1013 100 1500 1.03 0 13:25 02.02.2021
3014 Mist 6 1013 100 1000 1.03 0 12:55 02.02.2021
3015 Fog 6 1013 100 600 1.03 0 12:24 02.02.2021
3016 Fog 4 1013 100 10000 1.54 10 11:40 02.02.2021
3017 Fog 4 1013 100 150 1.54 260 11:19 02.02.2021
3018 Fog 4 1012 100 150 1.03 0 10:47 02.02.2021
3019 Fog 4 1012 100 150 1.03 0 10:47 02.02.2021
3020 Fog 3 1012 100 150 1.54 220 10:26 02.02.2021
3021 Fog 3 1012 100 100 2.06 240 09:46 02.02.2021
3022 Fog 3 1011 100 100 1.03 0 09:23 02.02.2021
3023 Fog 3 1010 100 100 1.03 0 08:43 02.02.2021
3024 Fog 3 1010 100 100 0.51 0 07:50 02.02.2021
3025 Fog 3 1010 100 50 1.03 0 07:25 02.02.2021
3026 Fog 3 1009 100 50 1.03 0 06:40 02.02.2021
3027 Fog 3 1009 100 50 1.54 220 05:51 02.02.2021
3028 Fog 2 1008 100 200 1.03 0 04:18 02.02.2021
3029 Fog 3 1007 100 800 0.51 0 02:25 02.02.2021
3030 Clouds 5 1006 100 9000 0.51 0 00:40 02.02.2021
3031 Clouds 5 1006 100 9000 1.54 260 23:57 01.02.2021
3032 Clouds 4 1005 100 10000 1.03 250 22:59 01.02.2021
3033 Clouds 4 1005 100 10000 1.03 250 22:39 01.02.2021
3034 Clear 5 1004 100 10000 0.51 0 22:19 01.02.2021
3035 Clear 5 1004 100 10000 0.35 63 21:45 01.02.2021
3036 Clouds 5 1004 100 10000 0.51 345 21:22 01.02.2021
3037 Clouds 5 1003 93 10000 0.51 0 20:42 01.02.2021
3038 Clouds 6 1003 87 10000 1.03 200 20:24 01.02.2021
3039 Clouds 6 1002 81 10000 1.54 190 19:42 01.02.2021
3040 Clouds 6 1002 81 10000 1.54 190 19:21 01.02.2021
3041 Clouds 7 1002 81 10000 1.54 200 18:51 01.02.2021
3042 Clear 7 1002 81 10000 2.06 200 18:29 01.02.2021
3043 Clouds 7 1001 81 10000 1.54 150 17:49 01.02.2021
3044 Clouds 8 1001 81 10000 1.03 170 17:27 01.02.2021
3045 Clouds 8 1001 76 10000 1.54 120 16:58 01.02.2021
3046 Rain 8 1000 71 10000 1.03 0 16:33 01.02.2021
3047 Clouds 8 1000 71 10000 1.54 150 15:50 01.02.2021
3048 Clouds 8 1000 71 10000 1.54 160 15:21 01.02.2021
3049 Clouds 8 1000 71 10000 2.06 140 14:54 01.02.2021
3050 Clouds 8 1000 71 10000 2.06 150 14:35 01.02.2021
3051 Clouds 8 1000 71 10000 2.57 140 13:55 01.02.2021
3052 Clouds 7 1000 70 10000 2.06 120 13:37 01.02.2021
3053 Clouds 8 1000 70 10000 2.06 120 13:19 01.02.2021
3054 Clouds 7 1000 70 10000 2.57 130 12:42 01.02.2021
3055 Clouds 7 1000 70 10000 2.57 80 12:22 01.02.2021
3056 Clouds 7 1000 70 10000 3.09 90 11:40 01.02.2021
3057 Clouds 7 1000 65 10000 2.06 70 11:19 01.02.2021
3058 Clouds 7 999 75 10000 2.06 70 10:45 01.02.2021
3059 Clouds 6 999 75 10000 1.03 0 10:20 01.02.2021
3060 Clouds 6 999 75 10000 2.06 80 09:44 01.02.2021
3061 Clouds 6 999 75 10000 2.06 70 09:21 01.02.2021
3062 Clouds 6 999 75 10000 2.57 80 08:44 01.02.2021
3063 Clouds 6 998 81 10000 2.57 50 07:50 01.02.2021
3064 Clouds 6 998 81 10000 3.09 60 06:20 01.02.2021
3065 Clouds 6 999 87 10000 3.09 80 03:21 01.02.2021
3066 Clouds 6 999 93 6000 2.06 50 00:58 01.02.2021
3067 Clouds 6 999 93 10000 2.57 90 23:42 31.01.2021
3068 Clouds 6 999 100 10000 2.57 70 22:43 31.01.2021
3069 Clear 6 999 100 10000 1.03 0 22:24 31.01.2021
3070 Clear 7 999 93 10000 2.06 80 21:50 31.01.2021
3071 Clouds 7 998 88 10000 2.98 100 21:23 31.01.2021
3072 Clouds 7 999 88 10000 2.98 100 21:23 31.01.2021
3073 Clear 7 998 100 10000 0.51 0 20:50 31.01.2021
3074 Clear 8 998 93 10000 0.51 0 20:21 31.01.2021
3075 Clear 8 998 87 10000 1.54 110 19:55 31.01.2021
3076 Clear 8 998 87 10000 1.54 110 19:37 31.01.2021
3077 Clear 8 998 87 10000 2.57 100 19:18 31.01.2021
3078 Clear 8 998 87 10000 0.51 0 18:40 31.01.2021
3079 Clear 9 998 81 10000 1.03 130 18:20 31.01.2021
3080 Clear 10 997 76 10000 1.54 150 17:46 31.01.2021
3081 Clear 10 997 76 10000 1.54 180 17:23 31.01.2021
3082 Clear 11 997 71 10000 2.06 190 16:47 31.01.2021
3083 Clear 11 997 71 10000 2.06 200 16:28 31.01.2021
3084 Clear 11 997 66 10000 1.54 210 15:51 31.01.2021
3085 Clear 11 997 66 10000 1.54 210 15:32 31.01.2021
3086 Clear 11 997 71 10000 2.57 240 14:42 31.01.2021
3087 Clear 11 997 76 10000 2.06 270 14:22 31.01.2021
3088 Clear 11 997 81 10000 2.06 230 13:52 31.01.2021
3089 Clear 11 997 81 10000 2.06 230 13:52 31.01.2021
3090 Clear 10 998 76 10000 2.06 220 13:34 31.01.2021
3091 Clear 10 998 81 10000 2.06 250 12:48 31.01.2021
3092 Clouds 9 998 87 10000 3.09 260 12:22 31.01.2021
3093 Clouds 8 998 87 8000 2.06 240 11:44 31.01.2021
3094 Clouds 8 997 81 8000 2.06 210 11:24 31.01.2021
3095 Clouds 7 997 81 8000 1.03 0 10:54 31.01.2021
3096 Clouds 7 997 81 8000 1.03 0 10:34 31.01.2021
3097 Clouds 6 997 87 8000 1.03 280 09:50 31.01.2021
3098 Clouds 5 996 93 8000 1.54 290 09:23 31.01.2021
3099 Clouds 4 996 100 8000 1.54 290 08:33 31.01.2021
3100 Clouds 4 995 93 8000 1.03 0 06:56 31.01.2021
3101 Rain 4 996 100 5000 1.54 310 05:31 31.01.2021
3102 Mist 5 997 93 5000 2.57 360 00:46 31.01.2021
3103 Rain 5 997 93 5000 2.57 10 00:21 31.01.2021
3104 Rain 5 997 93 8000 3.09 120 23:30 30.01.2021
3105 Rain 5 997 93 8000 3.09 100 22:56 30.01.2021
3106 Rain 5 997 93 8000 2.57 130 22:29 30.01.2021
3107 Rain 5 997 87 8000 1.54 110 21:40 30.01.2021
3108 Rain 5 997 87 8000 2.57 70 21:20 30.01.2021
3109 Rain 6 998 87 10000 1.54 60 20:46 30.01.2021
3110 Rain 6 998 81 10000 2.57 110 20:27 30.01.2021
3111 Rain 6 998 81 10000 3.6 100 19:44 30.01.2021
3112 Rain 7 998 70 10000 3.6 120 19:25 30.01.2021
3113 Rain 7 998 76 10000 2.57 90 18:42 30.01.2021
3114 Rain 7 998 76 10000 2.06 80 18:21 30.01.2021
3115 Rain 7 998 81 10000 2.57 60 17:58 30.01.2021
3116 Rain 8 998 81 10000 2.57 50 17:19 30.01.2021
3117 Clouds 8 999 71 10000 2.06 80 16:47 30.01.2021
3118 Rain 9 999 76 10000 2.57 100 16:25 30.01.2021
3119 Rain 9 999 71 10000 3.09 120 15:55 30.01.2021
3120 Rain 10 999 76 10000 2.06 120 15:37 30.01.2021
3121 Clouds 9 999 76 10000 2.06 120 15:19 30.01.2021
3122 Clouds 9 1000 76 10000 2.06 130 14:42 30.01.2021
3123 Rain 9 1000 71 10000 1.03 160 14:19 30.01.2021
3124 Rain 9 1001 66 10000 1.03 0 13:30 30.01.2021
3125 Clouds 9 1001 71 10000 0.51 0 12:49 30.01.2021
3126 Clouds 9 1002 57 10000 1.54 0 12:28 30.01.2021
3127 Clouds 9 1002 57 10000 1.03 0 11:56 30.01.2021
3128 Clear 9 1002 62 10000 0.51 0 11:26 30.01.2021
3129 Clear 8 1001 71 10000 3.09 10 10:48 30.01.2021
3130 Clear 6 1002 87 10000 2.06 20 09:48 30.01.2021
3131 Clear 5 1002 81 10000 1.03 0 09:26 30.01.2021
3132 Clear 4 1003 81 10000 1.03 0 08:47 30.01.2021
3133 Clear 4 1002 81 10000 2.06 290 07:48 30.01.2021
3134 Clear 4 1003 81 10000 3.09 300 06:48 30.01.2021
3135 Clear 5 1003 81 10000 1.54 310 04:29 30.01.2021
3136 Clear 4 1003 87 10000 2.57 260 03:34 30.01.2021
3137 Clear 5 1004 87 10000 1.03 0 02:23 30.01.2021
3138 Clouds 5 1004 87 9000 3.09 270 01:28 30.01.2021
3139 Clouds 5 1004 93 8000 2.06 260 00:35 30.01.2021
3140 Clouds 5 1004 87 10000 2.06 250 23:58 29.01.2021
3141 Clouds 5 1004 87 10000 2.06 250 23:40 29.01.2021
3142 Clear 5 1004 81 10000 2.06 280 23:18 29.01.2021
3143 Clear 5 1004 81 10000 2.06 300 22:38 29.01.2021
3144 Rain 6 1003 87 10000 2.57 260 21:59 29.01.2021
3145 Clear 6 1003 93 10000 1.03 0 21:28 29.01.2021
3146 Clear 6 1002 87 10000 2.06 330 20:45 29.01.2021
3147 Clear 5 1003 87 10000 2.06 250 20:24 29.01.2021
3148 Clear 6 1003 87 10000 1.03 0 19:43 29.01.2021
3149 Clear 6 1003 87 10000 1.03 290 19:22 29.01.2021
3150 Clear 6 1003 87 10000 1.03 0 18:57 29.01.2021
3151 Clouds 7 1003 76 8000 2.06 240 17:59 29.01.2021
3152 Clouds 7 1003 71 9000 2.57 260 17:37 29.01.2021
3153 Clouds 7 1003 71 9000 2.57 260 17:18 29.01.2021
3154 Clouds 8 1003 71 10000 2.06 240 16:39 29.01.2021
3155 Clouds 8 1003 71 10000 2.06 240 16:21 29.01.2021
3156 Clouds 8 1003 71 10000 2.06 240 16:21 29.01.2021
3157 Clouds 7 1004 75 8000 2.06 240 15:41 29.01.2021
3158 Clouds 7 1004 75 8000 2.06 240 15:22 29.01.2021
3159 Clouds 6 1005 75 7000 0.51 0 14:30 29.01.2021
3160 Clouds 6 1005 70 6000 1.03 0 13:58 29.01.2021
3161 Clouds 5 1006 70 6000 1.54 0 13:34 29.01.2021
3162 Clouds 5 1007 70 6000 1.03 0 12:48 29.01.2021
3163 Clouds 4 1007 75 6000 1.54 120 12:20 29.01.2021
3164 Clouds 4 1007 75 7000 2.06 60 11:46 29.01.2021
3165 Mist 3 1007 81 5000 2.06 70 11:18 29.01.2021
3166 Mist 3 1007 87 5000 2.06 70 10:47 29.01.2021
3167 Clouds 3 1007 87 6000 3.09 60 10:25 29.01.2021
3168 Rain 3 1007 87 6000 3.09 60 09:41 29.01.2021
3169 Clouds 3 1007 87 8000 2.06 80 08:52 29.01.2021
3170 Clouds 2 1007 87 10000 1.54 70 08:27 29.01.2021
3171 Clouds 2 1007 93 10000 2.06 50 07:51 29.01.2021
3172 Clouds 2 1007 93 10000 2.57 90 07:31 29.01.2021
3173 Clouds 2 1007 93 10000 2.57 60 06:49 29.01.2021
3174 Clouds 2 1008 100 10000 0.51 0 05:18 29.01.2021
3175 Clear 3 1008 100 10000 0.51 0 02:37 29.01.2021
3176 Clear 3 1010 86 10000 0.51 0 00:38 29.01.2021
3177 Clear 3 1010 93 10000 0.51 0 00:19 29.01.2021
3178 Clear 3 1010 93 10000 0.51 280 23:41 28.01.2021
3179 Clear 3 1010 93 10000 0.51 280 23:22 28.01.2021
3180 Clear 4 1010 87 10000 1.03 0 22:42 28.01.2021
3181 Clear 4 1010 87 10000 1.03 230 22:24 28.01.2021
3182 Clear 4 1010 81 10000 1.54 260 21:48 28.01.2021
3183 Clear 4 1011 75 10000 1.54 250 21:30 28.01.2021
3184 Clear 5 1011 75 10000 2.57 260 20:47 28.01.2021
3185 Clear 5 1011 75 10000 1.54 250 20:20 28.01.2021
3186 Clear 5 1011 75 10000 1.54 210 19:59 28.01.2021
3187 Clear 5 1011 75 10000 1.54 210 19:36 28.01.2021
3188 Clouds 5 1011 75 10000 1.54 180 19:18 28.01.2021
3189 Clouds 5 1011 70 10000 1.54 280 18:42 28.01.2021
3190 Clouds 6 1011 70 10000 2.06 260 18:19 28.01.2021
3191 Clouds 7 1011 65 10000 2.06 210 17:44 28.01.2021
3192 Clouds 7 1011 65 10000 2.06 220 17:24 28.01.2021
3193 Clouds 8 1011 61 10000 1.54 250 16:44 28.01.2021
3194 Clouds 8 1011 61 10000 1.54 250 16:22 28.01.2021
3195 Clouds 8 1012 65 10000 2.06 180 15:41 28.01.2021
3196 Clouds 7 1012 65 10000 1.03 0 14:58 28.01.2021
3197 Clouds 8 1012 65 10000 1.03 0 14:39 28.01.2021
3198 Clouds 8 1012 65 10000 1.03 0 14:20 28.01.2021
3199 Clouds 8 1012 65 10000 1.03 0 14:20 28.01.2021
3200 Clouds 7 1012 65 10000 1.03 0 14:20 28.01.2021
3201 Clouds 7 1012 65 10000 1.54 120 13:44 28.01.2021
3202 Clouds 6 1014 70 10000 1.03 0 12:53 28.01.2021
3203 Clouds 6 1013 75 10000 1.54 130 12:33 28.01.2021
3204 Clouds 5 1014 75 10000 1.54 150 11:59 28.01.2021
3205 Clouds 5 1014 81 10000 1.54 160 11:40 28.01.2021
3206 Clouds 5 1014 81 10000 1.54 160 11:19 28.01.2021
3207 Clouds 4 1014 81 10000 2.06 150 10:50 28.01.2021
3208 Clouds 4 1014 75 10000 0.51 170 10:27 28.01.2021
3209 Clouds 3 1014 80 10000 1.03 0 09:44 28.01.2021
3210 Clouds 2 1014 86 10000 1.03 0 09:22 28.01.2021
3211 Clouds 2 1014 86 10000 0.51 0 08:49 28.01.2021
3212 Clear 0 1014 80 10000 1.03 0 08:18 28.01.2021
3213 Clear 1 1013 75 10000 0.51 0 07:43 28.01.2021
3214 Clear 1 1014 75 10000 2.57 270 06:49 28.01.2021
3215 Clear 1 1015 93 10000 3.09 270 05:28 28.01.2021
3216 Clear 2 1015 87 10000 1.54 230 03:49 28.01.2021
3217 Clear 3 1016 75 10000 1.54 260 00:58 28.01.2021
3218 Clear 3 1016 75 10000 1.54 290 23:47 27.01.2021
3219 Clear 4 1016 70 10000 1.54 300 23:23 27.01.2021
3220 Clouds 4 1016 65 10000 1.54 280 22:41 27.01.2021
3221 Rain 4 1016 60 10000 1.03 0 22:21 27.01.2021
3222 Rain 4 1016 65 10000 1.03 250 21:42 27.01.2021
3223 Rain 4 1016 65 10000 1.03 250 21:22 27.01.2021
3224 Rain 4 1016 70 10000 1.03 280 20:47 27.01.2021
3225 Clouds 5 1016 60 10000 0.51 0 20:20 27.01.2021
3226 Clouds 4 1016 60 10000 0.51 0 19:43 27.01.2021
3227 Clouds 5 1016 60 10000 2.06 20 19:21 27.01.2021
3228 Clouds 5 1016 52 10000 1.54 30 18:45 27.01.2021
3229 Clouds 5 1016 52 10000 1.03 80 18:23 27.01.2021
3230 Rain 5 1016 60 10000 1.03 260 17:51 27.01.2021
3231 Rain 5 1016 52 10000 1.03 220 17:31 27.01.2021
3232 Rain 5 1016 49 10000 0.51 200 16:51 27.01.2021
3233 Rain 6 1016 49 10000 0.5 121 16:32 27.01.2021
3234 Rain 6 1016 49 10000 1.03 0 15:52 27.01.2021
3235 Clouds 6 1016 52 10000 1.54 170 15:33 27.01.2021
3236 Clouds 6 1016 49 10000 1.54 170 14:47 27.01.2021
3237 Rain 6 1016 45 10000 1.54 170 14:23 27.01.2021
3238 Rain 6 1016 52 10000 1.54 230 13:48 27.01.2021
3239 Clouds 6 1017 36 10000 1.03 0 13:27 27.01.2021
3240 Clouds 5 1017 39 10000 1.54 130 12:41 27.01.2021
3241 Clouds 5 1017 39 10000 1.03 0 12:22 27.01.2021
3242 Clouds 4 1018 52 10000 0.51 0 11:46 27.01.2021
3243 Clouds 4 1017 60 10000 0.51 0 11:22 27.01.2021
3244 Clouds 3 1017 69 10000 1.18 99 10:41 27.01.2021
3245 Clouds 1 1018 75 10000 0.51 0 10:21 27.01.2021
3246 Clear 1 1017 80 10000 0.51 0 09:49 27.01.2021
3247 Clear 0 1017 86 10000 0.51 0 08:59 27.01.2021
3248 Clear 0 1017 86 10000 0.51 270 08:32 27.01.2021
3249 Clear 0 1017 80 10000 0.51 0 07:43 27.01.2021
3250 Clear 0 1017 80 10000 0.51 0 07:19 27.01.2021
3251 Clear -1 1017 69 10000 0.51 0 06:19 27.01.2021
3252 Clear 0 1017 64 10000 0.51 0 05:44 27.01.2021
3253 Clear 0 1018 74 10000 1.03 0 03:35 27.01.2021
3254 Clear 2 1018 59 10000 2.57 260 02:23 27.01.2021
3255 Clear 2 1018 55 10000 1.03 0 01:51 27.01.2021
3256 Clear 3 1018 51 10000 2.57 280 00:43 27.01.2021
3257 Clear 3 1019 38 10000 1.03 0 23:49 26.01.2021
3258 Clear 3 1018 30 10000 2.57 300 23:30 26.01.2021
3259 Clear 4 1018 33 10000 2.57 290 22:51 26.01.2021
3260 Clear 4 1018 26 10000 3.09 310 22:24 26.01.2021
3261 Clear 4 1018 28 10000 4.12 340 21:54 26.01.2021
3262 Clear 4 1018 28 10000 4.12 340 21:34 26.01.2021
3263 Clear 5 1018 30 10000 0.51 0 20:58 26.01.2021
3264 Clear 5 1018 30 10000 0.51 0 20:40 26.01.2021
3265 Clear 5 1018 33 10000 0.51 0 20:21 26.01.2021
3266 Clear 6 1018 26 10000 2.57 340 19:45 26.01.2021
3267 Clear 6 1018 30 10000 3.6 10 19:22 26.01.2021
3268 Clear 7 1017 24 10000 4.63 350 18:48 26.01.2021
3269 Clear 7 1017 21 10000 5.66 330 18:27 26.01.2021
3270 Clear 8 1017 21 10000 3.6 330 17:55 26.01.2021
3271 Clear 8 1017 21 10000 3.6 330 17:37 26.01.2021
3272 Clear 9 1017 18 10000 4.63 340 16:56 26.01.2021
3273 Clear 9 1017 18 10000 5.66 330 16:37 26.01.2021
3274 Clear 10 1017 18 10000 5.66 330 16:19 26.01.2021
3275 Clear 10 1017 18 10000 5.66 330 15:44 26.01.2021
3276 Clear 10 1017 17 10000 6.17 330 15:24 26.01.2021
3277 Clear 10 1017 18 10000 6.17 340 14:45 26.01.2021
3278 Clear 10 1017 17 10000 6.69 340 14:25 26.01.2021
3279 Clear 9 1017 20 10000 6.17 330 13:34 26.01.2021
3280 Clear 9 1017 20 10000 6.17 330 13:34 26.01.2021
3281 Clear 10 1017 22 10000 7.2 340 12:58 26.01.2021
3282 Clear 10 1017 22 10000 7.2 340 12:38 26.01.2021
3283 Clear 9 1017 22 10000 7.2 360 12:19 26.01.2021
3284 Clear 8 1017 25 10000 5.66 360 11:50 26.01.2021
3285 Clear 7 1016 25 10000 5.66 340 11:19 26.01.2021
3286 Clear 7 1016 27 10000 5.14 350 10:39 26.01.2021
3287 Clear 5 1016 29 10000 4.63 340 10:20 26.01.2021
3288 Clear 4 1015 33 10000 4.12 320 09:40 26.01.2021
3289 Clear 4 1016 33 10000 4.12 330 09:40 26.01.2021
3290 Clear 4 1015 33 10000 4.12 320 09:21 26.01.2021
3291 Clear 4 1015 33 10000 3.09 330 08:44 26.01.2021
3292 Clear 4 1014 33 10000 2.57 320 07:56 26.01.2021
3293 Clear 4 1014 36 10000 3.09 320 07:19 26.01.2021
3294 Clear 3 1013 38 10000 3.09 310 05:51 26.01.2021
3295 Clear 3 1012 41 10000 3.09 310 05:32 26.01.2021
3296 Clear 3 1011 55 10000 1.54 250 03:32 26.01.2021
3297 Clear 4 1009 38 10000 2.57 310 00:59 26.01.2021
3298 Clear 4 1009 38 10000 3.6 310 00:24 26.01.2021
3299 Clear 4 1008 45 10000 2.57 290 23:31 25.01.2021
3300 Clear 4 1008 42 10000 2.57 300 22:47 25.01.2021
3301 Clear 5 1008 42 10000 2.06 310 22:29 25.01.2021
3302 Clear 4 1007 42 10000 2.57 330 21:45 25.01.2021
3303 Clear 5 1006 39 10000 3.6 320 21:18 25.01.2021
3304 Clear 5 1006 49 10000 3.6 320 20:41 25.01.2021
3305 Clear 5 1006 52 10000 3.09 330 20:23 25.01.2021
3306 Clear 5 1005 65 10000 2.06 290 19:47 25.01.2021
3307 Clear 5 1005 65 10000 2.06 290 19:47 25.01.2021
3308 Clear 4 1005 65 10000 2.06 290 19:47 25.01.2021
3309 Clear 5 1004 65 10000 3.09 270 19:23 25.01.2021
3310 Clear 5 1004 61 10000 2.06 250 18:45 25.01.2021
3311 Clear 5 1003 56 10000 1.54 250 18:24 25.01.2021
3312 Clear 6 1003 61 10000 2.06 260 17:49 25.01.2021
3313 Clear 7 1003 53 10000 3.09 260 17:25 25.01.2021
3314 Clear 7 1002 53 10000 2.57 240 16:49 25.01.2021
3315 Clear 8 1002 49 10000 1.54 250 16:26 25.01.2021
3316 Clouds 8 1002 56 10000 3.25 254 15:55 25.01.2021
3317 Clear 8 1002 53 10000 1.03 0 15:36 25.01.2021
3318 Clouds 8 1002 57 10000 1.54 0 14:59 25.01.2021
3319 Clouds 8 1002 57 10000 1.54 0 14:38 25.01.2021
3320 Clouds 7 1002 56 10000 3.09 250 14:18 25.01.2021
3321 Clouds 7 1002 56 10000 2.57 210 13:43 25.01.2021
3322 Clouds 6 1002 52 10000 3.09 220 13:20 25.01.2021
3323 Clouds 6 1002 49 10000 4.63 190 12:41 25.01.2021
3324 Clouds 6 1001 42 10000 4.63 190 12:18 25.01.2021
3325 Clouds 5 1001 65 10000 2.06 40 11:28 25.01.2021
3326 Clouds 4 1001 65 10000 2.06 40 10:49 25.01.2021
3327 Clouds 3 1001 70 10000 1.03 0 10:22 25.01.2021
3328 Clouds 3 1001 70 10000 1.03 0 10:22 25.01.2021
3329 Clouds 3 1001 75 10000 1.03 0 09:52 25.01.2021
3330 Clouds 3 1000 75 10000 1.03 0 09:28 25.01.2021
3331 Clouds 2 1000 75 10000 2.57 130 08:38 25.01.2021
3332 Snow 1 999 69 10000 1.03 180 07:57 25.01.2021
3333 Snow 1 999 80 10000 1.03 0 07:28 25.01.2021
3334 Clear 1 999 93 10000 0.51 0 06:28 25.01.2021
3335 Clear 2 999 64 10000 2.06 0 02:32 25.01.2021
3336 Clear 3 1000 93 10000 1.03 0 00:40 25.01.2021
3337 Clear 3 1001 87 10000 1.54 10 23:21 24.01.2021
3338 Clear 4 1001 75 10000 2.06 260 22:59 24.01.2021
3339 Clear 4 1001 75 10000 2.06 260 22:40 24.01.2021
3340 Clear 4 1001 75 10000 2.06 260 22:40 24.01.2021
3341 Clear 4 1001 75 10000 2.06 270 22:18 24.01.2021
3342 Clear 4 1001 75 10000 2.06 270 21:30 24.01.2021
3343 Clear 5 1001 81 10000 1.54 270 20:47 24.01.2021
3344 Clear 5 1001 87 10000 2.57 260 20:23 24.01.2021
3345 Clear 5 1001 87 10000 2.57 270 19:57 24.01.2021
3346 Clear 6 1001 81 10000 2.57 270 19:39 24.01.2021
3347 Clear 6 1001 81 10000 2.57 270 19:19 24.01.2021
3348 Clear 6 1001 76 10000 2.57 240 18:54 24.01.2021
3349 Clear 6 1001 76 10000 2.57 240 18:36 24.01.2021
3350 Clear 7 1000 76 10000 2.57 230 18:18 24.01.2021
3351 Clear 7 1000 66 10000 3.09 250 17:42 24.01.2021
3352 Clear 9 999 61 10000 2.57 260 17:18 24.01.2021
3353 Clear 10 999 15 10000 4.12 320 16:41 24.01.2021
3354 Clear 10 999 20 10000 5.14 340 16:21 24.01.2021
3355 Clear 10 999 20 10000 4.12 330 15:46 24.01.2021
3356 Clear 10 999 53 10000 2.57 260 15:21 24.01.2021
3357 Clear 9 999 66 10000 3.09 260 14:56 24.01.2021
3358 Clear 9 999 76 10000 2.57 240 14:26 24.01.2021
3359 Clear 8 999 81 10000 2.57 220 13:36 24.01.2021
3360 Clear 7 999 100 10000 3.09 220 12:52 24.01.2021
3361 Clouds 8 1002 47 10000 1.79 229 12:24 24.01.2021
3362 Mist 6 999 100 1500 1.54 220 11:59 24.01.2021
3363 Clouds 6 999 89 10000 1.05 285 11:41 24.01.2021
3364 Fog 4 999 100 200 1.54 250 11:20 24.01.2021
3365 Fog 3 998 100 50 0.51 0 10:35 24.01.2021
3366 Fog 2 997 100 50 2.57 190 09:47 24.01.2021
3367 Fog 2 997 100 100 2.06 180 09:20 24.01.2021
3368 Fog 1 996 100 900 1.54 240 08:47 24.01.2021
3369 Clouds 3 996 100 7000 1.03 40 04:23 24.01.2021
3370 Clouds 3 996 96 10000 1.26 37 02:20 24.01.2021
3371 Fog 3 996 100 5000 1.54 150 00:57 24.01.2021
3372 Fog 4 996 100 3500 0.51 0 00:21 24.01.2021
3373 Fog 4 996 100 8000 0.51 0 23:41 23.01.2021
3374 Clear 4 996 100 10000 1.03 250 23:20 23.01.2021
3375 Clear 4 995 100 10000 1.03 280 22:41 23.01.2021
3376 Clear 4 995 100 10000 1.03 280 22:41 23.01.2021
3377 Clear 5 995 93 10000 1.03 0 22:20 23.01.2021
3378 Clear 6 995 93 10000 3.6 20 21:24 23.01.2021
3379 Clear 6 995 93 10000 3.09 60 20:58 23.01.2021
3380 Clear 6 995 93 10000 3.09 60 20:38 23.01.2021
3381 Clear 6 995 93 10000 3.09 60 20:38 23.01.2021
3382 Clear 6 996 93 10000 3.09 50 20:20 23.01.2021
3383 Clear 7 995 93 10000 2.57 50 19:43 23.01.2021
3384 Clear 7 995 87 10000 2.57 90 19:20 23.01.2021
3385 Rain 7 995 87 10000 2.06 80 18:43 23.01.2021
3386 Clouds 7 995 87 10000 2.06 80 18:23 23.01.2021
3387 Clouds 8 995 71 10000 2.06 90 17:43 23.01.2021
3388 Clouds 9 995 71 10000 2.06 90 17:24 23.01.2021
3389 Clouds 9 995 62 10000 1.03 60 16:45 23.01.2021
3390 Clear 10 995 71 10000 0.51 0 15:57 23.01.2021
3391 Clear 10 996 71 10000 2.06 240 15:30 23.01.2021
3392 Clear 10 996 71 10000 2.06 250 14:46 23.01.2021
3393 Clouds 9 996 81 10000 3.09 250 14:25 23.01.2021
3394 Clouds 9 996 81 10000 3.09 250 13:49 23.01.2021
3395 Clouds 8 996 87 10000 3.6 240 13:24 23.01.2021
3396 Clouds 8 996 87 10000 3.6 240 12:45 23.01.2021
3397 Clouds 8 995 87 10000 4.12 240 12:25 23.01.2021
3398 Rain 8 995 87 10000 4.12 240 11:42 23.01.2021
3399 Clouds 7 995 87 10000 3.09 250 10:59 23.01.2021
3400 Rain 7 994 81 10000 3.09 250 10:26 23.01.2021
3401 Rain 7 994 81 10000 2.57 310 09:53 23.01.2021
3402 Rain 7 994 81 10000 4.63 360 09:28 23.01.2021
3403 Rain 6 993 81 10000 4.63 10 08:43 23.01.2021
3404 Rain 6 992 81 10000 5.14 340 07:49 23.01.2021
3405 Rain 6 992 87 10000 6.17 340 06:55 23.01.2021
3406 Rain 5 992 100 5000 1.03 0 03:24 23.01.2021
3407 Clouds 4 993 100 10000 1.54 200 00:33 23.01.2021
3408 Clouds 5 993 100 10000 1.54 190 23:36 22.01.2021
3409 Rain 5 992 100 8000 1.54 310 22:45 22.01.2021
3410 Rain 4 993 100 6000 1.54 340 22:21 22.01.2021
3411 Rain 4 994 100 5000 2.57 20 21:42 22.01.2021
3412 Rain 4 994 100 5000 1.03 0 21:23 22.01.2021
3413 Rain 4 994 100 6000 1.54 350 20:46 22.01.2021
3414 Rain 4 995 100 5000 1.54 330 20:26 22.01.2021
3415 Rain 4 996 100 6000 1.54 330 19:47 22.01.2021
3416 Rain 4 996 100 5000 2.57 20 19:19 22.01.2021
3417 Rain 4 996 100 3500 2.57 100 18:45 22.01.2021
3418 Rain 4 997 100 3000 3.09 110 18:26 22.01.2021
3419 Rain 4 997 100 2500 2.06 160 17:48 22.01.2021
3420 Mist 4 998 100 2500 2.57 120 17:29 22.01.2021
3421 Rain 4 999 100 2500 2.57 110 16:54 22.01.2021
3422 Rain 5 999 100 2500 2.06 110 16:30 22.01.2021
3423 Mist 5 1000 100 2500 2.57 100 15:45 22.01.2021
3424 Mist 5 1001 100 1700 1.03 0 15:23 22.01.2021
3425 Mist 4 1002 100 1500 1.54 260 14:32 22.01.2021
3426 Mist 4 1003 100 1500 2.06 230 13:54 22.01.2021
3427 Rain 4 1003 100 1300 1.54 210 13:35 22.01.2021
3428 Rain 4 1004 100 1100 2.06 210 12:56 22.01.2021
3429 Mist 4 1004 100 1100 1.03 180 12:27 22.01.2021
3430 Rain 4 1005 100 1100 0.51 0 11:49 22.01.2021
3431 Drizzle 4 1005 100 1100 1.03 0 11:30 22.01.2021
3432 Mist 4 1005 100 1100 0.51 0 10:46 22.01.2021
3433 Rain 4 1006 100 1100 0.51 0 10:22 22.01.2021
3434 Drizzle 3 1006 100 1100 0.51 0 09:42 22.01.2021
3435 Mist 3 1006 100 1100 1.03 0 08:57 22.01.2021
3436 Mist 3 1006 100 1300 1.03 0 08:31 22.01.2021
3437 Mist 3 1006 100 1700 2.57 260 07:41 22.01.2021
3438 Mist 3 1007 100 1700 1.03 0 04:39 22.01.2021
3439 Rain 3 1010 100 1700 1.03 130 00:54 22.01.2021
3440 Rain 3 1010 100 1700 0.51 0 00:25 22.01.2021
3441 Mist 3 1011 100 1700 0.51 0 23:42 21.01.2021
3442 Rain 3 1011 100 1800 0.51 0 22:59 21.01.2021
3443 Mist 3 1011 100 1800 0.51 0 22:41 21.01.2021
3444 Mist 3 1012 100 1800 0.51 0 21:44 21.01.2021
3445 Mist 3 1013 100 1800 1.03 0 21:23 21.01.2021
3446 Mist 3 1013 100 1800 0.51 0 20:57 21.01.2021
3447 Mist 3 1013 100 1800 0.51 0 20:39 21.01.2021
3448 Mist 3 1013 100 1700 0.51 0 20:18 21.01.2021
3449 Mist 3 1014 100 1700 1.03 200 19:46 21.01.2021
3450 Mist 3 1013 100 1700 1.54 130 19:24 21.01.2021
3451 Mist 3 1014 100 1700 0.51 0 18:42 21.01.2021
3452 Mist 3 1014 100 1100 1.03 130 18:21 21.01.2021
3453 Mist 3 1014 100 1100 1.03 0 17:57 21.01.2021
3454 Mist 3 1014 100 1100 1.03 0 17:21 21.01.2021
3455 Mist 3 1014 100 1100 1.54 150 16:55 21.01.2021
3456 Mist 3 1014 100 1100 1.54 150 16:37 21.01.2021
3457 Mist 3 1014 100 1100 0.51 0 16:18 21.01.2021
3458 Mist 4 1014 100 1400 1.03 0 15:45 21.01.2021
3459 Mist 3 1014 100 1400 1.03 190 15:22 21.01.2021
3460 Mist 4 1015 93 1600 0.51 0 14:39 21.01.2021
3461 Mist 4 1015 93 1600 1.54 250 14:21 21.01.2021
3462 Mist 4 1015 93 1600 0.51 0 13:42 21.01.2021
3463 Mist 3 1015 93 1600 1.07 181 13:22 21.01.2021
3464 Mist 3 1016 100 1500 1.03 160 12:42 21.01.2021
3465 Drizzle 3 1016 100 1500 0.51 0 12:23 21.01.2021
3466 Drizzle 3 1017 100 1500 0.51 0 11:49 21.01.2021
3467 Drizzle 3 1017 100 1500 1.03 0 11:27 21.01.2021
3468 Drizzle 3 1016 100 1300 1.03 0 10:51 21.01.2021
3469 Drizzle 3 1016 100 1300 1.03 0 10:31 21.01.2021
3470 Drizzle 3 1016 100 1300 1.54 240 09:44 21.01.2021
3471 Drizzle 3 1017 100 1100 1.54 240 09:25 21.01.2021
3472 Mist 3 1016 100 1100 1.03 0 08:45 21.01.2021
3473 Fog 2 1016 100 1600 2.06 240 08:24 21.01.2021
3474 Fog 2 1016 100 1600 1.03 200 07:28 21.01.2021
3475 Fog 2 1016 100 1800 1.54 200 06:54 21.01.2021
3476 Rain 2 1016 100 1800 1.54 200 05:22 21.01.2021
3477 Fog 2 1017 100 1800 1.03 0 02:40 21.01.2021
3478 Mist 2 1019 100 2500 1.03 0 00:54 21.01.2021
3479 Rain 2 1019 100 2500 1.03 40 23:54 20.01.2021
3480 Mist 2 1019 100 1700 0.51 0 23:32 20.01.2021
3481 Mist 2 1019 100 1600 1.03 0 22:58 20.01.2021
3482 Rain 2 1019 100 1600 1.03 50 22:37 20.01.2021
3483 Drizzle 2 1019 100 1600 1.54 40 21:59 20.01.2021
3484 Drizzle 2 1019 100 1600 1.54 40 21:41 20.01.2021
3485 Drizzle 2 1019 100 1600 1.54 40 21:41 20.01.2021
3486 Drizzle 2 1020 100 1600 0.51 0 21:20 20.01.2021
3487 Mist 2 1020 100 1600 1.54 90 20:41 20.01.2021
3488 Mist 2 1020 100 1200 2.06 60 20:18 20.01.2021
3489 Rain 2 1020 100 1200 1.03 0 19:42 20.01.2021
3490 Rain 2 1020 100 1200 2.06 70 19:23 20.01.2021
3491 Mist 2 1020 100 1200 2.06 80 18:42 20.01.2021
3492 Rain 2 1020 100 1200 1.54 70 17:58 20.01.2021
3493 Rain 2 1020 100 1200 2.06 90 17:39 20.01.2021
3494 Rain 2 1020 100 1300 1.54 110 16:59 20.01.2021
3495 Rain 2 1020 100 1300 2.06 80 16:41 20.01.2021
3496 Rain 3 1021 100 1400 2.06 80 15:52 20.01.2021
3497 Rain 3 1021 100 1500 1.54 90 15:34 20.01.2021
3498 Rain 2 1021 100 1400 2.06 80 14:51 20.01.2021
3499 Rain 2 1021 100 1600 1.54 70 14:24 20.01.2021
3500 Rain 2 1022 100 1800 1.54 60 13:48 20.01.2021
3501 Rain 3 1022 93 1800 2.06 120 13:26 20.01.2021
3502 Rain 2 1023 93 1200 1.03 0 12:42 20.01.2021
3503 Fog 2 1023 93 1300 2.06 80 11:58 20.01.2021
3504 Rain 2 1023 93 1500 2.57 80 11:38 20.01.2021
3505 Rain 2 1023 93 1500 2.06 110 10:56 20.01.2021
3506 Rain 2 1022 93 1500 1.54 80 10:32 20.01.2021
3507 Mist 2 1022 93 1500 1.54 80 09:54 20.01.2021
3508 Rain 2 1022 93 1600 1.54 110 09:27 20.01.2021
3509 Rain 2 1022 100 2500 2.06 80 08:57 20.01.2021
3510 Rain 2 1022 100 2500 2.57 90 08:31 20.01.2021
3511 Mist 2 1022 100 2500 2.57 80 07:57 20.01.2021
3512 Mist 2 1022 100 2500 2.57 80 07:35 20.01.2021
3513 Mist 2 1021 93 1300 2.06 90 06:39 20.01.2021
3514 Mist 2 1022 100 1000 1.03 180 03:28 20.01.2021
3515 Fog 3 1022 100 900 1.03 170 01:19 20.01.2021
3516 Mist 2 1022 100 1000 0.51 0 00:46 20.01.2021
3517 Rain 2 1023 93 1300 1.03 0 23:49 19.01.2021
3518 Rain 2 1023 93 3500 1.03 170 23:26 19.01.2021
3519 Rain 2 1023 93 3500 1.03 170 23:26 19.01.2021
3520 Rain 2 1023 93 3500 1.54 170 22:57 19.01.2021
3521 Rain 3 1023 93 3500 1.54 170 22:36 19.01.2021
3522 Mist 3 1023 100 3500 1.03 0 22:18 19.01.2021
3523 Rain 2 1023 100 3500 1.03 0 21:42 19.01.2021
3524 Rain 2 1023 100 3500 0.51 0 21:23 19.01.2021
3525 Rain 3 1023 100 5000 1.03 0 20:43 19.01.2021
3526 Rain 2 1023 93 5000 1.03 280 20:23 19.01.2021
3527 Mist 2 1023 93 5000 1.03 0 19:53 19.01.2021
3528 Mist 2 1023 93 5000 1.54 210 19:27 19.01.2021
3529 Mist 3 1023 93 5000 1.03 0 18:47 19.01.2021
3530 Mist 3 1023 93 5000 1.54 190 18:26 19.01.2021
3531 Mist 3 1023 93 3500 0.51 40 17:46 19.01.2021
3532 Mist 3 1023 93 3500 0.51 0 17:26 19.01.2021
3533 Mist 4 1023 93 3000 1.03 0 16:49 19.01.2021
3534 Mist 4 1023 93 2000 1.03 0 16:26 19.01.2021
3535 Clouds 4 1023 93 10000 1.61 203 15:57 19.01.2021
3536 Clouds 4 1023 93 10000 1.61 203 15:57 19.01.2021
3537 Mist 3 1023 100 1700 1.54 230 15:37 19.01.2021
3538 Mist 3 1023 100 1700 1.54 220 14:57 19.01.2021
3539 Mist 3 1023 100 1700 1.54 220 14:38 19.01.2021
3540 Mist 3 1024 100 1700 1.03 0 14:18 19.01.2021
3541 Mist 4 1024 100 1700 1.54 190 13:40 19.01.2021
3542 Mist 3 1025 100 1700 1.03 0 13:20 19.01.2021
3543 Mist 2 1025 100 1500 1.03 0 12:42 19.01.2021
3544 Mist 2 1025 100 1500 1.03 0 12:21 19.01.2021
3545 Mist 1 1025 100 1200 1.03 0 11:43 19.01.2021
3546 Mist 1 1025 100 1200 0.51 0 11:23 19.01.2021
3547 Fog 0 1025 100 700 0.51 0 10:50 19.01.2021
3548 Fog 0 1025 100 300 1.54 260 10:31 19.01.2021
3549 Fog 0 1025 100 200 1.54 240 09:52 19.01.2021
3550 Fog -1 1025 100 200 1.54 250 09:24 19.01.2021
3551 Fog -1 1025 100 200 2.06 220 08:51 19.01.2021
3552 Fog -3 1025 100 100 0.51 0 08:18 19.01.2021
3553 Fog -2 1025 100 50 0.51 0 07:28 19.01.2021
3554 Fog -3 1025 100 50 0.51 0 05:42 19.01.2021
3555 Fog -2 1025 93 50 0.51 0 02:27 19.01.2021
3556 Fog -2 1025 100 100 0.51 0 00:47 19.01.2021
3557 Fog -1 1025 100 100 0.51 0 23:57 18.01.2021
3558 Fog -1 1025 100 100 1.54 280 23:29 18.01.2021
3559 Fog -1 1025 100 100 0.51 0 22:50 18.01.2021
3560 Fog -1 1025 100 100 0.51 0 22:24 18.01.2021
3561 Fog -1 1025 100 100 0.51 0 21:49 18.01.2021
3562 Fog -1 1025 100 100 1.03 0 21:24 18.01.2021
3563 Fog 0 1024 100 100 1.03 0 20:58 18.01.2021
3564 Fog 0 1024 100 100 0.51 0 20:37 18.01.2021
3565 Fog 0 1024 100 100 0.51 0 20:19 18.01.2021
3566 Fog 0 1024 100 100 0.51 0 19:42 18.01.2021
3567 Fog 0 1024 100 100 0.51 0 19:24 18.01.2021
3568 Fog -1 1024 100 100 0.51 0 18:43 18.01.2021
3569 Fog 0 1024 100 100 0.51 0 18:21 18.01.2021
3570 Fog 0 1024 100 100 0.51 0 17:40 18.01.2021
3571 Fog 2 1023 100 200 1.54 220 16:56 18.01.2021
3572 Fog 3 1023 100 200 1.54 200 16:36 18.01.2021
3573 Fog 3 1023 100 100 2.06 190 15:59 18.01.2021
3574 Fog 3 1023 100 100 2.06 190 15:41 18.01.2021
3575 Fog 3 1023 100 200 1.54 210 15:19 18.01.2021
3576 Fog 4 1023 93 200 1.54 230 14:43 18.01.2021
3577 Fog 4 1024 93 600 2.06 230 14:24 18.01.2021
3578 Fog 4 1024 100 800 0.51 0 13:45 18.01.2021
3579 Fog 3 1024 100 250 1.03 0 13:26 18.01.2021
3580 Fog 3 1025 100 250 2.06 190 12:51 18.01.2021
3581 Fog 3 1025 93 500 2.06 180 12:20 18.01.2021
3582 Mist 2 1025 93 1200 1.54 190 11:53 18.01.2021
3583 Mist 2 1025 100 1200 2.06 210 11:29 18.01.2021
3584 Fog 1 1024 100 500 2.57 150 10:53 18.01.2021
3585 Fog 1 1024 100 500 2.57 150 10:35 18.01.2021
3586 Clear 1 1023 90 10000 0.31 244 09:43 18.01.2021
3587 Mist -1 1023 100 2500 1.03 0 09:19 18.01.2021
3588 Fog -1 1023 100 3000 1.03 0 08:47 18.01.2021
3589 Mist -1 1022 100 5000 0.51 0 07:55 18.01.2021
3590 Fog -1 1022 93 5000 1.03 0 06:56 18.01.2021
3591 Fog -1 1022 100 5000 1.03 300 04:57 18.01.2021
3592 Clear -1 1022 100 6000 0.51 0 04:30 18.01.2021
3593 Clear -1 1022 100 6000 0.51 0 03:53 18.01.2021
3594 Clear -1 1021 100 6000 0.51 0 03:31 18.01.2021
3595 Clear -1 1021 100 6000 0.51 0 02:59 18.01.2021
3596 Clear -1 1021 93 6000 1.54 360 02:20 18.01.2021
3597 Clouds 0 1021 100 6000 1.03 350 00:42 18.01.2021
3598 Clouds 0 1021 100 6000 1.03 0 00:20 18.01.2021
3599 Clouds 0 1020 93 6000 0.51 0 23:44 17.01.2021
3600 Clouds 1 1020 88 10000 0.74 106 23:19 17.01.2021
3601 Clouds 1 1020 93 6000 1.03 0 22:25 17.01.2021
3602 Clouds 1 1019 93 6000 0.51 0 21:57 17.01.2021
3603 Clouds 1 1019 93 6000 0.51 0 21:37 17.01.2021
3604 Clouds 1 1019 93 6000 0.51 0 21:19 17.01.2021
3605 Clouds 1 1018 93 6000 1.03 0 20:41 17.01.2021
3606 Clouds 1 1018 86 7000 1.03 80 20:19 17.01.2021
3607 Mist 1 1017 93 5000 2.06 90 19:41 17.01.2021
3608 Mist 2 1016 87 5000 1.54 80 18:59 17.01.2021
3609 Mist 2 1016 87 4000 2.06 110 18:31 17.01.2021
3610 Mist 3 1015 87 3500 2.57 110 17:56 17.01.2021
3611 Mist 3 1015 87 3500 2.57 110 17:37 17.01.2021
3612 Clear 3 1015 81 10000 3.09 100 17:19 17.01.2021
3613 Clear 4 1015 75 10000 2.57 110 16:42 17.01.2021
3614 Clear 4 1014 65 10000 1.54 110 16:19 17.01.2021
3615 Clear 5 1014 65 10000 1.03 0 15:38 17.01.2021
3616 Clear 5 1014 65 10000 1.54 170 15:20 17.01.2021
3617 Clouds 5 1014 75 10000 2.06 160 14:46 17.01.2021
3618 Clouds 5 1014 70 10000 2.06 130 14:25 17.01.2021
3619 Clear 4 1014 75 10000 1.26 106 13:44 17.01.2021
3620 Clouds 4 1015 81 8000 1.54 70 13:26 17.01.2021
3621 Clouds 3 1015 81 8000 2.06 120 12:47 17.01.2021
3622 Clouds 3 1015 81 8000 2.57 110 12:28 17.01.2021
3623 Clouds 3 1015 80 8000 1.54 170 11:41 17.01.2021
3624 Clouds 2 1015 87 10000 2.06 150 11:21 17.01.2021
3625 Clouds 1 1015 93 10000 0.51 0 10:42 17.01.2021
3626 Clouds 2 1015 93 10000 0.51 0 10:19 17.01.2021
3627 Clouds 1 1015 93 10000 1.03 0 09:19 17.01.2021
3628 Clouds 1 1015 86 10000 1.03 0 08:42 17.01.2021
3629 Clouds 1 1015 100 10000 0.51 340 05:20 17.01.2021
3630 Clouds 1 1015 93 10000 0.51 0 04:27 17.01.2021
3631 Clear 1 1017 100 10000 1.03 170 02:30 17.01.2021
3632 Clear 1 1018 100 10000 0.51 10 00:37 17.01.2021
3633 Clear 1 1018 93 10000 1.03 20 00:18 17.01.2021
3634 Clear 1 1019 93 10000 0.51 0 23:46 16.01.2021
3635 Clear 1 1019 100 10000 0.38 91 23:18 16.01.2021
3636 Clouds 2 1019 83 10000 0.49 151 22:27 16.01.2021
3637 Clear 2 1020 86 10000 1.54 30 21:58 16.01.2021
3638 Clear 2 1020 93 10000 0.51 0 21:24 16.01.2021
3639 Clear 2 1020 93 10000 0.51 280 20:53 16.01.2021
3640 Clear 2 1020 86 10000 0.51 250 20:29 16.01.2021
3641 Clear 2 1020 86 10000 0.51 210 19:50 16.01.2021
3642 Clear 3 1020 86 10000 1.03 190 19:31 16.01.2021
3643 Clear 3 1020 80 10000 1.03 140 18:47 16.01.2021
3644 Clear 4 1020 70 10000 1.03 170 18:28 16.01.2021
3645 Clear 4 1020 70 10000 1.54 200 17:59 16.01.2021
3646 Clear 4 1020 70 10000 1.54 200 17:39 16.01.2021
3647 Clear 4 1020 65 10000 2.57 210 17:21 16.01.2021
3648 Clear 5 1020 60 10000 2.57 200 16:42 16.01.2021
3649 Clear 6 1020 56 10000 2.06 210 16:19 16.01.2021
3650 Clear 6 1020 56 10000 2.57 190 15:42 16.01.2021
3651 Clear 6 1020 52 10000 1.54 200 14:35 16.01.2021
3652 Clear 6 1021 56 10000 2.06 180 13:54 16.01.2021
3653 Clear 6 1022 52 10000 1.03 0 13:32 16.01.2021
3654 Clear 5 1022 52 10000 1.03 0 12:49 16.01.2021
3655 Clear 5 1022 60 10000 1.03 0 12:31 16.01.2021
3656 Clear 5 1023 65 10000 1.03 0 11:59 16.01.2021
3657 Clear 4 1023 65 10000 0.51 0 11:39 16.01.2021
3658 Clear 4 1023 65 10000 0.51 0 11:18 16.01.2021
3659 Clear 3 1023 75 10000 0.51 170 10:41 16.01.2021
3660 Clear 1 1022 93 10000 0.51 180 09:57 16.01.2021
3661 Clouds 0 1022 100 10000 0.51 360 09:21 16.01.2021
3662 Clouds 0 1022 100 10000 1.03 40 08:19 16.01.2021
3663 Clouds 0 1022 93 10000 0.51 0 06:52 16.01.2021
3664 Clear 1 1021 86 10000 1.03 360 05:32 16.01.2021
3665 Clear 1 1021 93 10000 1.03 330 03:38 16.01.2021
3666 Clear 1 1021 93 10000 2.06 360 02:42 16.01.2021
3667 Clouds 2 1020 93 10000 1.03 360 00:46 16.01.2021
3668 Clouds 1 1020 93 10000 1.03 360 00:23 16.01.2021
3669 Clouds 2 1020 93 10000 0.51 0 23:37 15.01.2021
3670 Clear 2 1019 100 10000 0.51 0 22:39 15.01.2021
3671 Clear 2 1019 93 10000 0.51 0 22:21 15.01.2021
3672 Clouds 3 1019 76 10000 1.74 77 21:42 15.01.2021
3673 Clear 3 1018 86 10000 0.51 0 20:48 15.01.2021
3674 Clear 3 1018 86 10000 0.51 0 20:23 15.01.2021
3675 Clear 4 1018 86 10000 1.35 94 19:48 15.01.2021
3676 Clouds 4 1018 80 10000 0.51 0 19:28 15.01.2021
3677 Clouds 4 1017 75 10000 0.51 0 18:47 15.01.2021
3678 Clouds 4 1017 75 10000 1.03 40 18:20 15.01.2021
3679 Clouds 5 1017 65 10000 1.03 30 17:58 15.01.2021
3680 Clouds 5 1017 65 10000 1.03 30 17:58 15.01.2021
3681 Clouds 5 1017 65 10000 1.03 30 17:40 15.01.2021
3682 Clouds 5 1017 60 10000 1.03 40 17:21 15.01.2021
3683 Clouds 6 1017 61 10000 1.03 30 16:44 15.01.2021
3684 Clouds 6 1016 65 10000 1.03 40 16:23 15.01.2021
3685 Clouds 6 1016 56 10000 1.54 70 15:41 15.01.2021
3686 Clouds 6 1017 56 10000 1.54 60 15:19 15.01.2021
3687 Clouds 6 1017 56 10000 1.54 80 14:42 15.01.2021
3688 Clouds 6 1017 61 10000 1.54 60 14:24 15.01.2021
3689 Clouds 6 1017 61 10000 1.54 50 13:41 15.01.2021
3690 Clouds 6 1017 56 10000 1.03 0 13:20 15.01.2021
3691 Clouds 6 1017 61 10000 1.54 70 12:48 15.01.2021
3692 Clouds 6 1017 61 10000 1.54 80 12:30 15.01.2021
3693 Clouds 6 1017 56 10000 1.54 100 11:42 15.01.2021
3694 Clouds 6 1017 61 10000 1.54 60 11:21 15.01.2021
3695 Clouds 5 1017 65 10000 1.54 60 10:51 15.01.2021
3696 Clouds 5 1016 60 10000 1.03 0 10:22 15.01.2021
3697 Clouds 5 1016 60 10000 1.54 100 09:49 15.01.2021
3698 Clouds 5 1016 60 10000 1.54 100 09:29 15.01.2021
3699 Clouds 5 1015 65 10000 2.06 80 08:28 15.01.2021
3700 Clouds 5 1015 70 10000 2.57 80 07:45 15.01.2021
3701 Clouds 5 1015 75 10000 2.06 60 07:23 15.01.2021
3702 Clouds 5 1015 75 10000 1.54 70 06:37 15.01.2021
3703 Clear 4 1015 75 10000 1.54 240 02:45 15.01.2021
3704 Clear 4 1014 81 10000 2.06 10 00:47 15.01.2021
3705 Clear 4 1014 81 10000 3.6 40 23:34 14.01.2021
3706 Clear 4 1014 81 10000 3.6 40 22:58 14.01.2021
3707 Clear 4 1014 81 10000 3.6 40 22:58 14.01.2021
3708 Clear 4 1014 81 10000 2.57 40 22:37 14.01.2021
3709 Clear 4 1014 81 10000 2.57 40 22:19 14.01.2021
3710 Clear 4 1013 81 10000 3.6 60 21:40 14.01.2021
3711 Clear 4 1013 87 10000 4.12 70 21:20 14.01.2021
3712 Clear 4 1013 87 10000 4.12 70 20:48 14.01.2021
3713 Clear 4 1013 81 10000 3.6 80 20:18 14.01.2021
3714 Clear 4 1012 75 10000 4.12 70 19:38 14.01.2021
3715 Clear 4 1012 75 10000 4.12 70 19:18 14.01.2021
3716 Clear 4 1012 75 10000 3.6 80 18:45 14.01.2021
3717 Clear 4 1011 75 10000 4.12 90 17:59 14.01.2021
3718 Clear 4 1011 75 10000 4.12 90 17:41 14.01.2021
3719 Clear 5 1010 70 10000 4.12 120 17:23 14.01.2021
3720 Clear 5 1010 75 10000 5.14 110 16:39 14.01.2021
3721 Clear 6 1009 75 10000 5.14 110 15:55 14.01.2021
3722 Clear 6 1009 75 10000 5.14 110 15:37 14.01.2021
3723 Clear 7 1008 75 10000 4.63 120 14:50 14.01.2021
3724 Clear 7 1008 70 10000 4.12 120 14:31 14.01.2021
3725 Clear 8 1008 57 10000 4.12 110 13:57 14.01.2021
3726 Clear 9 1008 66 10000 3.6 150 13:26 14.01.2021
3727 Clear 9 1008 53 10000 2.57 210 12:59 14.01.2021
3728 Clear 8 1008 57 10000 1.54 240 12:24 14.01.2021
3729 Clear 8 1008 61 10000 2.57 260 11:59 14.01.2021
3730 Clear 8 1008 61 10000 2.57 260 11:41 14.01.2021
3731 Clear 7 1008 65 10000 2.57 280 11:20 14.01.2021
3732 Clear 5 1008 75 10000 1.54 320 10:43 14.01.2021
3733 Clear 4 1007 75 10000 1.03 0 10:19 14.01.2021
3734 Clear 3 1008 80 10000 1.03 0 09:44 14.01.2021
3735 Clear 2 1007 80 10000 1.54 300 09:22 14.01.2021
3736 Clear 1 1007 86 10000 2.06 250 08:39 14.01.2021
3737 Clear 1 1007 86 10000 2.06 250 08:19 14.01.2021
3738 Clear 1 1008 80 10000 1.54 220 07:41 14.01.2021
3739 Clear 1 1009 75 10000 3.6 270 06:38 14.01.2021
3740 Clear 0 1010 86 10000 1.54 260 04:59 14.01.2021
3741 Clear 1 1014 86 10000 2.06 30 00:34 14.01.2021
3742 Clear 1 1015 86 10000 1.03 0 23:33 13.01.2021
3743 Clear 2 1014 86 10000 2.57 50 22:51 13.01.2021
3744 Clear 2 1015 86 10000 1.54 60 22:23 13.01.2021
3745 Clear 2 1015 87 10000 1.54 60 21:43 13.01.2021
3746 Clear 3 1015 87 10000 1.54 80 21:22 13.01.2021
3747 Clear 3 1014 87 10000 3.09 90 20:51 13.01.2021
3748 Clear 4 1014 87 10000 3.09 90 20:25 13.01.2021
3749 Clear 4 1014 75 10000 2.06 0 19:49 13.01.2021
3750 Clear 5 1013 81 10000 1.54 0 19:27 13.01.2021
3751 Clear 4 1013 87 10000 1.54 290 18:51 13.01.2021
3752 Clear 6 1013 70 10000 1.03 300 18:32 13.01.2021
3753 Clear 7 1013 65 10000 1.03 0 17:47 13.01.2021
3754 Clear 8 1013 61 10000 2.57 270 17:18 13.01.2021
3755 Clear 11 1013 54 10000 2.57 260 16:45 13.01.2021
3756 Clear 11 1013 58 10000 2.57 270 16:21 13.01.2021
3757 Clear 12 1013 47 10000 1.54 230 15:41 13.01.2021
3758 Clear 11 1013 50 10000 2.06 260 15:20 13.01.2021
3759 Clear 11 1013 54 10000 3.09 260 14:28 13.01.2021
3760 Clear 11 1014 57 10000 3.6 260 13:47 13.01.2021
3761 Clear 10 1014 61 10000 3.6 260 13:25 13.01.2021
3762 Clear 9 1014 66 10000 4.63 260 12:46 13.01.2021
3763 Clear 8 1014 65 10000 3.6 250 12:25 13.01.2021
3764 Clear 7 1014 61 10000 4.63 250 11:51 13.01.2021
3765 Clear 6 1014 61 10000 4.12 250 11:33 13.01.2021
3766 Clear 5 1013 70 10000 3.6 250 10:49 13.01.2021
3767 Clear 4 1013 70 10000 2.06 260 10:28 13.01.2021
3768 Clear 4 1013 70 10000 2.57 270 09:40 13.01.2021
3769 Clear 2 1012 75 10000 4.12 270 08:59 13.01.2021
3770 Clear 2 1012 75 10000 4.12 270 08:41 13.01.2021
3771 Clear 1 1012 69 10000 3.6 260 08:23 13.01.2021
3772 Clear 1 1012 80 10000 1.54 0 07:29 13.01.2021
3773 Clear 1 1011 80 10000 3.09 250 05:55 13.01.2021
3774 Clear 0 1011 75 10000 4.12 250 04:18 13.01.2021
3775 Clear 1 1011 69 10000 3.09 260 03:43 13.01.2021
3776 Clear 1 1011 69 10000 2.57 270 03:22 13.01.2021
3777 Clear 1 1012 69 10000 2.57 280 00:48 13.01.2021
3778 Clear 1 1012 75 10000 2.57 290 23:43 12.01.2021
3779 Clear 1 1012 80 10000 2.06 310 22:58 12.01.2021
3780 Clear 1 1012 80 10000 2.06 310 22:39 12.01.2021
3781 Clear 1 1012 86 10000 1.54 280 22:19 12.01.2021
3782 Clear 1 1012 80 10000 1.54 310 21:43 12.01.2021
3783 Clear 1 1012 80 10000 2.06 270 21:24 12.01.2021
3784 Clear 1 1012 80 10000 2.57 260 20:47 12.01.2021
3785 Clear 1 1012 80 10000 2.06 260 20:27 12.01.2021
3786 Clear 2 1012 75 10000 2.06 240 19:44 12.01.2021
3787 Clear 2 1012 75 10000 1.03 0 18:57 12.01.2021
3788 Clouds 2 1012 69 10000 1.03 0 18:38 12.01.2021
3789 Clouds 2 1012 69 10000 1.03 0 18:20 12.01.2021
3790 Clear 3 1012 70 10000 1.03 0 17:34 12.01.2021
3791 Clear 4 1013 65 10000 2.06 250 16:54 12.01.2021
3792 Clear 4 1013 60 10000 2.06 230 16:36 12.01.2021
3793 Clear 4 1013 60 10000 2.06 230 16:18 12.01.2021
3794 Clear 4 1014 65 10000 2.06 240 15:29 12.01.2021
3795 Clear 4 1014 60 10000 3.09 260 14:57 12.01.2021
3796 Clear 4 1014 60 10000 3.09 260 14:39 12.01.2021
3797 Clear 4 1014 60 10000 2.57 240 14:18 12.01.2021
3798 Clear 4 1015 65 10000 2.57 240 13:45 12.01.2021
3799 Clear 3 1016 69 10000 2.57 240 12:39 12.01.2021
3800 Clear 1 1017 80 10000 2.06 230 11:55 12.01.2021
3801 Clear 1 1017 80 10000 2.06 230 11:36 12.01.2021
3802 Clear 0 1017 86 10000 2.57 250 10:44 12.01.2021
3803 Clear -1 1017 86 10000 2.06 240 10:20 12.01.2021
3804 Snow -1 1017 93 10000 1.54 240 09:53 12.01.2021
3805 Clear -1 1017 93 10000 2.57 240 09:23 12.01.2021
3806 Clear -2 1017 93 10000 1.54 240 08:28 12.01.2021
3807 Clear -2 1018 93 10000 1.54 250 07:57 12.01.2021
3808 Clear -2 1018 100 10000 1.03 0 07:33 12.01.2021
3809 Clear -1 1019 93 10000 2.06 250 05:46 12.01.2021
3810 Clear -2 1020 100 10000 1.03 0 03:46 12.01.2021
3811 Clear -1 1020 100 10000 0.51 160 03:22 12.01.2021
3812 Clear -1 1020 100 10000 1.03 280 02:18 12.01.2021
3813 Clear -1 1021 100 10000 0.51 0 00:35 12.01.2021
3814 Clear 0 1021 100 10000 0.51 0 23:43 11.01.2021
3815 Clear 0 1021 100 10000 0.51 0 23:20 11.01.2021
3816 Clear 0 1020 93 10000 0.51 60 22:46 11.01.2021
3817 Clear 0 1020 86 10000 0.51 0 22:28 11.01.2021
3818 Clear 0 1020 93 10000 0.51 270 21:46 11.01.2021
3819 Clear 1 1020 93 10000 0.51 240 21:25 11.01.2021
3820 Clear 1 1020 93 10000 0.51 0 20:59 11.01.2021
3821 Clear 1 1020 93 10000 0.51 0 20:39 11.01.2021
3822 Clear 1 1020 86 10000 1.03 180 20:39 11.01.2021
3823 Clear 1 1020 86 10000 1.03 180 20:20 11.01.2021
3824 Clear 1 1019 86 10000 1.03 270 19:50 11.01.2021
3825 Clear 2 1019 86 10000 1.03 0 19:23 11.01.2021
3826 Clear 2 1019 75 10000 1.03 240 18:43 11.01.2021
3827 Clear 2 1019 80 10000 1.54 210 18:23 11.01.2021
3828 Clear 3 1019 69 10000 2.57 200 17:42 11.01.2021
3829 Clear 3 1019 65 10000 2.06 190 17:24 11.01.2021
3830 Clear 4 1019 70 10000 2.57 190 16:48 11.01.2021
3831 Clear 4 1019 65 10000 1.54 160 16:29 11.01.2021
3832 Clear 5 1019 56 10000 1.03 0 15:57 11.01.2021
3833 Clear 5 1019 56 10000 1.03 0 15:36 11.01.2021
3834 Clear 5 1019 60 10000 0.51 0 14:58 11.01.2021
3835 Clear 5 1019 60 10000 0.51 0 14:36 11.01.2021
3836 Clear 4 1020 60 10000 1.03 0 13:48 11.01.2021
3837 Clear 4 1020 65 10000 1.03 0 13:23 11.01.2021
3838 Clear 3 1020 69 10000 1.54 130 12:44 11.01.2021
3839 Clear 3 1021 69 10000 1.03 0 12:25 11.01.2021
3840 Clear 3 1021 69 10000 1.03 0 12:25 11.01.2021
3841 Clear 3 1021 69 10000 1.54 90 11:47 11.01.2021
3842 Clear 2 1020 74 10000 2.06 70 10:59 11.01.2021
3843 Clear 1 1020 74 10000 2.06 70 10:39 11.01.2021
3844 Clear 1 1019 85 10000 0.69 351 09:59 11.01.2021
3845 Clear 0 1019 93 10000 1.03 160 09:36 11.01.2021
3846 Clear 0 1019 93 10000 1.03 160 09:36 11.01.2021
3847 Clear -1 1018 100 10000 1.03 0 08:52 11.01.2021
3848 Clear -2 1018 100 10000 1.03 0 08:34 11.01.2021
3849 Clear -2 1018 100 10000 1.43 349 07:48 11.01.2021
3850 Clear -2 1018 93 10000 0.51 0 07:25 11.01.2021
3851 Clear -1 1018 93 10000 1.03 170 06:49 11.01.2021
3852 Clear -1 1018 100 10000 1.03 340 02:31 11.01.2021
3853 Clear -1 1018 93 10000 1.54 10 00:57 11.01.2021
3854 Clear -1 1018 93 10000 1.03 350 23:48 10.01.2021
3855 Clear 0 1018 100 10000 1.03 350 22:59 10.01.2021
3856 Clear 0 1018 100 10000 1.03 350 22:40 10.01.2021
3857 Clear 0 1018 100 10000 1.03 360 22:19 10.01.2021
3858 Clear 0 1018 93 10000 1.54 20 21:40 10.01.2021
3859 Clear 1 1018 100 10000 1.03 30 21:19 10.01.2021
3860 Clear 1 1018 93 10000 0.51 330 20:49 10.01.2021
3861 Clear 1 1017 93 10000 0.51 300 20:27 10.01.2021
3862 Clear 2 1017 86 10000 0.51 260 19:40 10.01.2021
3863 Clear 2 1017 86 10000 0.51 250 19:22 10.01.2021
3864 Clear 2 1017 80 10000 0.51 260 18:45 10.01.2021
3865 Clear 2 1017 80 10000 0.51 0 18:20 10.01.2021
3866 Clear 3 1017 75 10000 1.03 230 17:26 10.01.2021
3867 Clear 4 1017 70 10000 0.51 240 16:50 10.01.2021
3868 Clouds 4 1017 75 10000 1.03 240 16:30 10.01.2021
3869 Clouds 4 1017 65 10000 1.03 210 15:41 10.01.2021
3870 Clouds 4 1017 65 10000 0.51 0 15:22 10.01.2021
3871 Clouds 4 1017 65 10000 0.51 0 14:41 10.01.2021
3872 Clouds 4 1018 60 10000 0.51 0 14:22 10.01.2021
3873 Clouds 4 1018 60 10000 1.45 142 13:43 10.01.2021
3874 Clouds 4 1018 70 10000 0.51 0 13:24 10.01.2021
3875 Clouds 4 1018 70 10000 0.51 0 12:56 10.01.2021
3876 Clouds 4 1018 70 10000 0.51 0 12:38 10.01.2021
3877 Clouds 3 1019 80 10000 1.03 340 11:56 10.01.2021
3878 Clouds 2 1019 80 10000 0.51 340 11:21 10.01.2021
3879 Clouds 2 1019 86 10000 0.51 0 10:51 10.01.2021
3880 Clouds 1 1019 93 10000 0.51 0 10:24 10.01.2021
3881 Clouds 1 1018 86 10000 1.03 360 09:45 10.01.2021
3882 Clouds 0 1018 93 10000 0.51 300 08:38 10.01.2021
3883 Clouds 1 1018 80 10000 1.03 0 07:46 10.01.2021
3884 Clear 0 1017 75 10000 1.54 340 06:22 10.01.2021
3885 Clear 0 1018 75 10000 1.54 360 05:46 10.01.2021
3886 Clear 1 1018 86 10000 2.06 10 05:27 10.01.2021
3887 Clouds 1 1019 86 10000 1.03 340 01:42 10.01.2021
3888 Clear 1 1019 100 10000 1.54 360 00:21 10.01.2021
3889 Clear 1 1019 93 10000 0.51 0 23:41 09.01.2021
3890 Clear 1 1019 93 10000 0.51 0 23:20 09.01.2021
3891 Clear 1 1019 100 10000 1.54 10 22:21 09.01.2021
3892 Clear 1 1019 93 10000 1.03 0 21:58 09.01.2021
3893 Clear 1 1018 93 10000 1.54 110 21:39 09.01.2021
3894 Clear 2 1018 93 10000 1.54 110 21:21 09.01.2021
3895 Clear 2 1018 93 10000 1.03 170 20:54 09.01.2021
3896 Clear 3 1018 87 10000 1.54 120 20:29 09.01.2021
3897 Clear 3 1017 87 10000 1.03 0 19:40 09.01.2021
3898 Clear 3 1017 87 10000 1.03 0 19:20 09.01.2021
3899 Clear 3 1017 81 10000 1.03 0 18:37 09.01.2021
3900 Clear 3 1017 75 10000 1.54 190 17:54 09.01.2021
3901 Clear 3 1017 81 10000 1.03 210 17:34 09.01.2021
3902 Clouds 4 1017 75 8000 1.03 0 16:57 09.01.2021
3903 Clouds 4 1017 75 10000 2.57 190 16:23 09.01.2021
3904 Clouds 5 1017 70 10000 1.54 200 15:41 09.01.2021
3905 Clouds 5 1017 70 10000 1.03 260 15:21 09.01.2021
3906 Clouds 5 1017 75 10000 1.03 170 14:37 09.01.2021
3907 Clouds 5 1017 70 10000 1.03 0 14:19 09.01.2021
3908 Clouds 4 1018 65 10000 0.51 0 13:44 09.01.2021
3909 Clouds 4 1018 65 10000 0.51 0 13:25 09.01.2021
3910 Clouds 3 1019 65 10000 1.03 0 12:28 09.01.2021
3911 Clouds 3 1019 65 10000 1.03 0 11:58 09.01.2021
3912 Clouds 3 1019 65 10000 1.03 0 11:38 09.01.2021
3913 Clear 3 1019 70 10000 0.51 0 11:18 09.01.2021
3914 Clear 2 1019 80 10000 0.51 0 10:42 09.01.2021
3915 Clear 1 1019 86 10000 0.51 350 10:22 09.01.2021
3916 Clear 1 1018 86 10000 0.51 40 09:43 09.01.2021
3917 Clear 1 1018 93 10000 1.03 330 09:20 09.01.2021
3918 Clear 0 1018 93 10000 0.51 0 07:49 09.01.2021
3919 Clear 0 1018 93 10000 0.51 0 07:49 09.01.2021
3920 Clear 0 1017 93 10000 1.03 30 06:53 09.01.2021
3921 Clear 0 1018 93 10000 1.03 350 06:33 09.01.2021
3922 Clear 0 1018 100 10000 1.03 360 03:53 09.01.2021
3923 Clear 0 1017 100 10000 0.51 360 02:41 09.01.2021
3924 Clear 1 1017 100 10000 2.06 10 02:23 09.01.2021
3925 Clear 1 1017 100 10000 2.06 10 02:23 09.01.2021
3926 Fog 0 1017 100 9000 1.54 360 01:24 09.01.2021
3927 Fog 0 1017 100 9000 1.54 360 00:33 09.01.2021
3928 Fog 0 1017 100 10000 1.03 10 23:45 08.01.2021
3929 Clear 1 1017 100 10000 0.51 0 22:43 08.01.2021
3930 Clear 1 1016 100 10000 0.6 337 21:52 08.01.2021
3931 Clouds 1 1015 100 10000 1.54 30 20:59 08.01.2021
3932 Clouds 1 1015 100 10000 1.54 30 20:35 08.01.2021
3933 Clear 2 1015 93 10000 0.51 310 19:57 08.01.2021
3934 Clear 3 1015 87 10000 0.51 0 19:24 08.01.2021
3935 Clear 2 1015 87 10000 1.03 210 18:54 08.01.2021
3936 Clear 1 1015 87 10000 1.03 210 18:32 08.01.2021
3937 Clear 2 1014 81 10000 1.03 160 17:53 08.01.2021
3938 Clear 3 1014 70 10000 1.54 180 17:25 08.01.2021
3939 Clear 5 1014 70 10000 1.03 170 16:47 08.01.2021
3940 Clear 5 1014 56 10000 1.03 0 15:48 08.01.2021
3941 Clear 5 1013 65 10000 1.03 0 15:27 08.01.2021
3942 Clear 5 1013 60 10000 0.51 0 14:37 08.01.2021
3943 Clear 5 1013 65 10000 1.03 0 13:48 08.01.2021
3944 Clear 5 1014 70 10000 0.51 0 13:21 08.01.2021
3945 Clear 4 1014 75 10000 0.51 0 12:50 08.01.2021
3946 Clear 4 1014 75 10000 0.51 0 12:20 08.01.2021
3947 Clear 4 1014 81 10000 0.51 0 11:46 08.01.2021
3948 Clear 3 1014 81 10000 1.03 0 11:28 08.01.2021
3949 Clear 3 1014 87 10000 0.51 0 10:53 08.01.2021
3950 Clear 2 1014 87 10000 0.51 0 10:35 08.01.2021
3951 Fog 1 1013 100 6000 0.51 0 09:53 08.01.2021
3952 Fog 0 1013 100 2500 0.51 0 09:31 08.01.2021
3953 Fog -1 1013 100 1000 1.03 150 08:39 08.01.2021
3954 Fog -2 1012 100 100 0.51 190 07:29 08.01.2021
3955 Fog -1 1012 100 50 0.51 0 06:21 08.01.2021
3956 Clouds 2 1014 93 10000 1.03 0 00:22 08.01.2021
3957 Clouds 2 1014 93 10000 1.54 260 23:41 07.01.2021
3958 Clouds 2 1014 93 10000 1.54 270 22:47 07.01.2021
3959 Clouds 2 1014 93 10000 2.06 240 22:26 07.01.2021
3960 Clouds 2 1014 93 10000 1.03 220 21:46 07.01.2021
3961 Clouds 2 1014 93 10000 1.54 250 21:27 07.01.2021
3962 Clouds 3 1014 93 10000 1.03 240 20:47 07.01.2021
3963 Clouds 3 1014 93 10000 1.03 0 20:29 07.01.2021
3964 Clouds 3 1014 93 10000 0.51 0 19:45 07.01.2021
3965 Clouds 3 1014 93 10000 1.03 0 19:23 07.01.2021
3966 Clouds 3 1014 87 10000 1.54 240 18:31 07.01.2021
3967 Clouds 4 1014 87 10000 2.06 210 17:58 07.01.2021
3968 Clouds 4 1014 81 9000 0.51 190 17:28 07.01.2021
3969 Clouds 4 1014 81 10000 1.54 160 16:54 07.01.2021
3970 Clouds 5 1014 81 10000 1.54 170 16:30 07.01.2021
3971 Clouds 5 1014 81 10000 1.54 170 16:30 07.01.2021
3972 Clouds 5 1014 75 10000 1.54 150 15:47 07.01.2021
3973 Clouds 5 1014 75 10000 1.03 0 15:29 07.01.2021
3974 Clouds 5 1014 75 10000 1.03 0 15:29 07.01.2021
3975 Clouds 5 1014 81 10000 1.03 0 14:27 07.01.2021
3976 Clouds 5 1014 81 10000 1.54 100 13:47 07.01.2021
3977 Clouds 5 1015 81 10000 2.06 90 13:18 07.01.2021
3978 Clouds 4 1016 86 10000 2.6 40 12:43 07.01.2021
3979 Clouds 4 1016 86 10000 2.6 40 11:57 07.01.2021
3980 Clouds 4 1016 86 10000 2.6 40 11:57 07.01.2021
3981 Clouds 3 1016 86 10000 2.1 50 11:36 07.01.2021
3982 Clouds 3 1015 86 10000 1.5 10 10:51 07.01.2021
3983 Clouds 3 1015 86 10000 1.5 10 10:31 07.01.2021
3984 Clouds 2 1015 93 10000 1.5 360 09:48 07.01.2021
3985 Clouds 1 1014 93 10000 1 350 09:19 07.01.2021
3986 Clouds 0 1014 93 10000 2.1 360 08:29 07.01.2021
3987 Clouds 1 1013 100 10000 1 340 07:51 07.01.2021
3988 Clouds 1 1013 100 10000 1 340 07:26 07.01.2021
3989 Clouds 1 1014 93 10000 1 270 04:31 07.01.2021
3990 Clouds 3 1013 93 10000 1.5 260 00:31 07.01.2021
3991 Clouds 4 1013 93 10000 1.5 240 23:48 06.01.2021
3992 Clouds 4 1013 93 10000 1 0 22:39 06.01.2021
3993 Clouds 4 1012 93 10000 1.5 250 21:44 06.01.2021
3994 Clouds 4 1012 93 10000 1.5 250 21:23 06.01.2021
3995 Clouds 4 1012 93 10000 0.5 0 20:58 06.01.2021
3996 Clouds 3 1012 100 10000 1.5 190 20:25 06.01.2021
3997 Clouds 4 1012 100 10000 1.5 190 19:59 06.01.2021
3998 Clouds 4 1011 93 10000 1 180 19:36 06.01.2021
3999 Clouds 4 1011 93 10000 1 180 19:18 06.01.2021
4000 Clouds 4 1011 86 10000 0.5 0 18:40 06.01.2021
4001 Clouds 4 1011 86 10000 1.5 190 18:21 06.01.2021
4002 Clouds 4 1011 86 10000 1.5 170 17:42 06.01.2021
4003 Clouds 5 1011 86 10000 1.5 160 17:22 06.01.2021
4004 Clouds 5 1010 86 10000 0.5 0 16:41 06.01.2021
4005 Clouds 5 1010 86 10000 1 0 16:19 06.01.2021
4006 Clouds 5 1010 86 10000 1 0 15:50 06.01.2021
4007 Clouds 5 1010 86 10000 1 0 15:28 06.01.2021
4008 Clouds 5 1010 80 10000 1 0 14:44 06.01.2021
4009 Clouds 5 1010 80 10000 1 0 14:20 06.01.2021
4010 Clouds 4 1010 93 10000 1.5 210 13:42 06.01.2021
4011 Clouds 4 1010 86 10000 1 0 13:20 06.01.2021
4012 Clouds 4 1010 93 9000 1 0 12:46 06.01.2021
4013 Clouds 3 1010 93 7000 1.5 260 11:51 06.01.2021
4014 Mist 3 1010 93 5000 1.5 240 11:24 06.01.2021
4015 Mist 3 1010 93 5000 1.5 240 10:56 06.01.2021
4016 Mist 3 1009 100 5000 1.5 220 09:58 06.01.2021
4017 Mist 3 1009 100 5000 1.5 220 09:40 06.01.2021
4018 Mist 2 1009 100 5000 1.5 230 08:56 06.01.2021
4019 Clouds 2 1008 100 9000 2.1 210 08:21 06.01.2021
4020 Clouds 2 1008 93 8000 1.5 230 07:54 06.01.2021
4021 Clouds 3 1008 93 10000 1.5 240 06:45 06.01.2021
4022 Clouds 3 1008 100 3500 2.1 250 05:32 06.01.2021
4023 Rain 3 1008 100 3500 1.5 240 04:31 06.01.2021
4024 Clouds 3 1007 100 5000 0.5 270 02:45 06.01.2021
4025 Clouds 3 1007 100 5000 0.61 162 02:22 06.01.2021
4026 Drizzle 3 1007 100 8000 1 190 00:22 06.01.2021
4027 Drizzle 3 1007 100 8000 0.5 0 22:59 05.01.2021
4028 Drizzle 3 1007 100 8000 1 0 22:40 05.01.2021
4029 Clouds 3 1007 100 8000 1 260 22:20 05.01.2021
4030 Rain 3 1007 100 10000 1 0 21:37 05.01.2021
4031 Drizzle 3 1007 100 10000 1.5 190 20:37 05.01.2021
4032 Rain 3 1007 93 10000 1 190 20:18 05.01.2021
4033 Rain 3 1007 100 10000 2.6 150 19:41 05.01.2021
4034 Rain 3 1007 100 10000 4.1 150 19:21 05.01.2021
4035 Rain 4 1007 93 10000 4.6 160 18:42 05.01.2021
4036 Rain 4 1007 100 10000 4.6 160 18:21 05.01.2021
4037 Rain 4 1007 93 10000 5.1 160 17:47 05.01.2021
4038 Rain 5 1006 87 10000 2.1 180 17:26 05.01.2021
4039 Rain 6 1006 87 10000 2.1 180 16:51 05.01.2021
4040 Clouds 6 1006 81 10000 0.5 0 16:21 05.01.2021
4041 Clouds 6 1006 75 10000 2.1 280 15:50 05.01.2021
4042 Clouds 6 1007 81 10000 2.1 340 14:50 05.01.2021
4043 Rain 6 1007 75 10000 2.6 20 14:25 05.01.2021
4044 Rain 6 1008 87 10000 1.5 30 13:46 05.01.2021
4045 Rain 6 1008 87 10000 1.5 30 13:22 05.01.2021
4046 Rain 6 1008 87 10000 2.1 20 12:47 05.01.2021
4047 Rain 6 1008 87 10000 2.1 20 12:24 05.01.2021
4048 Rain 6 1009 87 10000 2.1 30 11:39 05.01.2021
4049 Rain 6 1009 87 10000 2.1 30 11:39 05.01.2021
4050 Rain 5 1009 87 10000 2.1 30 11:39 05.01.2021
4051 Clouds 5 1009 93 10000 2.6 30 10:46 05.01.2021
4052 Clouds 5 1009 93 10000 2.6 30 10:27 05.01.2021
4053 Clouds 5 1009 93 10000 2.1 50 09:49 05.01.2021
4054 Clouds 5 1009 93 10000 2.1 50 09:49 05.01.2021
4055 Clouds 5 1009 93 10000 2.1 50 09:28 05.01.2021
4056 Clouds 4 1009 100 7000 1 30 08:27 05.01.2021
4057 Mist 4 1009 100 3500 1 0 06:47 05.01.2021
4058 Clouds 4 1010 100 6000 1.5 140 04:50 05.01.2021
4059 Clouds 5 1010 93 7000 2.1 80 00:50 05.01.2021
4060 Clouds 5 1010 100 7000 1 0 23:46 04.01.2021
4061 Clouds 5 1010 100 7000 2.1 60 23:25 04.01.2021
4062 Clouds 5 1010 93 7000 2.6 70 22:51 04.01.2021
4063 Clouds 5 1010 93 7000 2.6 70 22:32 04.01.2021
4064 Rain 5 1010 93 7000 2.1 70 21:47 04.01.2021
4065 Rain 5 1010 93 7000 2.1 70 21:29 04.01.2021
4066 Rain 5 1010 93 8000 1.5 60 20:43 04.01.2021
4067 Rain 5 1010 93 8000 1.5 110 20:23 04.01.2021
4068 Rain 5 1010 93 8000 1 0 19:51 04.01.2021
4069 Rain 5 1010 93 8000 1 0 19:24 04.01.2021
4070 Rain 5 1010 93 10000 2.6 130 18:48 04.01.2021
4071 Rain 5 1010 93 10000 2.1 120 18:23 04.01.2021
4072 Clouds 6 1010 93 10000 3.1 120 17:42 04.01.2021
4073 Clouds 6 1010 93 10000 3.1 120 17:22 04.01.2021
4074 Rain 6 1009 93 10000 2.1 120 16:46 04.01.2021
4075 Clouds 6 1009 93 10000 2.1 100 16:26 04.01.2021
4076 Clouds 6 1009 93 10000 2.1 100 15:49 04.01.2021
4077 Clouds 6 1009 93 10000 3.1 90 15:25 04.01.2021
4078 Clouds 6 1009 87 10000 4.1 70 14:34 04.01.2021
4079 Clouds 6 1010 93 7000 3.1 70 13:43 04.01.2021
4080 Clouds 6 1010 93 7000 3.1 50 13:20 04.01.2021
4081 Clouds 6 1010 93 7000 3.1 50 12:32 04.01.2021
4082 Clouds 6 1011 93 7000 1.5 40 11:53 04.01.2021
4083 Mist 5 1011 93 5000 1.5 90 11:20 04.01.2021
4084 Rain 5 1011 100 4000 1 0 10:47 04.01.2021
4085 Mist 5 1011 100 4000 1 0 10:24 04.01.2021
4086 Rain 5 1010 100 4000 1 190 09:49 04.01.2021
4087 Rain 5 1010 100 8000 1 0 09:18 04.01.2021
4088 Rain 5 1010 100 10000 1 0 08:41 04.01.2021
4089 Clouds 5 1010 100 10000 0.5 0 07:48 04.01.2021
4090 Clouds 5 1009 100 10000 1.5 350 06:56 04.01.2021
4091 Mist 5 1010 100 2600 0.5 0 05:21 04.01.2021
4092 Mist 5 1010 100 4800 1 250 02:31 04.01.2021
4093 Clouds 5 1010 93 10000 1.5 360 00:29 04.01.2021
4094 Clouds 5 1010 100 6000 0.5 0 23:38 03.01.2021
4095 Fog 5 1010 100 8000 0.5 0 22:59 03.01.2021
4096 Drizzle 5 1010 100 8000 1 0 22:41 03.01.2021
4097 Rain 5 1010 100 8000 1 0 22:22 03.01.2021
4098 Fog 5 1010 100 8000 1.5 120 21:45 03.01.2021
4099 Fog 5 1010 100 8000 1.5 120 21:24 03.01.2021
4100 Fog 5 1010 100 8000 1 170 20:42 03.01.2021
4101 Fog 5 1010 100 8000 0.5 0 20:20 03.01.2021
4102 Fog 5 1010 100 8000 1.5 230 19:47 03.01.2021
4103 Fog 5 1010 100 8000 1.5 230 19:28 03.01.2021
4104 Fog 5 1010 100 8000 0.5 0 18:50 03.01.2021
4105 Rain 5 1010 100 8000 0.5 0 18:30 03.01.2021
4106 Clouds 6 1010 93 10000 1 0 17:53 03.01.2021
4107 Clouds 6 1009 93 10000 2.1 220 17:27 03.01.2021
4108 Clouds 6 1009 87 10000 2.1 140 16:56 03.01.2021
4109 Clouds 6 1009 87 10000 2.1 140 16:37 03.01.2021
4110 Clouds 7 1009 81 10000 2.6 130 16:18 03.01.2021
4111 Clouds 7 1009 81 10000 2.6 130 16:18 03.01.2021
4112 Clouds 7 1009 81 10000 2.1 70 15:40 03.01.2021
4113 Clouds 8 1009 87 10000 2.6 100 14:59 03.01.2021
4114 Clouds 7 1009 93 10000 2.1 70 14:41 03.01.2021
4115 Clouds 7 1009 93 10000 1 0 13:54 03.01.2021
4116 Clouds 7 1009 93 10000 1.5 190 13:26 03.01.2021
4117 Clouds 7 1009 93 10000 1.5 190 12:57 03.01.2021
4118 Clouds 5 1009 100 10000 2.1 100 11:44 03.01.2021
4119 Clouds 5 1009 100 6000 1 0 11:26 03.01.2021
4120 Clouds 5 1009 100 6000 1 0 10:56 03.01.2021
4121 Mist 4 1009 100 3000 1.5 160 10:31 03.01.2021
4122 Fog 4 1008 100 400 1.5 190 09:43 03.01.2021
4123 Fog 4 1007 100 400 1 0 09:23 03.01.2021
4124 Fog 4 1007 100 500 3.1 140 07:59 03.01.2021
4125 Fog 4 1006 100 1500 3.1 120 06:25 03.01.2021
4126 Rain 4 1005 100 6000 0.5 0 02:45 03.01.2021
4127 Rain 5 1005 100 4000 0.5 0 02:20 03.01.2021
4128 Rain 4 1005 100 5000 0.5 0 00:24 03.01.2021
4129 Drizzle 4 1005 100 4000 0.5 0 23:32 02.01.2021
4130 Rain 4 1005 100 2000 1 280 22:59 02.01.2021
4131 Mist 4 1005 100 3000 0.5 0 22:33 02.01.2021
4132 Rain 4 1005 100 5000 1.5 190 21:55 02.01.2021
4133 Rain 4 1005 100 5000 1.5 190 21:33 02.01.2021
4134 Fog 5 1005 100 5000 1 170 20:59 02.01.2021
4135 Fog 5 1005 100 5000 1 0 20:39 02.01.2021
4136 Rain 5 1005 100 4000 2.1 10 20:19 02.01.2021
4137 Fog 5 1004 100 3500 1.5 340 19:40 02.01.2021
4138 Mist 5 1004 100 3500 1 0 19:18 02.01.2021
4139 Rain 4 1004 100 1200 1 0 18:40 02.01.2021
4140 Rain 4 1004 100 3000 1 0 18:21 02.01.2021
4141 Rain 4 1004 100 2000 1.5 280 17:45 02.01.2021
4142 Rain 5 1004 100 3000 1.5 220 17:22 02.01.2021
4143 Fog 5 1004 100 1500 3.6 190 16:24 02.01.2021
4144 Rain 5 1004 100 1500 1 340 15:57 02.01.2021
4145 Rain 5 1004 100 1500 1 0 15:38 02.01.2021
4146 Rain 4 1004 100 2500 1 0 15:20 02.01.2021
4147 Rain 4 1004 100 2500 1.5 280 14:36 02.01.2021
4148 Rain 5 1005 100 2500 1.5 240 13:54 02.01.2021
4149 Rain 4 1005 100 3500 1.5 240 13:26 02.01.2021
4150 Rain 4 1005 100 3500 1.5 240 12:52 02.01.2021
4151 Rain 4 1006 100 6000 1 260 12:31 02.01.2021
4152 Rain 4 1006 100 10000 1 220 11:45 02.01.2021
4153 Rain 4 1006 100 4000 0.5 0 11:22 02.01.2021
4154 Rain 4 1006 100 5000 1 0 10:46 02.01.2021
4155 Rain 4 1007 100 4000 2.6 10 10:28 02.01.2021
4156 Rain 3 1007 100 4000 2.6 10 09:43 02.01.2021
4157 Rain 3 1007 100 3000 2.6 360 09:23 02.01.2021
4158 Mist 3 1007 100 3500 2.1 340 08:49 02.01.2021
4159 Mist 3 1007 100 3500 2.1 340 08:24 02.01.2021
4160 Rain 3 1007 100 1500 0.5 0 07:43 02.01.2021
4161 Rain 3 1007 100 800 1 0 07:20 02.01.2021
4162 Snow 3 1007 100 10000 2.1 150 06:25 02.01.2021
4163 Rain 3 1008 100 1000 1 10 04:27 02.01.2021
4164 Rain 3 1009 100 600 0.5 0 00:54 02.01.2021
4165 Mist 3 1009 100 1100 1.5 270 00:35 02.01.2021
4166 Fog 2 1009 100 8000 0.5 0 23:44 01.01.2021
4167 Clouds 2 1009 100 6000 0.5 0 23:20 01.01.2021
4168 Clouds 2 1009 100 8000 0.5 350 22:47 01.01.2021
4169 Clouds 2 1009 100 10000 1.5 330 22:22 01.01.2021
4170 Clouds 3 1009 100 10000 2.1 360 21:43 01.01.2021
4171 Rain 2 1009 100 10000 1.5 350 21:21 01.01.2021
4172 Rain 2 1009 100 10000 1.5 320 20:52 01.01.2021
4173 Rain 2 1009 100 10000 1.5 330 20:20 01.01.2021
4174 Rain 2 1009 100 8000 1.5 280 19:43 01.01.2021
4175 Clouds 2 1009 100 8000 1.5 280 19:23 01.01.2021
4176 Rain 2 1009 100 8000 0.5 0 18:52 01.01.2021
4177 Rain 2 1009 100 8000 0.5 0 18:34 01.01.2021
4178 Rain 2 1009 100 7000 1 0 17:59 01.01.2021
4179 Rain 2 1009 100 5000 1.5 340 17:41 01.01.2021
4180 Rain 2 1009 100 4000 1 360 17:18 01.01.2021
4181 Rain 2 1009 100 5000 0.5 0 16:37 01.01.2021
4182 Drizzle 2 1009 100 6000 1 250 15:45 01.01.2021
4183 Rain 2 1009 100 3500 1 0 14:56 01.01.2021
4184 Rain 2 1009 100 3000 1.5 330 14:37 01.01.2021
4185 Snow 2 1009 100 4000 2.1 10 13:46 01.01.2021
4186 Snow 2 1009 100 4000 2.1 10 13:25 01.01.2021
4187 Snow 2 1010 100 3500 2.6 20 12:43 01.01.2021
4188 Rain 2 1011 93 3500 2.6 50 12:18 01.01.2021
4189 Rain 2 1011 100 3500 2.6 50 11:39 01.01.2021
4190 Rain 2 1011 100 3500 2.1 50 11:18 01.01.2021
4191 Rain 2 1011 100 2500 1 0 10:35 01.01.2021
4192 Rain 2 1010 100 1500 1 30 09:47 01.01.2021
4193 Mist 2 1010 100 2500 1.5 70 09:20 01.01.2021
4194 Snow 2 1010 100 2000 2.1 90 08:29 01.01.2021
4195 Rain 2 1010 100 3500 0.5 0 04:53 01.01.2021
4196 Mist 2 1010 100 3500 1 160 02:44 01.01.2021
4197 Mist 2 1010 100 4000 0.5 310 01:35 01.01.2021
4198 Clouds 2 1010 79 8000 1 0 00:28 01.01.2021
4199 Clouds 2 1010 79 8000 2.1 260 23:36 31.12.2020
4200 Clouds 2 1010 78 8000 1.5 250 23:18 31.12.2020
4201 Clouds 2 1010 80 10000 1.5 270 22:38 31.12.2020
4202 Clouds 2 1010 80 10000 1.5 270 22:19 31.12.2020
4203 Clouds 2 1010 80 10000 2.6 180 21:47 31.12.2020
4204 Clouds 3 1010 83 10000 1.5 190 21:24 31.12.2020
4205 Clouds 3 1010 83 10000 1 0 20:49 31.12.2020
4206 Clouds 3 1010 84 10000 1 0 20:18 31.12.2020
4207 Clouds 3 1010 84 10000 2.1 50 19:46 31.12.2020
4208 Clouds 3 1010 82 10000 2.1 50 19:28 31.12.2020
4209 Clouds 2 1010 82 10000 1.5 340 18:49 31.12.2020
4210 Clouds 2 1010 77 10000 1.5 340 18:24 31.12.2020
4211 Rain 2 1010 77 10000 1 0 17:44 31.12.2020
4212 Rain 3 1010 76 10000 1 0 17:23 31.12.2020
4213 Clouds 3 1009 76 10000 1.5 110 16:43 31.12.2020
4214 Clouds 3 1009 76 10000 1.5 110 16:43 31.12.2020
4215 Clouds 3 1009 76 10000 1.5 110 16:43 31.12.2020
4216 Clouds 3 1009 72 10000 1.5 110 16:23 31.12.2020
4217 Clouds 4 1009 74 8000 1 0 15:49 31.12.2020
4218 Clouds 4 1009 93 7000 1 0 15:22 31.12.2020
4219 Clouds 4 1009 93 7000 1 0 15:22 31.12.2020
4220 Clouds 4 1009 93 7000 1 0 14:57 31.12.2020
4221 Mist 4 1010 93 4000 1 180 14:39 31.12.2020
4222 Mist 4 1010 100 3500 0.5 0 14:21 31.12.2020
4223 Mist 4 1010 69 3500 1 160 13:39 31.12.2020
4224 Mist 3 1010 71 3000 0.25 139 13:20 31.12.2020
4225 Mist 3 1010 70 3000 1 160 12:53 31.12.2020
4226 Mist 3 1010 73 3000 1 160 12:35 31.12.2020
4227 Mist 2 1011 100 1500 1 160 11:52 31.12.2020
4228 Fog 1 1011 100 200 1.5 180 11:32 31.12.2020
4229 Fog 0 1010 92 200 0.5 0 10:49 31.12.2020
4230 Fog 0 1010 92 200 0.5 0 10:29 31.12.2020
4231 Fog 0 1010 100 200 0.5 0 09:57 31.12.2020
4232 Fog -1 1010 100 200 1 280 09:35 31.12.2020
4233 Fog -2 1009 100 200 1 280 08:51 31.12.2020
4234 Fog -2 1009 100 200 1 280 08:32 31.12.2020
4235 Fog -2 1009 100 100 2.1 200 07:59 31.12.2020
4236 Fog -2 1009 100 500 1.5 170 07:29 31.12.2020
4237 Fog -1 1009 92 100 0.5 0 05:45 31.12.2020
4238 Fog -2 1009 92 100 2.1 10 04:30 31.12.2020
4239 Fog -1 1008 100 600 1.5 360 02:45 31.12.2020
4240 Fog -1 1008 100 600 1.5 360 02:25 31.12.2020
4241 Fog 0 1008 100 2000 1 0 01:44 31.12.2020
4242 Fog 0 1008 100 2000 1 0 01:25 31.12.2020
4243 Fog 0 1008 100 2000 1 0 00:46 31.12.2020
4244 Fog 0 1008 100 3000 1 180 23:48 30.12.2020
4245 Fog 1 1007 100 2000 1.5 270 23:19 30.12.2020
4246 Fog 1 1007 100 2000 1 0 22:48 30.12.2020
4247 Fog 1 1007 100 2000 1 0 22:30 30.12.2020
4248 Fog 1 1007 100 700 1 0 21:44 30.12.2020
4249 Fog 1 1007 100 700 1 0 21:22 30.12.2020
4250 Fog 2 1007 76 3500 0.5 0 20:50 30.12.2020
4251 Fog 2 1007 75 5000 1 0 20:20 30.12.2020
4252 Fog 2 1007 100 5000 1 270 19:41 30.12.2020
4253 Mist 3 1006 93 5000 1.5 270 19:22 30.12.2020
4254 Mist 3 1006 93 4000 1.5 250 18:46 30.12.2020
4255 Mist 3 1006 93 4000 1.5 250 18:46 30.12.2020
4256 Mist 3 1006 93 4000 1.5 260 18:28 30.12.2020
4257 Mist 3 1006 93 4000 1.5 260 17:51 30.12.2020
4258 Mist 3 1006 86 3000 1.5 210 17:32 30.12.2020
4259 Clouds 4 1005 86 6000 1.5 240 16:56 30.12.2020
4260 Clouds 4 1005 80 8000 1 0 16:31 30.12.2020
4261 Clouds 4 1005 80 8000 1.5 230 15:47 30.12.2020
4262 Clouds 4 1004 86 7000 2.1 210 15:24 30.12.2020
4263 Clouds 4 1004 93 7000 2.1 160 14:44 30.12.2020
4264 Clouds 4 1004 86 6000 1 140 14:22 30.12.2020
4265 Clouds 4 1004 80 6000 0.5 0 13:33 30.12.2020
4266 Mist 3 1005 86 5000 1 0 12:40 30.12.2020
4267 Mist 3 1005 93 5000 1 0 12:20 30.12.2020
4268 Mist 3 1005 86 5000 1 0 11:36 30.12.2020
4269 Mist 3 1005 93 3500 1 0 11:18 30.12.2020
4270 Mist 2 1004 93 3500 1.5 210 10:43 30.12.2020
4271 Mist 2 1004 93 3500 1.5 210 10:25 30.12.2020
4272 Mist 2 1004 93 3500 0.5 0 09:49 30.12.2020
4273 Mist 2 1003 93 3500 1 0 09:25 30.12.2020
4274 Mist 2 1003 93 5000 1 0 08:27 30.12.2020
4275 Mist 1 1003 100 5000 1 230 07:29 30.12.2020
4276 Mist 1 1002 81 5000 0.5 0 06:51 30.12.2020
4277 Mist 1 1002 81 5000 0.5 0 06:29 30.12.2020
4278 Mist 1 1002 81 5000 1.5 230 05:42 30.12.2020
4279 Mist 1 1002 82 5000 1.5 230 05:24 30.12.2020
4280 Mist 1 1002 86 4100 2.1 250 03:28 30.12.2020
4281 Mist 1 1002 86 3400 1.5 240 02:39 30.12.2020
4282 Mist 1 1002 86 5000 2.1 210 01:51 30.12.2020
4283 Mist 1 1002 86 4200 1.5 200 01:32 30.12.2020
4284 Clouds 1 1002 85 6000 1 320 00:47 30.12.2020
4285 Mist 1 1002 85 5000 0.5 0 00:29 30.12.2020
4286 Mist 1 1002 85 3500 1 0 23:53 29.12.2020
4287 Mist 1 1002 84 3500 1 0 23:35 29.12.2020
4288 Mist 1 1002 84 3500 0.5 0 22:50 29.12.2020
4289 Mist 1 1002 83 3500 1 0 22:32 29.12.2020
4290 Mist 1 1001 83 3500 0.5 250 21:56 29.12.2020
4291 Mist 1 1001 83 3500 0.5 250 21:38 29.12.2020
4292 Mist 1 1001 83 3500 0.5 0 21:20 29.12.2020
4293 Mist 1 1001 83 3500 0.5 0 20:43 29.12.2020
4294 Mist 1 1001 83 3500 0.5 0 20:25 29.12.2020
4295 Mist 1 1001 83 3500 1 0 19:45 29.12.2020
4296 Mist 1 1000 84 3500 1 0 19:22 29.12.2020
4297 Mist 1 1000 85 5000 1 170 18:53 29.12.2020
4298 Mist 2 1000 83 5000 1 170 18:28 29.12.2020
4299 Mist 2 1000 83 3500 1.5 200 17:47 29.12.2020
4300 Mist 2 999 83 3500 1 0 17:23 29.12.2020
4301 Mist 1 999 83 3500 0.5 0 16:54 29.12.2020
4302 Mist 1 999 84 3500 1 0 16:26 29.12.2020
4303 Drizzle 2 999 84 2000 2.1 190 15:42 29.12.2020
4304 Mist 2 999 83 2000 1.5 240 15:23 29.12.2020
4305 Drizzle 2 999 83 2000 2.6 250 14:45 29.12.2020
4306 Snow 1 998 83 2000 1.5 250 14:27 29.12.2020
4307 Mist 2 998 83 2000 1 0 13:54 29.12.2020
4308 Mist 2 998 77 2000 1 0 13:23 29.12.2020
4309 Snow 1 998 76 2000 0.5 0 12:44 29.12.2020
4310 Mist 2 998 75 2000 0.5 0 12:25 29.12.2020
4311 Mist 1 998 100 2000 0.5 0 11:57 29.12.2020
4312 Mist 1 998 100 2000 0.5 0 11:31 29.12.2020
4313 Mist 1 997 100 3000 1.5 110 10:38 29.12.2020
4314 Mist 1 997 100 3000 2.6 60 09:50 29.12.2020
4315 Mist 1 996 100 3000 3.6 80 09:29 29.12.2020
4316 Mist 0 996 100 2000 1 0 08:56 29.12.2020
4317 Fog 0 996 100 2000 1 0 08:36 29.12.2020
4318 Fog -1 994 92 2500 1 0 07:30 29.12.2020
4319 Clouds -2 994 100 6000 0.5 0 06:48 29.12.2020
4320 Clouds -1 993 100 7000 2.1 280 05:32 29.12.2020
4321 Fog -1 990 100 300 0.5 0 01:27 29.12.2020
4322 Fog -1 990 100 800 1 170 00:23 29.12.2020
4323 Mist -1 989 100 4000 2.6 10 23:36 28.12.2020
4324 Clouds -1 989 100 6000 3.1 360 22:30 28.12.2020
4325 Clouds -1 989 92 8000 1.5 330 21:47 28.12.2020
4326 Clouds -1 989 92 8000 1.5 330 21:28 28.12.2020
4327 Clear 0 988 98 10000 2.1 290 20:44 28.12.2020
4328 Clear 0 988 98 10000 2.1 290 20:25 28.12.2020
4329 Clear 0 988 98 10000 1.5 250 19:50 28.12.2020
4330 Clear 0 988 99 10000 1.5 250 19:26 28.12.2020
4331 Clouds 0 988 99 8000 2.6 250 18:59 28.12.2020
4332 Clouds 0 988 99 6000 2.6 250 18:32 28.12.2020
4333 Clouds 0 987 99 8000 3.1 260 17:51 28.12.2020
4334 Clouds 0 987 99 8000 3.1 260 17:33 28.12.2020
4335 Clouds 1 987 99 10000 3.6 240 16:59 28.12.2020
4336 Clouds 1 987 99 8000 2.6 250 16:31 28.12.2020
4337 Clouds 1 986 100 8000 3.1 250 15:54 28.12.2020
4338 Clouds 1 986 100 6000 3.6 250 15:33 28.12.2020
4339 Snow 1 986 100 6000 4.6 260 14:31 28.12.2020
4340 Snow 1 986 100 6000 3.1 250 13:47 28.12.2020
4341 Snow 1 986 100 6000 2.1 240 13:20 28.12.2020
4342 Snow 1 987 100 3500 1.5 260 12:27 28.12.2020
4343 Snow 1 987 100 1000 1 250 11:55 28.12.2020
4344 Snow 0 988 100 800 3.1 260 11:36 28.12.2020
4345 Snow 0 987 100 600 1 220 11:18 28.12.2020
4346 Snow 0 988 99 400 2.6 290 10:29 28.12.2020
4347 Snow 0 988 99 400 2.6 290 09:57 28.12.2020
4348 Snow 0 989 99 400 2.1 290 09:37 28.12.2020
4349 Snow 0 989 99 1200 2.6 300 09:18 28.12.2020
4350 Snow 0 991 99 3000 2.6 60 06:53 28.12.2020
4351 Snow 0 994 99 800 2.1 50 05:18 28.12.2020
4352 Snow 0 996 98 800 1 0 03:34 28.12.2020
4353 Snow 0 997 95 3000 1.5 60 01:54 28.12.2020
4354 Rain 1 1000 100 3500 1 50 23:52 27.12.2020
4355 Snow 1 1001 100 3500 1 0 23:27 27.12.2020
4356 Snow 1 1001 79 3500 1 0 22:36 27.12.2020
4357 Snow 1 1002 77 3500 0.5 0 21:49 27.12.2020
4358 Snow 1 1003 77 1600 0.5 0 21:21 27.12.2020
4359 Fog 0 1003 78 1600 1.5 240 19:59 27.12.2020
4360 Fog 0 1004 78 1600 1 0 19:24 27.12.2020
4361 Fog 0 1004 78 1600 1 0 18:49 27.12.2020
4362 Mist 1 1005 76 4000 2.6 240 18:20 27.12.2020
4363 Mist 1 1005 76 4000 2.6 240 17:56 27.12.2020
4364 Clouds 2 1006 74 6000 3.1 210 17:35 27.12.2020
4365 Clouds 2 1006 100 8000 2.6 240 16:55 27.12.2020
4366 Clouds 3 1007 93 8000 2.6 230 16:21 27.12.2020
4367 Clear 4 1007 86 10000 2.1 240 15:30 27.12.2020
4368 Clear 4 1009 69 10000 1.5 210 14:49 27.12.2020
4369 Clear 4 1009 69 10000 1.5 210 14:31 27.12.2020
4370 Clear 4 1012 64 10000 1 0 13:30 27.12.2020
4371 Clear 4 1012 64 10000 1 0 12:55 27.12.2020
4372 Clear 4 1013 64 10000 2.1 110 12:24 27.12.2020
4373 Clear 4 1013 64 10000 2.1 120 11:41 27.12.2020
4374 Clear 3 1013 69 10000 1.5 80 10:58 27.12.2020
4375 Clouds 3 1014 74 10000 2.1 90 10:39 27.12.2020
4376 Clouds 3 1014 80 10000 2.6 90 10:19 27.12.2020
4377 Clouds 2 1014 100 10000 0.5 0 08:53 27.12.2020
4378 Clear 0 1015 92 10000 1 10 08:28 27.12.2020
4379 Clear 1 1014 92 10000 1.5 20 07:28 27.12.2020
4380 Clear 1 1015 100 10000 1 30 05:47 27.12.2020
4381 Clear 1 1016 100 10000 0.5 40 04:59 27.12.2020
4382 Clear 2 1017 100 10000 1 360 03:23 27.12.2020
4383 Clear 1 1018 100 10000 1 360 01:46 27.12.2020
4384 Fog 2 1019 74 8000 1.5 340 00:25 27.12.2020
4385 Fog 2 1019 74 10000 0.5 0 23:41 26.12.2020
4386 Clear 2 1019 72 10000 1 330 23:21 26.12.2020
4387 Clear 2 1019 72 10000 0.5 0 22:38 26.12.2020
4388 Clear 3 1019 100 10000 0.5 0 22:18 26.12.2020
4389 Clear 3 1019 100 10000 0.5 0 22:18 26.12.2020
4390 Clear 3 1019 100 10000 0.5 0 21:52 26.12.2020
4391 Clear 4 1019 69 10000 1 0 21:24 26.12.2020
4392 Clear 4 1019 100 10000 1 350 20:43 26.12.2020
4393 Clear 4 1019 100 10000 0.19 165 20:19 26.12.2020
4394 Clear 4 1018 93 10000 1 0 19:29 26.12.2020
4395 Clear 4 1018 86 10000 1 360 18:53 26.12.2020
4396 Clear 5 1018 93 10000 0.5 0 18:32 26.12.2020
4397 Clear 6 1018 63 10000 1 180 17:44 26.12.2020
4398 Clear 6 1018 61 10000 1 180 17:26 26.12.2020
4399 Clear 8 1018 61 10000 2.6 150 16:37 26.12.2020
4400 Clear 8 1017 56 10000 2.6 160 15:52 26.12.2020
4401 Clear 8 1018 61 10000 2.6 160 15:19 26.12.2020
4402 Clear 8 1018 61 10000 2.6 130 14:29 26.12.2020
4403 Clear 9 1018 70 10000 1.5 160 13:54 26.12.2020
4404 Clear 8 1019 75 10000 1 0 13:32 26.12.2020
4405 Clear 7 1019 81 10000 2.1 130 12:50 26.12.2020
4406 Clear 7 1018 81 10000 1.5 140 12:30 26.12.2020
4407 Clear 7 1019 81 10000 0.5 0 11:51 26.12.2020
4408 Clear 6 1018 86 10000 1 0 11:25 26.12.2020
4409 Clear 5 1018 93 10000 1.5 150 10:55 26.12.2020
4410 Clear 4 1018 93 10000 1 30 10:28 26.12.2020
4411 Fog 3 1017 93 10000 1 0 09:55 26.12.2020
4412 Fog 3 1017 100 10000 0.5 60 09:32 26.12.2020
4413 Clear 3 1016 100 10000 1 260 08:39 26.12.2020
4414 Clear 3 1016 93 10000 1.5 250 07:56 26.12.2020
4415 Clear 3 1015 100 10000 1.5 240 06:47 26.12.2020
4416 Clouds 4 1015 86 10000 2.1 260 03:52 26.12.2020
4417 Clouds 4 1015 100 10000 1.5 270 01:49 26.12.2020
4418 Rain 4 1014 93 10000 2.1 190 00:27 26.12.2020
4419 Rain 4 1014 93 10000 3.6 190 23:41 25.12.2020
4420 Rain 4 1014 93 10000 3.6 190 23:41 25.12.2020
4421 Rain 4 1013 93 10000 3.6 170 23:23 25.12.2020
4422 Rain 4 1013 86 10000 4.1 170 22:48 25.12.2020
4423 Rain 5 1013 86 10000 4.1 170 22:23 25.12.2020
4424 Rain 5 1011 93 10000 3.6 200 21:35 25.12.2020
4425 Rain 4 1011 93 10000 3.6 200 20:57 25.12.2020
4426 Rain 5 1011 86 10000 4.1 200 20:37 25.12.2020
4427 Rain 5 1010 93 10000 3.1 230 19:49 25.12.2020
4428 Rain 5 1010 93 10000 3.1 230 19:26 25.12.2020
4429 Rain 5 1009 93 10000 3.1 180 18:39 25.12.2020
4430 Rain 5 1009 93 10000 2.6 170 17:53 25.12.2020
4431 Rain 5 1009 93 10000 2.1 210 17:34 25.12.2020
4432 Rain 5 1008 93 10000 4.1 120 16:33 25.12.2020
4433 Rain 5 1009 86 7000 3.6 110 15:59 25.12.2020
4434 Rain 5 1008 86 7000 3.6 60 15:36 25.12.2020
4435 Rain 6 1008 86 6000 4.1 40 14:58 25.12.2020
4436 Rain 6 1008 86 2000 4.1 50 14:30 25.12.2020
4437 Rain 6 1008 87 6000 5.7 20 13:45 25.12.2020
4438 Rain 6 1008 87 5000 6.2 10 13:26 25.12.2020
4439 Rain 6 1008 87 6000 7.2 10 12:46 25.12.2020
4440 Rain 6 1008 87 6000 7.2 10 12:46 25.12.2020
4441 Rain 7 1008 87 6000 7.2 10 12:23 25.12.2020
4442 Rain 7 1008 100 6000 2.1 30 11:44 25.12.2020
4443 Rain 8 1008 93 4000 1.5 70 11:20 25.12.2020
4444 Rain 8 1008 100 2000 1.5 60 10:27 25.12.2020
4445 Clouds 8 1007 87 10000 2.6 330 09:43 25.12.2020
4446 Rain 7 1008 93 10000 1 0 08:48 25.12.2020
4447 Rain 7 1008 93 10000 1 0 08:27 25.12.2020
4448 Rain 8 1007 100 5000 0.5 0 06:48 25.12.2020
4449 Mist 8 1008 100 5000 0.5 270 04:44 25.12.2020
4450 Fog 8 1009 100 3500 2.6 250 01:50 25.12.2020
4451 Clouds 8 1009 93 7000 1.5 230 00:18 25.12.2020
4452 Mist 8 1009 93 5000 2.1 240 23:26 24.12.2020
4453 Mist 8 1010 100 5000 2.1 240 22:51 24.12.2020
4454 Mist 8 1010 100 5000 2.1 240 22:22 24.12.2020
4455 Mist 8 1010 100 5000 1.5 230 21:41 24.12.2020
4456 Mist 8 1010 100 5000 1 0 20:48 24.12.2020
4457 Mist 8 1010 100 5000 1.5 250 19:19 24.12.2020
4458 Mist 9 1010 100 4000 1.5 210 18:20 24.12.2020
4459 Mist 9 1010 100 4000 1 0 17:37 24.12.2020
4460 Mist 9 1011 100 5000 1.5 150 16:49 24.12.2020
4461 Mist 9 1011 100 5000 1.5 140 16:22 24.12.2020
4462 Mist 9 1011 100 5000 1.5 40 15:42 24.12.2020
4463 Clouds 9 1012 100 6000 0.5 0 15:19 24.12.2020
4464 Clouds 9 1012 100 6000 0.5 0 14:50 24.12.2020
4465 Clouds 9 1012 100 6000 0.5 0 14:24 24.12.2020
4466 Mist 9 1013 100 4000 1 140 13:43 24.12.2020
4467 Mist 9 1013 100 3500 0.53 233 13:25 24.12.2020
4468 Mist 9 1014 100 2500 1 190 12:44 24.12.2020
4469 Mist 9 1014 100 2500 0.5 0 12:21 24.12.2020
4470 Mist 9 1015 100 2000 1.5 10 11:47 24.12.2020
4471 Drizzle 8 1015 93 2000 0.5 0 11:21 24.12.2020
4472 Mist 8 1015 93 2000 0.5 0 10:53 24.12.2020
4473 Mist 8 1015 100 2500 2.1 120 10:34 24.12.2020
4474 Drizzle 8 1015 100 2000 1.5 140 09:52 24.12.2020
4475 Drizzle 8 1015 100 2000 2.1 120 09:52 24.12.2020
4476 Drizzle 8 1015 100 2000 2.1 120 09:25 24.12.2020
4477 Rain 8 1015 100 2000 1 130 08:25 24.12.2020
4478 Rain 8 1015 100 1800 1.5 120 07:41 24.12.2020
4479 Rain 8 1016 100 1600 1.5 110 07:18 24.12.2020
4480 Rain 8 1017 100 1200 1 0 05:36 24.12.2020
4481 Mist 8 1020 100 1200 0.5 0 01:57 24.12.2020
4482 Rain 8 1020 100 1200 0.5 0 01:57 24.12.2020
4483 Rain 8 1020 100 1200 0.5 0 01:57 24.12.2020
4484 Mist 8 1021 100 1200 1 190 01:36 24.12.2020
4485 Rain 8 1021 100 1500 1 200 01:18 24.12.2020
4486 Rain 8 1021 100 1500 1 200 01:18 24.12.2020
4487 Drizzle 8 1021 100 1100 0.5 170 00:21 24.12.2020
4488 Rain 9 1021 100 1500 1 170 23:46 23.12.2020
4489 Drizzle 9 1021 100 1500 1 170 23:26 23.12.2020
4490 Drizzle 9 1022 100 2000 0.5 0 22:55 23.12.2020
4491 Mist 9 1022 100 2000 0.5 0 22:30 23.12.2020
4492 Drizzle 9 1022 100 2000 0.5 0 21:52 23.12.2020
4493 Drizzle 9 1022 100 2000 0.5 0 21:27 23.12.2020
4494 Drizzle 9 1022 100 2000 2.1 190 20:54 23.12.2020
4495 Drizzle 9 1022 100 2000 1 0 20:36 23.12.2020
4496 Rain 9 1022 100 2000 0.5 0 20:18 23.12.2020
4497 Drizzle 9 1022 100 2500 1 190 19:39 23.12.2020
4498 Drizzle 9 1022 100 2500 1 200 19:20 23.12.2020
4499 Drizzle 9 1023 100 2000 1.5 230 18:47 23.12.2020
4500 Drizzle 9 1023 100 1500 1 180 18:22 23.12.2020
4501 Mist 9 1023 100 1500 0.5 190 17:39 23.12.2020
4502 Drizzle 9 1023 100 1500 0.5 190 17:39 23.12.2020
4503 Drizzle 9 1023 100 1500 0.5 190 17:39 23.12.2020
4504 Drizzle 9 1023 100 1500 1 180 17:20 23.12.2020
4505 Drizzle 9 1023 100 2000 1 180 16:47 23.12.2020
4506 Drizzle 9 1023 100 2000 1 180 16:29 23.12.2020
4507 Drizzle 9 1023 100 2000 1 180 15:54 23.12.2020
4508 Mist 9 1023 93 1500 1 0 15:29 23.12.2020
4509 Drizzle 9 1023 93 1500 1 0 14:59 23.12.2020
4510 Drizzle 9 1024 100 2000 0.5 0 14:39 23.12.2020
4511 Drizzle 9 1024 100 2000 0.5 0 14:20 23.12.2020
4512 Drizzle 10 1024 93 2000 1.5 130 13:43 23.12.2020
4513 Mist 9 1025 93 2000 1 0 13:19 23.12.2020
4514 Mist 9 1025 93 2000 1 0 13:19 23.12.2020
4515 Drizzle 9 1025 93 2000 1 0 12:51 23.12.2020
4516 Drizzle 9 1025 93 2000 1 0 12:25 23.12.2020
4517 Mist 9 1026 100 2000 0.5 0 11:47 23.12.2020
4518 Drizzle 9 1025 93 2000 1 0 11:19 23.12.2020
4519 Mist 9 1025 93 2000 1 0 10:48 23.12.2020
4520 Drizzle 9 1025 93 2000 1 0 10:30 23.12.2020
4521 Mist 9 1025 93 2000 1 40 09:35 23.12.2020
4522 Mist 8 1025 93 4000 0.5 0 08:49 23.12.2020
4523 Clouds 8 1025 93 7000 0.5 0 08:21 23.12.2020
4524 Clouds 8 1025 93 7000 1 0 07:27 23.12.2020
4525 Clouds 8 1025 93 7000 0.14 159 06:41 23.12.2020
4526 Clouds 8 1025 93 7000 1 0 05:39 23.12.2020
4527 Clouds 8 1025 93 7000 1.5 80 04:58 23.12.2020
4528 Clouds 8 1025 93 7000 1.5 170 00:48 23.12.2020
4529 Clouds 9 1025 93 7000 1 0 00:21 23.12.2020
4530 Clouds 9 1025 93 7000 1 0 00:21 23.12.2020
4531 Clouds 9 1025 93 7000 1 0 00:21 23.12.2020
4532 Clouds 9 1025 93 7000 0.5 0 23:35 22.12.2020
4533 Clouds 9 1025 93 7000 0.5 0 22:58 22.12.2020
4534 Clouds 8 1025 93 7000 0.5 0 22:40 22.12.2020
4535 Clouds 8 1025 93 7000 1 220 22:20 22.12.2020
4536 Clouds 8 1025 93 7000 1 0 21:44 22.12.2020
4537 Clouds 8 1025 93 7000 1.5 210 21:20 22.12.2020
4538 Clouds 8 1025 93 6000 1 0 20:49 22.12.2020
4539 Clouds 8 1025 93 6000 1.5 250 20:22 22.12.2020
4540 Clouds 8 1025 93 6000 1 0 19:46 22.12.2020
4541 Clouds 8 1025 93 6000 1 0 19:25 22.12.2020
4542 Clouds 9 1024 93 7000 1.5 220 18:55 22.12.2020
4543 Clouds 9 1024 93 7000 1.5 220 18:30 22.12.2020
4544 Clouds 9 1024 93 7000 1.5 220 17:59 22.12.2020
4545 Mist 9 1024 93 3000 1.5 240 17:36 22.12.2020
4546 Mist 9 1024 93 5000 1.5 230 17:18 22.12.2020
4547 Clouds 9 1024 87 6000 1.5 210 16:42 22.12.2020
4548 Clouds 10 1024 93 6000 1.5 200 16:19 22.12.2020
4549 Clouds 10 1011 93 6000 1 330 15:43 22.12.2020
4550 Clouds 10 1011 93 6000 1 330 15:24 22.12.2020
4551 Clouds 10 1024 87 8000 1.5 180 14:45 22.12.2020
4552 Clouds 10 1025 87 8000 1.5 230 14:27 22.12.2020
4553 Clouds 10 1025 87 8000 1.5 230 13:53 22.12.2020
4554 Mist 9 1025 93 5000 2.1 230 13:20 22.12.2020
4555 Mist 9 1025 93 5000 2.1 230 12:58 22.12.2020
4556 Mist 9 1025 93 5000 1.5 260 12:39 22.12.2020
4557 Mist 8 1026 93 2500 1.5 250 12:19 22.12.2020
4558 Mist 7 1026 93 2500 1.5 240 11:42 22.12.2020
4559 Mist 8 1026 93 2500 2.1 240 11:22 22.12.2020
4560 Mist 7 1025 93 3000 1.5 240 10:55 22.12.2020
4561 Mist 7 1025 93 3000 1.5 240 10:27 22.12.2020
4562 Mist 7 1025 100 3000 1 0 09:58 22.12.2020
4563 Mist 7 1025 100 3500 1 0 09:30 22.12.2020
4564 Mist 7 1025 100 3500 2.1 290 08:58 22.12.2020
4565 Mist 7 1025 100 3500 1.5 250 08:39 22.12.2020
4566 Mist 7 1025 100 5000 2.1 260 08:19 22.12.2020
4567 Mist 7 1025 100 5000 1.5 260 07:27 22.12.2020
4568 Mist 7 1025 93 5000 2.1 260 06:32 22.12.2020
4569 Mist 8 1025 93 3000 2.6 250 05:30 22.12.2020
4570 Rain 8 1026 100 3000 2.6 240 02:31 22.12.2020
4571 Mist 8 1026 100 3500 1 160 00:26 22.12.2020
4572 Mist 8 1026 100 5000 0.5 180 23:50 21.12.2020
4573 Mist 8 1026 100 5000 0.5 170 23:22 21.12.2020
4574 Mist 8 1026 100 5000 0.5 0 22:37 21.12.2020
4575 Mist 8 1027 100 5000 0.5 0 22:18 21.12.2020
4576 Mist 8 1026 93 5000 0.5 150 21:47 21.12.2020
4577 Mist 8 1026 93 5000 0.5 150 21:28 21.12.2020
4578 Mist 8 1026 93 5000 0.5 0 20:45 21.12.2020
4579 Mist 8 1026 100 3000 0.5 0 20:21 21.12.2020
4580 Mist 8 1026 100 3000 1 0 19:47 21.12.2020
4581 Mist 8 1026 100 3000 1 0 19:47 21.12.2020
4582 Mist 8 1026 93 3000 1 0 19:22 21.12.2020
4583 Mist 8 1026 93 3000 1 0 18:58 21.12.2020
4584 Mist 8 1026 93 3000 1.5 190 18:40 21.12.2020
4585 Mist 8 1026 93 3000 1.5 190 18:40 21.12.2020
4586 Mist 8 1026 93 3000 0.5 0 18:21 21.12.2020
4587 Mist 8 1026 93 2500 1.5 220 17:42 21.12.2020
4588 Mist 8 1026 93 2500 2.1 210 17:23 21.12.2020
4589 Mist 9 1026 93 2500 1.5 250 16:42 21.12.2020
4590 Mist 9 1026 93 2500 2.1 220 16:20 21.12.2020
4591 Rain 9 1026 93 2500 1.5 240 15:42 21.12.2020
4592 Mist 9 1026 93 3000 2.6 250 14:58 21.12.2020
4593 Rain 9 1026 93 3500 2.1 250 14:23 21.12.2020
4594 Rain 9 1026 93 3500 2.1 250 13:55 21.12.2020
4595 Rain 9 1026 93 3500 2.1 230 13:37 21.12.2020
4596 Rain 9 1027 93 3500 2.1 240 13:18 21.12.2020
4597 Rain 9 1027 93 3000 2.1 230 12:42 21.12.2020
4598 Rain 9 1027 93 2500 1.5 250 12:19 21.12.2020
4599 Rain 9 1027 93 2500 1.5 250 11:43 21.12.2020
4600 Mist 9 1027 93 2500 1.5 250 11:22 21.12.2020
4601 Mist 8 1027 93 3000 1 0 10:57 21.12.2020
4602 Mist 8 1027 93 3000 1 0 10:39 21.12.2020
4603 Mist 8 1027 100 3000 1 260 09:55 21.12.2020
4604 Mist 8 1027 100 2500 1 0 09:37 21.12.2020
4605 Mist 8 1026 100 2500 1 0 09:19 21.12.2020
4606 Mist 7 1026 100 3000 1.5 230 08:25 21.12.2020
4607 Mist 7 1026 100 3100 1 0 06:48 21.12.2020
4608 Mist 7 1026 100 3100 1 0 06:48 21.12.2020
4609 Mist 8 1026 100 4100 0.5 0 04:59 21.12.2020
4610 Mist 7 1026 100 3500 1.5 250 04:27 21.12.2020
4611 Drizzle 8 1026 100 2500 1 0 00:36 21.12.2020
4612 Rain 8 1026 100 7000 1.5 240 23:39 20.12.2020
4613 Clouds 8 1026 100 7000 1.5 240 23:20 20.12.2020
4614 Clouds 8 1026 100 8000 1.5 240 22:43 20.12.2020
4615 Clouds 8 1026 100 8000 2.1 250 22:22 20.12.2020
4616 Clouds 8 1026 100 7000 1 0 21:42 20.12.2020
4617 Clouds 8 1026 100 7000 1.5 190 21:22 20.12.2020
4618 Clouds 8 1024 95 10000 0.16 282 20:57 20.12.2020
4619 Clouds 8 1026 100 8000 1 0 20:37 20.12.2020
4620 Clouds 8 1026 100 7000 1.5 250 20:18 20.12.2020
4621 Rain 8 1025 100 6000 1 0 19:41 20.12.2020
4622 Clouds 8 1025 100 6000 1 0 19:20 20.12.2020
4623 Clouds 8 1025 100 5000 0.5 0 18:45 20.12.2020
4624 Clouds 8 1025 100 3000 0.5 260 18:27 20.12.2020
4625 Rain 8 1025 100 3000 0.5 190 17:47 20.12.2020
4626 Rain 8 1025 100 3000 0.5 190 17:28 20.12.2020
4627 Rain 8 1025 100 3000 0.5 0 17:28 20.12.2020
4628 Rain 8 1025 100 2500 0.5 0 16:47 20.12.2020
4629 Rain 8 1025 100 2500 0.5 0 16:28 20.12.2020
4630 Mist 8 1025 100 2500 0.5 0 15:50 20.12.2020
4631 Rain 8 1025 100 2500 1 0 15:26 20.12.2020
4632 Rain 8 1025 100 2500 1 0 14:56 20.12.2020
4633 Mist 8 1025 100 2500 1 0 14:34 20.12.2020
4634 Rain 8 1025 100 2500 1.5 70 13:48 20.12.2020
4635 Rain 8 1025 100 2500 1.5 70 13:29 20.12.2020
4636 Rain 8 1025 93 2000 1.5 60 12:59 20.12.2020
4637 Rain 7 1026 100 2500 1 0 12:39 20.12.2020
4638 Mist 8 1026 100 2000 1.5 50 12:21 20.12.2020
4639 Drizzle 7 1026 100 1600 1.5 70 11:44 20.12.2020
4640 Drizzle 7 1026 100 1600 1.5 70 11:25 20.12.2020
4641 Drizzle 7 1025 100 1200 2.1 70 10:48 20.12.2020
4642 Mist 7 1025 100 1200 2.1 80 10:20 20.12.2020
4643 Drizzle 7 1025 100 1100 2.1 60 09:46 20.12.2020
4644 Drizzle 7 1025 100 1100 2.1 60 09:27 20.12.2020
4645 Drizzle 7 1025 100 1100 1.5 80 08:59 20.12.2020
4646 Drizzle 7 1025 100 1600 1.5 60 08:39 20.12.2020
4647 Rain 7 1025 100 900 1 40 07:28 20.12.2020
4648 Rain 7 1025 100 900 0.5 120 05:52 20.12.2020
4649 Rain 7 1025 100 1700 1.5 250 02:23 20.12.2020
4650 Mist 7 1026 100 1400 0.5 160 00:39 20.12.2020
4651 Clouds 8 1026 93 5000 2.1 220 23:22 19.12.2020
4652 Clouds 8 1026 93 5000 2.1 220 22:57 19.12.2020
4653 Clouds 8 1025 93 7000 1.5 210 22:39 19.12.2020
4654 Rain 8 1025 93 7000 0.5 0 22:19 19.12.2020
4655 Clouds 8 1025 93 8000 1.5 230 21:43 19.12.2020
4656 Clouds 8 1025 93 8000 1.5 230 21:25 19.12.2020
4657 Clouds 8 1025 100 7000 1.5 240 20:46 19.12.2020
4658 Clouds 8 1025 100 7000 1.5 240 20:23 19.12.2020
4659 Clouds 8 1025 100 7000 1.5 240 19:55 19.12.2020
4660 Clouds 8 1025 100 6000 1.5 230 19:36 19.12.2020
4661 Clouds 8 1025 93 6000 1.5 240 19:18 19.12.2020
4662 Mist 8 1025 93 5000 1.5 200 18:31 19.12.2020
4663 Mist 8 1025 93 3000 1.5 250 17:50 19.12.2020
4664 Mist 8 1025 93 3000 1.5 220 17:29 19.12.2020
4665 Mist 9 1025 93 3000 2.6 200 16:56 19.12.2020
4666 Mist 9 1025 93 3000 2.6 200 16:37 19.12.2020
4667 Mist 9 1025 93 3000 2.6 200 16:37 19.12.2020
4668 Mist 9 1025 93 3000 1.5 220 16:19 19.12.2020
4669 Mist 9 1025 87 3000 1.5 220 15:47 19.12.2020
4670 Mist 9 1025 87 3000 1 0 14:52 19.12.2020
4671 Mist 9 1025 87 4000 1.5 260 14:26 19.12.2020
4672 Mist 9 1026 93 2500 2.1 240 13:42 19.12.2020
4673 Mist 9 1026 93 2000 2.1 200 13:21 19.12.2020
4674 Rain 9 1026 93 2000 2.1 200 12:55 19.12.2020
4675 Mist 9 1026 93 2000 1 0 12:37 19.12.2020
4676 Mist 8 1026 100 1500 1.5 190 12:18 19.12.2020
4677 Mist 8 1026 100 1500 1.5 210 11:41 19.12.2020
4678 Mist 8 1026 100 1000 0.5 310 10:48 19.12.2020
4679 Mist 7 1026 100 1000 1.5 240 10:28 19.12.2020
4680 Mist 7 1026 100 1000 1.5 240 09:59 19.12.2020
4681 Mist 7 1026 100 1000 1.5 240 09:59 19.12.2020
4682 Fog 7 1026 100 700 2.6 200 09:39 19.12.2020
4683 Mist 7 1026 100 1100 1 0 08:56 19.12.2020
4684 Mist 7 1026 100 1800 1 260 07:56 19.12.2020
4685 Mist 7 1026 100 1500 0.5 250 07:19 19.12.2020
4686 Rain 7 1026 100 1500 1 0 06:39 19.12.2020
4687 Mist 7 1026 100 1200 0.5 0 05:20 19.12.2020
4688 Rain 6 1026 100 1500 1 210 03:29 19.12.2020
4689 Mist 7 1027 100 2000 1 0 00:41 19.12.2020
4690 Mist 7 1027 100 2000 1 220 00:20 19.12.2020
4691 Mist 7 1027 93 3000 1 180 23:49 18.12.2020
4692 Mist 7 1027 93 3000 1 180 23:25 18.12.2020
4693 Clouds 7 1027 100 5000 1 0 22:49 18.12.2020
4694 Clouds 7 1027 100 5000 1 0 22:24 18.12.2020
4695 Mist 7 1027 93 5000 0.5 0 21:51 18.12.2020
4696 Mist 7 1027 100 5000 0.5 0 21:31 18.12.2020
4697 Mist 7 1027 93 5000 0.5 0 21:31 18.12.2020
4698 Mist 7 1027 93 5000 1.5 250 20:44 18.12.2020
4699 Clouds 7 1027 93 7000 1.5 240 20:23 18.12.2020
4700 Clouds 7 1027 100 7000 1 0 19:47 18.12.2020
4701 Clouds 7 1027 100 7000 1 0 19:22 18.12.2020
4702 Mist 7 1027 93 5000 1 260 18:45 18.12.2020
4703 Mist 7 1027 93 5000 1 260 18:25 18.12.2020
4704 Mist 7 1027 93 3000 1.5 250 17:36 18.12.2020
4705 Mist 7 1027 93 2500 1.5 220 16:59 18.12.2020
4706 Mist 7 1027 100 3000 1 0 16:40 18.12.2020
4707 Mist 7 1027 93 3000 2.1 230 16:20 18.12.2020
4708 Mist 8 1027 93 3500 2.6 250 15:44 18.12.2020
4709 Mist 8 1027 93 3500 2.6 250 15:25 18.12.2020
4710 Mist 9 1028 87 5000 1.5 230 14:55 18.12.2020
4711 Mist 9 1028 93 5000 2.1 230 14:23 18.12.2020
4712 Mist 9 1028 87 5000 2.1 240 13:51 18.12.2020
4713 Mist 9 1028 87 5000 2.1 240 13:31 18.12.2020
4714 Clouds 9 1028 87 6000 2.6 210 12:56 18.12.2020
4715 Mist 8 1029 93 4000 1.5 240 12:30 18.12.2020
4716 Mist 8 1029 100 3000 1 0 11:27 18.12.2020
4717 Mist 7 1029 100 2500 1 0 10:40 18.12.2020
4718 Mist 7 1029 100 2500 1 220 10:21 18.12.2020
4719 Mist 7 1029 100 2500 1 220 09:55 18.12.2020
4720 Mist 7 1029 100 2000 1.5 250 09:36 18.12.2020
4721 Fog 6 1028 100 700 2.1 210 09:18 18.12.2020
4722 Fog 7 1028 100 400 1 0 08:42 18.12.2020
4723 Fog 6 1028 100 1000 0.5 0 07:52 18.12.2020
4724 Fog 7 1028 100 400 0.5 160 07:19 18.12.2020
4725 Fog 7 1028 100 200 0.5 0 06:58 18.12.2020
4726 Fog 7 1028 100 200 0.83 343 05:44 18.12.2020
4727 Fog 7 1028 100 200 0.67 339 04:51 18.12.2020
4728 Fog 7 1028 100 1000 1 30 02:49 18.12.2020
4729 Fog 7 1027 100 1000 0.5 0 01:43 18.12.2020
4730 Mist 7 1027 100 2000 0.5 60 00:28 18.12.2020
4731 Fog 7 1027 100 2000 0.5 40 23:51 17.12.2020
4732 Fog 7 1027 100 2500 0.5 0 23:20 17.12.2020
4733 Fog 7 1027 100 3000 1 40 22:47 17.12.2020
4734 Fog 7 1027 100 3000 0.5 10 22:27 17.12.2020
4735 Fog 7 1027 100 3000 1 20 21:44 17.12.2020
4736 Fog 7 1027 100 3000 1 20 21:44 17.12.2020
4737 Fog 7 1027 100 3000 1 20 21:44 17.12.2020
4738 Fog 7 1027 100 3000 1 20 21:44 17.12.2020
4739 Fog 7 1027 100 3000 1 20 21:21 17.12.2020
4740 Fog 7 1027 100 3000 1 20 20:45 17.12.2020
4741 Mist 7 1026 100 4000 1 30 20:19 17.12.2020
4742 Clouds 8 1026 93 6000 1 50 19:50 17.12.2020
4743 Clouds 8 1026 93 6000 1 50 19:25 17.12.2020
4744 Clouds 8 1026 100 6000 1.5 70 18:56 17.12.2020
4745 Clouds 8 1026 100 6000 1.5 70 18:37 17.12.2020
4746 Clouds 8 1026 87 6000 1.5 110 18:18 17.12.2020
4747 Clouds 8 1026 87 6000 1.5 120 17:44 17.12.2020
4748 Clouds 8 1025 87 6000 1.5 140 17:25 17.12.2020
4749 Clouds 9 1025 87 6000 1.5 140 16:39 17.12.2020
4750 Clouds 9 1025 93 6000 1 0 16:19 17.12.2020
4751 Clouds 9 1025 93 6000 1 0 15:44 17.12.2020
4752 Mist 9 1025 93 5000 1.5 110 15:26 17.12.2020
4753 Mist 9 1025 93 5000 1.5 110 14:48 17.12.2020
4754 Mist 9 1026 93 5000 1 0 14:20 17.12.2020
4755 Clouds 9 1026 93 6000 0.5 0 13:48 17.12.2020
4756 Mist 9 1026 87 3000 0.5 0 13:20 17.12.2020
4757 Mist 8 1026 93 3000 0.5 0 12:40 17.12.2020
4758 Mist 8 1026 93 3000 0.5 0 12:21 17.12.2020
4759 Mist 9 1026 93 3500 0.5 170 11:42 17.12.2020
4760 Mist 9 1026 93 3500 0.5 170 11:21 17.12.2020
4761 Mist 9 1026 93 3000 1 0 10:40 17.12.2020
4762 Mist 7 1025 100 3500 1 0 09:37 17.12.2020
4763 Mist 7 1025 100 3500 1 0 08:50 17.12.2020
4764 Mist 7 1025 100 4400 0.5 0 07:42 17.12.2020
4765 Mist 7 1024 93 3900 1 0 07:21 17.12.2020
4766 Mist 7 1025 100 5000 1 0 06:47 17.12.2020
4767 Mist 7 1025 100 5000 1 0 06:29 17.12.2020
4768 Clouds 7 1025 100 9000 1.5 260 03:30 17.12.2020
4769 Mist 7 1025 100 4000 2.1 260 00:27 17.12.2020
4770 Mist 7 1025 93 5000 1 0 23:40 16.12.2020
4771 Mist 7 1024 100 5000 0.5 0 23:18 16.12.2020
4772 Mist 7 1024 93 5000 1 0 22:48 16.12.2020
4773 Rain 7 1024 93 5000 0.5 0 22:28 16.12.2020
4774 Mist 7 1024 93 5000 1 250 21:42 16.12.2020
4775 Mist 7 1024 93 5000 1 0 21:23 16.12.2020
4776 Mist 8 1024 93 5000 1.5 260 20:52 16.12.2020
4777 Mist 8 1024 93 5000 1.5 250 20:20 16.12.2020
4778 Mist 8 1024 93 5000 1 230 19:38 16.12.2020
4779 Mist 8 1024 93 5000 1.5 240 19:18 16.12.2020
4780 Mist 8 1024 93 5000 1.5 260 18:47 16.12.2020
4781 Mist 8 1024 93 5000 1.5 260 18:25 16.12.2020
4782 Mist 8 1023 93 4000 1 0 17:36 16.12.2020
4783 Mist 8 1023 93 5000 1.5 230 16:46 16.12.2020
4784 Mist 8 1023 93 5000 2.6 220 16:28 16.12.2020
4785 Mist 8 1023 93 5000 2.6 250 15:57 16.12.2020
4786 Mist 8 1023 93 5000 2.6 250 15:37 16.12.2020
4787 Mist 9 1023 87 5000 2.1 240 15:18 16.12.2020
4788 Mist 9 1023 87 5000 1.5 260 14:41 16.12.2020
4789 Mist 9 1023 87 5000 1.5 260 14:22 16.12.2020
4790 Mist 9 1023 93 3500 1.5 220 13:40 16.12.2020
4791 Rain 8 1024 93 3500 1 0 13:20 16.12.2020
4792 Rain 8 1024 93 3000 1 0 12:43 16.12.2020
4793 Mist 7 1024 93 3000 2.6 280 11:49 16.12.2020
4794 Mist 7 1024 93 2800 2.1 250 11:27 16.12.2020
4795 Mist 7 1024 93 2800 2.1 250 10:54 16.12.2020
4796 Mist 7 1024 100 2800 1.5 240 10:28 16.12.2020
4797 Mist 6 1024 100 2800 1 0 09:54 16.12.2020
4798 Mist 6 1023 100 2000 1 0 09:24 16.12.2020
4799 Drizzle 6 1023 100 10000 3.1 0 08:22 16.12.2020
4800 Rain 6 1022 100 10000 2.1 350 07:42 16.12.2020
4801 Rain 6 1022 100 10000 2.1 350 07:20 16.12.2020
4802 Clouds 6 1022 87 10000 3.1 220 03:35 16.12.2020
4803 Clouds 6 1021 93 10000 0.5 0 01:34 16.12.2020
4804 Clouds 6 1021 93 8000 1 0 23:46 15.12.2020
4805 Clouds 6 1021 93 8000 1 260 22:59 15.12.2020
4806 Clouds 6 1021 93 10000 1 220 22:38 15.12.2020
4807 Clouds 6 1021 87 8000 1.5 220 22:19 15.12.2020
4808 Clouds 6 1021 100 10000 1 0 21:43 15.12.2020
4809 Clouds 6 1021 87 10000 1 0 21:21 15.12.2020
4810 Clouds 7 1021 93 10000 1.5 250 20:45 15.12.2020
4811 Rain 6 1021 100 10000 1 0 20:26 15.12.2020
4812 Drizzle 6 1021 100 10000 1 0 19:53 15.12.2020
4813 Rain 7 1020 93 10000 2.1 260 19:30 15.12.2020
4814 Rain 7 1020 93 10000 1.5 240 18:39 15.12.2020
4815 Rain 7 1020 93 10000 2.1 250 18:21 15.12.2020
4816 Rain 7 1020 87 7000 2.1 240 17:46 15.12.2020
4817 Clouds 7 1020 87 7000 2.1 240 17:28 15.12.2020
4818 Clouds 7 1020 87 6000 1.5 220 16:58 15.12.2020
4819 Rain 7 1020 93 6000 1.5 230 16:31 15.12.2020
4820 Clouds 7 1020 87 6000 1.5 240 15:44 15.12.2020
4821 Clouds 7 1020 87 6000 1.5 240 15:25 15.12.2020
4822 Clouds 7 1020 87 7000 1.5 240 14:43 15.12.2020
4823 Clouds 7 1020 87 7000 1.5 220 14:20 15.12.2020
4824 Clouds 7 1020 87 7000 1.5 250 13:51 15.12.2020
4825 Clouds 7 1020 87 7000 1.5 250 13:26 15.12.2020
4826 Clouds 6 1020 93 7000 1.5 250 12:46 15.12.2020
4827 Clouds 6 1020 93 7000 1.5 250 12:20 15.12.2020
4828 Clouds 6 1021 93 6000 1.5 220 11:52 15.12.2020
4829 Rain 5 1021 100 5000 1.5 210 11:25 15.12.2020
4830 Rain 5 1020 100 3000 1.5 250 10:52 15.12.2020
4831 Mist 5 1020 100 3000 1.5 250 10:21 15.12.2020
4832 Rain 5 1020 100 3000 0.5 0 09:45 15.12.2020
4833 Mist 4 1020 100 2500 1 0 09:27 15.12.2020
4834 Fog 4 1019 100 2000 1 0 08:47 15.12.2020
4835 Fog 3 1019 100 1500 0.5 190 08:24 15.12.2020
4836 Fog 3 1019 100 1500 0.5 190 07:49 15.12.2020
4837 Fog 4 1019 100 600 0.5 0 07:23 15.12.2020
4838 Fog 4 1019 100 400 1 0 06:26 15.12.2020
4839 Fog 4 1020 100 900 0.5 0 01:27 15.12.2020
4840 Mist 4 1020 100 1100 0.5 0 00:34 15.12.2020
4841 Fog 2 1020 69 1200 0.5 0 23:23 14.12.2020
4842 Fog 4 1020 69 100 0.5 0 22:47 14.12.2020
4843 Fog 4 1020 69 100 0.5 0 22:26 14.12.2020
4844 Fog 4 1019 100 200 0.5 0 21:42 14.12.2020
4845 Fog 4 1019 100 100 1 0 21:20 14.12.2020
4846 Fog 4 1019 100 100 0.5 130 20:48 14.12.2020
4847 Fog 4 1019 100 100 0.5 0 20:28 14.12.2020
4848 Fog 5 1019 100 100 1 180 19:49 14.12.2020
4849 Fog 4 1019 100 100 1 180 19:28 14.12.2020
4850 Fog 5 1019 100 100 0.5 0 18:44 14.12.2020
4851 Mist 5 1019 100 1500 0.5 260 18:24 14.12.2020
4852 Mist 5 1019 100 3000 1.5 180 17:45 14.12.2020
4853 Clouds 6 1019 93 7000 1 180 17:22 14.12.2020
4854 Clouds 5 1019 93 7000 1 180 16:49 14.12.2020
4855 Clouds 6 1019 93 8000 1 0 16:27 14.12.2020
4856 Clouds 8 1019 100 7000 2.1 260 15:33 14.12.2020
4857 Clouds 8 1019 100 8000 1.5 280 14:52 14.12.2020
4858 Mist 8 1019 100 5000 2.1 280 14:34 14.12.2020
4859 Mist 8 1019 100 3500 1 0 13:58 14.12.2020
4860 Fog 7 1019 100 1200 1 0 13:37 14.12.2020
4861 Fog 6 1019 100 200 0.5 0 12:58 14.12.2020
4862 Fog 5 1020 100 600 1.5 270 12:40 14.12.2020
4863 Fog 5 1020 100 300 0.5 0 12:20 14.12.2020
4864 Fog 4 1020 100 300 0.5 0 11:30 14.12.2020
4865 Fog 3 1019 67 600 1 250 10:29 14.12.2020
4866 Fog 2 1019 67 500 1 160 09:53 14.12.2020
4867 Fog 2 1019 100 600 1 260 09:25 14.12.2020
4868 Fog 2 1018 100 700 1.5 260 08:45 14.12.2020
4869 Fog 2 1018 100 700 1.5 260 08:26 14.12.2020
4870 Fog 2 1017 100 300 1 290 07:26 14.12.2020
4871 Fog 2 1017 100 200 0.5 0 06:44 14.12.2020
4872 Fog 2 1017 72 1500 1.5 260 04:27 14.12.2020
4873 Fog 3 1016 70 500 0.5 0 02:25 14.12.2020
4874 Fog 3 1016 69 50 0.5 0 00:52 14.12.2020
4875 Fog 3 1015 68 50 0.5 0 00:30 14.12.2020
4876 Fog 3 1015 100 50 1 320 23:46 13.12.2020
4877 Fog 3 1015 100 50 1 320 23:20 13.12.2020
4878 Fog 4 1014 100 50 1 0 22:43 13.12.2020
4879 Fog 3 1014 100 50 0.5 0 22:18 13.12.2020
4880 Fog 4 1014 100 50 0.5 0 21:42 13.12.2020
4881 Fog 4 1014 100 100 1 180 21:19 13.12.2020
4882 Fog 5 1013 100 100 1 150 20:33 13.12.2020
4883 Fog 4 1013 100 800 0.5 0 19:50 13.12.2020
4884 Fog 4 1013 100 800 0.5 0 19:27 13.12.2020
4885 Fog 4 1013 100 800 0.5 0 18:57 13.12.2020
4886 Fog 4 1012 100 2000 0.5 0 18:39 13.12.2020
4887 Fog 4 1012 100 200 1 0 18:19 13.12.2020
4888 Mist 5 1012 93 5000 1 0 17:45 13.12.2020
4889 Mist 6 1012 87 5000 1 250 17:18 13.12.2020
4890 Mist 6 1012 87 5000 1.5 200 16:53 13.12.2020
4891 Mist 7 1012 87 5000 1.5 200 16:34 13.12.2020
4892 Clear 7 1011 93 6000 1.5 220 15:48 13.12.2020
4893 Clear 8 1011 93 6000 1.5 220 15:27 13.12.2020
4894 Clear 7 1011 100 6000 1.5 200 14:50 13.12.2020
4895 Clear 7 1011 100 6000 1.5 200 14:29 13.12.2020
4896 Mist 7 1011 100 5000 1 0 13:58 13.12.2020
4897 Mist 7 1011 100 2000 1.5 250 13:36 13.12.2020
4898 Mist 6 1011 100 1200 1 0 13:18 13.12.2020
4899 Mist 6 1011 100 1200 1 0 13:18 13.12.2020
4900 Fog 5 1012 100 500 1 0 12:36 13.12.2020
4901 Fog 4 1012 100 150 0.5 0 12:18 13.12.2020
4902 Fog 3 1011 100 100 0.5 0 11:34 13.12.2020
4903 Fog 3 1011 100 100 1 280 10:46 13.12.2020
4904 Fog 3 1010 100 100 1 0 10:24 13.12.2020
4905 Fog 2 1010 67 100 1 0 09:51 13.12.2020
4906 Fog 2 1009 100 200 2.1 260 08:53 13.12.2020
4907 Fog 2 1009 100 200 2.1 260 08:31 13.12.2020
4908 Fog 3 1009 100 100 1 0 07:26 13.12.2020
4909 Fog 3 1007 100 100 1.5 220 03:26 13.12.2020
4910 Fog 3 1007 100 250 1.5 220 02:32 13.12.2020
4911 Fog 4 1007 100 200 2.1 220 01:37 13.12.2020
4912 Fog 3 1006 100 100 1.5 260 00:46 13.12.2020
4913 Fog 3 1006 100 300 1 0 23:45 12.12.2020
4914 Fog 3 1006 100 300 1 0 23:27 12.12.2020
4915 Fog 4 1006 100 2000 1 0 22:37 12.12.2020
4916 Mist 4 1005 100 5000 1 0 21:47 12.12.2020
4917 Mist 4 1005 100 5000 1 0 21:23 12.12.2020
4918 Clouds 4 1005 100 8000 0.5 0 20:46 12.12.2020
4919 Clouds 5 1005 100 8000 0.5 0 20:21 12.12.2020
4920 Clouds 5 1005 100 8000 1.5 250 19:54 12.12.2020
4921 Clouds 5 1004 93 8000 1 250 19:34 12.12.2020
4922 Clouds 5 1004 93 8000 1.5 260 18:58 12.12.2020
4923 Clouds 5 1004 93 6000 1.5 250 18:38 12.12.2020
4924 Clouds 6 1004 93 6000 1.5 250 18:38 12.12.2020
4925 Clouds 6 1003 93 6000 2.1 250 18:20 12.12.2020
4926 Clouds 6 1003 87 6000 1.5 260 17:41 12.12.2020
4927 Clouds 6 1002 87 6000 1.5 240 16:52 12.12.2020
4928 Clouds 7 1002 87 6000 2.1 250 15:58 12.12.2020
4929 Clouds 7 1002 87 6000 1.5 250 15:40 12.12.2020
4930 Clouds 7 1002 87 6000 2.1 260 14:54 12.12.2020
4931 Mist 7 1002 93 5000 2.1 260 14:35 12.12.2020
4932 Mist 7 1002 93 5000 1.5 220 13:46 12.12.2020
4933 Mist 6 1002 93 5000 1.5 220 13:26 12.12.2020
4934 Mist 6 1002 93 3500 0.5 0 12:37 12.12.2020
4935 Mist 6 1002 93 3500 1 230 11:28 12.12.2020
4936 Mist 5 1001 100 3500 1 260 10:46 12.12.2020
4937 Mist 5 1001 100 2500 1 0 09:24 12.12.2020
4938 Drizzle 5 1001 100 2500 1.5 250 08:41 12.12.2020
4939 Drizzle 4 1002 100 2000 1 0 01:56 12.12.2020
4940 Fog 5 1003 100 1200 2.1 210 23:31 11.12.2020
4941 Drizzle 5 1003 100 3000 1.5 190 21:32 11.12.2020
4942 Mist 5 1003 100 4000 0.5 0 19:46 11.12.2020
4943 Mist 5 1004 100 4000 1 0 17:30 11.12.2020
4944 Mist 6 1005 100 2000 1 0 14:38 11.12.2020
4945 Mist 5 1006 100 1000 1 0 13:46 11.12.2020
4946 Fog 5 1006 100 300 0.5 0 12:28 11.12.2020
4947 Fog 5 1006 100 100 1 0 11:55 11.12.2020
4948 Fog 4 1007 100 100 1 0 11:37 11.12.2020
4949 Fog 4 1007 100 100 1 0 10:40 11.12.2020
4950 Fog 3 1007 100 100 1 0 07:51 11.12.2020
4951 Fog 3 1007 100 200 0.5 0 05:36 11.12.2020
4952 Fog 3 1007 100 200 1 180 04:47 11.12.2020
4953 Fog 4 1008 100 200 1 0 00:54 11.12.2020
4954 Fog 4 1007 100 300 1.5 250 23:31 10.12.2020
4955 Fog 4 1007 100 300 1 310 21:55 10.12.2020
4956 Fog 4 1007 100 2500 1 0 21:28 10.12.2020
4957 Fog 5 1006 100 3000 1 20 20:36 10.12.2020
4958 Fog 5 1006 100 5000 0.5 210 19:31 10.12.2020
4959 Clouds 6 1005 100 8000 1 260 18:49 10.12.2020
4960 Clear 6 1004 93 10000 1.5 250 17:35 10.12.2020
4961 Clear 8 1004 87 10000 1 170 15:59 10.12.2020
4962 Clouds 8 1004 81 10000 0.5 0 15:22 10.12.2020
4963 Clouds 8 1004 81 10000 1.5 200 14:46 10.12.2020
4964 Clouds 8 1004 93 10000 1.5 220 13:51 10.12.2020
4965 Clouds 7 1005 93 10000 1.5 220 12:23 10.12.2020
4966 Clouds 6 1005 93 10000 1 0 10:54 10.12.2020
4967 Clouds 5 1004 100 10000 0.5 180 08:42 10.12.2020
4968 Clouds 6 1004 100 10000 0.5 0 07:31 10.12.2020
4969 Clouds 6 1004 100 10000 0.5 0 06:20 10.12.2020
4970 Rain 6 1005 100 10000 0.5 290 02:43 10.12.2020
4971 Rain 6 1005 100 10000 1.5 360 01:33 10.12.2020
4972 Rain 6 1005 93 8000 1.5 360 23:44 09.12.2020
4973 Rain 6 1004 100 5000 2.6 360 20:39 09.12.2020
4974 Rain 6 1004 100 5000 1 20 19:46 09.12.2020
4975 Mist 6 1003 100 5000 1.5 140 18:39 09.12.2020
4976 Rain 6 1002 93 3500 1.5 160 17:29 09.12.2020
4977 Rain 7 1001 93 6000 1 180 16:40 09.12.2020
4978 Rain 6 1001 93 6000 0.5 0 16:20 09.12.2020
4979 Rain 6 1001 93 5000 1.5 170 14:51 09.12.2020
4980 Rain 6 1001 100 3500 2.6 230 14:26 09.12.2020
4981 Rain 6 1002 100 3500 1 0 13:36 09.12.2020
4982 Rain 5 1002 93 3500 1 0 13:18 09.12.2020
4983 Rain 6 1002 93 3500 0.5 0 12:24 09.12.2020
4984 Rain 5 1001 93 4000 2.6 220 11:34 09.12.2020
4985 Rain 5 1000 93 5000 2.6 230 09:51 09.12.2020
4986 Rain 5 1000 100 8000 2.6 230 08:36 09.12.2020
4987 Rain 5 999 100 10000 2.1 230 06:43 09.12.2020
4988 Clouds 5 1000 100 10000 2.1 290 05:28 09.12.2020
4989 Rain 5 1001 100 6000 1.5 260 02:40 09.12.2020
4990 Clouds 6 1001 100 8000 0.5 250 00:34 09.12.2020
4991 Rain 5 1001 100 8000 0.5 0 23:33 08.12.2020
4992 Rain 5 1001 100 8000 0.5 0 21:56 08.12.2020
4993 Rain 5 1001 100 10000 1.5 300 20:24 08.12.2020
4994 Rain 6 1000 100 10000 1.5 260 19:29 08.12.2020
4995 Rain 6 1000 100 10000 2.1 270 18:34 08.12.2020
4996 Rain 6 1000 93 5000 0.5 340 16:28 08.12.2020
4997 Rain 6 1000 93 8000 1.5 320 14:46 08.12.2020
4998 Rain 6 1001 85 7495 2.44 332 13:44 08.12.2020
4999 Drizzle 6 1001 93 8000 2.1 310 12:37 08.12.2020
5000 Rain 6 1002 93 9000 1.5 310 11:52 08.12.2020
5001 Rain 5 1002 100 10000 2.1 340 10:54 08.12.2020
5002 Rain 5 1002 100 10000 2.6 340 10:34 08.12.2020
5003 Rain 4 1003 100 10000 2.1 350 09:35 08.12.2020
5004 Rain 4 1003 93 9000 1 0 07:35 08.12.2020
5005 Rain 5 1005 100 6000 1.5 120 04:42 08.12.2020
5006 Rain 5 1005 93 9000 2.1 100 01:48 08.12.2020
5007 Rain 4 1006 100 10000 1 0 00:44 08.12.2020
5008 Clouds 4 1006 100 10000 1 0 22:56 07.12.2020
5009 Clouds 4 1006 100 9000 1 270 22:18 07.12.2020
5010 Clouds 5 1005 100 10000 1.5 250 20:47 07.12.2020
5011 Clouds 5 1005 93 10000 1.5 260 18:58 07.12.2020
5012 Clouds 6 1004 93 9000 1 240 17:31 07.12.2020
5013 Clouds 5 1004 87 9000 1 200 16:59 07.12.2020
5014 Clouds 6 1003 87 9000 1.5 160 16:19 07.12.2020
5015 Clouds 6 1003 87 7000 1.5 170 15:24 07.12.2020
5016 Mist 6 1003 93 4000 2.1 200 14:26 07.12.2020
5017 Mist 5 1003 93 4000 2.1 210 13:34 07.12.2020
5018 Mist 5 1002 93 3500 4.6 90 11:46 07.12.2020
5019 Mist 5 1002 100 3000 3.6 120 11:27 07.12.2020
5020 Rain 4 1002 100 3500 2.6 170 10:20 07.12.2020
5021 Mist 4 1000 100 3500 4.6 140 08:30 07.12.2020
5022 Mist 4 999 100 1200 2.6 100 06:45 07.12.2020
5023 Rain 4 999 100 1200 2.1 120 05:21 07.12.2020
5024 Fog 4 998 100 600 1.5 70 01:57 07.12.2020
5025 Mist 4 998 100 5000 2.6 20 00:30 07.12.2020
5026 Mist 4 997 100 5000 1.5 250 22:33 06.12.2020
5027 Mist 4 997 100 5000 1 0 21:32 06.12.2020
5028 Mist 4 997 100 5000 1.5 280 20:34 06.12.2020
5029 Mist 4 997 100 5000 1 0 19:57 06.12.2020
5030 Mist 4 996 100 5000 2.6 250 18:41 06.12.2020
5031 Rain 4 996 100 3000 2.1 250 17:20 06.12.2020
5032 Rain 4 996 100 2000 2.1 260 15:37 06.12.2020
5033 Rain 4 998 100 2000 1.5 230 13:56 06.12.2020
5034 Rain 4 998 100 3500 2.6 260 12:52 06.12.2020
5035 Rain 4 999 100 3500 3.1 240 12:18 06.12.2020
5036 Rain 4 999 100 5000 2.6 250 11:34 06.12.2020
5037 Rain 4 999 100 5000 2.6 260 10:51 06.12.2020
5038 Mist 4 999 93 5000 3.1 250 09:59 06.12.2020
5039 Mist 3 999 100 5000 1.5 300 08:30 06.12.2020
5040 Mist 3 1000 100 3000 0.5 0 06:47 06.12.2020
5041 Mist 2 999 100 3000 1 0 01:47 06.12.2020
5042 Rain 3 999 100 6000 2.1 240 00:41 06.12.2020
5043 Rain 3 999 100 6000 2.6 240 00:23 06.12.2020
5044 Rain 3 999 100 6000 2.1 250 22:46 05.12.2020
5045 Rain 3 999 100 6000 3.1 250 22:20 05.12.2020
5046 Rain 3 999 100 5000 3.6 260 21:48 05.12.2020
5047 Rain 3 999 100 5000 3.6 260 21:25 05.12.2020
5048 Rain 3 999 100 5000 2.6 240 19:21 05.12.2020
5049 Rain 3 999 100 5000 2.6 240 18:40 05.12.2020
5050 Rain 4 999 93 4000 1 0 17:29 05.12.2020
5051 Rain 4 1000 100 4000 3.1 270 16:30 05.12.2020
5052 Rain 3 1000 100 2000 2.1 220 15:47 05.12.2020
5053 Rain 4 999 93 3000 2.1 250 14:27 05.12.2020
5054 Rain 4 999 93 3000 2.1 250 14:27 05.12.2020
5055 Rain 3 1001 93 6000 2.1 240 12:20 05.12.2020
5056 Mist 3 1001 93 5000 2.1 240 11:40 05.12.2020
5057 Rain 3 1001 100 3000 2.1 200 10:31 05.12.2020
5058 Rain 3 999 100 10000 1 0 07:48 05.12.2020
5059 Rain 3 998 100 10000 1 0 06:28 05.12.2020
5060 Snow 2 998 100 10000 2.1 260 03:44 05.12.2020
5061 Clouds 2 995 93 10000 4.1 250 23:50 04.12.2020
5062 Rain 2 994 100 6000 1 0 22:24 04.12.2020
5063 Rain 3 995 100 6000 2.1 240 20:24 04.12.2020
5064 Rain 3 996 100 8000 2.1 230 18:53 04.12.2020
5065 Rain 3 995 100 4000 2.1 180 18:18 04.12.2020
5066 Mist 4 996 93 4000 2.1 220 17:26 04.12.2020
5067 Rain 5 996 93 4000 4.1 170 15:37 04.12.2020
5068 Rain 5 996 93 3000 5.1 120 13:40 04.12.2020
5069 Rain 4 996 93 3000 5.1 120 13:21 04.12.2020
5070 Rain 4 998 100 2000 4.6 140 12:49 04.12.2020
5071 Rain 3 999 100 2500 7.2 120 10:39 04.12.2020
5072 Rain 3 1000 100 3000 7.2 110 09:41 04.12.2020
5073 Rain 2 1001 100 5000 3.1 100 06:41 04.12.2020
5074 Rain 2 1002 100 5000 2.6 120 05:40 04.12.2020
5075 Rain 2 1005 100 2500 0.5 0 01:54 04.12.2020
5076 Fog 2 1006 100 500 2.6 130 22:52 03.12.2020
5077 Fog 2 1006 100 500 1.5 90 22:18 03.12.2020
5078 Fog 2 1007 100 800 2.1 80 20:47 03.12.2020
5079 Mist 2 1007 100 1100 1.5 130 19:26 03.12.2020
5080 Mist 2 1007 100 1100 2.1 80 18:49 03.12.2020
5081 Mist 3 1007 100 1600 1 0 17:22 03.12.2020
5082 Mist 3 1006 100 1600 1.5 160 16:59 03.12.2020
5083 Mist 3 1007 100 2500 1.5 20 15:39 03.12.2020
5084 Mist 3 1007 100 2500 1.5 20 15:21 03.12.2020
5085 Fog 2 1007 100 1200 1.5 40 14:25 03.12.2020
5086 Fog 2 1008 100 1200 1.5 110 13:24 03.12.2020
5087 Fog 2 1008 100 600 1.5 0 12:26 03.12.2020
5088 Fog 2 1009 100 400 1 0 11:23 03.12.2020
5089 Fog 2 1008 100 2000 0.5 0 08:49 03.12.2020
5090 Mist 2 1008 100 2000 2.1 250 04:44 03.12.2020
5091 Clouds 2 1009 93 10000 1 0 02:22 03.12.2020
5092 Clouds 2 1010 93 10000 2.6 250 00:42 03.12.2020
5093 Clouds 2 1011 100 10000 2.6 250 22:47 02.12.2020
5094 Clouds 2 1011 93 10000 1.5 220 21:58 02.12.2020
5095 Clouds 2 1011 100 8000 1 260 20:52 02.12.2020
5096 Clouds 2 1011 100 8000 1 260 20:34 02.12.2020
5097 Clouds 2 1011 93 8000 1.5 250 19:58 02.12.2020
5098 Clouds 1 1011 100 7000 1.5 360 17:54 02.12.2020
5099 Rain 1 1011 100 7000 1.5 360 17:35 02.12.2020
5100 Rain 1 1012 100 5000 1 0 16:59 02.12.2020
5101 Snow 2 1011 100 1500 1 0 14:47 02.12.2020
5102 Snow 1 1012 100 1000 0.5 0 11:34 02.12.2020
5103 Snow 1 1012 100 1500 1.5 210 10:28 02.12.2020
5104 Snow 2 1011 100 1500 0.5 0 08:29 02.12.2020
5105 Rain 3 1013 86 10000 1.5 170 01:39 02.12.2020
5106 Rain 4 1013 86 10000 1 290 22:21 01.12.2020
5107 Rain 4 1014 93 10000 1 0 20:46 01.12.2020
5108 Clouds 4 1014 80 10000 1 0 19:34 01.12.2020
5109 Rain 5 1014 75 8000 2.1 70 17:34 01.12.2020
5110 Rain 5 1014 75 8000 2.6 90 15:40 01.12.2020
5111 Clouds 5 1015 80 9000 3.1 90 13:37 01.12.2020
5112 Clouds 6 1016 75 10000 2.6 120 11:44 01.12.2020
5113 Clouds 6 1016 75 10000 2.6 120 11:26 01.12.2020
5114 Clouds 6 1017 75 10000 2.6 140 10:37 01.12.2020
5115 Clouds 6 1024 68 10000 0.5 0 08:21 01.12.2020
5116 Clouds 6 1024 69 10000 1 0 06:47 01.12.2020
5117 Clouds 6 1024 67 10000 0.5 0 01:51 01.12.2020
5118 Clouds 6 1024 67 10000 0.5 0 00:52 01.12.2020
5119 Clouds 7 1024 71 10000 1 20 23:21 30.11.2020
5120 Clouds 7 1024 71 10000 0.5 0 22:43 30.11.2020
5121 Clouds 7 1024 71 10000 0.5 0 22:25 30.11.2020
5122 Clouds 7 1024 71 10000 1 30 20:47 30.11.2020
5123 Clouds 7 1024 69 10000 1.5 60 19:42 30.11.2020
5124 Clouds 7 1024 69 10000 1.5 60 19:42 30.11.2020
5125 Clouds 7 1024 70 10000 2.1 50 18:22 30.11.2020
5126 Clouds 7 1024 70 10000 2.6 40 17:46 30.11.2020
5127 Clouds 7 1024 67 10000 2.1 70 16:54 30.11.2020
5128 Clouds 7 1024 63 10000 2.6 60 15:45 30.11.2020
5129 Clouds 8 1024 59 10000 2.6 80 14:21 30.11.2020
5130 Clouds 7 1024 59 10000 2.6 100 13:41 30.11.2020
5131 Clouds 7 1025 70 10000 3.1 120 12:26 30.11.2020
5132 Clouds 6 1025 70 10000 3.1 120 11:56 30.11.2020
5133 Clear 5 1024 80 10000 2.1 80 10:25 30.11.2020
5134 Clear 5 1023 93 8000 2.1 40 09:33 30.11.2020
5135 Fog 4 1021 100 50 0.5 30 01:29 30.11.2020
5136 Fog 5 1020 100 1500 0.5 360 23:28 29.11.2020
5137 Fog 6 1019 100 5000 1.5 360 21:45 29.11.2020
5138 Fog 6 1019 100 5000 1.5 360 21:26 29.11.2020
5139 Fog 8 1018 100 10000 0.5 0 19:20 29.11.2020
5140 Mist 9 1017 87 4000 0.5 70 17:34 29.11.2020
5141 Mist 10 1017 81 4000 0.5 0 14:46 29.11.2020
5142 Mist 9 1018 87 3000 0.5 0 12:45 29.11.2020
5143 Mist 8 1018 87 3500 1.5 150 11:37 29.11.2020
5144 Mist 7 1017 93 3000 0.5 0 08:54 29.11.2020
5145 Mist 7 1017 93 3000 1.5 260 08:34 29.11.2020
5146 Clouds 7 1017 81 8000 2.1 0 02:31 29.11.2020
5147 Clouds 7 1018 87 8000 0.5 0 22:59 28.11.2020
5148 Clouds 7 1018 81 8000 0.5 0 22:26 28.11.2020
5149 Clouds 7 1018 81 8000 1 40 19:59 28.11.2020
5150 Clouds 7 1017 87 8000 1 360 19:28 28.11.2020
5151 Clouds 7 1017 87 8000 1 340 18:57 28.11.2020
5152 Mist 7 1017 81 4000 0.5 0 18:20 28.11.2020
5153 Mist 7 1017 81 3000 0.5 180 16:57 28.11.2020
5154 Mist 8 1017 81 5000 2.1 200 14:59 28.11.2020
5155 Mist 8 1018 76 5000 1 0 13:54 28.11.2020
5156 Mist 7 1020 100 2500 0.5 0 11:27 28.11.2020
5157 Fog 5 1020 100 50 0.5 0 09:26 28.11.2020
5158 Fog 4 1021 100 200 0.5 0 03:39 28.11.2020
5159 Mist 5 1021 100 3500 1 0 01:53 28.11.2020
5160 Mist 6 1022 93 5000 1.5 140 23:21 27.11.2020
5161 Mist 6 1022 93 5000 0.5 0 22:24 27.11.2020
5162 Mist 6 1022 93 5000 1 0 20:39 27.11.2020
5163 Mist 6 1022 93 5000 1 0 19:34 27.11.2020
5164 Mist 6 1022 93 5000 1 0 18:57 27.11.2020
5165 Mist 7 1021 81 2500 1.5 230 16:27 27.11.2020
5166 Mist 7 1022 81 3000 0.5 0 14:23 27.11.2020
5167 Mist 7 1023 93 2000 1.5 180 13:18 27.11.2020
5168 Mist 6 1023 100 2000 1.5 190 12:46 27.11.2020
5169 Fog 5 1023 100 800 1.5 10 10:53 27.11.2020
5170 Fog 4 1024 61 300 1.5 320 10:32 27.11.2020
5171 Fog 2 1023 100 200 1 0 09:31 27.11.2020
5172 Clouds 4 1022 86 10000 0.25 231 23:18 26.11.2020
5173 Clouds 4 1022 85 10000 0.44 225 22:24 26.11.2020
5174 Mist 4 1023 100 4000 0.5 0 21:42 26.11.2020
5175 Mist 5 1023 93 5000 0.5 170 20:43 26.11.2020
5176 Clear 7 1023 81 7000 1.5 150 18:36 26.11.2020
5177 Clear 8 1023 66 7000 0.5 0 17:20 26.11.2020
5178 Mist 10 1024 70 5000 1.5 230 13:44 26.11.2020
5179 Mist 9 1025 75 5000 2.1 230 12:56 26.11.2020
5180 Mist 8 1025 81 5000 2.6 240 12:29 26.11.2020
5181 Fog 6 1026 100 4000 0.5 0 10:40 26.11.2020
5182 Fog 5 1026 100 4000 0.5 0 10:18 26.11.2020
5183 Fog 3 1026 60 2500 0.5 190 09:34 26.11.2020
5184 Fog 0 1025 65 2000 0.5 250 08:47 26.11.2020
5185 Fog 0 1025 100 2000 0.5 170 08:28 26.11.2020
5186 Fog 3 1025 66 1200 0.5 270 02:18 26.11.2020
5187 Clear 5 1025 100 7000 0.5 0 21:54 25.11.2020
5188 Clear 6 1024 93 10000 0.5 0 20:32 25.11.2020
5189 Clouds 7 1024 86 9000 0.5 0 18:59 25.11.2020
5190 Clouds 8 1023 70 6000 1 160 17:28 25.11.2020
5191 Clouds 10 1023 57 6000 1.5 220 15:43 25.11.2020
5192 Clouds 10 1023 61 6000 1.5 180 14:57 25.11.2020
5193 Mist 10 1024 66 5000 1.5 250 13:45 25.11.2020
5194 Mist 10 1024 66 5000 1.5 220 12:47 25.11.2020
5195 Mist 8 1025 87 5000 1 0 11:22 25.11.2020
5196 Fog 3 1025 64 2000 0.5 90 09:20 25.11.2020
5197 Fog 3 1024 64 2000 0.5 0 08:50 25.11.2020
5198 Fog 2 1024 68 1500 1 270 07:20 25.11.2020
5199 Fog 3 1024 66 8000 0.81 229 03:49 25.11.2020
5200 Fog 3 1025 100 8000 0.5 70 01:34 25.11.2020
5201 Fog 4 1025 100 10000 0.5 0 00:18 25.11.2020
5202 Clear 5 1026 100 10000 0.5 280 23:35 24.11.2020
5203 Clear 5 1026 93 10000 0.39 210 22:38 24.11.2020
5204 Clear 5 1026 93 10000 0.5 0 21:34 24.11.2020
5205 Clear 6 1026 93 10000 0.5 340 20:55 24.11.2020
5206 Clear 6 1026 86 10000 0.5 270 19:47 24.11.2020
5207 Clear 9 1026 57 10000 2.1 140 17:32 24.11.2020
5208 Clear 10 1026 53 10000 1 150 16:57 24.11.2020
5209 Clear 11 1026 53 10000 1 0 16:37 24.11.2020
5210 Clear 11 1026 50 10000 1 0 15:55 24.11.2020
5211 Clear 12 1026 57 10000 1 0 15:19 24.11.2020
5212 Clear 12 1027 57 10000 1.5 150 14:44 24.11.2020
5213 Clear 11 1028 57 10000 0.5 0 13:20 24.11.2020
5214 Clear 10 1028 66 10000 0.5 0 12:38 24.11.2020
5215 Clear 10 1029 66 10000 0.5 0 11:59 24.11.2020
5216 Clear 8 1029 81 10000 0.5 0 10:52 24.11.2020
5217 Clear 6 1029 80 10000 0.5 0 10:25 24.11.2020
5218 Clouds 5 1029 86 8000 0.5 0 09:37 24.11.2020
5219 Clear 3 1029 93 10000 1.5 250 08:33 24.11.2020
5220 Clear 4 1028 93 10000 0.5 230 04:50 24.11.2020
5221 Rain 6 1029 75 10000 1.5 30 23:32 23.11.2020
5222 Clear 6 1028 75 10000 1 60 21:47 23.11.2020
5223 Clear 7 1028 70 10000 1.5 90 21:20 23.11.2020
5224 Clear 7 1028 70 10000 1.5 120 20:28 23.11.2020
5225 Clear 7 1027 61 10000 1.5 120 19:36 23.11.2020
5226 Clear 8 1026 55 10000 1.5 150 17:28 23.11.2020
5227 Clear 9 1026 55 10000 1.5 130 16:54 23.11.2020
5228 Clear 10 1026 46 10000 1 0 14:49 23.11.2020
5229 Clear 10 1027 57 10000 1 0 13:55 23.11.2020
5230 Clear 9 1028 57 10000 1 0 12:40 23.11.2020
5231 Clear 8 1028 61 10000 1 0 11:56 23.11.2020
5232 Clear 8 1028 65 10000 0.5 0 11:37 23.11.2020
5233 Clear 5 1028 59 10000 0.5 0 09:47 23.11.2020
5234 Clear 1 1028 64 10000 1 200 08:51 23.11.2020
5235 Clear 2 1028 68 10000 0.5 0 07:40 23.11.2020
5236 Clear 3 1029 63 10000 0.5 0 02:39 23.11.2020
5237 Clear 4 1030 61 10000 0.5 0 23:43 22.11.2020
5238 Clear 5 1030 58 10000 0.5 0 22:19 22.11.2020
5239 Clear 6 1030 57 10000 0.5 0 21:24 22.11.2020
5240 Clear 6 1030 69 10000 1 0 19:59 22.11.2020
5241 Clear 7 1030 65 10000 1 0 18:57 22.11.2020
5242 Clear 8 1030 52 10000 1.5 240 17:54 22.11.2020
5243 Clear 10 1030 38 10000 2.24 233 15:58 22.11.2020
5244 Clear 10 1030 38 10000 2.68 300 14:54 22.11.2020
5245 Clear 9 1032 41 10000 1.79 296 12:50 22.11.2020
5246 Clear 9 1032 39 10000 2.24 304 12:18 22.11.2020
5247 Clear 9 1033 47 10000 0.89 314 11:36 22.11.2020
5248 Clear 8 1033 50 10000 0.45 280 10:47 22.11.2020
5249 Clear 7 1033 50 10000 0.31 86 10:29 22.11.2020
5250 Clear 4 1034 59 10000 1.5 340 01:50 22.11.2020
5251 Clear 5 1034 93 10000 1 360 23:54 21.11.2020
5252 Clear 5 1034 93 10000 0.5 0 22:31 21.11.2020
5253 Clear 6 1034 58 10000 1 10 21:30 21.11.2020
5254 Clear 6 1034 69 10000 1 30 20:49 21.11.2020
5255 Clear 7 1034 56 10000 1 40 19:57 21.11.2020
5256 Clear 7 1034 56 10000 0.5 0 19:37 21.11.2020
5257 Clear 8 1033 56 10000 1.5 190 18:31 21.11.2020
5258 Clear 8 1033 49 10000 2.1 180 17:28 21.11.2020
5259 Clear 10 1033 43 10000 2.1 170 16:40 21.11.2020
5260 Clear 11 1033 39 10000 2.1 160 15:22 21.11.2020
5261 Clear 11 1033 39 10000 2.1 160 14:48 21.11.2020
5262 Clear 10 1033 39 10000 2.1 150 14:22 21.11.2020
5263 Clear 10 1035 46 10000 1.5 50 12:36 21.11.2020
5264 Clear 10 1035 43 10000 1.5 110 12:18 21.11.2020
5265 Clear 9 1035 45 10000 0.5 0 10:51 21.11.2020
5266 Clear 9 1034 81 10000 1 340 10:26 21.11.2020
5267 Clear 6 1033 93 10000 1.5 10 08:51 21.11.2020
5268 Clouds 6 1031 93 10000 0.5 0 06:35 21.11.2020
5269 Clouds 7 1030 93 10000 2.1 10 04:39 21.11.2020
5270 Clouds 7 1029 100 6000 0.5 0 01:21 21.11.2020
5271 Clear 6 1028 93 8000 1 0 23:55 20.11.2020
5272 Clear 6 1027 100 10000 1.5 360 22:25 20.11.2020
5273 Clear 7 1026 93 10000 0.5 0 21:41 20.11.2020
5274 Clear 7 1026 93 10000 0.5 0 21:41 20.11.2020
5275 Clear 7 1026 93 10000 0.5 0 21:20 20.11.2020
5276 Clear 9 1024 81 10000 0.5 0 19:44 20.11.2020
5277 Clear 9 1024 81 10000 1 170 18:37 20.11.2020
5278 Clear 11 1023 71 10000 1 150 17:51 20.11.2020
5279 Clear 11 1023 66 10000 1.5 140 17:24 20.11.2020
5280 Clear 12 1023 66 10000 1.5 170 16:38 20.11.2020
5281 Clear 13 1023 66 10000 2.6 190 15:56 20.11.2020
5282 Clear 13 1023 62 10000 3.1 180 14:58 20.11.2020
5283 Clear 13 1023 66 10000 2.6 190 13:44 20.11.2020
5284 Clear 13 1024 66 10000 1.5 160 13:18 20.11.2020
5285 Clouds 13 1024 66 10000 0.5 0 12:33 20.11.2020
5286 Clouds 12 1024 81 10000 1 0 11:43 20.11.2020
5287 Clouds 9 1024 93 9000 0.5 0 10:45 20.11.2020
5288 Clouds 7 1023 100 9000 1 280 08:52 20.11.2020
5289 Clouds 8 1023 100 9000 1.5 140 08:23 20.11.2020
5290 Clouds 8 1021 100 6000 1 0 05:20 20.11.2020
5291 Rain 8 1019 100 5000 1 310 03:43 20.11.2020
5292 Rain 7 1018 100 500 0.5 0 22:33 19.11.2020
5293 Fog 7 1019 100 500 0.5 0 21:55 19.11.2020
5294 Fog 7 1019 100 200 1.5 90 20:59 19.11.2020
5295 Fog 7 1019 100 200 1 0 20:30 19.11.2020
5296 Fog 7 1019 100 100 1 0 19:28 19.11.2020
5297 Fog 8 1020 100 100 0.5 0 18:55 19.11.2020
5298 Fog 8 1019 100 100 2.6 140 18:55 19.11.2020
5299 Fog 8 1020 100 100 2.1 150 17:35 19.11.2020
5300 Fog 11 1020 93 1000 2.1 160 16:39 19.11.2020
5301 Mist 12 1021 100 5000 0.5 0 15:31 19.11.2020
5302 Mist 11 1022 100 2000 1 0 13:58 19.11.2020
5303 Mist 11 1023 100 2000 1 0 13:38 19.11.2020
5304 Fog 11 1023 100 800 1 0 12:55 19.11.2020
5305 Fog 10 1024 100 800 1 0 12:34 19.11.2020
5306 Fog 8 1025 100 100 1 0 11:41 19.11.2020
5307 Fog 8 1025 100 100 1 0 11:22 19.11.2020
5308 Fog 8 1025 100 100 1 0 10:44 19.11.2020
5309 Fog 8 1025 100 100 1 0 09:48 19.11.2020
5310 Fog 5 1025 100 100 1 0 09:28 19.11.2020
5311 Fog 5 1025 100 50 1.5 190 08:37 19.11.2020
5312 Fog 5 1025 100 100 1 0 07:36 19.11.2020
5313 Fog 6 1028 100 100 0.5 0 01:48 19.11.2020
5314 Fog 6 1028 100 200 0.5 0 00:32 19.11.2020
5315 Fog 6 1028 100 50 1 0 23:32 18.11.2020
5316 Fog 6 1028 100 50 0.5 0 22:59 18.11.2020
5317 Fog 6 1029 100 50 1 0 22:29 18.11.2020
5318 Fog 7 1029 100 50 1 0 21:43 18.11.2020
5319 Fog 7 1029 100 50 1 0 21:25 18.11.2020
5320 Fog 7 1029 100 100 1 0 20:35 18.11.2020
5321 Fog 7 1028 100 100 1.5 250 19:42 18.11.2020
5322 Fog 8 1029 100 100 1.5 230 19:21 18.11.2020
5323 Fog 7 1029 100 100 1.5 230 18:40 18.11.2020
5324 Fog 9 1029 100 100 2.1 210 17:44 18.11.2020
5325 Mist 11 1029 100 1200 1.5 250 16:27 18.11.2020
5326 Mist 11 1029 100 1200 1.5 250 15:58 18.11.2020
5327 Rain 11 1030 100 800 1.5 230 14:41 18.11.2020
5328 Fog 11 1030 100 400 1.5 240 13:47 18.11.2020
5329 Fog 11 1031 100 400 2.1 240 13:21 18.11.2020
5330 Fog 10 1031 100 300 2.1 250 12:42 18.11.2020
5331 Fog 9 1031 100 250 2.1 240 11:42 18.11.2020
5332 Fog 8 1031 100 200 2.1 230 10:54 18.11.2020
5333 Fog 8 1031 100 200 2.1 230 10:54 18.11.2020
5334 Fog 8 1031 100 100 1.5 240 10:27 18.11.2020
5335 Fog 6 1031 100 100 1.5 220 08:33 18.11.2020
5336 Clouds 6 1028 96 10000 0.91 246 06:40 18.11.2020
5337 Fog 6 1031 100 100 1.5 220 02:51 18.11.2020
5338 Fog 6 1031 100 300 1.5 250 00:18 18.11.2020
5339 Fog 6 1031 100 600 1 0 23:21 17.11.2020
5340 Fog 7 1030 100 2000 1 0 22:29 17.11.2020
5341 Fog 7 1030 100 2000 1 230 22:29 17.11.2020
5342 Fog 7 1030 100 2000 1 230 21:58 17.11.2020
5343 Fog 7 1030 100 2000 1 180 21:39 17.11.2020
5344 Fog 7 1030 100 2000 1 280 20:55 17.11.2020
5345 Fog 7 1030 100 2000 0.5 0 20:27 17.11.2020
5346 Fog 8 1030 100 2000 1 180 19:59 17.11.2020
5347 Fog 9 1029 100 5000 0.5 0 18:35 17.11.2020
5348 Clouds 9 1029 93 8000 0.5 170 17:44 17.11.2020
5349 Clouds 12 1028 87 8000 1 180 16:55 17.11.2020
5350 Clear 13 1028 81 10000 1 0 16:20 17.11.2020
5351 Clouds 13 1028 81 9000 1 0 15:42 17.11.2020
5352 Clouds 13 1028 93 6000 1.5 270 15:23 17.11.2020
5353 Clouds 13 1028 93 6000 1.5 270 14:56 17.11.2020
5354 Mist 13 1028 93 4000 1 0 14:28 17.11.2020
5355 Mist 12 1028 100 1100 1.5 220 13:36 17.11.2020
5356 Fog 12 1029 100 800 2.1 250 12:48 17.11.2020
5357 Fog 12 1028 100 300 1.5 200 12:24 17.11.2020
5358 Fog 11 1028 100 500 1.5 240 11:42 17.11.2020
5359 Fog 11 1028 100 400 2.1 230 10:46 17.11.2020
5360 Fog 9 1028 100 500 1.5 220 10:23 17.11.2020
5361 Fog 9 1027 100 500 1.5 200 09:49 17.11.2020
5362 Fog 9 1027 100 3000 1.5 180 09:24 17.11.2020
5363 Fog 6 1026 100 500 1 0 08:22 17.11.2020
5364 Fog 6 1025 100 500 0.5 0 07:43 17.11.2020
5365 Fog 6 1024 100 1200 2.1 340 05:18 17.11.2020
5366 Fog 6 1024 100 500 0.5 180 03:29 17.11.2020
5367 Fog 8 1024 100 500 0.5 0 02:30 17.11.2020
5368 Fog 8 1023 100 1600 0.5 0 00:57 17.11.2020
5369 Fog 9 1022 100 3000 1.52 87 23:57 16.11.2020
5370 Fog 9 1022 100 3000 0.5 0 23:37 16.11.2020
5371 Fog 9 1022 100 3000 0.5 0 23:19 16.11.2020
5372 Fog 9 1020 100 4000 1 350 22:26 16.11.2020
5373 Fog 9 1020 100 4000 1 350 22:26 16.11.2020
5374 Fog 9 1020 100 4000 1 350 21:58 16.11.2020
5375 Mist 9 1020 100 4000 1 10 21:39 16.11.2020
5376 Mist 9 1019 100 5000 0.5 0 21:20 16.11.2020
5377 Clear 10 1019 93 9000 0.5 0 20:26 16.11.2020
5378 Clear 10 1018 93 9000 1 180 19:55 16.11.2020
5379 Clear 10 1018 93 9000 1 180 19:29 16.11.2020
5380 Clear 10 1017 93 8000 1 0 18:51 16.11.2020
5381 Clear 11 1017 87 8000 1.5 240 18:19 16.11.2020
5382 Mist 11 1016 87 4000 2.1 220 17:36 16.11.2020
5383 Mist 11 1016 81 5000 2.1 230 17:18 16.11.2020
5384 Mist 12 1016 82 5000 2.6 230 16:49 16.11.2020
5385 Mist 13 1016 82 5000 2.6 230 16:24 16.11.2020
5386 Mist 13 1016 82 5000 3.1 250 15:44 16.11.2020
5387 Mist 13 1016 82 5000 2.6 230 15:26 16.11.2020
5388 Mist 13 1016 82 5000 2.1 230 14:47 16.11.2020
5389 Mist 13 1017 82 5000 2.1 210 13:44 16.11.2020
5390 Mist 13 1017 82 5000 1.5 210 12:51 16.11.2020
5391 Mist 13 1018 82 5000 1.5 200 12:28 16.11.2020
5392 Mist 12 1018 87 5000 1 0 11:39 16.11.2020
5393 Mist 12 1018 93 5000 1 0 11:21 16.11.2020
5394 Mist 11 1018 93 3500 1 0 10:44 16.11.2020
5395 Mist 11 1017 93 3500 1 180 10:25 16.11.2020
5396 Mist 11 1017 93 3500 1.5 360 09:46 16.11.2020
5397 Mist 10 1017 93 3500 1.5 350 09:23 16.11.2020
5398 Mist 10 1017 93 3500 1.5 360 08:41 16.11.2020
5399 Mist 10 1017 100 5000 2.6 280 07:45 16.11.2020
5400 Clouds 10 1017 100 6000 2.6 200 06:50 16.11.2020
5401 Clouds 10 1017 100 6000 3.6 120 06:24 16.11.2020
5402 Rain 10 1018 100 2500 1.5 340 04:43 16.11.2020
5403 Drizzle 10 1019 100 2500 0.5 0 02:30 16.11.2020
5404 Clouds 10 1020 93 3500 1 0 01:44 16.11.2020
5405 Clouds 11 1021 93 7000 2.1 210 23:58 15.11.2020
5406 Clouds 11 1021 93 7000 1.5 210 23:26 15.11.2020
5407 Clouds 11 1021 87 7000 1 0 22:50 15.11.2020
5408 Drizzle 11 1021 81 7000 1.5 250 22:22 15.11.2020
5409 Clouds 11 1021 81 7000 0.5 220 21:45 15.11.2020
5410 Clouds 11 1021 81 7000 1 0 21:24 15.11.2020
5411 Clouds 11 1021 81 7000 0.5 230 20:44 15.11.2020
5412 Clouds 12 1021 81 7000 0.5 230 20:21 15.11.2020
5413 Clouds 12 1021 81 7000 1 0 19:48 15.11.2020
5414 Mist 12 1022 81 3500 0.5 0 19:22 15.11.2020
5415 Mist 12 1021 81 3500 1.5 220 18:57 15.11.2020
5416 Mist 12 1021 81 3500 1.5 220 18:39 15.11.2020
5417 Mist 12 1021 81 3500 2.1 210 18:19 15.11.2020
5418 Mist 12 1021 81 3500 2.1 200 17:45 15.11.2020
5419 Mist 12 1021 81 3500 2.1 200 17:24 15.11.2020
5420 Clouds 12 1022 75 10000 1.79 271 16:48 15.11.2020
5421 Mist 13 1021 76 5000 1 0 16:21 15.11.2020
5422 Clouds 13 1021 71 6000 1 0 15:50 15.11.2020
5423 Clouds 13 1021 71 6000 1 0 15:28 15.11.2020
5424 Clouds 13 1022 71 7000 1 0 14:58 15.11.2020
5425 Clouds 13 1022 71 7000 0.5 0 14:31 15.11.2020
5426 Clouds 13 1022 71 6000 1 0 13:56 15.11.2020
5427 Clouds 13 1023 71 7000 0.5 0 13:36 15.11.2020
5428 Clouds 13 1023 71 7000 1 0 12:51 15.11.2020
5429 Clouds 13 1023 76 8000 1.5 360 12:24 15.11.2020
5430 Mist 13 1023 76 5000 1 0 11:46 15.11.2020
5431 Mist 13 1023 76 5000 1 0 11:20 15.11.2020
5432 Mist 12 1024 81 3500 0.5 0 10:54 15.11.2020
5433 Mist 12 1024 87 3500 1.5 110 10:32 15.11.2020
5434 Mist 12 1024 81 3500 1 0 09:58 15.11.2020
5435 Mist 11 1024 87 3500 0.5 0 09:40 15.11.2020
5436 Mist 11 1024 87 3000 1.5 180 09:18 15.11.2020
5437 Mist 11 1023 93 3500 1 180 08:46 15.11.2020
5438 Mist 11 1023 87 3900 0.5 240 07:47 15.11.2020
5439 Mist 11 1023 87 3900 0.5 0 06:50 15.11.2020
5440 Mist 11 1023 93 4200 0.5 0 04:57 15.11.2020
5441 Mist 11 1024 93 4500 0.5 270 02:31 15.11.2020
5442 Mist 11 1025 93 4300 1 200 00:42 15.11.2020
5443 Mist 11 1025 87 4300 1 160 00:24 15.11.2020
5444 Clouds 11 1025 93 7000 1 190 23:30 14.11.2020
5445 Clouds 12 1025 87 7000 1 170 22:46 14.11.2020
5446 Clouds 12 1025 87 7000 1 170 22:27 14.11.2020
5447 Clouds 12 1025 87 7000 0.5 0 21:40 14.11.2020
5448 Clouds 12 1025 87 7000 0.5 0 21:21 14.11.2020
5449 Clouds 12 1025 87 6000 0.5 0 20:48 14.11.2020
5450 Clouds 12 1025 87 6000 0.5 0 20:26 14.11.2020
5451 Clouds 12 1025 81 6000 1.5 150 19:46 14.11.2020
5452 Clouds 12 1025 81 6000 1.5 150 19:27 14.11.2020
5453 Mist 12 1025 82 5000 1.5 140 18:43 14.11.2020
5454 Mist 12 1024 82 5000 2.1 130 18:23 14.11.2020
5455 Mist 12 1024 82 3000 1.5 150 17:47 14.11.2020
5456 Mist 12 1024 82 3000 1.5 150 17:47 14.11.2020
5457 Mist 12 1025 82 3000 1.5 160 17:29 14.11.2020
5458 Mist 12 1025 82 3000 1.5 160 16:53 14.11.2020
5459 Mist 13 1025 82 2000 1.5 180 16:34 14.11.2020
5460 Mist 13 1025 82 2500 1.5 150 15:59 14.11.2020
5461 Mist 13 1025 82 2000 1.5 160 15:33 14.11.2020
5462 Mist 13 1025 82 2000 1 0 14:59 14.11.2020
5463 Mist 13 1025 82 2000 1.5 150 14:31 14.11.2020
5464 Mist 13 1025 82 2000 1 0 13:59 14.11.2020
5465 Mist 13 1025 82 2000 1 0 13:59 14.11.2020
5466 Mist 13 1026 82 2000 1 0 13:39 14.11.2020
5467 Mist 13 1026 82 2000 1 0 13:21 14.11.2020
5468 Fog 12 1026 87 2000 1.5 160 12:41 14.11.2020
5469 Mist 12 1027 87 2000 1.5 130 12:23 14.11.2020
5470 Mist 12 1027 87 2000 1 0 11:40 14.11.2020
5471 Mist 12 1027 87 2000 1.5 80 11:21 14.11.2020
5472 Fog 12 1027 93 2000 1 0 10:40 14.11.2020
5473 Fog 11 1027 93 2000 1 0 10:22 14.11.2020
5474 Fog 11 1026 100 2000 0.5 0 09:45 14.11.2020
5475 Fog 10 1026 100 2000 0.5 0 09:27 14.11.2020
5476 Fog 10 1026 100 2000 0.5 0 08:44 14.11.2020
5477 Fog 10 1026 100 2500 1 360 08:23 14.11.2020
5478 Fog 10 1025 100 3500 0.5 10 07:42 14.11.2020
5479 Fog 10 1025 100 3000 0.5 0 07:20 14.11.2020
5480 Fog 10 1025 93 2000 1 40 06:28 14.11.2020
5481 Fog 10 1025 100 2000 0.5 0 05:18 14.11.2020
5482 Fog 10 1026 100 3000 0.5 0 03:21 14.11.2020
5483 Fog 10 1026 100 2500 0.5 0 00:28 14.11.2020
5484 Mist 11 1026 100 3000 1.5 160 23:38 13.11.2020
5485 Mist 11 1026 93 3000 0.5 0 22:59 13.11.2020
5486 Mist 11 1026 93 3000 0.5 0 22:41 13.11.2020
5487 Mist 11 1026 93 3000 0.5 0 22:21 13.11.2020
5488 Mist 12 1025 87 3000 1.5 140 21:49 13.11.2020
5489 Mist 12 1025 87 3000 1 140 21:27 13.11.2020
5490 Mist 12 1025 87 3000 1 140 20:51 13.11.2020
5491 Mist 12 1025 87 3000 1 140 20:32 13.11.2020
5492 Mist 12 1025 87 3000 1 180 19:56 13.11.2020
5493 Mist 12 1025 87 3000 1 180 19:56 13.11.2020
5494 Mist 12 1025 87 3000 1 180 19:37 13.11.2020
5495 Mist 12 1025 87 3000 1.5 170 19:19 13.11.2020
5496 Mist 12 1025 87 3000 1.5 170 18:44 13.11.2020
5497 Mist 12 1024 87 2000 2.1 180 17:47 13.11.2020
5498 Mist 12 1024 82 3000 2.1 180 17:23 13.11.2020
5499 Mist 13 1024 82 3000 2.1 180 16:57 13.11.2020
5500 Mist 13 1024 82 3000 2.1 170 16:39 13.11.2020
5501 Fog 13 1024 82 2000 1.5 180 16:20 13.11.2020
5502 Fog 13 1024 82 2000 1.5 180 15:39 13.11.2020
5503 Fog 13 1024 82 2000 1.5 180 15:39 13.11.2020
5504 Fog 13 1024 82 2000 1.5 180 15:39 13.11.2020
5505 Fog 13 1025 82 2000 1 0 15:21 13.11.2020
5506 Fog 13 1025 82 2500 1 0 14:38 13.11.2020
5507 Fog 13 1025 82 2500 1 0 14:18 13.11.2020
5508 Fog 13 1025 82 2500 1.5 150 13:32 13.11.2020
5509 Fog 13 1026 82 2500 1 0 12:59 13.11.2020
5510 Fog 12 1026 87 2500 0.5 0 12:40 13.11.2020
5511 Fog 12 1026 87 2500 1 0 12:22 13.11.2020
5512 Fog 12 1026 87 2500 1 0 11:46 13.11.2020
5513 Fog 12 1026 87 2500 1 0 11:22 13.11.2020
5514 Fog 11 1026 93 2000 1 0 10:51 13.11.2020
5515 Fog 11 1026 93 2000 1.5 120 10:33 13.11.2020
5516 Mist 11 1026 93 2000 1.5 70 09:52 13.11.2020
5517 Mist 11 1026 87 2000 2.1 90 09:31 13.11.2020
5518 Mist 10 1026 93 2000 1.5 50 08:54 13.11.2020
5519 Mist 10 1025 93 3500 0.66 60 08:29 13.11.2020
5520 Mist 10 1025 93 3500 0.66 60 07:51 13.11.2020
5521 Mist 10 1025 93 3500 0.5 0 07:27 13.11.2020
5522 Mist 10 1025 93 3500 0.5 20 06:56 13.11.2020
5523 Fog 10 1025 93 3500 1 10 06:36 13.11.2020
5524 Mist 10 1025 93 3500 1 170 05:41 13.11.2020
5525 Fog 10 1025 93 3500 0.5 250 03:44 13.11.2020
5526 Fog 10 1026 100 3500 1 0 01:42 13.11.2020
5527 Clouds 10 1028 76 10000 0.45 329 00:37 13.11.2020
5528 Mist 10 1026 100 3500 0.5 160 23:50 12.11.2020
5529 Mist 10 1025 93 5000 1 0 23:21 12.11.2020
5530 Mist 10 1025 93 5000 1 0 22:55 12.11.2020
5531 Clouds 10 1025 100 6000 1 0 22:37 12.11.2020
5532 Clouds 10 1025 93 7000 1.5 280 21:58 12.11.2020
5533 Clouds 10 1025 100 7000 1 0 21:40 12.11.2020
5534 Clouds 10 1025 100 7000 1 0 21:22 12.11.2020
5535 Clouds 11 1025 93 8000 1 250 20:41 12.11.2020
5536 Clouds 11 1025 93 8000 1 250 20:23 12.11.2020
5537 Clouds 11 1025 87 8000 1.5 260 19:53 12.11.2020
5538 Clouds 11 1025 87 8000 1.5 260 19:34 12.11.2020
5539 Mist 12 1024 81 4000 1.5 220 18:58 12.11.2020
5540 Mist 12 1024 81 4000 1.5 220 18:39 12.11.2020
5541 Mist 12 1024 81 3000 1 210 18:19 12.11.2020
5542 Mist 12 1024 81 3000 2.1 190 17:40 12.11.2020
5543 Mist 12 1024 82 3500 2.1 200 17:22 12.11.2020
5544 Clear 13 1026 50 10000 1.79 215 16:45 12.11.2020
5545 Mist 13 1024 76 3500 2.6 190 16:23 12.11.2020
5546 Clouds 14 1024 71 7000 2.1 180 15:52 12.11.2020
5547 Clouds 14 1024 71 7000 2.1 180 15:28 12.11.2020
5548 Clouds 14 1024 71 7000 0.5 0 14:47 12.11.2020
5549 Clouds 14 1024 67 7000 1 0 14:28 12.11.2020
5550 Clouds 14 1024 67 7000 1 0 13:58 12.11.2020
5551 Clouds 14 1024 67 8000 1 0 13:40 12.11.2020
5552 Clouds 14 1025 71 7000 0.5 0 13:19 12.11.2020
5553 Clouds 13 1025 71 6000 0.5 0 12:44 12.11.2020
5554 Clouds 13 1025 71 6000 0.5 0 12:24 12.11.2020
5555 Clouds 13 1025 76 6000 1 0 11:53 12.11.2020
5556 Mist 13 1025 76 5000 1 0 11:30 12.11.2020
5557 Mist 12 1025 81 5000 1.5 120 10:49 12.11.2020
5558 Mist 12 1025 81 3500 1 80 10:29 12.11.2020
5559 Mist 11 1025 93 3500 0.5 0 09:51 12.11.2020
5560 Mist 11 1025 93 3500 0.5 0 09:27 12.11.2020
5561 Mist 10 1025 100 3000 0.5 0 08:58 12.11.2020
5562 Mist 10 1024 100 3000 0.5 0 08:40 12.11.2020
5563 Mist 10 1024 100 3000 0.5 0 08:20 12.11.2020
5564 Mist 10 1024 100 3000 0.5 0 07:54 12.11.2020
5565 Mist 10 1024 93 3000 0.5 0 07:31 12.11.2020
5566 Mist 10 1024 100 3000 0.5 0 06:51 12.11.2020
5567 Mist 10 1024 93 3000 0.5 350 06:22 12.11.2020
5568 Mist 10 1024 93 3000 1 180 03:45 12.11.2020
5569 Mist 10 1025 93 3000 1.05 105 03:19 12.11.2020
5570 Mist 10 1025 93 3000 0.5 0 00:28 12.11.2020
5571 Mist 11 1025 87 3500 1 0 23:42 11.11.2020
5572 Mist 10 1025 93 3000 1 0 23:23 11.11.2020
5573 Mist 10 1025 100 3000 1.5 360 22:47 11.11.2020
5574 Mist 10 1025 93 3000 1.5 60 22:21 11.11.2020
5575 Mist 11 1025 93 3000 1.5 60 21:56 11.11.2020
5576 Mist 11 1025 93 3500 1.5 70 21:38 11.11.2020
5577 Mist 11 1025 93 3500 1 60 21:19 11.11.2020
5578 Mist 11 1025 93 3500 2.1 40 20:42 11.11.2020
5579 Mist 11 1025 93 3500 2.1 40 20:21 11.11.2020
5580 Mist 11 1025 93 3500 2.6 70 19:55 11.11.2020
5581 Mist 11 1025 93 3500 2.1 60 19:36 11.11.2020
5582 Mist 11 1025 93 3000 1.5 50 19:18 11.11.2020
5583 Mist 11 1025 93 3000 1.5 80 18:41 11.11.2020
5584 Mist 11 1024 93 3000 2.6 90 18:19 11.11.2020
5585 Mist 11 1024 93 3000 2.1 90 17:37 11.11.2020
5586 Mist 11 1024 93 3500 1.5 110 17:19 11.11.2020
5587 Mist 11 1024 100 3000 1 0 16:38 11.11.2020
5588 Mist 11 1024 100 3000 1 0 16:20 11.11.2020
5589 Mist 12 1024 100 2000 1 0 15:41 11.11.2020
5590 Mist 12 1024 100 1000 1 0 15:22 11.11.2020
5591 Fog 11 1025 100 800 1.5 80 14:43 11.11.2020
5592 Fog 12 1025 100 400 2.1 90 14:23 11.11.2020
5593 Fog 12 1025 100 200 1.5 90 13:49 11.11.2020
5594 Fog 11 1025 100 200 1.5 90 13:24 11.11.2020
5595 Fog 12 1025 100 200 2.1 80 13:24 11.11.2020
5596 Fog 11 1026 100 200 2.1 110 12:21 11.11.2020
5597 Fog 11 1026 100 200 2.1 110 11:51 11.11.2020
5598 Fog 11 1026 100 100 1.5 70 11:33 11.11.2020
5599 Fog 10 1026 100 100 1.5 80 10:46 11.11.2020
5600 Fog 9 1026 100 100 1.5 80 10:28 11.11.2020
5601 Fog 9 1026 100 200 2.1 90 09:59 11.11.2020
5602 Fog 8 1026 100 100 0.5 0 09:39 11.11.2020
5603 Fog 9 1026 100 400 0.5 0 09:21 11.11.2020
5604 Fog 9 1025 100 100 1 60 08:43 11.11.2020
5605 Fog 9 1025 100 100 1 60 08:24 11.11.2020
5606 Fog 9 1025 100 100 1 0 07:44 11.11.2020
5607 Fog 9 1025 100 100 0.5 0 06:32 11.11.2020
5608 Fog 8 1025 100 100 0.5 160 05:44 11.11.2020
5609 Fog 9 1025 100 900 1 50 01:58 11.11.2020
5610 Fog 10 1025 100 800 0.5 0 00:57 11.11.2020
5611 Fog 9 1025 100 100 0.47 157 00:25 11.11.2020
5612 Fog 10 1025 100 400 0.5 0 23:40 10.11.2020
5613 Fog 10 1025 100 400 0.5 0 23:22 10.11.2020
5614 Fog 11 1025 100 500 0.5 0 22:45 10.11.2020
5615 Fog 11 1025 100 500 0.5 0 22:26 10.11.2020
5616 Fog 11 1025 100 1200 0.5 0 21:41 10.11.2020
5617 Fog 11 1025 100 1200 0.5 0 21:23 10.11.2020
5618 Fog 12 1024 100 2000 0.5 0 20:56 10.11.2020
5619 Fog 12 1024 100 2000 0.5 0 20:38 10.11.2020
5620 Mist 12 1024 100 3000 0.5 10 20:19 10.11.2020
5621 Mist 12 1024 100 3000 0.5 0 19:44 10.11.2020
5622 Mist 12 1024 100 3000 0.5 0 19:24 10.11.2020
5623 Mist 12 1024 100 3000 1 0 18:55 10.11.2020
5624 Mist 13 1024 93 3000 1 220 18:36 10.11.2020
5625 Mist 13 1024 93 3000 0.5 0 18:18 10.11.2020
5626 Mist 14 1024 82 3500 1 0 17:41 10.11.2020
5627 Mist 14 1024 82 3500 1 0 17:41 10.11.2020
5628 Mist 14 1024 82 3500 1 0 17:22 10.11.2020
5629 Mist 15 1024 77 3500 1 0 16:41 10.11.2020
5630 Mist 16 1024 82 3500 1.5 250 16:22 10.11.2020
5631 Mist 16 1024 82 3500 1.5 250 15:54 10.11.2020
5632 Mist 16 1024 87 3500 2.1 200 15:36 10.11.2020
5633 Mist 15 1024 87 3500 1.5 200 15:18 10.11.2020
5634 Mist 15 1024 87 3500 2.1 210 14:39 10.11.2020
5635 Mist 15 1024 87 5000 2.6 220 14:18 10.11.2020
5636 Mist 15 1025 82 5000 2.6 200 13:38 10.11.2020
5637 Mist 15 1025 77 5000 1 0 13:20 10.11.2020
5638 Mist 16 1025 82 5000 0.5 0 12:46 10.11.2020
5639 Clouds 16 1024 83 10000 0.13 137 12:25 10.11.2020
5640 Mist 14 1025 93 5000 0.5 0 11:43 10.11.2020
5641 Mist 14 1025 93 5000 0.5 0 11:43 10.11.2020
5642 Mist 13 1025 100 3500 1 0 11:22 10.11.2020
5643 Mist 13 1025 100 3500 1 0 10:57 10.11.2020
5644 Mist 11 1025 93 3500 1.5 240 10:38 10.11.2020
5645 Mist 11 1025 93 3500 1.5 240 10:20 10.11.2020
5646 Mist 10 1025 100 3500 1 0 09:45 10.11.2020
5647 Fog 10 1025 100 2500 0.5 0 09:24 10.11.2020
5648 Fog 9 1025 100 2500 0.5 0 08:53 10.11.2020
5649 Fog 9 1025 100 2500 1 220 08:27 10.11.2020
5650 Fog 8 1024 100 6000 1 200 07:44 10.11.2020
5651 Fog 9 1024 100 6000 1 200 07:24 10.11.2020
5652 Fog 8 1024 100 8000 1.5 10 06:40 10.11.2020
5653 Fog 9 1024 100 8000 0.5 0 05:43 10.11.2020
5654 Clear 9 1024 100 10000 1 190 04:59 10.11.2020
5655 Fog 10 1024 100 2000 0.5 0 02:36 10.11.2020
5656 Fog 10 1024 100 2000 0.5 350 01:30 10.11.2020
5657 Fog 11 1024 100 6000 1 350 23:57 09.11.2020
5658 Clouds 11 1024 100 6000 1 350 23:36 09.11.2020
5659 Clouds 12 1024 100 6000 1 350 22:49 09.11.2020
5660 Clear 12 1024 100 7000 1 30 22:25 09.11.2020
5661 Clear 11 1024 100 10000 1.5 360 21:56 09.11.2020
5662 Clear 12 1024 100 10000 1 360 21:37 09.11.2020
5663 Clear 12 1024 100 10000 0.5 0 21:18 09.11.2020
5664 Clear 13 1023 93 10000 0.36 194 20:37 09.11.2020
5665 Clear 13 1023 100 10000 0.5 140 20:19 09.11.2020
5666 Clear 13 1023 93 10000 1 170 19:41 09.11.2020
5667 Clear 14 1023 81 10000 0.5 180 19:22 09.11.2020
5668 Clear 14 1023 93 10000 0.5 200 18:42 09.11.2020
5669 Clouds 15 1023 82 7000 0.5 220 18:20 09.11.2020
5670 Clouds 16 1022 72 7000 1 0 17:53 09.11.2020
5671 Clouds 16 1022 72 7000 1 0 17:53 09.11.2020
5672 Clouds 16 1022 72 7000 1 0 17:33 09.11.2020
5673 Clear 17 1022 68 10000 1.5 260 16:46 09.11.2020
5674 Clear 17 1022 68 10000 1.5 260 16:28 09.11.2020
5675 Clouds 18 1022 68 8000 2.1 240 15:58 09.11.2020
5676 Clouds 18 1022 68 7000 1.5 230 15:40 09.11.2020
5677 Clear 18 1023 68 7000 2.1 240 15:20 09.11.2020
5678 Clear 18 1023 72 6000 1.5 240 14:41 09.11.2020
5679 Clear 18 1023 72 6000 1.5 0 14:23 09.11.2020
5680 Clear 17 1024 72 6000 1.5 260 13:43 09.11.2020
5681 Clear 17 1024 77 7000 1.5 0 13:20 09.11.2020
5682 Clear 17 1024 72 6000 1.5 260 13:20 09.11.2020
5683 Clear 17 1024 72 7000 1 0 12:47 09.11.2020
5684 Clear 16 1025 77 8000 1 0 12:21 09.11.2020
5685 Clear 15 1025 82 8000 0.5 0 11:55 09.11.2020
5686 Clear 16 1025 82 8000 0.5 0 11:36 09.11.2020
5687 Clear 16 1024 81 10000 0.61 227 11:18 09.11.2020
5688 Clouds 14 1025 81 9000 0.5 0 10:41 09.11.2020
5689 Clouds 13 1025 81 9000 0.5 0 10:22 09.11.2020
5690 Clouds 12 1025 93 8000 0.5 0 09:41 09.11.2020
5691 Clouds 11 1025 100 8000 0.5 0 09:23 09.11.2020
5692 Clouds 11 1024 100 7000 1 0 08:37 09.11.2020
5693 Clouds 10 1024 100 9000 1 10 08:18 09.11.2020
5694 Clear 10 1024 100 10000 0.5 30 07:38 09.11.2020
5695 Clouds 10 1024 100 10000 0.5 0 07:18 09.11.2020
5696 Clouds 10 1023 94 10000 0.67 223 05:54 09.11.2020
5697 Mist 10 1024 100 4700 0.5 0 02:57 09.11.2020
5698 Mist 11 1024 100 2000 0.5 0 01:41 09.11.2020
5699 Mist 11 1025 100 4700 1 340 00:56 09.11.2020
5700 Clear 12 1024 100 10000 0.5 20 23:50 08.11.2020
5701 Clear 12 1024 100 10000 0.5 20 23:28 08.11.2020
5702 Clouds 12 1024 93 10000 1.5 360 22:43 08.11.2020
5703 Clouds 13 1024 93 10000 0.5 0 22:22 08.11.2020
5704 Clouds 13 1024 93 10000 0.5 360 21:49 08.11.2020
5705 Clouds 13 1024 93 10000 0.5 360 21:24 08.11.2020
5706 Clear 13 1024 93 10000 1 0 20:57 08.11.2020
5707 Clear 13 1024 93 10000 0.5 0 20:38 08.11.2020
5708 Clear 14 1024 100 10000 0.98 244 20:20 08.11.2020
5709 Clear 14 1024 93 10000 0.5 0 19:46 08.11.2020
5710 Clear 14 1024 93 10000 0.5 270 19:24 08.11.2020
5711 Clear 14 1024 93 10000 0.5 270 18:59 08.11.2020
5712 Clear 15 1024 76 10000 1 360 18:40 08.11.2020
5713 Clear 15 1024 76 10000 1 360 18:20 08.11.2020
5714 Clear 16 1024 63 10000 1 250 17:56 08.11.2020
5715 Clear 16 1024 63 10000 1 250 17:36 08.11.2020
5716 Clear 16 1024 59 10000 1.5 260 17:18 08.11.2020
5717 Clear 18 1024 59 10000 2.6 250 16:38 08.11.2020
5718 Clear 18 1024 59 10000 3.1 260 16:20 08.11.2020
5719 Clear 18 1024 59 10000 2.6 270 15:46 08.11.2020
5720 Clear 18 1024 59 10000 2.6 270 15:27 08.11.2020
5721 Clear 18 1024 59 10000 2.6 270 15:27 08.11.2020
5722 Clear 18 1025 55 10000 2.1 270 14:44 08.11.2020
5723 Clear 18 1025 59 9000 1.5 0 14:24 08.11.2020
5724 Clear 18 1026 63 9000 1.5 280 13:56 08.11.2020
5725 Clouds 17 1026 67 8000 1.5 220 13:26 08.11.2020
5726 Clouds 17 1026 67 8000 1.5 220 13:26 08.11.2020
5727 Clouds 16 1026 67 8000 1.5 220 12:57 08.11.2020
5728 Clouds 16 1027 77 8000 1 0 12:39 08.11.2020
5729 Clouds 16 1027 82 8000 1 0 12:19 08.11.2020
5730 Clouds 15 1027 68 10000 1.34 307 11:55 08.11.2020
5731 Clouds 15 1027 87 6000 0.5 0 11:36 08.11.2020
5732 Clouds 14 1028 93 6000 1 0 11:18 08.11.2020
5733 Mist 12 1027 100 5000 0.5 0 10:41 08.11.2020
5734 Mist 11 1027 100 4000 0.5 0 10:18 08.11.2020
5735 Mist 11 1027 100 4000 1 0 09:41 08.11.2020
5736 Mist 10 1027 100 3000 1 0 09:19 08.11.2020
5737 Mist 10 1027 100 2000 0.5 0 08:45 08.11.2020
5738 Mist 9 1027 100 2000 0.5 0 08:22 08.11.2020
5739 Fog 9 1027 100 400 1.5 250 07:53 08.11.2020
5740 Rain 9 1027 100 50 0.5 0 07:31 08.11.2020
5741 Fog 9 1027 100 50 1 200 06:27 08.11.2020
5742 Fog 9 1027 100 50 0.5 0 05:54 08.11.2020
5743 Fog 9 1027 100 50 0.5 0 04:51 08.11.2020
5744 Fog 9 1028 100 1500 0.5 0 02:20 08.11.2020
5745 Fog 9 1028 100 2000 0.5 0 01:19 08.11.2020
5746 Fog 10 1028 100 4000 0.5 130 00:31 08.11.2020
5747 Fog 10 1028 100 4000 0.5 130 00:31 08.11.2020
5748 Fog 10 1029 100 1500 1 180 23:51 07.11.2020
5749 Fog 11 1029 100 2500 0.5 0 23:31 07.11.2020
5750 Fog 11 1029 100 3000 0.5 0 22:48 07.11.2020
5751 Fog 11 1029 100 3000 0.5 0 22:28 07.11.2020
5752 Fog 11 1029 100 3000 0.5 0 21:58 07.11.2020
5753 Fog 12 1028 100 5000 0.5 0 21:40 07.11.2020
5754 Fog 12 1028 100 5000 0.5 280 21:19 07.11.2020
5755 Fog 12 1028 100 5000 1 250 20:45 07.11.2020
5756 Fog 12 1028 100 5000 1 250 20:27 07.11.2020
5757 Mist 12 1028 100 5000 0.5 0 19:46 07.11.2020
5758 Mist 12 1028 100 5000 0.5 0 19:27 07.11.2020
5759 Mist 13 1028 93 5000 1.5 200 18:43 07.11.2020
5760 Mist 13 1028 93 5000 1.5 200 18:25 07.11.2020
5761 Clear 14 1028 82 6000 1 170 17:48 07.11.2020
5762 Clear 14 1028 82 6000 1 170 17:29 07.11.2020
5763 Clear 15 1028 72 8000 1 0 16:46 07.11.2020
5764 Clear 16 1028 72 8000 1 0 16:26 07.11.2020
5765 Clear 16 1029 77 7000 1.5 220 15:58 07.11.2020
5766 Clear 16 1029 82 7000 2.1 190 15:39 07.11.2020
5767 Clear 16 1029 82 6000 2.1 160 15:19 07.11.2020
5768 Mist 16 1029 82 5000 1 0 14:41 07.11.2020
5769 Mist 16 1029 82 5000 1 0 14:41 07.11.2020
5770 Mist 16 1029 82 5000 1 0 14:41 07.11.2020
5771 Mist 16 1029 82 5000 1 0 14:21 07.11.2020
5772 Mist 17 1029 87 5000 1.5 150 13:46 07.11.2020
5773 Mist 15 1030 100 4000 1 0 13:25 07.11.2020
5774 Fog 15 1030 100 900 1 0 12:40 07.11.2020
5775 Fog 14 1031 100 500 1 0 12:18 07.11.2020
5776 Fog 14 1031 100 500 1 0 12:18 07.11.2020
5777 Fog 13 1031 100 200 0.5 0 11:39 07.11.2020
5778 Fog 13 1031 100 100 1 0 11:21 07.11.2020
5779 Fog 12 1031 100 100 1.5 190 10:45 07.11.2020
5780 Fog 12 1031 100 100 1.5 190 10:24 07.11.2020
5781 Fog 11 1031 100 100 1 0 09:49 07.11.2020
5782 Fog 10 1031 100 100 1 0 09:25 07.11.2020
5783 Fog 10 1030 100 200 1.5 250 08:51 07.11.2020
5784 Fog 8 1030 100 250 1.5 250 08:33 07.11.2020
5785 Fog 8 1030 100 250 1.5 270 07:49 07.11.2020
5786 Fog 8 1030 100 500 0.5 0 06:58 07.11.2020
5787 Tornado 8 1030 100 400 0.5 190 06:37 07.11.2020
5788 Fog 10 1030 100 1200 0.98 242 04:32 07.11.2020
5789 Fog 11 1031 100 2000 1.27 244 03:22 07.11.2020
5790 Fog 11 1031 100 1500 0.5 290 01:28 07.11.2020
5791 Fog 11 1031 100 5000 0.5 20 00:40 07.11.2020
5792 Fog 12 1031 100 8000 0.5 10 23:45 06.11.2020
5793 Clear 12 1031 100 10000 0.5 0 23:19 06.11.2020
5794 Clear 12 1031 100 10000 0.5 0 22:40 06.11.2020
5795 Clear 12 1031 100 10000 0.5 0 22:40 06.11.2020
5796 Clear 13 1031 100 10000 0.5 0 22:18 06.11.2020
5797 Clear 13 1031 93 10000 0.31 202 21:43 06.11.2020
5798 Clear 13 1031 100 10000 0.5 0 21:21 06.11.2020
5799 Clear 13 1031 93 10000 0.5 0 20:48 06.11.2020
5800 Clear 14 1031 93 10000 0.5 0 20:20 06.11.2020
5801 Clear 14 1030 93 10000 0.5 270 19:47 06.11.2020
5802 Clear 14 1030 93 10000 0.5 270 19:29 06.11.2020
5803 Clear 14 1030 87 10000 0.5 0 18:58 06.11.2020
5804 Clear 15 1030 77 10000 1 0 18:40 06.11.2020
5805 Clear 15 1030 72 10000 1 0 18:19 06.11.2020
5806 Clear 16 1030 67 10000 1 0 17:47 06.11.2020
5807 Clear 16 1030 67 10000 1 0 17:25 06.11.2020
5808 Clear 17 1030 74 10000 1.44 184 16:45 06.11.2020
5809 Clear 17 1030 63 10000 1 0 16:22 06.11.2020
5810 Clear 18 1031 63 10000 0.5 0 15:47 06.11.2020
5811 Clear 18 1031 63 10000 0.5 0 15:26 06.11.2020
5812 Clear 18 1031 63 10000 1.5 0 14:50 06.11.2020
5813 Clear 18 1032 63 10000 1 0 14:23 06.11.2020
5814 Clouds 18 1032 67 10000 2.1 0 13:44 06.11.2020
5815 Clouds 18 1032 67 10000 2.1 0 13:21 06.11.2020
5816 Clouds 17 1033 82 8000 1 0 12:43 06.11.2020
5817 Clouds 17 1033 82 8000 1 0 12:23 06.11.2020
5818 Mist 16 1033 87 5000 1 0 11:40 06.11.2020
5819 Mist 16 1033 93 5000 1 0 11:21 06.11.2020
5820 Mist 15 1033 93 3500 1.5 40 10:38 06.11.2020
5821 Mist 14 1033 100 3500 2.1 90 10:19 06.11.2020
5822 Mist 14 1033 100 3500 2.1 120 09:46 06.11.2020
5823 Mist 13 1032 100 3000 1.5 40 09:21 06.11.2020
5824 Mist 13 1032 100 3000 1.5 40 09:21 06.11.2020
5825 Mist 13 1032 100 2000 1.5 20 08:48 06.11.2020
5826 Mist 13 1032 100 2000 1.5 20 08:28 06.11.2020
5827 Fog 12 1032 100 100 1 150 07:46 06.11.2020
5828 Fog 12 1032 100 100 1 150 07:27 06.11.2020
5829 Mist 12 1031 100 1000 0.5 360 06:48 06.11.2020
5830 Mist 13 1031 100 1700 1.5 120 05:40 06.11.2020
5831 Mist 13 1031 100 1600 1 140 02:53 06.11.2020
5832 Fog 13 1031 100 150 0.5 360 00:43 06.11.2020
5833 Fog 12 1031 100 50 0.5 0 23:57 05.11.2020
5834 Fog 12 1031 100 500 1.56 91 23:26 05.11.2020
5835 Fog 12 1031 100 1500 0.5 340 22:49 05.11.2020
5836 Fog 13 1031 100 2000 0.5 0 22:26 05.11.2020
5837 Fog 12 1031 100 1500 0.5 340 22:26 05.11.2020
5838 Fog 13 1031 100 2000 0.5 0 21:58 05.11.2020
5839 Mist 13 1030 100 2500 1 10 21:40 05.11.2020
5840 Fog 13 1030 100 2500 1.5 20 21:19 05.11.2020
5841 Fog 14 1030 100 3000 1 0 20:44 05.11.2020
5842 Fog 14 1030 100 3000 1 0 20:24 05.11.2020
5843 Mist 14 1030 100 3000 0.5 0 19:57 05.11.2020
5844 Mist 14 1030 93 3500 1 0 19:38 05.11.2020
5845 Mist 15 1030 93 3500 1.5 110 19:18 05.11.2020
5846 Mist 15 1030 93 3500 1 0 18:41 05.11.2020
5847 Mist 15 1029 93 3500 1.5 190 18:22 05.11.2020
5848 Mist 15 1029 87 5000 1.5 170 17:46 05.11.2020
5849 Mist 15 1029 87 5000 1.5 170 17:25 05.11.2020
5850 Clouds 16 1029 82 6000 3.1 200 16:49 05.11.2020
5851 Clouds 16 1029 82 6000 3.1 200 16:28 05.11.2020
5852 Clouds 17 1029 82 6000 3.1 190 15:53 05.11.2020
5853 Clear 17 1029 82 6000 2.6 170 15:27 05.11.2020
5854 Clear 18 1029 77 6000 2.1 180 14:57 05.11.2020
5855 Clear 18 1029 77 6000 1 0 14:39 05.11.2020
5856 Clear 18 1029 82 6000 1.5 170 14:20 05.11.2020
5857 Clear 18 1030 77 6000 1 0 13:40 05.11.2020
5858 Clouds 18 1030 77 6000 0.5 0 12:56 05.11.2020
5859 Clear 18 1030 77 6000 0.5 0 12:56 05.11.2020
5860 Clouds 17 1030 87 6000 1 0 12:38 05.11.2020
5861 Mist 16 1030 100 5000 1 0 12:19 05.11.2020
5862 Mist 16 1031 100 1100 0.5 0 11:41 05.11.2020
5863 Fog 15 1030 100 200 0.5 0 11:22 05.11.2020
5864 Fog 14 1030 100 200 0.5 0 10:48 05.11.2020
5865 Fog 14 1030 100 200 0.5 0 10:26 05.11.2020
5866 Fog 12 1030 100 200 1 0 09:49 05.11.2020
5867 Fog 12 1030 100 200 1 0 09:24 05.11.2020
5868 Fog 11 1029 100 100 0.5 210 08:50 05.11.2020
5869 Fog 11 1029 100 100 0.5 210 08:31 05.11.2020
5870 Fog 11 1028 100 200 0.5 0 07:55 05.11.2020
5871 Fog 11 1028 100 100 0.5 0 07:27 05.11.2020
5872 Fog 11 1028 100 200 1 0 06:43 05.11.2020
5873 Fog 11 1028 100 200 2.1 190 05:59 05.11.2020
5874 Fog 13 1028 100 2000 0.5 0 02:42 05.11.2020
5875 Fog 13 1027 100 800 0.5 0 00:35 05.11.2020
5876 Mist 14 1027 93 4000 0.5 180 23:51 04.11.2020
5877 Mist 14 1027 93 5000 1 300 23:27 04.11.2020
5878 Mist 14 1027 93 5000 1 300 22:57 04.11.2020
5879 Mist 14 1027 93 5000 0.5 0 22:37 04.11.2020
5880 Mist 14 1027 93 4000 1 0 22:19 04.11.2020
5881 Mist 14 1026 93 4000 0.5 0 21:43 04.11.2020
5882 Mist 15 1026 93 4000 0.5 0 21:25 04.11.2020
5883 Mist 15 1025 93 4000 1 0 20:46 04.11.2020
5884 Mist 15 1025 93 4000 1 0 20:28 04.11.2020
5885 Mist 15 1025 93 5000 1 0 19:55 04.11.2020
5886 Mist 15 1025 93 5000 0.5 0 19:37 04.11.2020
5887 Mist 15 1025 93 5000 0.5 0 19:19 04.11.2020
5888 Mist 15 1024 93 5000 1 0 18:39 04.11.2020
5889 Mist 15 1024 93 5000 2.1 210 18:21 04.11.2020
5890 Mist 15 1023 87 5000 1.5 230 17:46 04.11.2020
5891 Mist 15 1023 87 5000 1.5 230 17:25 04.11.2020
5892 Mist 16 1023 87 4000 2.1 230 16:45 04.11.2020
5893 Mist 16 1023 87 4000 2.1 230 16:25 04.11.2020
5894 Mist 16 1023 87 4000 2.1 230 15:55 04.11.2020
5895 Mist 16 1023 87 3500 2.1 250 15:37 04.11.2020
5896 Mist 16 1022 87 3000 2.1 240 15:18 04.11.2020
5897 Mist 16 1023 87 2500 1.5 230 14:42 04.11.2020
5898 Mist 16 1023 87 2500 1.5 230 14:24 04.11.2020
5899 Mist 16 1023 87 2500 1.5 250 13:50 04.11.2020
5900 Mist 16 1023 87 2500 1.5 250 13:50 04.11.2020
5901 Mist 16 1023 82 2000 1.5 260 13:21 04.11.2020
5902 Mist 16 1023 82 2000 1.5 260 12:56 04.11.2020
5903 Mist 15 1023 82 2000 1.5 270 12:38 04.11.2020
5904 Mist 15 1023 82 2000 1 0 12:20 04.11.2020
5905 Mist 15 1023 87 2000 1 0 11:44 04.11.2020
5906 Mist 15 1023 87 2000 1 0 11:21 04.11.2020
5907 Mist 15 1023 87 2000 0.5 0 10:48 04.11.2020
5908 Mist 14 1023 87 2000 0.5 0 10:23 04.11.2020
5909 Rain 14 1023 87 2000 1 0 09:54 04.11.2020
5910 Rain 14 1023 93 3000 1 0 09:26 04.11.2020
5911 Mist 14 1022 93 3000 1 140 08:47 04.11.2020
5912 Rain 14 1022 93 3000 1 140 08:22 04.11.2020
5913 Mist 14 1022 93 3000 0.5 0 07:56 04.11.2020
5914 Mist 14 1022 100 5000 0.5 210 07:30 04.11.2020
5915 Mist 14 1021 93 5000 0.5 40 06:56 04.11.2020
5916 Mist 14 1022 100 4000 1 0 06:37 04.11.2020
5917 Mist 14 1022 100 5000 1.5 120 04:18 04.11.2020
5918 Mist 14 1022 100 5000 1.5 150 02:28 04.11.2020
5919 Mist 14 1022 100 5000 1 140 00:57 04.11.2020
5920 Mist 14 1023 100 5000 1 200 23:48 03.11.2020
5921 Mist 14 1023 100 5000 1 200 23:24 03.11.2020
5922 Clouds 14 1023 93 5000 1 180 22:42 03.11.2020
5923 Mist 14 1023 100 5000 1 0 22:21 03.11.2020
5924 Mist 14 1023 100 5000 1 0 21:59 03.11.2020
5925 Mist 14 1023 100 5000 1 0 21:40 03.11.2020
5926 Mist 14 1023 93 5000 1 0 21:21 03.11.2020
5927 Mist 14 1023 87 5000 0.5 0 20:45 03.11.2020
5928 Mist 14 1023 87 5000 0.5 0 20:26 03.11.2020
5929 Mist 14 1023 87 5000 0.5 0 19:44 03.11.2020
5930 Mist 15 1023 87 5000 0.5 0 19:23 03.11.2020
5931 Mist 15 1023 93 5000 1 0 18:47 03.11.2020
5932 Mist 15 1022 87 3500 2.1 210 18:24 03.11.2020
5933 Mist 15 1022 87 3500 2.1 210 17:59 03.11.2020
5934 Mist 15 1022 87 3500 2.1 190 17:41 03.11.2020
5935 Mist 15 1022 87 3500 1.5 180 17:23 03.11.2020
5936 Mist 16 1022 82 3500 1.5 190 16:45 03.11.2020
5937 Mist 16 1022 82 3500 1 170 16:24 03.11.2020
5938 Mist 16 1023 82 5000 1 0 15:46 03.11.2020
5939 Mist 16 1023 82 5000 1 0 15:25 03.11.2020
5940 Mist 16 1023 87 3000 1 0 14:53 03.11.2020
5941 Mist 16 1023 87 3000 1 0 14:33 03.11.2020
5942 Mist 16 1024 87 3000 1.5 120 13:47 03.11.2020
5943 Mist 16 1024 87 3000 1.5 120 13:23 03.11.2020
5944 Mist 15 1024 87 3000 0.5 0 12:59 03.11.2020
5945 Mist 15 1024 93 3000 0.5 0 12:38 03.11.2020
5946 Mist 15 1024 87 3500 0.5 0 12:19 03.11.2020
5947 Mist 14 1024 87 3500 1 0 11:42 03.11.2020
5948 Mist 14 1024 93 3000 1 0 11:20 03.11.2020
5949 Mist 13 1024 100 3000 0.5 0 10:40 03.11.2020
5950 Mist 13 1024 93 2000 1 0 10:21 03.11.2020
5951 Mist 13 1024 93 2000 1 0 09:52 03.11.2020
5952 Mist 13 1024 93 2000 1 100 09:33 03.11.2020
5953 Mist 12 1024 100 2000 0.5 0 08:56 03.11.2020
5954 Mist 12 1024 100 1500 1 120 08:35 03.11.2020
5955 Mist 12 1024 100 1500 1 0 07:57 03.11.2020
5956 Mist 12 1024 100 2300 1 0 07:35 03.11.2020
5957 Mist 12 1024 100 2000 1 120 06:51 03.11.2020
5958 Mist 12 1023 100 2000 0.5 0 05:49 03.11.2020
5959 Mist 12 1024 100 1900 0.5 0 03:20 03.11.2020
5960 Mist 12 1024 100 1000 1.5 80 00:42 03.11.2020
5961 Fog 12 1024 100 400 1.5 90 23:54 02.11.2020
5962 Fog 12 1024 100 1800 1.5 100 23:36 02.11.2020
5963 Fog 12 1024 100 1800 2.1 90 22:55 02.11.2020
5964 Fog 12 1024 100 1800 2.1 90 22:36 02.11.2020
5965 Fog 12 1024 100 1800 2.1 100 21:59 02.11.2020
5966 Fog 12 1024 100 1800 2.6 110 21:38 02.11.2020
5967 Fog 12 1024 100 800 2.6 130 21:19 02.11.2020
5968 Fog 12 1024 100 800 1.5 100 20:40 02.11.2020
5969 Fog 12 1024 100 800 1.5 150 20:20 02.11.2020
5970 Fog 12 1024 100 1200 2.1 140 19:48 02.11.2020
5971 Fog 12 1024 100 1200 2.1 140 19:48 02.11.2020
5972 Fog 12 1024 100 1200 2.1 140 19:27 02.11.2020
5973 Fog 12 1024 100 2000 2.1 140 18:56 02.11.2020
5974 Fog 12 1024 100 2000 2.1 140 18:56 02.11.2020
5975 Mist 13 1023 100 2500 1.5 140 18:38 02.11.2020
5976 Mist 12 1023 100 3000 1.5 160 18:19 02.11.2020
5977 Clouds 13 1023 93 7000 2.6 150 17:42 02.11.2020
5978 Clouds 14 1023 93 7000 2.6 150 17:24 02.11.2020
5979 Clouds 15 1023 93 8000 2.1 170 16:51 02.11.2020
5980 Clear 16 1023 87 10000 2.6 160 16:32 02.11.2020
5981 Clouds 17 1023 87 8000 2.6 180 15:57 02.11.2020
5982 Clouds 17 1022 87 8000 2.1 170 15:39 02.11.2020
5983 Clouds 17 1023 87 8000 2.6 150 15:19 02.11.2020
5984 Clouds 17 1023 87 8000 2.6 150 15:19 02.11.2020
5985 Clouds 17 1023 87 7000 2.6 150 14:43 02.11.2020
5986 Clouds 17 1023 87 7000 2.6 120 14:19 02.11.2020
5987 Clouds 16 1023 87 6000 1 0 13:48 02.11.2020
5988 Clouds 16 1023 87 6000 1 0 13:22 02.11.2020
5989 Clouds 14 1024 100 6000 1 0 12:50 02.11.2020
5990 Clouds 14 1024 100 6000 1 0 12:27 02.11.2020
5991 Mist 14 1024 100 2000 0.5 0 11:46 02.11.2020
5992 Fog 12 1024 100 400 1 0 11:20 02.11.2020
5993 Fog 13 1024 100 100 1 0 10:48 02.11.2020
5994 Fog 12 1024 100 100 1 0 10:25 02.11.2020
5995 Fog 13 1024 100 100 1.5 220 09:55 02.11.2020
5996 Fog 12 1023 100 100 1 0 09:29 02.11.2020
5997 Fog 11 1023 100 100 1.5 240 08:57 02.11.2020
5998 Fog 9 1023 100 100 1.5 220 08:36 02.11.2020
5999 Fog 10 1023 100 100 1.5 200 08:18 02.11.2020
6000 Fog 10 1023 100 250 1 0 07:39 02.11.2020
6001 Fog 10 1022 100 100 0.5 0 06:45 02.11.2020
6002 Fog 10 1022 100 100 0.5 0 05:19 02.11.2020
6003 Fog 11 1022 100 200 1 200 01:27 02.11.2020
6004 Fog 11 1022 100 200 1 200 01:27 02.11.2020
6005 Fog 11 1022 100 200 1 200 01:27 02.11.2020
6006 Fog 11 1022 100 200 1 200 01:27 02.11.2020
6007 Fog 11 1022 100 200 1 180 00:37 02.11.2020
6008 Fog 11 1022 100 200 1 0 23:57 01.11.2020
6009 Fog 11 1022 100 200 1 0 23:38 01.11.2020
6010 Fog 11 1022 100 200 1 0 23:19 01.11.2020
6011 Fog 11 1022 100 400 1.5 260 22:41 01.11.2020
6012 Fog 11 1022 100 400 1 0 22:21 01.11.2020
6013 Fog 11 1022 100 400 1.5 210 21:43 01.11.2020
6014 Fog 11 1022 100 600 1.5 250 21:23 01.11.2020
6015 Fog 11 1022 100 400 1.5 260 20:47 01.11.2020
6016 Fog 11 1022 100 400 1.5 260 20:26 01.11.2020
6017 Fog 12 1022 100 400 2.1 270 19:48 01.11.2020
6018 Fog 11 1022 100 400 2.1 270 19:29 01.11.2020
6019 Fog 12 1021 100 400 2.1 260 18:58 01.11.2020
6020 Fog 12 1021 100 500 1.5 230 18:38 01.11.2020
6021 Fog 12 1021 100 800 1.5 220 18:19 01.11.2020
6022 Fog 13 1021 100 800 1.5 220 17:45 01.11.2020
6023 Mist 14 1021 93 3000 1.5 240 17:27 01.11.2020
6024 Mist 14 1021 93 5000 1.5 230 16:45 01.11.2020
6025 Mist 15 1021 93 5000 1.5 230 16:27 01.11.2020
6026 Mist 16 1021 100 5000 1.5 260 15:58 01.11.2020
6027 Mist 16 1022 93 5000 2.1 220 15:38 01.11.2020
6028 Mist 16 1022 93 5000 2.1 220 15:19 01.11.2020
6029 Clouds 15 1022 100 6000 2.1 210 14:46 01.11.2020
6030 Clouds 15 1022 100 6000 2.1 210 14:22 01.11.2020
6031 Clouds 15 1022 100 7000 2.1 230 13:56 01.11.2020
6032 Rain 15 1023 100 3500 2.6 260 13:37 01.11.2020
6033 Fog 15 1023 100 900 1.5 220 13:19 01.11.2020
6034 Mist 14 1023 100 1200 1.5 240 12:38 01.11.2020
6035 Mist 13 1023 100 1200 1 0 12:18 01.11.2020
6036 Mist 13 1023 100 1200 1 0 12:18 01.11.2020
6037 Fog 12 1023 100 900 1 0 11:47 01.11.2020
6038 Fog 12 1024 100 800 1 300 11:18 01.11.2020
6039 Fog 12 1024 100 800 1 300 11:18 01.11.2020
6040 Fog 11 1023 100 250 0.5 0 10:42 01.11.2020
6041 Fog 11 1023 100 250 0.5 0 10:42 01.11.2020
6042 Fog 11 1023 100 250 0.5 0 10:24 01.11.2020
6043 Fog 10 1023 100 100 0.5 0 09:49 01.11.2020
6044 Fog 10 1023 100 100 0.5 0 09:19 01.11.2020
6045 Fog 10 1023 100 100 1 0 08:38 01.11.2020
6046 Fog 10 1022 100 50 0.5 0 07:51 01.11.2020
6047 Fog 9 1022 100 50 0.5 0 06:48 01.11.2020
6048 Fog 10 1023 100 50 1 0 02:22 01.11.2020
6049 Fog 10 1022 100 50 0.5 0 01:31 01.11.2020
6050 Fog 10 1023 100 50 0.5 0 23:51 31.10.2020
6051 Fog 11 1022 100 50 0.5 0 23:23 31.10.2020
6052 Fog 11 1022 100 200 1 0 22:45 31.10.2020
6053 Fog 11 1022 100 200 1 0 22:45 31.10.2020
6054 Fog 11 1022 100 200 1 0 22:24 31.10.2020
6055 Fog 11 1022 100 200 0.5 0 21:46 31.10.2020
6056 Fog 11 1022 100 200 0.5 0 21:22 31.10.2020
6057 Clouds 12 1022 87 10000 0.45 254 20:43 31.10.2020
6058 Fog 12 1022 100 200 1.5 210 20:20 31.10.2020
6059 Fog 12 1022 100 300 1 0 19:44 31.10.2020
6060 Fog 11 1022 100 300 1 0 19:24 31.10.2020
6061 Mist 13 1022 100 5000 1.5 250 18:59 31.10.2020
6062 Mist 13 1022 100 5000 1 0 18:40 31.10.2020
6063 Clear 14 1022 87 10000 1.5 240 17:47 31.10.2020
6064 Clouds 15 1022 82 7000 1.5 220 17:26 31.10.2020
6065 Clouds 15 1022 82 7000 1.5 220 16:56 31.10.2020
6066 Clouds 16 1022 82 7000 1.5 230 16:37 31.10.2020
6067 Clouds 16 1022 82 8000 1.5 0 15:55 31.10.2020
6068 Clouds 17 1022 82 7000 2.1 210 15:26 31.10.2020
6069 Rain 16 1022 87 5000 1.5 230 14:55 31.10.2020
6070 Mist 16 1023 87 5000 1.5 250 14:32 31.10.2020
6071 Mist 16 1023 93 2500 1.5 230 13:57 31.10.2020
6072 Mist 15 1023 93 2500 2.1 230 13:39 31.10.2020
6073 Mist 15 1024 93 2500 1 0 13:19 31.10.2020
6074 Mist 14 1024 100 2500 1 0 12:27 31.10.2020
6075 Fog 12 1024 100 600 1 0 11:42 31.10.2020
6076 Fog 13 1024 100 600 1 0 11:24 31.10.2020
6077 Fog 12 1024 100 300 1.5 150 10:54 31.10.2020
6078 Fog 12 1025 100 400 1 0 10:32 31.10.2020
6079 Fog 11 1024 100 3500 1 0 09:41 31.10.2020
6080 Fog 12 1024 100 3000 1 280 09:20 31.10.2020
6081 Fog 11 1024 100 2500 0.5 260 08:28 31.10.2020
6082 Fog 10 1024 100 200 0.5 0 07:47 31.10.2020
6083 Fog 10 1024 100 200 0.5 0 07:26 31.10.2020
6084 Fog 10 1024 100 800 0.5 0 06:37 31.10.2020
6085 Fog 10 1024 100 150 0.5 0 03:50 31.10.2020
6086 Fog 10 1024 100 400 0.5 0 02:48 31.10.2020
6087 Fog 11 1024 100 900 0.5 0 00:55 31.10.2020
6088 Fog 11 1024 100 2500 0.5 300 23:58 30.10.2020
6089 Fog 12 1025 100 3500 1 0 23:39 30.10.2020
6090 Fog 12 1025 100 4000 0.5 0 23:20 30.10.2020
6091 Fog 12 1025 100 5000 1 50 22:40 30.10.2020
6092 Fog 12 1025 100 5000 1 50 22:22 30.10.2020
6093 Fog 12 1024 100 8000 1 350 21:49 30.10.2020
6094 Fog 13 1024 100 8000 1 350 21:27 30.10.2020
6095 Fog 13 1024 93 10000 0.5 0 20:48 30.10.2020
6096 Fog 13 1024 93 10000 0.5 0 20:28 30.10.2020
6097 Fog 14 1024 93 10000 0.5 0 20:28 30.10.2020
6098 Clear 14 1024 93 10000 0.5 130 19:59 30.10.2020
6099 Clear 14 1023 93 10000 1 0 19:40 30.10.2020
6100 Clear 14 1023 93 10000 1 190 19:18 30.10.2020
6101 Clear 14 1023 93 10000 1 190 19:18 30.10.2020
6102 Clear 15 1023 82 10000 1.5 150 18:42 30.10.2020
6103 Clear 15 1023 82 10000 1.5 150 18:23 30.10.2020
6104 Clear 16 1022 82 10000 1.5 160 17:47 30.10.2020
6105 Clear 17 1022 77 10000 2.1 140 17:22 30.10.2020
6106 Clear 18 1022 72 10000 2.6 150 16:52 30.10.2020
6107 Clear 18 1022 72 10000 2.6 150 16:25 30.10.2020
6108 Clear 18 1022 72 10000 2.1 170 15:45 30.10.2020
6109 Clear 18 1022 63 10000 1.5 200 15:27 30.10.2020
6110 Clear 18 1022 63 10000 1.5 200 14:58 30.10.2020
6111 Clear 18 1023 63 10000 0.5 0 14:40 30.10.2020
6112 Clear 18 1023 63 10000 0.5 0 14:21 30.10.2020
6113 Clouds 18 1023 67 9000 1 0 13:42 30.10.2020
6114 Clear 17 1023 72 10000 1 0 13:20 30.10.2020
6115 Clear 17 1023 72 10000 1 0 12:47 30.10.2020
6116 Clear 16 1024 77 10000 1 0 12:22 30.10.2020
6117 Clear 16 1024 77 10000 1 0 11:56 30.10.2020
6118 Clear 16 1024 82 10000 0.5 0 11:21 30.10.2020
6119 Clouds 15 1026 46 10000 0.89 244 10:50 30.10.2020
6120 Clear 14 1024 93 10000 1.5 120 10:25 30.10.2020
6121 Clouds 12 1024 100 8000 0.5 0 09:48 30.10.2020
6122 Clouds 12 1024 100 8000 0.5 0 09:25 30.10.2020
6123 Clouds 11 1024 100 8000 0.5 0 08:59 30.10.2020
6124 Fog 10 1023 100 5000 0.5 0 08:31 30.10.2020
6125 Fog 9 1023 100 800 0.5 0 07:52 30.10.2020
6126 Fog 9 1023 100 2500 1 350 07:33 30.10.2020
6127 Clouds 9 1023 100 10000 1.5 10 06:49 30.10.2020
6128 Fog 10 1022 100 10000 1 210 05:39 30.10.2020
6129 Fog 10 1022 100 10000 1 160 02:41 30.10.2020
6130 Clear 11 1022 100 10000 1.5 30 00:47 30.10.2020
6131 Clear 11 1022 100 10000 0.5 0 23:57 29.10.2020
6132 Clear 11 1022 100 10000 1 0 23:39 29.10.2020
6133 Clear 11 1022 100 10000 1 0 23:21 29.10.2020
6134 Clear 11 1022 100 10000 1 20 22:43 29.10.2020
6135 Clear 12 1022 100 10000 1 20 22:24 29.10.2020
6136 Clear 12 1021 100 10000 0.5 0 21:40 29.10.2020
6137 Clear 12 1021 100 10000 0.5 0 21:21 29.10.2020
6138 Clear 12 1021 100 10000 1 230 20:42 29.10.2020
6139 Clear 13 1020 93 10000 0.5 0 20:20 29.10.2020
6140 Clear 13 1020 93 10000 0.5 0 20:20 29.10.2020
6141 Clear 13 1020 93 10000 0.5 0 19:45 29.10.2020
6142 Clear 13 1020 87 10000 1 180 19:23 29.10.2020
6143 Clear 14 1020 87 10000 1 180 18:58 29.10.2020
6144 Clear 14 1019 87 10000 1 200 18:39 29.10.2020
6145 Rain 14 1019 77 10000 0.5 230 18:20 29.10.2020
6146 Clear 14 1019 67 10000 1 0 17:41 29.10.2020
6147 Clear 15 1019 72 10000 1.5 210 17:21 29.10.2020
6148 Clear 16 1019 72 10000 1 0 16:47 29.10.2020
6149 Clear 16 1018 67 10000 1.5 230 16:21 29.10.2020
6150 Clear 16 1018 67 10000 2.6 250 15:57 29.10.2020
6151 Clear 16 1018 67 10000 2.6 250 15:38 29.10.2020
6152 Clear 17 1018 67 10000 2.1 250 15:20 29.10.2020
6153 Clear 16 1018 72 10000 2.1 260 14:46 29.10.2020
6154 Clear 16 1018 72 10000 2.1 260 14:23 29.10.2020
6155 Clear 16 1019 72 10000 2.1 260 13:48 29.10.2020
6156 Clear 16 1019 55 10000 1 0 13:28 29.10.2020
6157 Clouds 15 1019 77 10000 2.1 210 12:57 29.10.2020
6158 Clouds 15 1019 77 10000 2.1 210 12:39 29.10.2020
6159 Clouds 15 1019 77 10000 1 0 12:18 29.10.2020
6160 Clouds 15 1019 76 10000 1 0 11:42 29.10.2020
6161 Clouds 15 1019 81 10000 1.21 227 11:24 29.10.2020
6162 Clouds 13 1019 76 10000 0.5 0 10:37 29.10.2020
6163 Clouds 13 1019 85 10000 0.96 233 10:19 29.10.2020
6164 Clouds 12 1019 87 10000 1 0 09:50 29.10.2020
6165 Clouds 11 1018 91 10000 0.72 216 09:27 29.10.2020
6166 Clouds 10 1018 93 10000 1 0 08:48 29.10.2020
6167 Clouds 10 1018 93 10000 1 0 08:26 29.10.2020
6168 Clouds 9 1018 100 10000 0.5 0 07:52 29.10.2020
6169 Fog 9 1018 100 10000 0.5 0 07:24 29.10.2020
6170 Clear 9 1018 93 10000 0.5 0 06:54 29.10.2020
6171 Clear 10 1018 93 10000 0.5 0 04:51 29.10.2020
6172 Clouds 11 1017 90 10000 1.03 215 02:40 29.10.2020
6173 Clouds 11 1018 90 10000 1.28 249 00:45 29.10.2020
6174 Clouds 11 1017 90 10000 1.44 263 00:23 29.10.2020
6175 Clouds 12 1017 89 10000 1.44 263 23:44 28.10.2020
6176 Clouds 12 1017 88 10000 1.54 245 23:20 28.10.2020
6177 Clear 12 1018 93 10000 0.5 0 22:44 28.10.2020
6178 Clear 12 1018 93 10000 0.5 0 22:26 28.10.2020
6179 Clouds 13 1017 87 10000 2.1 240 21:46 28.10.2020
6180 Clouds 13 1017 87 10000 1.67 232 21:26 28.10.2020
6181 Clear 13 1018 93 10000 0.5 260 20:59 28.10.2020
6182 Clear 12 1018 93 10000 1 280 20:40 28.10.2020
6183 Clear 13 1018 87 10000 1 280 20:19 28.10.2020
6184 Clear 13 1017 81 10000 0.5 0 19:47 28.10.2020
6185 Clear 13 1017 81 10000 0.5 0 19:27 28.10.2020
6186 Clear 14 1017 67 10000 1 0 18:46 28.10.2020
6187 Clear 15 1017 62 10000 1.5 260 18:20 28.10.2020
6188 Clear 15 1017 59 10000 1.5 280 17:44 28.10.2020
6189 Clear 16 1017 59 10000 1 0 17:24 28.10.2020
6190 Clear 17 1016 48 10000 1.5 230 16:49 28.10.2020
6191 Clear 17 1016 48 10000 1.5 230 16:30 28.10.2020
6192 Clear 17 1017 52 10000 1.5 270 15:45 28.10.2020
6193 Clear 18 1019 18 10000 0.89 275 15:20 28.10.2020
6194 Clear 18 1017 55 10000 2.1 230 14:57 28.10.2020
6195 Clear 18 1017 55 10000 2.1 230 14:38 28.10.2020
6196 Clear 17 1017 61 10000 0.45 10 14:18 28.10.2020
6197 Clouds 16 1017 64 10000 0.45 359 12:39 28.10.2020
6198 Clouds 16 1019 24 10000 0.89 205 12:20 28.10.2020
6199 Clouds 15 1018 74 10000 1.07 202 11:44 28.10.2020
6200 Clouds 14 1018 79 10000 1.16 228 11:23 28.10.2020
6201 Clouds 14 1018 79 10000 1.16 228 10:58 28.10.2020
6202 Clouds 14 1018 79 10000 1.16 228 10:58 28.10.2020
6203 Clouds 14 1018 79 10000 1.16 228 10:40 28.10.2020
6204 Clouds 14 1018 79 10000 1.16 228 10:40 28.10.2020
6205 Clouds 13 1017 81 10000 1.11 224 10:22 28.10.2020
6206 Clouds 11 1018 100 10000 1 0 09:39 28.10.2020
6207 Clouds 11 1018 100 10000 0.5 0 09:20 28.10.2020
6208 Fog 9 1017 100 6000 0.5 0 08:47 28.10.2020
6209 Fog 9 1017 100 6000 0.5 0 08:25 28.10.2020
6210 Fog 9 1017 100 2500 0.5 0 07:48 28.10.2020
6211 Fog 9 1017 100 4000 0.55 213 07:30 28.10.2020
6212 Fog 9 1016 100 10000 0.5 180 06:41 28.10.2020
6213 Fog 9 1016 100 10000 1 0 05:51 28.10.2020
6214 Fog 10 1016 93 10000 0.5 0 04:53 28.10.2020
6215 Fog 10 1016 100 10000 0.5 0 04:25 28.10.2020
6216 Rain 10 1016 93 10000 0.5 0 02:25 28.10.2020
6217 Clear 10 1016 100 10000 0.5 0 01:29 28.10.2020
6218 Clear 11 1016 100 10000 1 180 23:54 27.10.2020
6219 Clear 11 1015 100 10000 0.5 40 23:26 27.10.2020
6220 Clear 11 1015 100 10000 1 40 22:57 27.10.2020
6221 Clouds 11 1015 93 10000 1 350 22:38 27.10.2020
6222 Clouds 11 1015 93 10000 1 340 22:19 27.10.2020
6223 Clouds 11 1015 93 10000 1 340 21:55 27.10.2020
6224 Clouds 11 1014 93 10000 1 350 21:36 27.10.2020
6225 Clouds 11 1014 93 10000 0.5 0 21:18 27.10.2020
6226 Clouds 11 1014 93 10000 0.5 0 21:18 27.10.2020
6227 Clouds 11 1014 93 10000 0.5 0 21:18 27.10.2020
6228 Clouds 11 1013 93 10000 0.5 0 20:39 27.10.2020
6229 Clear 12 1013 93 10000 0.5 0 20:21 27.10.2020
6230 Clear 12 1012 93 10000 0.5 10 19:39 27.10.2020
6231 Clear 12 1012 87 10000 0.5 0 19:21 27.10.2020
6232 Clear 12 1012 87 10000 0.5 0 18:58 27.10.2020
6233 Clear 13 1012 87 10000 0.5 220 18:40 27.10.2020
6234 Clear 13 1011 71 10000 1 210 18:18 27.10.2020
6235 Clear 14 1011 67 10000 1.5 220 17:43 27.10.2020
6236 Clear 14 1010 63 10000 2.1 200 17:21 27.10.2020
6237 Clear 14 1011 67 10000 1.5 220 17:21 27.10.2020
6238 Clear 15 1010 69 10000 1.9 226 16:48 27.10.2020
6239 Clear 16 1010 63 10000 1.5 230 16:27 27.10.2020
6240 Clear 16 1010 67 10000 2.1 200 15:49 27.10.2020
6241 Clear 16 1010 67 10000 2.1 200 15:30 27.10.2020
6242 Clouds 16 1010 67 10000 1.5 200 14:57 27.10.2020
6243 Clouds 15 1010 67 10000 1.5 200 14:39 27.10.2020
6244 Clouds 15 1010 72 10000 2.1 230 14:20 27.10.2020
6245 Clouds 15 1010 76 10000 2.1 230 13:33 27.10.2020
6246 Clouds 14 1010 82 10000 1.5 0 12:59 27.10.2020
6247 Clouds 13 1009 87 10000 2.1 210 12:39 27.10.2020
6248 Clouds 13 1009 87 10000 1.5 220 12:20 27.10.2020
6249 Clouds 12 1009 87 10000 2.1 210 11:42 27.10.2020
6250 Clouds 12 1009 87 10000 2.1 210 11:22 27.10.2020
6251 Clouds 11 1008 81 10000 1 0 10:47 27.10.2020
6252 Rain 11 1008 81 10000 1 0 10:26 27.10.2020
6253 Rain 11 1008 87 10000 2.6 280 09:46 27.10.2020
6254 Rain 11 1008 87 10000 2.6 280 09:25 27.10.2020
6255 Rain 10 1006 81 10000 3.1 280 08:39 27.10.2020
6256 Rain 10 1006 76 10000 2.1 290 08:19 27.10.2020
6257 Rain 10 1006 76 10000 2.1 310 07:45 27.10.2020
6258 Rain 10 1006 76 10000 2.1 310 07:25 27.10.2020
6259 Rain 10 1005 81 10000 2.6 310 06:22 27.10.2020
6260 Rain 9 1005 81 10000 2.6 310 06:22 27.10.2020
6261 Clouds 9 1005 81 10000 2.6 320 05:52 27.10.2020
6262 Clouds 9 1005 81 10000 2.6 320 05:34 27.10.2020
6263 Clouds 10 1004 81 10000 2.1 320 04:44 27.10.2020
6264 Rain 10 1004 93 10000 3.1 310 02:30 27.10.2020
6265 Rain 11 1004 93 10000 2.6 350 00:53 27.10.2020
6266 Clouds 11 1004 98 10000 4.31 351 23:43 26.10.2020
6267 Rain 12 1004 93 8000 1.5 90 23:19 26.10.2020
6268 Rain 13 1004 93 10000 2.1 30 22:46 26.10.2020
6269 Drizzle 13 1004 93 10000 2.1 30 22:21 26.10.2020
6270 Drizzle 13 1004 93 10000 2.1 20 21:45 26.10.2020
6271 Drizzle 13 1004 93 10000 2.1 20 21:20 26.10.2020
6272 Rain 13 1004 93 10000 0.5 0 20:58 26.10.2020
6273 Rain 13 1005 100 10000 1.5 0 20:39 26.10.2020
6274 Rain 13 1004 100 10000 2.1 230 20:18 26.10.2020
6275 Rain 13 1004 100 10000 2.1 230 19:47 26.10.2020
6276 Rain 14 1003 100 6000 3.1 140 19:23 26.10.2020
6277 Rain 14 1003 99 6138 0.58 267 18:44 26.10.2020
6278 Rain 14 1003 93 8000 4.1 140 18:24 26.10.2020
6279 Rain 14 1006 98 6399 3.13 110 17:56 26.10.2020
6280 Rain 14 1002 99 6399 1.83 116 17:37 26.10.2020
6281 Rain 14 1003 99 10000 1.45 163 17:19 26.10.2020
6282 Rain 14 1003 93 4000 4.6 120 16:40 26.10.2020
6283 Rain 14 1003 93 4000 6.2 110 16:21 26.10.2020
6284 Rain 14 1003 93 9000 4.6 100 15:41 26.10.2020
6285 Rain 14 1003 100 6000 4.1 100 15:20 26.10.2020
6286 Mist 14 1004 93 5000 4.1 110 14:52 26.10.2020
6287 Mist 14 1004 93 5000 4.1 110 14:30 26.10.2020
6288 Rain 14 1004 93 9000 4.1 100 13:43 26.10.2020
6289 Rain 13 1004 93 9000 4.1 100 13:24 26.10.2020
6290 Rain 13 1005 93 3500 1 0 12:49 26.10.2020
6291 Rain 13 1005 93 3500 1 0 12:27 26.10.2020
6292 Rain 13 1005 93 4000 1.5 0 11:57 26.10.2020
6293 Rain 13 1005 93 6000 4.1 80 11:37 26.10.2020
6294 Rain 13 1004 93 9000 4.6 110 11:19 26.10.2020
6295 Rain 13 1005 93 9000 5.1 100 10:44 26.10.2020
6296 Rain 13 1005 93 7000 3.6 90 10:25 26.10.2020
6297 Rain 13 1005 93 8000 4.1 100 09:48 26.10.2020
6298 Rain 13 1005 93 8000 4.1 100 09:26 26.10.2020
6299 Rain 13 1006 93 6000 4.6 90 08:46 26.10.2020
6300 Rain 13 1006 93 9000 4.1 90 07:58 26.10.2020
6301 Rain 13 1007 93 7000 3.6 90 07:38 26.10.2020
6302 Rain 13 1007 93 10000 4.1 90 06:58 26.10.2020
6303 Clouds 13 1009 93 10000 3.6 70 04:48 26.10.2020
6304 Clouds 13 1009 93 10000 3.6 70 04:18 26.10.2020
6305 Clouds 13 1010 93 10000 2.6 100 03:20 26.10.2020
6306 Clouds 13 1010 93 10000 2.6 100 03:20 26.10.2020
6307 Clouds 13 1010 93 8000 2.6 90 03:20 26.10.2020
6308 Clouds 13 1010 93 10000 2.6 100 03:20 26.10.2020
6309 Rain 14 1010 93 10000 4.1 20 01:34 26.10.2020
6310 Clouds 14 1012 93 8000 2.6 50 00:33 26.10.2020
6311 Rain 14 1012 87 10000 2.1 70 23:43 25.10.2020
6312 Rain 14 1012 93 10000 2.1 60 23:22 25.10.2020
6313 Rain 14 1012 93 10000 1 360 22:42 25.10.2020
6314 Rain 14 1012 93 10000 1 360 22:24 25.10.2020
6315 Clouds 14 1013 100 10000 1 0 21:48 25.10.2020
6316 Clouds 14 1013 100 10000 1 0 21:29 25.10.2020
6317 Rain 15 1013 93 10000 1 0 20:57 25.10.2020
6318 Drizzle 15 1013 100 6000 0.5 80 20:38 25.10.2020
6319 Drizzle 15 1013 93 6000 0.5 0 20:19 25.10.2020
6320 Drizzle 15 1013 93 6000 0.5 0 19:49 25.10.2020
6321 Rain 15 1013 93 6000 1 0 19:24 25.10.2020
6322 Rain 15 1013 93 6000 0.5 0 18:55 25.10.2020
6323 Rain 15 1013 93 6000 0.5 200 18:37 25.10.2020
6324 Mist 15 1013 87 5000 1 190 18:19 25.10.2020
6325 Mist 15 1013 87 5000 1 200 17:39 25.10.2020
6326 Mist 15 1013 87 5000 1 200 17:21 25.10.2020
6327 Mist 16 1013 82 5000 1 0 16:58 25.10.2020
6328 Mist 16 1013 82 5000 1.5 260 16:38 25.10.2020
6329 Clouds 16 1013 82 6000 2.1 260 16:18 25.10.2020
6330 Clouds 16 1014 82 6000 1.5 230 15:46 25.10.2020
6331 Clouds 16 1014 82 6000 1.5 230 15:25 25.10.2020
6332 Clouds 16 1014 82 6000 1.5 230 15:25 25.10.2020
6333 Clouds 16 1014 77 7000 2.1 250 14:46 25.10.2020
6334 Clouds 17 1014 77 7000 2.1 250 14:28 25.10.2020
6335 Clouds 17 1015 77 6000 2.1 270 13:43 25.10.2020
6336 Clouds 17 1015 77 6000 2.1 270 13:21 25.10.2020
6337 Clouds 17 1016 82 6000 1 0 12:47 25.10.2020
6338 Clouds 17 1016 82 6000 1 0 12:26 25.10.2020
6339 Clouds 17 1016 82 6000 1 0 11:55 25.10.2020
6340 Mist 16 1016 87 5000 2.1 150 11:36 25.10.2020
6341 Mist 16 1016 87 5000 1 0 11:18 25.10.2020
6342 Mist 15 1016 87 5000 1 0 10:44 25.10.2020
6343 Mist 15 1017 100 4000 0.5 0 10:24 25.10.2020
6344 Mist 14 1017 100 3500 0.5 0 09:46 25.10.2020
6345 Mist 13 1016 100 3000 0.5 0 09:19 25.10.2020
6346 Mist 12 1016 100 2500 1 0 08:47 25.10.2020
6347 Mist 12 1016 100 2500 1 0 08:29 25.10.2020
6348 Fog 12 1016 100 1500 1 0 07:48 25.10.2020
6349 Fog 11 1016 100 1500 1 0 07:27 25.10.2020
6350 Mist 11 1016 100 4500 1.5 180 06:48 25.10.2020
6351 Fog 12 1016 100 4500 0.5 0 05:43 25.10.2020
6352 Fog 12 1016 100 4000 0.5 0 04:52 25.10.2020
6353 Fog 12 1016 100 1000 0.5 230 02:58 25.10.2020
6354 Fog 12 1017 100 1500 0.5 0 01:20 25.10.2020
6355 Fog 11 1017 100 1500 0.5 0 00:42 25.10.2020
6356 Fog 11 1017 100 2500 0.5 0 00:18 25.10.2020
6357 Fog 12 1017 100 2500 0.5 0 23:43 24.10.2020
6358 Fog 12 1017 100 2500 0.5 0 23:24 24.10.2020
6359 Fog 13 1016 93 6000 1.06 241 22:42 24.10.2020
6360 Fog 13 1016 100 8000 0.5 250 22:23 24.10.2020
6361 Fog 13 1016 100 8000 0.5 250 21:57 24.10.2020
6362 Clear 13 1016 100 10000 1.5 270 21:38 24.10.2020
6363 Clear 13 1016 93 10000 0.5 0 21:19 24.10.2020
6364 Clear 14 1016 87 10000 2.6 110 20:45 24.10.2020
6365 Clear 14 1016 87 10000 2.6 110 20:22 24.10.2020
6366 Clouds 14 1015 82 10000 0.5 0 19:45 24.10.2020
6367 Clouds 15 1015 82 10000 0.5 0 19:25 24.10.2020
6368 Clouds 15 1015 87 8000 1 0 18:55 24.10.2020
6369 Clear 15 1016 79 10000 0.45 236 18:31 24.10.2020
6370 Clouds 16 1015 82 8000 1.5 190 17:56 24.10.2020
6371 Clouds 16 1015 82 8000 1.5 200 17:27 24.10.2020
6372 Clouds 16 1015 82 8000 1.5 200 16:58 24.10.2020
6373 Mist 16 1015 82 4000 1 0 16:40 24.10.2020
6374 Mist 16 1015 87 4000 2.1 250 15:59 24.10.2020
6375 Mist 16 1015 87 3500 2.1 250 15:38 24.10.2020
6376 Mist 16 1016 87 3500 2.1 220 15:19 24.10.2020
6377 Mist 15 1016 87 3500 2.1 220 14:40 24.10.2020
6378 Mist 16 1016 87 3500 2.1 220 14:22 24.10.2020
6379 Mist 15 1017 87 2000 2.1 210 13:44 24.10.2020
6380 Mist 15 1017 87 2000 2.1 210 13:20 24.10.2020
6381 Mist 14 1017 93 2000 2.1 260 12:41 24.10.2020
6382 Mist 14 1017 93 1500 1.5 230 12:20 24.10.2020
6383 Mist 14 1017 93 1500 1.5 230 11:50 24.10.2020
6384 Mist 14 1017 93 1000 2.1 250 11:23 24.10.2020
6385 Fog 14 1017 93 900 1.5 280 10:47 24.10.2020
6386 Fog 13 1017 100 900 1.5 260 10:27 24.10.2020
6387 Fog 13 1017 100 900 1.5 220 09:46 24.10.2020
6388 Mist 13 1017 100 1200 1.5 210 09:26 24.10.2020
6389 Mist 13 1017 100 1200 1.5 210 08:57 24.10.2020
6390 Mist 13 1017 100 1500 1.5 210 08:19 24.10.2020
6391 Mist 13 1017 100 1500 1.5 210 07:51 24.10.2020
6392 Clouds 13 1019 98 10000 1.39 238 07:20 24.10.2020
6393 Mist 13 1017 100 1500 1 0 06:50 24.10.2020
6394 Drizzle 13 1017 100 1500 0.5 0 05:43 24.10.2020
6395 Mist 13 1018 100 1500 1 0 02:20 24.10.2020
6396 Mist 13 1018 100 2500 1 0 00:55 24.10.2020
6397 Mist 13 1018 93 2500 0.5 0 00:37 24.10.2020
6398 Rain 13 1018 93 2500 2.1 110 00:19 24.10.2020
6399 Rain 13 1018 93 1500 1.5 110 23:40 23.10.2020
6400 Drizzle 13 1018 93 1500 1.5 110 23:22 23.10.2020
6401 Drizzle 13 1018 100 1500 2.1 80 22:42 23.10.2020
6402 Drizzle 13 1018 100 1500 1.5 70 22:21 23.10.2020
6403 Drizzle 13 1018 100 1500 1.5 70 21:53 23.10.2020
6404 Drizzle 13 1018 100 1500 1 0 21:31 23.10.2020
6405 Drizzle 13 1018 93 1500 2.1 120 20:59 23.10.2020
6406 Rain 13 1018 93 1500 2.1 120 20:38 23.10.2020
6407 Rain 13 1018 93 1500 2.1 120 20:19 23.10.2020
6408 Drizzle 13 1018 93 1000 2.1 90 19:44 23.10.2020
6409 Drizzle 13 1018 93 1000 2.1 90 19:26 23.10.2020
6410 Fog 13 1018 93 800 1.5 100 18:47 23.10.2020
6411 Fog 13 1018 93 800 2.6 120 18:29 23.10.2020
6412 Mist 13 1019 93 1000 1.5 100 17:45 23.10.2020
6413 Mist 13 1019 93 1000 1.5 100 17:22 23.10.2020
6414 Mist 13 1019 93 2000 2.1 100 16:50 23.10.2020
6415 Mist 13 1019 93 2000 2.1 100 16:31 23.10.2020
6416 Rain 13 1019 93 2000 2.6 110 15:56 23.10.2020
6417 Mist 13 1019 93 2000 2.6 110 15:38 23.10.2020
6418 Mist 13 1019 93 2000 3.1 90 15:19 23.10.2020
6419 Mist 13 1020 93 2000 3.1 90 14:45 23.10.2020
6420 Mist 13 1020 93 2000 3.1 90 14:27 23.10.2020
6421 Rain 13 1021 93 2000 2.1 100 13:41 23.10.2020
6422 Rain 13 1021 93 2000 3.1 110 13:23 23.10.2020
6423 Rain 13 1021 93 2500 2.6 110 12:48 23.10.2020
6424 Rain 13 1021 93 2500 2.6 110 12:29 23.10.2020
6425 Rain 13 1021 93 2000 3.1 100 11:49 23.10.2020
6426 Rain 13 1021 93 2000 3.1 100 11:25 23.10.2020
6427 Rain 13 1021 93 2000 3.1 110 10:50 23.10.2020
6428 Rain 13 1021 100 2000 1.5 70 10:26 23.10.2020
6429 Rain 13 1021 100 2000 1.5 70 09:50 23.10.2020
6430 Rain 13 1020 100 2000 0.5 0 09:27 23.10.2020
6431 Rain 13 1020 100 2000 0.5 0 09:27 23.10.2020
6432 Mist 13 1020 100 2000 0.5 0 08:56 23.10.2020
6433 Rain 13 1021 100 2000 0.5 0 08:37 23.10.2020
6434 Rain 13 1021 100 2000 1 210 07:47 23.10.2020
6435 Rain 13 1021 100 2000 0.5 0 07:26 23.10.2020
6436 Rain 13 1021 100 2000 0.5 0 06:40 23.10.2020
6437 Mist 13 1021 100 3000 0.5 0 05:58 23.10.2020
6438 Mist 13 1023 100 3000 0.5 0 02:54 23.10.2020
6439 Mist 13 1023 100 4000 0.5 0 02:25 23.10.2020
6440 Mist 13 1023 93 4000 1 200 00:48 23.10.2020
6441 Clouds 13 1026 98 10000 0.94 241 23:54 22.10.2020
6442 Mist 13 1024 93 5000 1 0 23:31 22.10.2020
6443 Clouds 13 1023 97 10000 0.94 261 22:54 22.10.2020
6444 Clouds 13 1023 97 10000 1.06 271 22:36 22.10.2020
6445 Clouds 13 1023 97 10000 1.06 271 22:18 22.10.2020
6446 Clouds 13 1023 93 10000 1 0 21:42 22.10.2020
6447 Clouds 13 1023 96 10000 1.3 286 21:23 22.10.2020
6448 Clouds 13 1023 96 10000 1.3 286 20:56 22.10.2020
6449 Clouds 13 1024 93 10000 1.5 290 20:37 22.10.2020
6450 Clouds 13 1023 87 10000 1.5 290 20:18 22.10.2020
6451 Clouds 14 1023 87 10000 1 0 19:40 22.10.2020
6452 Clouds 14 1023 87 7000 1.5 270 19:19 22.10.2020
6453 Clouds 14 1023 87 6000 1.5 260 18:43 22.10.2020
6454 Mist 14 1023 87 5000 2.6 270 18:20 22.10.2020
6455 Mist 14 1023 87 5000 2.1 260 17:45 22.10.2020
6456 Mist 14 1023 87 5000 2.6 250 17:22 22.10.2020
6457 Mist 14 1023 87 5000 2.1 250 16:47 22.10.2020
6458 Mist 14 1023 87 5000 2.1 250 16:47 22.10.2020
6459 Mist 14 1023 87 5000 2.1 250 16:26 22.10.2020
6460 Clouds 14 1023 82 7000 2.1 260 15:57 22.10.2020
6461 Clouds 14 1023 82 7000 2.1 260 15:38 22.10.2020
6462 Clouds 14 1024 82 7000 2.6 250 15:19 22.10.2020
6463 Clouds 14 1024 87 7000 2.6 260 14:45 22.10.2020
6464 Clouds 14 1024 87 7000 2.1 270 14:24 22.10.2020
6465 Clouds 14 1024 87 6000 2.6 260 13:45 22.10.2020
6466 Clouds 14 1025 87 6000 2.6 260 13:23 22.10.2020
6467 Rain 14 1025 87 6000 3.1 270 12:47 22.10.2020
6468 Clouds 14 1025 87 6000 2.1 260 12:23 22.10.2020
6469 Clouds 14 1024 82 6000 1.5 250 11:48 22.10.2020
6470 Mist 13 1024 87 3000 1.5 250 11:20 22.10.2020
6471 Mist 13 1024 93 3000 1.5 260 10:49 22.10.2020
6472 Mist 13 1024 93 3000 1.5 260 10:27 22.10.2020
6473 Mist 13 1024 93 3000 1 0 09:46 22.10.2020
6474 Mist 13 1024 93 3000 1 0 09:26 22.10.2020
6475 Clouds 13 1023 87 10000 1.5 250 08:49 22.10.2020
6476 Clouds 13 1023 87 10000 1.5 250 08:27 22.10.2020
6477 Clouds 12 1023 87 10000 1 0 07:51 22.10.2020
6478 Clouds 12 1023 93 8000 2.1 280 07:32 22.10.2020
6479 Clouds 12 1023 93 6000 1.5 250 06:46 22.10.2020
6480 Clouds 12 1023 93 6000 1 0 06:25 22.10.2020
6481 Clouds 12 1023 93 6000 1.5 260 05:39 22.10.2020
6482 Clouds 13 1024 87 10000 1 0 03:37 22.10.2020
6483 Clouds 13 1024 87 10000 2.1 270 01:35 22.10.2020
6484 Clouds 13 1024 87 10000 2.1 250 00:24 22.10.2020
6485 Clouds 13 1024 82 10000 1.5 250 23:44 21.10.2020
6486 Clouds 13 1024 82 10000 1.5 250 23:22 21.10.2020
6487 Clouds 13 1024 82 10000 2.1 260 22:39 21.10.2020
6488 Clouds 13 1024 82 10000 2.1 260 22:19 21.10.2020
6489 Clouds 13 1024 82 9000 2.1 250 21:46 21.10.2020
6490 Clouds 14 1024 82 9000 2.1 260 21:20 21.10.2020
6491 Clouds 14 1024 82 9000 2.1 260 20:59 21.10.2020
6492 Clouds 14 1024 82 6000 1.5 250 20:40 21.10.2020
6493 Clouds 14 1023 82 6000 1 0 20:18 21.10.2020
6494 Clouds 14 1023 72 6000 1 0 19:41 21.10.2020
6495 Clouds 14 1023 72 6000 1.5 250 19:22 21.10.2020
6496 Clouds 14 1023 81 10000 1.54 274 18:52 21.10.2020
6497 Clouds 14 1023 80 10000 1.54 274 18:30 21.10.2020
6498 Clouds 15 1023 77 10000 1.92 275 17:50 21.10.2020
6499 Clouds 15 1023 67 6000 1.5 310 17:22 21.10.2020
6500 Clouds 15 1023 67 6000 1.5 310 16:58 21.10.2020
6501 Clouds 15 1023 67 6000 1.5 310 16:38 21.10.2020
6502 Clouds 16 1023 67 6000 2.1 290 16:19 21.10.2020
6503 Clouds 16 1024 63 6000 1.5 300 15:45 21.10.2020
6504 Clouds 16 1024 67 6000 2.1 300 15:21 21.10.2020
6505 Clouds 16 1024 63 6000 2.1 300 14:49 21.10.2020
6506 Mist 16 1024 72 5000 1.5 300 14:28 21.10.2020
6507 Mist 15 1024 72 5000 1.5 250 13:56 21.10.2020
6508 Mist 15 1024 72 5000 1.5 250 13:38 21.10.2020
6509 Mist 15 1025 72 5000 1 0 13:19 21.10.2020
6510 Mist 14 1025 82 3500 0.5 0 12:38 21.10.2020
6511 Mist 14 1025 82 3500 0.5 0 12:19 21.10.2020
6512 Mist 13 1025 93 3500 0.5 0 11:41 21.10.2020
6513 Fog 13 1025 87 3500 1 0 11:20 21.10.2020
6514 Fog 12 1024 93 3500 1 180 10:46 21.10.2020
6515 Fog 13 1024 100 3500 1 180 10:25 21.10.2020
6516 Fog 13 1024 100 3500 0.5 0 09:54 21.10.2020
6517 Fog 12 1024 100 3500 0.5 0 09:33 21.10.2020
6518 Fog 11 1024 100 2000 0.78 187 08:56 21.10.2020
6519 Fog 11 1023 100 1500 1 0 08:38 21.10.2020
6520 Fog 11 1023 100 1500 1 0 08:19 21.10.2020
6521 Fog 11 1023 100 1500 0.5 230 07:37 21.10.2020
6522 Fog 11 1023 100 7000 0.5 0 06:55 21.10.2020
6523 Fog 11 1023 100 5000 1 240 06:29 21.10.2020
6524 Clouds 11 1023 100 10000 0.5 0 04:47 21.10.2020
6525 Clouds 13 1024 87 9000 1 270 00:52 21.10.2020
6526 Clouds 13 1024 87 9000 0.5 240 23:49 20.10.2020
6527 Clouds 13 1024 87 7000 0.5 0 22:54 20.10.2020
6528 Fog 14 1024 87 8000 0.5 0 22:29 20.10.2020
6529 Clouds 13 1024 87 10000 0.5 0 21:50 20.10.2020
6530 Clouds 14 1024 87 10000 0.5 0 21:21 20.10.2020
6531 Clouds 14 1024 82 10000 1 180 20:56 20.10.2020
6532 Clouds 14 1024 82 10000 1 180 20:36 20.10.2020
6533 Clouds 14 1024 87 10000 1 180 20:18 20.10.2020
6534 Clouds 14 1024 76 10000 1 210 19:42 20.10.2020
6535 Clouds 14 1024 76 10000 1 0 19:22 20.10.2020
6536 Clouds 14 1024 72 6000 1.5 150 18:52 20.10.2020
6537 Clouds 15 1025 77 6000 0.5 0 18:34 20.10.2020
6538 Clouds 15 1025 72 6000 0.5 0 17:48 20.10.2020
6539 Clouds 15 1025 72 6000 0.5 0 17:29 20.10.2020
6540 Clouds 15 1025 72 6000 0.5 0 16:48 20.10.2020
6541 Clouds 15 1025 72 8000 1 0 16:28 20.10.2020
6542 Clouds 15 1025 72 8000 1.5 190 15:57 20.10.2020
6543 Clouds 15 1025 72 9000 1.5 200 15:38 20.10.2020
6544 Clouds 15 1025 72 9000 1.5 200 15:19 20.10.2020
6545 Clouds 15 1025 76 10000 1.5 170 14:41 20.10.2020
6546 Clouds 15 1025 76 10000 1.5 170 14:22 20.10.2020
6547 Clouds 15 1026 71 10000 1 0 13:44 20.10.2020
6548 Clouds 15 1026 67 10000 0.5 0 13:24 20.10.2020
6549 Clouds 15 1026 76 10000 1 0 12:58 20.10.2020
6550 Clouds 15 1026 76 10000 1 0 12:40 20.10.2020
6551 Clouds 15 1026 71 10000 2.1 120 12:21 20.10.2020
6552 Clouds 14 1025 76 10000 2.1 40 11:43 20.10.2020
6553 Clouds 13 1025 82 10000 1.5 30 11:25 20.10.2020
6554 Clouds 12 1025 81 10000 1 0 10:37 20.10.2020
6555 Clouds 12 1025 87 10000 1.5 60 10:19 20.10.2020
6556 Clouds 10 1025 100 10000 0.5 0 09:38 20.10.2020
6557 Clouds 9 1024 100 8000 1 10 09:18 20.10.2020
6558 Fog 8 1024 100 7000 0.5 0 08:37 20.10.2020
6559 Fog 8 1024 100 8000 0.5 350 07:53 20.10.2020
6560 Fog 8 1024 100 10000 0.5 0 07:26 20.10.2020
6561 Fog 8 1024 100 7000 0.5 20 06:31 20.10.2020
6562 Fog 8 1024 100 7000 0.5 0 05:43 20.10.2020
6563 Fog 9 1024 100 7000 1 350 03:56 20.10.2020
6564 Fog 10 1025 93 8000 0.5 20 02:19 20.10.2020
6565 Fog 10 1024 100 10000 0.5 350 00:59 20.10.2020
6566 Clouds 11 1024 100 10000 1 40 00:41 20.10.2020
6567 Clouds 11 1024 100 10000 1 40 00:20 20.10.2020
6568 Clouds 12 1024 89 10000 0.29 73 23:41 19.10.2020
6569 Clouds 11 1024 93 10000 0.5 0 23:21 19.10.2020
6570 Clouds 12 1024 93 10000 0.5 0 22:44 19.10.2020
6571 Clouds 12 1026 53 10000 0.89 1 22:21 19.10.2020
6572 Clouds 12 1024 93 10000 1 0 21:43 19.10.2020
6573 Clouds 13 1023 82 10000 1.21 198 21:22 19.10.2020
6574 Clouds 13 1024 93 10000 0.5 0 20:46 19.10.2020
6575 Clouds 14 1026 39 10000 1.79 261 20:27 19.10.2020
6576 Clouds 14 1023 87 10000 0.5 0 19:50 19.10.2020
6577 Clouds 15 1026 36 10000 1.34 227 19:24 19.10.2020
6578 Clouds 15 1023 67 10000 1 210 18:54 19.10.2020
6579 Clouds 15 1023 63 10000 1 0 18:36 19.10.2020
6580 Clouds 15 1023 63 10000 1 0 18:18 19.10.2020
6581 Clouds 16 1023 59 7000 1.5 240 17:43 19.10.2020
6582 Clouds 17 1023 59 7000 1.5 0 17:23 19.10.2020
6583 Clouds 17 1023 59 7000 1 0 16:43 19.10.2020
6584 Clouds 17 1023 63 7000 1.5 270 16:24 19.10.2020
6585 Clouds 16 1023 69 10000 0.4 76 15:43 19.10.2020
6586 Clouds 16 1026 32 10000 0.89 282 15:24 19.10.2020
6587 Clouds 16 1023 72 10000 0.45 342 14:51 19.10.2020
6588 Clouds 16 1024 76 10000 0.61 95 14:24 19.10.2020
6589 Clouds 16 1024 81 10000 0.45 314 13:52 19.10.2020
6590 Clouds 15 1024 81 10000 0.45 184 13:32 19.10.2020
6591 Clouds 14 1027 45 10000 1.79 165 12:51 19.10.2020
6592 Clouds 14 1024 80 10000 0.45 149 12:33 19.10.2020
6593 Clouds 14 1025 81 7000 0.5 0 11:51 19.10.2020
6594 Clouds 13 1025 81 7000 0.5 0 11:26 19.10.2020
6595 Clouds 13 1025 81 7000 0.5 0 10:56 19.10.2020
6596 Clouds 12 1025 100 7000 0.5 0 10:38 19.10.2020
6597 Clouds 12 1026 53 10000 1.34 222 10:19 19.10.2020
6598 Mist 10 1024 100 4000 1 270 09:42 19.10.2020
6599 Fog 10 1024 100 4000 0.5 360 09:19 19.10.2020
6600 Fog 9 1023 100 2500 0.5 280 08:48 19.10.2020
6601 Fog 9 1023 100 2500 0.5 280 08:22 19.10.2020
6602 Fog 8 1023 100 1000 1 350 07:38 19.10.2020
6603 Fog 9 1023 100 1500 0.92 98 07:18 19.10.2020
6604 Fog 9 1023 100 900 0.5 40 06:18 19.10.2020
6605 Fog 9 1023 100 8000 0.5 0 03:48 19.10.2020
6606 Fog 10 1023 100 9000 1 350 02:23 19.10.2020
6607 Clear 11 1022 100 10000 0.5 0 00:46 19.10.2020
6608 Clear 11 1022 100 10000 1 10 00:19 19.10.2020
6609 Clear 11 1022 93 10000 1.5 350 23:43 18.10.2020
6610 Clear 11 1022 100 10000 0.5 0 23:21 18.10.2020
6611 Clear 12 1022 100 10000 0.5 0 22:46 18.10.2020
6612 Clear 12 1022 100 10000 0.5 260 22:21 18.10.2020
6613 Clear 12 1022 100 10000 0.5 260 21:50 18.10.2020
6614 Clear 13 1022 100 10000 0.84 143 21:29 18.10.2020
6615 Clear 13 1021 87 10000 0.84 143 20:47 18.10.2020
6616 Clear 14 1021 87 10000 1.13 160 20:25 18.10.2020
6617 Clear 14 1021 87 10000 1.13 160 19:57 18.10.2020
6618 Clear 14 1021 82 10000 0.5 0 19:39 18.10.2020
6619 Clear 15 1020 72 10000 1 190 19:19 18.10.2020
6620 Clear 15 1020 67 10000 1 0 18:46 18.10.2020
6621 Clouds 16 1020 59 10000 1.5 190 18:24 18.10.2020
6622 Clouds 17 1020 63 10000 1.5 210 17:41 18.10.2020
6623 Clouds 17 1020 63 10000 1.5 210 17:22 18.10.2020
6624 Clouds 17 1020 59 10000 1 0 16:44 18.10.2020
6625 Clouds 17 1020 59 10000 1 0 16:44 18.10.2020
6626 Clouds 16 1020 63 10000 1.5 0 16:25 18.10.2020
6627 Clouds 16 1020 59 7000 1 0 15:45 18.10.2020
6628 Clouds 16 1021 67 6000 2.1 200 15:27 18.10.2020
6629 Clouds 16 1021 67 6000 2.1 200 14:58 18.10.2020
6630 Clouds 16 1021 67 6000 1.5 170 14:39 18.10.2020
6631 Clouds 16 1021 67 6000 1.5 170 14:39 18.10.2020
6632 Clouds 16 1021 67 6000 1.5 170 14:39 18.10.2020
6633 Clouds 16 1021 67 6000 1.5 170 14:39 18.10.2020
6634 Clouds 16 1021 72 6000 1.5 0 14:21 18.10.2020
6635 Clouds 16 1021 72 6000 2.1 120 13:43 18.10.2020
6636 Mist 15 1021 76 5000 1.5 80 13:25 18.10.2020
6637 Clear 15 1021 61 10000 0.89 120 12:44 18.10.2020
6638 Mist 14 1021 82 5000 1.5 130 12:24 18.10.2020
6639 Mist 13 1021 76 5000 2.1 140 11:55 18.10.2020
6640 Clouds 13 1021 76 6000 1.5 110 11:37 18.10.2020
6641 Clouds 13 1021 76 6000 1.5 110 11:18 18.10.2020
6642 Clouds 12 1020 76 6000 1.5 80 10:39 18.10.2020
6643 Mist 12 1020 87 5000 1 0 10:19 18.10.2020
6644 Clear 11 1022 57 10000 1.34 90 09:47 18.10.2020
6645 Mist 10 1019 100 5000 1 10 09:21 18.10.2020
6646 Mist 10 1019 100 5000 1 10 08:52 18.10.2020
6647 Mist 9 1019 100 4000 1.5 10 08:26 18.10.2020
6648 Fog 9 1018 100 7000 1.5 20 07:56 18.10.2020
6649 Fog 9 1018 100 7000 0.5 40 05:58 18.10.2020
6650 Clouds 10 1018 100 7000 0.5 330 03:55 18.10.2020
6651 Clouds 10 1018 100 7000 0.5 0 02:53 18.10.2020
6652 Clouds 11 1018 100 7000 0.5 340 01:31 18.10.2020
6653 Clouds 11 1017 93 10000 1 0 00:43 18.10.2020
6654 Clouds 11 1017 93 10000 1 0 00:20 18.10.2020
6655 Clouds 12 1017 93 10000 1 0 23:41 17.10.2020
6656 Clouds 12 1017 93 10000 1 0 23:21 17.10.2020
6657 Clouds 12 1017 93 10000 1 360 22:57 17.10.2020
6658 Clear 12 1017 100 10000 0.5 330 22:36 17.10.2020
6659 Clear 13 1016 61 10000 0.45 101 22:18 17.10.2020
6660 Clear 13 1016 93 10000 1.03 139 21:42 17.10.2020
6661 Clear 13 1016 87 10000 0.5 0 21:20 17.10.2020
6662 Clear 13 1016 87 10000 0.5 0 20:44 17.10.2020
6663 Clouds 14 1015 71 10000 1.5 120 20:20 17.10.2020
6664 Clouds 14 1015 62 10000 2.1 130 19:44 17.10.2020
6665 Clear 15 1015 62 10000 2.1 130 19:21 17.10.2020
6666 Clear 15 1014 59 10000 1.5 170 18:45 17.10.2020
6667 Clear 16 1014 59 10000 1.5 170 18:26 17.10.2020
6668 Clear 17 1014 55 10000 1.5 140 17:50 17.10.2020
6669 Clear 17 1014 55 10000 1.5 140 17:24 17.10.2020
6670 Clear 18 1014 55 10000 1.5 160 16:51 17.10.2020
6671 Clear 17 1014 55 10000 1.5 150 16:25 17.10.2020
6672 Clear 17 1014 55 10000 1.5 190 15:59 17.10.2020
6673 Clear 17 1014 63 10000 1.5 150 15:41 17.10.2020
6674 Clear 17 1014 63 10000 1.5 150 15:21 17.10.2020
6675 Clear 17 1015 63 10000 1 0 14:55 17.10.2020
6676 Clear 17 1015 55 10000 1.34 270 14:37 17.10.2020
6677 Clear 17 1015 57 10000 1.79 133 14:18 17.10.2020
6678 Clear 17 1015 57 10000 1.79 133 14:18 17.10.2020
6679 Clear 15 1015 76 10000 1.5 120 13:41 17.10.2020
6680 Clear 16 1015 60 10000 1.79 145 13:22 17.10.2020
6681 Clouds 14 1015 81 10000 1.5 0 12:41 17.10.2020
6682 Clouds 14 1015 81 10000 1.5 0 12:20 17.10.2020
6683 Clouds 14 1015 64 10000 1.22 140 11:58 17.10.2020
6684 Clouds 13 1015 81 10000 1 0 11:30 17.10.2020
6685 Clouds 11 1015 100 6000 1 0 10:46 17.10.2020
6686 Clouds 11 1015 100 6000 1 0 10:26 17.10.2020
6687 Fog 8 1014 100 1200 0.5 0 09:45 17.10.2020
6688 Fog 8 1014 100 1200 0.5 0 09:27 17.10.2020
6689 Fog 6 1014 100 1200 0.5 220 08:47 17.10.2020
6690 Fog 6 1014 100 1200 0.5 220 08:47 17.10.2020
6691 Fog 6 1013 100 3500 0.5 0 08:20 17.10.2020
6692 Fog 7 1013 100 2100 0.5 0 07:43 17.10.2020
6693 Fog 8 1013 100 250 0.5 0 06:44 17.10.2020
6694 Clouds 8 1013 100 9000 1 0 04:52 17.10.2020
6695 Fog 10 1013 100 350 0.5 0 02:29 17.10.2020
6696 Clouds 10 1014 93 7000 0.5 0 01:23 17.10.2020
6697 Clouds 10 1014 100 10000 0.5 0 00:37 17.10.2020
6698 Clouds 11 1013 93 10000 0.5 0 23:38 16.10.2020
6699 Clouds 11 1013 87 10000 0.5 0 23:20 16.10.2020
6700 Clouds 12 1013 93 10000 1 0 22:43 16.10.2020
6701 Clouds 12 1013 93 10000 1 0 22:23 16.10.2020
6702 Clouds 12 1013 93 10000 0.5 0 21:47 16.10.2020
6703 Clouds 12 1013 80 10000 1.59 219 21:26 16.10.2020
6704 Clouds 13 1013 87 10000 1 190 20:47 16.10.2020
6705 Clouds 13 1013 87 10000 1 190 20:47 16.10.2020
6706 Clouds 13 1013 87 10000 1 190 20:47 16.10.2020
6707 Clouds 13 1013 87 10000 1 190 20:47 16.10.2020
6708 Clouds 13 1012 76 10000 1 250 20:26 16.10.2020
6709 Clouds 13 1012 67 10000 1 0 19:54 16.10.2020
6710 Clouds 14 1012 67 10000 1 0 19:29 16.10.2020
6711 Clouds 14 1012 67 10000 2.1 260 18:58 16.10.2020
6712 Clouds 14 1012 72 10000 2.31 217 18:40 16.10.2020
6713 Clouds 15 1014 32 10000 1.34 254 18:21 16.10.2020
6714 Clouds 15 1012 63 10000 2.1 280 17:43 16.10.2020
6715 Clouds 16 1012 63 10000 2.6 270 17:24 16.10.2020
6716 Clouds 15 1012 63 10000 2.1 290 16:45 16.10.2020
6717 Clouds 15 1012 63 10000 2.1 290 16:27 16.10.2020
6718 Clouds 15 1013 59 10000 2.6 280 15:25 16.10.2020
6719 Clouds 15 1013 72 10000 2.6 340 14:59 16.10.2020
6720 Clouds 15 1013 76 10000 2.1 290 14:40 16.10.2020
6721 Clouds 15 1013 67 10000 1.5 0 14:18 16.10.2020
6722 Clouds 14 1013 71 10000 1 0 13:44 16.10.2020
6723 Clouds 14 1013 71 10000 1 0 13:25 16.10.2020
6724 Clouds 13 1013 76 10000 1.5 330 12:58 16.10.2020
6725 Drizzle 13 1013 87 8000 2.1 270 12:27 16.10.2020
6726 Drizzle 12 1013 93 6000 1.5 280 11:58 16.10.2020
6727 Drizzle 12 1013 87 6000 1 0 11:39 16.10.2020
6728 Drizzle 11 1013 93 6000 0.5 0 11:19 16.10.2020
6729 Drizzle 11 1013 93 6000 0.5 0 10:47 16.10.2020
6730 Drizzle 11 1013 93 4000 1 0 10:27 16.10.2020
6731 Drizzle 11 1012 93 3000 0.5 0 09:40 16.10.2020
6732 Drizzle 11 1012 93 3000 1.04 251 09:22 16.10.2020
6733 Drizzle 11 1012 93 3000 1.04 251 09:22 16.10.2020
6734 Drizzle 10 1011 100 3000